<?xml version="1.0" encoding="UTF-8" standalone="no" ?>
<gpx xmlns="http://www.topografix.com/GPX/1/1" xmlns:xsi="http://www.w3.org/2001/XMLSchema-instance" xsi:schemaLocation="http://www.topografix.com/GPX/1/1 http://www.topografix.com/GPX/1/1/gpx.xsd" version="1.1" creator="VisuGPX - https://www.visugpx.com">
  <metadata>
    <name>Ski Rando - Tour du Pic de la Camisette</name>
    <desc><![CDATA[Avec Patrick.

La Piste du début et fin est un peu longuette bien que magnifique (idéale pour rando nordique).
Passage en forêt un peu délicat (Le Ménudet) à voir monter directement au Pic de la Camisette par la Bague.
Le passage par Canrusc le Pla de Mounpudou est plus intéressant que la piste forestière.]]></desc>
  </metadata>
  <trk>
    <name><![CDATA[24-MARS-14 17:13:56]]></name>
    <trkseg>
      <trkpt lat="42.72802" lon="2.01716">
        <ele>1531.52</ele>
        <time>2014-03-24T07:57:59Z</time>
      </trkpt>
      <trkpt lat="42.72801" lon="2.01715">
        <ele>1531.52</ele>
        <time>2014-03-24T07:58:12Z</time>
      </trkpt>
      <trkpt lat="42.72801" lon="2.01716">
        <ele>1529.11</ele>
        <time>2014-03-24T07:58:41Z</time>
      </trkpt>
      <trkpt lat="42.72801" lon="2.01717">
        <ele>1530.56</ele>
        <time>2014-03-24T07:58:56Z</time>
      </trkpt>
      <trkpt lat="42.72802" lon="2.01717">
        <ele>1528.63</ele>
        <time>2014-03-24T07:59:31Z</time>
      </trkpt>
      <trkpt lat="42.72802" lon="2.01716">
        <ele>1527.19</ele>
        <time>2014-03-24T08:00:10Z</time>
      </trkpt>
      <trkpt lat="42.72801" lon="2.01714">
        <ele>1526.23</ele>
        <time>2014-03-24T08:00:26Z</time>
      </trkpt>
      <trkpt lat="42.72802" lon="2.01716">
        <ele>1528.63</ele>
        <time>2014-03-24T08:01:01Z</time>
      </trkpt>
      <trkpt lat="42.72801" lon="2.01714">
        <ele>1528.15</ele>
        <time>2014-03-24T08:01:33Z</time>
      </trkpt>
      <trkpt lat="42.72802" lon="2.01715">
        <ele>1528.63</ele>
        <time>2014-03-24T08:02:10Z</time>
      </trkpt>
      <trkpt lat="42.72802" lon="2.01713">
        <ele>1530.56</ele>
        <time>2014-03-24T08:02:48Z</time>
      </trkpt>
      <trkpt lat="42.72801" lon="2.01715">
        <ele>1531.52</ele>
        <time>2014-03-24T08:03:20Z</time>
      </trkpt>
      <trkpt lat="42.72801" lon="2.01715">
        <ele>1531.52</ele>
        <time>2014-03-24T08:04:00Z</time>
      </trkpt>
      <trkpt lat="42.72801" lon="2.01714">
        <ele>1531.04</ele>
        <time>2014-03-24T08:04:43Z</time>
      </trkpt>
      <trkpt lat="42.72802" lon="2.01715">
        <ele>1532.96</ele>
        <time>2014-03-24T08:05:30Z</time>
      </trkpt>
      <trkpt lat="42.72803" lon="2.01715">
        <ele>1533.92</ele>
        <time>2014-03-24T08:06:07Z</time>
      </trkpt>
      <trkpt lat="42.72801" lon="2.01715">
        <ele>1530.56</ele>
        <time>2014-03-24T08:06:38Z</time>
      </trkpt>
      <trkpt lat="42.72801" lon="2.01715">
        <ele>1531.04</ele>
        <time>2014-03-24T08:06:54Z</time>
      </trkpt>
      <trkpt lat="42.72801" lon="2.01716">
        <ele>1531.04</ele>
        <time>2014-03-24T08:07:19Z</time>
      </trkpt>
      <trkpt lat="42.72803" lon="2.01717">
        <ele>1530.56</ele>
        <time>2014-03-24T08:07:50Z</time>
      </trkpt>
      <trkpt lat="42.72803" lon="2.01716">
        <ele>1530.56</ele>
        <time>2014-03-24T08:08:28Z</time>
      </trkpt>
      <trkpt lat="42.72802" lon="2.01715">
        <ele>1530.56</ele>
        <time>2014-03-24T08:08:49Z</time>
      </trkpt>
      <trkpt lat="42.728" lon="2.01713">
        <ele>1532</ele>
        <time>2014-03-24T08:09:04Z</time>
      </trkpt>
      <trkpt lat="42.728" lon="2.01716">
        <ele>1532.48</ele>
        <time>2014-03-24T08:09:19Z</time>
      </trkpt>
      <trkpt lat="42.72799" lon="2.01716">
        <ele>1536.8</ele>
        <time>2014-03-24T08:09:37Z</time>
      </trkpt>
      <trkpt lat="42.728" lon="2.01714">
        <ele>1535.36</ele>
        <time>2014-03-24T08:09:47Z</time>
      </trkpt>
      <trkpt lat="42.72799" lon="2.01714">
        <ele>1536.8</ele>
        <time>2014-03-24T08:10:02Z</time>
      </trkpt>
      <trkpt lat="42.728" lon="2.01717">
        <ele>1535.84</ele>
        <time>2014-03-24T08:10:17Z</time>
      </trkpt>
      <trkpt lat="42.728" lon="2.0172">
        <ele>1534.4</ele>
        <time>2014-03-24T08:10:34Z</time>
      </trkpt>
      <trkpt lat="42.728" lon="2.0172">
        <ele>1534.4</ele>
        <time>2014-03-24T08:10:41Z</time>
      </trkpt>
      <trkpt lat="42.72798" lon="2.01717">
        <ele>1534.88</ele>
        <time>2014-03-24T08:10:44Z</time>
      </trkpt>
      <trkpt lat="42.72796" lon="2.01711">
        <ele>1533.92</ele>
        <time>2014-03-24T08:10:48Z</time>
      </trkpt>
      <trkpt lat="42.72785" lon="2.01692">
        <ele>1534.88</ele>
        <time>2014-03-24T08:11:04Z</time>
      </trkpt>
      <trkpt lat="42.7278" lon="2.01686">
        <ele>1534.88</ele>
        <time>2014-03-24T08:11:10Z</time>
      </trkpt>
      <trkpt lat="42.72777" lon="2.01679">
        <ele>1534.88</ele>
        <time>2014-03-24T08:11:20Z</time>
      </trkpt>
      <trkpt lat="42.72777" lon="2.01679">
        <ele>1534.88</ele>
        <time>2014-03-24T08:11:28Z</time>
      </trkpt>
      <trkpt lat="42.72777" lon="2.0168">
        <ele>1534.88</ele>
        <time>2014-03-24T08:11:40Z</time>
      </trkpt>
      <trkpt lat="42.72775" lon="2.01678">
        <ele>1535.36</ele>
        <time>2014-03-24T08:11:55Z</time>
      </trkpt>
      <trkpt lat="42.72777" lon="2.01679">
        <ele>1534.4</ele>
        <time>2014-03-24T08:12:05Z</time>
      </trkpt>
      <trkpt lat="42.72777" lon="2.01676">
        <ele>1533.44</ele>
        <time>2014-03-24T08:12:22Z</time>
      </trkpt>
      <trkpt lat="42.72775" lon="2.01675">
        <ele>1532.96</ele>
        <time>2014-03-24T08:12:40Z</time>
      </trkpt>
      <trkpt lat="42.72776" lon="2.01678">
        <ele>1534.4</ele>
        <time>2014-03-24T08:12:55Z</time>
      </trkpt>
      <trkpt lat="42.72775" lon="2.01678">
        <ele>1534.4</ele>
        <time>2014-03-24T08:13:18Z</time>
      </trkpt>
      <trkpt lat="42.72773" lon="2.01672">
        <ele>1534.4</ele>
        <time>2014-03-24T08:13:32Z</time>
      </trkpt>
      <trkpt lat="42.7277" lon="2.01668">
        <ele>1533.44</ele>
        <time>2014-03-24T08:13:37Z</time>
      </trkpt>
      <trkpt lat="42.72763" lon="2.01654">
        <ele>1533.92</ele>
        <time>2014-03-24T08:13:52Z</time>
      </trkpt>
      <trkpt lat="42.72756" lon="2.0164">
        <ele>1534.4</ele>
        <time>2014-03-24T08:14:08Z</time>
      </trkpt>
      <trkpt lat="42.72753" lon="2.01625">
        <ele>1535.36</ele>
        <time>2014-03-24T08:14:24Z</time>
      </trkpt>
      <trkpt lat="42.72749" lon="2.01612">
        <ele>1537.29</ele>
        <time>2014-03-24T08:14:38Z</time>
      </trkpt>
      <trkpt lat="42.72746" lon="2.01598">
        <ele>1539.21</ele>
        <time>2014-03-24T08:14:52Z</time>
      </trkpt>
      <trkpt lat="42.72739" lon="2.01584">
        <ele>1540.65</ele>
        <time>2014-03-24T08:15:08Z</time>
      </trkpt>
      <trkpt lat="42.72734" lon="2.01574">
        <ele>1542.09</ele>
        <time>2014-03-24T08:15:22Z</time>
      </trkpt>
      <trkpt lat="42.72729" lon="2.01564">
        <ele>1543.53</ele>
        <time>2014-03-24T08:15:39Z</time>
      </trkpt>
      <trkpt lat="42.72726" lon="2.0156">
        <ele>1544.5</ele>
        <time>2014-03-24T08:15:52Z</time>
      </trkpt>
      <trkpt lat="42.72721" lon="2.01551">
        <ele>1545.46</ele>
        <time>2014-03-24T08:16:07Z</time>
      </trkpt>
      <trkpt lat="42.72715" lon="2.01542">
        <ele>1548.34</ele>
        <time>2014-03-24T08:16:24Z</time>
      </trkpt>
      <trkpt lat="42.72709" lon="2.01532">
        <ele>1550.74</ele>
        <time>2014-03-24T08:16:39Z</time>
      </trkpt>
      <trkpt lat="42.72705" lon="2.01524">
        <ele>1554.11</ele>
        <time>2014-03-24T08:16:53Z</time>
      </trkpt>
      <trkpt lat="42.72699" lon="2.01515">
        <ele>1556.51</ele>
        <time>2014-03-24T08:17:10Z</time>
      </trkpt>
      <trkpt lat="42.72693" lon="2.01507">
        <ele>1560.36</ele>
        <time>2014-03-24T08:17:27Z</time>
      </trkpt>
      <trkpt lat="42.72693" lon="2.01503">
        <ele>1560.84</ele>
        <time>2014-03-24T08:17:43Z</time>
      </trkpt>
      <trkpt lat="42.72688" lon="2.01498">
        <ele>1559.88</ele>
        <time>2014-03-24T08:17:58Z</time>
      </trkpt>
      <trkpt lat="42.72686" lon="2.01491">
        <ele>1561.8</ele>
        <time>2014-03-24T08:18:12Z</time>
      </trkpt>
      <trkpt lat="42.72682" lon="2.01485">
        <ele>1562.28</ele>
        <time>2014-03-24T08:18:29Z</time>
      </trkpt>
      <trkpt lat="42.72678" lon="2.01478">
        <ele>1563.72</ele>
        <time>2014-03-24T08:18:44Z</time>
      </trkpt>
      <trkpt lat="42.72672" lon="2.01472">
        <ele>1566.61</ele>
        <time>2014-03-24T08:18:59Z</time>
      </trkpt>
      <trkpt lat="42.72667" lon="2.01466">
        <ele>1569.97</ele>
        <time>2014-03-24T08:19:13Z</time>
      </trkpt>
      <trkpt lat="42.72662" lon="2.01461">
        <ele>1572.85</ele>
        <time>2014-03-24T08:19:27Z</time>
      </trkpt>
      <trkpt lat="42.72654" lon="2.01459">
        <ele>1576.22</ele>
        <time>2014-03-24T08:19:42Z</time>
      </trkpt>
      <trkpt lat="42.72647" lon="2.01457">
        <ele>1578.62</ele>
        <time>2014-03-24T08:19:58Z</time>
      </trkpt>
      <trkpt lat="42.72642" lon="2.01451">
        <ele>1581.99</ele>
        <time>2014-03-24T08:20:11Z</time>
      </trkpt>
      <trkpt lat="42.72641" lon="2.01442">
        <ele>1584.87</ele>
        <time>2014-03-24T08:20:24Z</time>
      </trkpt>
      <trkpt lat="42.72639" lon="2.01434">
        <ele>1586.79</ele>
        <time>2014-03-24T08:20:39Z</time>
      </trkpt>
      <trkpt lat="42.72637" lon="2.01424">
        <ele>1588.72</ele>
        <time>2014-03-24T08:20:53Z</time>
      </trkpt>
      <trkpt lat="42.72635" lon="2.01414">
        <ele>1589.68</ele>
        <time>2014-03-24T08:21:10Z</time>
      </trkpt>
      <trkpt lat="42.72631" lon="2.01405">
        <ele>1591.6</ele>
        <time>2014-03-24T08:21:25Z</time>
      </trkpt>
      <trkpt lat="42.72629" lon="2.01398">
        <ele>1594.48</ele>
        <time>2014-03-24T08:21:38Z</time>
      </trkpt>
      <trkpt lat="42.72624" lon="2.01389">
        <ele>1596.41</ele>
        <time>2014-03-24T08:21:53Z</time>
      </trkpt>
      <trkpt lat="42.72619" lon="2.01381">
        <ele>1598.33</ele>
        <time>2014-03-24T08:22:09Z</time>
      </trkpt>
      <trkpt lat="42.72614" lon="2.01376">
        <ele>1600.73</ele>
        <time>2014-03-24T08:22:22Z</time>
      </trkpt>
      <trkpt lat="42.72608" lon="2.01368">
        <ele>1602.17</ele>
        <time>2014-03-24T08:22:39Z</time>
      </trkpt>
      <trkpt lat="42.72603" lon="2.01362">
        <ele>1603.14</ele>
        <time>2014-03-24T08:22:56Z</time>
      </trkpt>
      <trkpt lat="42.72598" lon="2.01354">
        <ele>1605.06</ele>
        <time>2014-03-24T08:23:13Z</time>
      </trkpt>
      <trkpt lat="42.72594" lon="2.01348">
        <ele>1606.02</ele>
        <time>2014-03-24T08:23:28Z</time>
      </trkpt>
      <trkpt lat="42.7259" lon="2.01342">
        <ele>1606.98</ele>
        <time>2014-03-24T08:23:42Z</time>
      </trkpt>
      <trkpt lat="42.72586" lon="2.01337">
        <ele>1609.38</ele>
        <time>2014-03-24T08:23:58Z</time>
      </trkpt>
      <trkpt lat="42.72581" lon="2.01333">
        <ele>1610.83</ele>
        <time>2014-03-24T08:24:11Z</time>
      </trkpt>
      <trkpt lat="42.72574" lon="2.01327">
        <ele>1614.67</ele>
        <time>2014-03-24T08:24:28Z</time>
      </trkpt>
      <trkpt lat="42.72569" lon="2.0132">
        <ele>1617.56</ele>
        <time>2014-03-24T08:24:45Z</time>
      </trkpt>
      <trkpt lat="42.72566" lon="2.01313">
        <ele>1619</ele>
        <time>2014-03-24T08:24:58Z</time>
      </trkpt>
      <trkpt lat="42.72561" lon="2.01305">
        <ele>1621.88</ele>
        <time>2014-03-24T08:25:14Z</time>
      </trkpt>
      <trkpt lat="42.72556" lon="2.01295">
        <ele>1622.84</ele>
        <time>2014-03-24T08:25:29Z</time>
      </trkpt>
      <trkpt lat="42.72555" lon="2.01291">
        <ele>1625.25</ele>
        <time>2014-03-24T08:25:45Z</time>
      </trkpt>
      <trkpt lat="42.72549" lon="2.01281">
        <ele>1624.77</ele>
        <time>2014-03-24T08:26:00Z</time>
      </trkpt>
      <trkpt lat="42.72543" lon="2.01271">
        <ele>1627.65</ele>
        <time>2014-03-24T08:26:15Z</time>
      </trkpt>
      <trkpt lat="42.72538" lon="2.01259">
        <ele>1629.57</ele>
        <time>2014-03-24T08:26:29Z</time>
      </trkpt>
      <trkpt lat="42.72533" lon="2.01251">
        <ele>1631.98</ele>
        <time>2014-03-24T08:26:44Z</time>
      </trkpt>
      <trkpt lat="42.72527" lon="2.01243">
        <ele>1633.42</ele>
        <time>2014-03-24T08:27:01Z</time>
      </trkpt>
      <trkpt lat="42.72523" lon="2.01234">
        <ele>1633.9</ele>
        <time>2014-03-24T08:27:16Z</time>
      </trkpt>
      <trkpt lat="42.72517" lon="2.01225">
        <ele>1635.82</ele>
        <time>2014-03-24T08:27:31Z</time>
      </trkpt>
      <trkpt lat="42.72511" lon="2.01216">
        <ele>1637.26</ele>
        <time>2014-03-24T08:27:47Z</time>
      </trkpt>
      <trkpt lat="42.72504" lon="2.01207">
        <ele>1638.7</ele>
        <time>2014-03-24T08:28:00Z</time>
      </trkpt>
      <trkpt lat="42.72498" lon="2.01197">
        <ele>1640.63</ele>
        <time>2014-03-24T08:28:14Z</time>
      </trkpt>
      <trkpt lat="42.72494" lon="2.0119">
        <ele>1641.11</ele>
        <time>2014-03-24T08:28:26Z</time>
      </trkpt>
      <trkpt lat="42.72489" lon="2.01184">
        <ele>1641.11</ele>
        <time>2014-03-24T08:28:43Z</time>
      </trkpt>
      <trkpt lat="42.72481" lon="2.01175">
        <ele>1641.59</ele>
        <time>2014-03-24T08:28:59Z</time>
      </trkpt>
      <trkpt lat="42.72474" lon="2.01165">
        <ele>1643.99</ele>
        <time>2014-03-24T08:29:16Z</time>
      </trkpt>
      <trkpt lat="42.72467" lon="2.01155">
        <ele>1647.36</ele>
        <time>2014-03-24T08:29:32Z</time>
      </trkpt>
      <trkpt lat="42.7246" lon="2.0115">
        <ele>1648.8</ele>
        <time>2014-03-24T08:29:47Z</time>
      </trkpt>
      <trkpt lat="42.72452" lon="2.01146">
        <ele>1648.32</ele>
        <time>2014-03-24T08:30:03Z</time>
      </trkpt>
      <trkpt lat="42.72445" lon="2.01148">
        <ele>1650.72</ele>
        <time>2014-03-24T08:30:18Z</time>
      </trkpt>
      <trkpt lat="42.72437" lon="2.01152">
        <ele>1649.76</ele>
        <time>2014-03-24T08:30:32Z</time>
      </trkpt>
      <trkpt lat="42.72432" lon="2.01153">
        <ele>1649.76</ele>
        <time>2014-03-24T08:30:43Z</time>
      </trkpt>
      <trkpt lat="42.72427" lon="2.01155">
        <ele>1651.2</ele>
        <time>2014-03-24T08:30:57Z</time>
      </trkpt>
      <trkpt lat="42.72424" lon="2.01156">
        <ele>1653.6</ele>
        <time>2014-03-24T08:31:13Z</time>
      </trkpt>
      <trkpt lat="42.72425" lon="2.01152">
        <ele>1654.57</ele>
        <time>2014-03-24T08:31:30Z</time>
      </trkpt>
      <trkpt lat="42.72421" lon="2.01143">
        <ele>1658.41</ele>
        <time>2014-03-24T08:31:44Z</time>
      </trkpt>
      <trkpt lat="42.72416" lon="2.01134">
        <ele>1661.3</ele>
        <time>2014-03-24T08:32:00Z</time>
      </trkpt>
      <trkpt lat="42.72412" lon="2.01126">
        <ele>1661.3</ele>
        <time>2014-03-24T08:32:14Z</time>
      </trkpt>
      <trkpt lat="42.72407" lon="2.01114">
        <ele>1662.74</ele>
        <time>2014-03-24T08:32:27Z</time>
      </trkpt>
      <trkpt lat="42.72402" lon="2.01105">
        <ele>1666.1</ele>
        <time>2014-03-24T08:32:41Z</time>
      </trkpt>
      <trkpt lat="42.72398" lon="2.01102">
        <ele>1668.02</ele>
        <time>2014-03-24T08:32:45Z</time>
      </trkpt>
      <trkpt lat="42.72378" lon="2.01094">
        <ele>1668.02</ele>
        <time>2014-03-24T08:33:02Z</time>
      </trkpt>
      <trkpt lat="42.72362" lon="2.01093">
        <ele>1665.62</ele>
        <time>2014-03-24T08:33:13Z</time>
      </trkpt>
      <trkpt lat="42.72351" lon="2.0109">
        <ele>1663.7</ele>
        <time>2014-03-24T08:33:27Z</time>
      </trkpt>
      <trkpt lat="42.72346" lon="2.01091">
        <ele>1660.81</ele>
        <time>2014-03-24T08:33:39Z</time>
      </trkpt>
      <trkpt lat="42.72339" lon="2.01092">
        <ele>1661.3</ele>
        <time>2014-03-24T08:33:51Z</time>
      </trkpt>
      <trkpt lat="42.72332" lon="2.01093">
        <ele>1659.37</ele>
        <time>2014-03-24T08:34:02Z</time>
      </trkpt>
      <trkpt lat="42.72323" lon="2.01094">
        <ele>1663.7</ele>
        <time>2014-03-24T08:34:15Z</time>
      </trkpt>
      <trkpt lat="42.7232" lon="2.0109">
        <ele>1664.18</ele>
        <time>2014-03-24T08:34:18Z</time>
      </trkpt>
      <trkpt lat="42.72312" lon="2.01078">
        <ele>1669.95</ele>
        <time>2014-03-24T08:34:33Z</time>
      </trkpt>
      <trkpt lat="42.72307" lon="2.01087">
        <ele>1672.83</ele>
        <time>2014-03-24T08:34:45Z</time>
      </trkpt>
      <trkpt lat="42.72306" lon="2.01101">
        <ele>1674.27</ele>
        <time>2014-03-24T08:35:01Z</time>
      </trkpt>
      <trkpt lat="42.72306" lon="2.01103">
        <ele>1676.68</ele>
        <time>2014-03-24T08:35:17Z</time>
      </trkpt>
      <trkpt lat="42.72304" lon="2.01103">
        <ele>1676.68</ele>
        <time>2014-03-24T08:35:37Z</time>
      </trkpt>
      <trkpt lat="42.72304" lon="2.01104">
        <ele>1673.79</ele>
        <time>2014-03-24T08:35:51Z</time>
      </trkpt>
      <trkpt lat="42.72301" lon="2.01104">
        <ele>1672.83</ele>
        <time>2014-03-24T08:36:16Z</time>
      </trkpt>
      <trkpt lat="42.72302" lon="2.01103">
        <ele>1674.75</ele>
        <time>2014-03-24T08:36:32Z</time>
      </trkpt>
      <trkpt lat="42.72301" lon="2.01101">
        <ele>1679.08</ele>
        <time>2014-03-24T08:36:44Z</time>
      </trkpt>
      <trkpt lat="42.723" lon="2.01104">
        <ele>1681</ele>
        <time>2014-03-24T08:37:02Z</time>
      </trkpt>
      <trkpt lat="42.72301" lon="2.01118">
        <ele>1684.85</ele>
        <time>2014-03-24T08:37:23Z</time>
      </trkpt>
      <trkpt lat="42.723" lon="2.01131">
        <ele>1681</ele>
        <time>2014-03-24T08:37:37Z</time>
      </trkpt>
      <trkpt lat="42.72302" lon="2.0115">
        <ele>1678.6</ele>
        <time>2014-03-24T08:37:52Z</time>
      </trkpt>
      <trkpt lat="42.72301" lon="2.01157">
        <ele>1677.64</ele>
        <time>2014-03-24T08:37:57Z</time>
      </trkpt>
      <trkpt lat="42.72305" lon="2.01179">
        <ele>1673.31</ele>
        <time>2014-03-24T08:38:14Z</time>
      </trkpt>
      <trkpt lat="42.72301" lon="2.01186">
        <ele>1674.27</ele>
        <time>2014-03-24T08:38:28Z</time>
      </trkpt>
      <trkpt lat="42.72296" lon="2.01191">
        <ele>1675.72</ele>
        <time>2014-03-24T08:38:41Z</time>
      </trkpt>
      <trkpt lat="42.72291" lon="2.01204">
        <ele>1678.6</ele>
        <time>2014-03-24T08:38:54Z</time>
      </trkpt>
      <trkpt lat="42.72291" lon="2.01206">
        <ele>1678.6</ele>
        <time>2014-03-24T08:38:55Z</time>
      </trkpt>
      <trkpt lat="42.7229" lon="2.01223">
        <ele>1677.16</ele>
        <time>2014-03-24T08:39:09Z</time>
      </trkpt>
      <trkpt lat="42.72293" lon="2.01236">
        <ele>1676.2</ele>
        <time>2014-03-24T08:39:17Z</time>
      </trkpt>
      <trkpt lat="42.72293" lon="2.01248">
        <ele>1676.68</ele>
        <time>2014-03-24T08:39:30Z</time>
      </trkpt>
      <trkpt lat="42.72291" lon="2.01251">
        <ele>1677.64</ele>
        <time>2014-03-24T08:39:44Z</time>
      </trkpt>
      <trkpt lat="42.7229" lon="2.01253">
        <ele>1677.64</ele>
        <time>2014-03-24T08:40:04Z</time>
      </trkpt>
      <trkpt lat="42.72288" lon="2.01253">
        <ele>1680.04</ele>
        <time>2014-03-24T08:40:27Z</time>
      </trkpt>
      <trkpt lat="42.72288" lon="2.01255">
        <ele>1680.04</ele>
        <time>2014-03-24T08:40:33Z</time>
      </trkpt>
      <trkpt lat="42.72301" lon="2.01274">
        <ele>1675.72</ele>
        <time>2014-03-24T08:40:49Z</time>
      </trkpt>
      <trkpt lat="42.72309" lon="2.01297">
        <ele>1673.31</ele>
        <time>2014-03-24T08:41:02Z</time>
      </trkpt>
      <trkpt lat="42.72309" lon="2.01323">
        <ele>1671.87</ele>
        <time>2014-03-24T08:41:16Z</time>
      </trkpt>
      <trkpt lat="42.72302" lon="2.0133">
        <ele>1672.35</ele>
        <time>2014-03-24T08:41:30Z</time>
      </trkpt>
      <trkpt lat="42.723" lon="2.01329">
        <ele>1672.35</ele>
        <time>2014-03-24T08:41:36Z</time>
      </trkpt>
      <trkpt lat="42.72291" lon="2.01323">
        <ele>1673.79</ele>
        <time>2014-03-24T08:41:47Z</time>
      </trkpt>
      <trkpt lat="42.7229" lon="2.01321">
        <ele>1674.27</ele>
        <time>2014-03-24T08:41:49Z</time>
      </trkpt>
      <trkpt lat="42.72282" lon="2.01304">
        <ele>1674.27</ele>
        <time>2014-03-24T08:42:01Z</time>
      </trkpt>
      <trkpt lat="42.72281" lon="2.01302">
        <ele>1674.75</ele>
        <time>2014-03-24T08:42:03Z</time>
      </trkpt>
      <trkpt lat="42.7227" lon="2.01281">
        <ele>1672.35</ele>
        <time>2014-03-24T08:42:18Z</time>
      </trkpt>
      <trkpt lat="42.72261" lon="2.01271">
        <ele>1672.35</ele>
        <time>2014-03-24T08:42:33Z</time>
      </trkpt>
      <trkpt lat="42.7225" lon="2.01262">
        <ele>1672.83</ele>
        <time>2014-03-24T08:42:46Z</time>
      </trkpt>
      <trkpt lat="42.72237" lon="2.01251">
        <ele>1668.51</ele>
        <time>2014-03-24T08:42:58Z</time>
      </trkpt>
      <trkpt lat="42.7223" lon="2.01247">
        <ele>1665.14</ele>
        <time>2014-03-24T08:43:06Z</time>
      </trkpt>
      <trkpt lat="42.72228" lon="2.01247">
        <ele>1665.14</ele>
        <time>2014-03-24T08:43:07Z</time>
      </trkpt>
      <trkpt lat="42.72212" lon="2.01246">
        <ele>1665.14</ele>
        <time>2014-03-24T08:43:19Z</time>
      </trkpt>
      <trkpt lat="42.72198" lon="2.01248">
        <ele>1665.14</ele>
        <time>2014-03-24T08:43:31Z</time>
      </trkpt>
      <trkpt lat="42.72186" lon="2.01246">
        <ele>1666.58</ele>
        <time>2014-03-24T08:43:44Z</time>
      </trkpt>
      <trkpt lat="42.72172" lon="2.01243">
        <ele>1668.02</ele>
        <time>2014-03-24T08:43:59Z</time>
      </trkpt>
      <trkpt lat="42.7216" lon="2.01238">
        <ele>1670.43</ele>
        <time>2014-03-24T08:44:14Z</time>
      </trkpt>
      <trkpt lat="42.72143" lon="2.01235">
        <ele>1671.87</ele>
        <time>2014-03-24T08:44:29Z</time>
      </trkpt>
      <trkpt lat="42.72137" lon="2.01234">
        <ele>1671.39</ele>
        <time>2014-03-24T08:44:46Z</time>
      </trkpt>
      <trkpt lat="42.72133" lon="2.01228">
        <ele>1674.27</ele>
        <time>2014-03-24T08:45:11Z</time>
      </trkpt>
      <trkpt lat="42.72131" lon="2.01229">
        <ele>1675.23</ele>
        <time>2014-03-24T08:45:39Z</time>
      </trkpt>
      <trkpt lat="42.72122" lon="2.01232">
        <ele>1673.31</ele>
        <time>2014-03-24T08:45:48Z</time>
      </trkpt>
      <trkpt lat="42.72117" lon="2.01237">
        <ele>1670.91</ele>
        <time>2014-03-24T08:46:01Z</time>
      </trkpt>
      <trkpt lat="42.72114" lon="2.01243">
        <ele>1668.51</ele>
        <time>2014-03-24T08:46:11Z</time>
      </trkpt>
      <trkpt lat="42.72113" lon="2.01244">
        <ele>1668.51</ele>
        <time>2014-03-24T08:46:12Z</time>
      </trkpt>
      <trkpt lat="42.72113" lon="2.01245">
        <ele>1668.02</ele>
        <time>2014-03-24T08:46:13Z</time>
      </trkpt>
      <trkpt lat="42.72105" lon="2.01265">
        <ele>1668.02</ele>
        <time>2014-03-24T08:46:27Z</time>
      </trkpt>
      <trkpt lat="42.72096" lon="2.01279">
        <ele>1667.54</ele>
        <time>2014-03-24T08:46:40Z</time>
      </trkpt>
      <trkpt lat="42.72086" lon="2.01289">
        <ele>1667.06</ele>
        <time>2014-03-24T08:46:53Z</time>
      </trkpt>
      <trkpt lat="42.72085" lon="2.0129">
        <ele>1666.58</ele>
        <time>2014-03-24T08:46:55Z</time>
      </trkpt>
      <trkpt lat="42.72079" lon="2.01293">
        <ele>1665.62</ele>
        <time>2014-03-24T08:47:07Z</time>
      </trkpt>
      <trkpt lat="42.72078" lon="2.01294">
        <ele>1665.62</ele>
        <time>2014-03-24T08:47:08Z</time>
      </trkpt>
      <trkpt lat="42.72071" lon="2.01297">
        <ele>1664.66</ele>
        <time>2014-03-24T08:47:18Z</time>
      </trkpt>
      <trkpt lat="42.7207" lon="2.01298">
        <ele>1664.66</ele>
        <time>2014-03-24T08:47:19Z</time>
      </trkpt>
      <trkpt lat="42.72069" lon="2.01298">
        <ele>1664.66</ele>
        <time>2014-03-24T08:47:20Z</time>
      </trkpt>
      <trkpt lat="42.72068" lon="2.01299">
        <ele>1664.66</ele>
        <time>2014-03-24T08:47:21Z</time>
      </trkpt>
      <trkpt lat="42.72058" lon="2.01309">
        <ele>1666.1</ele>
        <time>2014-03-24T08:47:34Z</time>
      </trkpt>
      <trkpt lat="42.7205" lon="2.0132">
        <ele>1668.51</ele>
        <time>2014-03-24T08:47:46Z</time>
      </trkpt>
      <trkpt lat="42.72043" lon="2.0133">
        <ele>1668.02</ele>
        <time>2014-03-24T08:47:58Z</time>
      </trkpt>
      <trkpt lat="42.72036" lon="2.0134">
        <ele>1667.06</ele>
        <time>2014-03-24T08:48:11Z</time>
      </trkpt>
      <trkpt lat="42.7203" lon="2.01351">
        <ele>1667.54</ele>
        <time>2014-03-24T08:48:24Z</time>
      </trkpt>
      <trkpt lat="42.72022" lon="2.01363">
        <ele>1665.62</ele>
        <time>2014-03-24T08:48:37Z</time>
      </trkpt>
      <trkpt lat="42.72017" lon="2.01379">
        <ele>1665.14</ele>
        <time>2014-03-24T08:48:52Z</time>
      </trkpt>
      <trkpt lat="42.72011" lon="2.01391">
        <ele>1664.18</ele>
        <time>2014-03-24T08:49:05Z</time>
      </trkpt>
      <trkpt lat="42.72004" lon="2.01404">
        <ele>1664.66</ele>
        <time>2014-03-24T08:49:18Z</time>
      </trkpt>
      <trkpt lat="42.71996" lon="2.0142">
        <ele>1665.62</ele>
        <time>2014-03-24T08:49:32Z</time>
      </trkpt>
      <trkpt lat="42.7199" lon="2.01433">
        <ele>1666.58</ele>
        <time>2014-03-24T08:49:44Z</time>
      </trkpt>
      <trkpt lat="42.71982" lon="2.01449">
        <ele>1668.99</ele>
        <time>2014-03-24T08:49:59Z</time>
      </trkpt>
      <trkpt lat="42.71972" lon="2.01463">
        <ele>1668.51</ele>
        <time>2014-03-24T08:50:14Z</time>
      </trkpt>
      <trkpt lat="42.71965" lon="2.01472">
        <ele>1667.54</ele>
        <time>2014-03-24T08:50:26Z</time>
      </trkpt>
      <trkpt lat="42.71956" lon="2.01483">
        <ele>1667.54</ele>
        <time>2014-03-24T08:50:39Z</time>
      </trkpt>
      <trkpt lat="42.71946" lon="2.01493">
        <ele>1668.51</ele>
        <time>2014-03-24T08:50:54Z</time>
      </trkpt>
      <trkpt lat="42.71934" lon="2.01503">
        <ele>1668.02</ele>
        <time>2014-03-24T08:51:08Z</time>
      </trkpt>
      <trkpt lat="42.71923" lon="2.01513">
        <ele>1668.99</ele>
        <time>2014-03-24T08:51:24Z</time>
      </trkpt>
      <trkpt lat="42.71913" lon="2.01521">
        <ele>1668.02</ele>
        <time>2014-03-24T08:51:38Z</time>
      </trkpt>
      <trkpt lat="42.71902" lon="2.01532">
        <ele>1667.54</ele>
        <time>2014-03-24T08:51:53Z</time>
      </trkpt>
      <trkpt lat="42.71891" lon="2.01542">
        <ele>1667.54</ele>
        <time>2014-03-24T08:52:07Z</time>
      </trkpt>
      <trkpt lat="42.71881" lon="2.01549">
        <ele>1668.51</ele>
        <time>2014-03-24T08:52:21Z</time>
      </trkpt>
      <trkpt lat="42.7188" lon="2.01549">
        <ele>1668.02</ele>
        <time>2014-03-24T08:52:22Z</time>
      </trkpt>
      <trkpt lat="42.71879" lon="2.0155">
        <ele>1668.02</ele>
        <time>2014-03-24T08:52:23Z</time>
      </trkpt>
      <trkpt lat="42.71878" lon="2.0155">
        <ele>1667.54</ele>
        <time>2014-03-24T08:52:24Z</time>
      </trkpt>
      <trkpt lat="42.71876" lon="2.0155">
        <ele>1667.54</ele>
        <time>2014-03-24T08:52:25Z</time>
      </trkpt>
      <trkpt lat="42.71875" lon="2.0155">
        <ele>1667.54</ele>
        <time>2014-03-24T08:52:26Z</time>
      </trkpt>
      <trkpt lat="42.71863" lon="2.01545">
        <ele>1668.02</ele>
        <time>2014-03-24T08:52:39Z</time>
      </trkpt>
      <trkpt lat="42.71851" lon="2.0154">
        <ele>1668.02</ele>
        <time>2014-03-24T08:52:52Z</time>
      </trkpt>
      <trkpt lat="42.71844" lon="2.01538">
        <ele>1667.54</ele>
        <time>2014-03-24T08:52:59Z</time>
      </trkpt>
      <trkpt lat="42.71843" lon="2.01538">
        <ele>1667.54</ele>
        <time>2014-03-24T08:53:00Z</time>
      </trkpt>
      <trkpt lat="42.7183" lon="2.01531">
        <ele>1665.14</ele>
        <time>2014-03-24T08:53:13Z</time>
      </trkpt>
      <trkpt lat="42.71826" lon="2.01528">
        <ele>1665.14</ele>
        <time>2014-03-24T08:53:17Z</time>
      </trkpt>
      <trkpt lat="42.71824" lon="2.01526">
        <ele>1664.66</ele>
        <time>2014-03-24T08:53:19Z</time>
      </trkpt>
      <trkpt lat="42.71823" lon="2.01526">
        <ele>1664.18</ele>
        <time>2014-03-24T08:53:20Z</time>
      </trkpt>
      <trkpt lat="42.71821" lon="2.01526">
        <ele>1664.18</ele>
        <time>2014-03-24T08:53:21Z</time>
      </trkpt>
      <trkpt lat="42.7182" lon="2.01525">
        <ele>1663.7</ele>
        <time>2014-03-24T08:53:22Z</time>
      </trkpt>
      <trkpt lat="42.71803" lon="2.01523">
        <ele>1665.14</ele>
        <time>2014-03-24T08:53:37Z</time>
      </trkpt>
      <trkpt lat="42.71796" lon="2.0152">
        <ele>1664.18</ele>
        <time>2014-03-24T08:53:44Z</time>
      </trkpt>
      <trkpt lat="42.71795" lon="2.01519">
        <ele>1663.7</ele>
        <time>2014-03-24T08:53:45Z</time>
      </trkpt>
      <trkpt lat="42.7178" lon="2.01517">
        <ele>1666.1</ele>
        <time>2014-03-24T08:53:59Z</time>
      </trkpt>
      <trkpt lat="42.71779" lon="2.01517">
        <ele>1666.58</ele>
        <time>2014-03-24T08:54:00Z</time>
      </trkpt>
      <trkpt lat="42.71763" lon="2.0152">
        <ele>1667.06</ele>
        <time>2014-03-24T08:54:16Z</time>
      </trkpt>
      <trkpt lat="42.71747" lon="2.01523">
        <ele>1668.99</ele>
        <time>2014-03-24T08:54:31Z</time>
      </trkpt>
      <trkpt lat="42.71735" lon="2.01527">
        <ele>1668.99</ele>
        <time>2014-03-24T08:54:43Z</time>
      </trkpt>
      <trkpt lat="42.71717" lon="2.01534">
        <ele>1670.91</ele>
        <time>2014-03-24T08:55:00Z</time>
      </trkpt>
      <trkpt lat="42.71702" lon="2.01538">
        <ele>1672.83</ele>
        <time>2014-03-24T08:55:16Z</time>
      </trkpt>
      <trkpt lat="42.71687" lon="2.01541">
        <ele>1674.75</ele>
        <time>2014-03-24T08:55:31Z</time>
      </trkpt>
      <trkpt lat="42.71672" lon="2.01541">
        <ele>1670.91</ele>
        <time>2014-03-24T08:55:45Z</time>
      </trkpt>
      <trkpt lat="42.7166" lon="2.01542">
        <ele>1669.47</ele>
        <time>2014-03-24T08:55:57Z</time>
      </trkpt>
      <trkpt lat="42.71659" lon="2.01543">
        <ele>1668.99</ele>
        <time>2014-03-24T08:55:58Z</time>
      </trkpt>
      <trkpt lat="42.71657" lon="2.01544">
        <ele>1668.99</ele>
        <time>2014-03-24T08:55:59Z</time>
      </trkpt>
      <trkpt lat="42.71644" lon="2.01554">
        <ele>1669.95</ele>
        <time>2014-03-24T08:56:13Z</time>
      </trkpt>
      <trkpt lat="42.71633" lon="2.01564">
        <ele>1670.43</ele>
        <time>2014-03-24T08:56:25Z</time>
      </trkpt>
      <trkpt lat="42.71623" lon="2.01571">
        <ele>1669.47</ele>
        <time>2014-03-24T08:56:37Z</time>
      </trkpt>
      <trkpt lat="42.71613" lon="2.0158">
        <ele>1664.66</ele>
        <time>2014-03-24T08:56:50Z</time>
      </trkpt>
      <trkpt lat="42.71604" lon="2.01586">
        <ele>1659.85</ele>
        <time>2014-03-24T08:57:02Z</time>
      </trkpt>
      <trkpt lat="42.71596" lon="2.01594">
        <ele>1656.49</ele>
        <time>2014-03-24T08:57:17Z</time>
      </trkpt>
      <trkpt lat="42.71592" lon="2.01596">
        <ele>1655.53</ele>
        <time>2014-03-24T08:57:21Z</time>
      </trkpt>
      <trkpt lat="42.71589" lon="2.01593">
        <ele>1654.09</ele>
        <time>2014-03-24T08:57:36Z</time>
      </trkpt>
      <trkpt lat="42.71588" lon="2.01597">
        <ele>1652.64</ele>
        <time>2014-03-24T08:57:50Z</time>
      </trkpt>
      <trkpt lat="42.71578" lon="2.01604">
        <ele>1650.72</ele>
        <time>2014-03-24T08:58:12Z</time>
      </trkpt>
      <trkpt lat="42.71561" lon="2.01616">
        <ele>1648.8</ele>
        <time>2014-03-24T08:58:24Z</time>
      </trkpt>
      <trkpt lat="42.7154" lon="2.0163">
        <ele>1649.76</ele>
        <time>2014-03-24T08:58:38Z</time>
      </trkpt>
      <trkpt lat="42.71518" lon="2.01644">
        <ele>1649.76</ele>
        <time>2014-03-24T08:58:52Z</time>
      </trkpt>
      <trkpt lat="42.71497" lon="2.01654">
        <ele>1649.76</ele>
        <time>2014-03-24T08:59:05Z</time>
      </trkpt>
      <trkpt lat="42.71488" lon="2.01655">
        <ele>1650.24</ele>
        <time>2014-03-24T08:59:11Z</time>
      </trkpt>
      <trkpt lat="42.71486" lon="2.01656">
        <ele>1650.24</ele>
        <time>2014-03-24T08:59:13Z</time>
      </trkpt>
      <trkpt lat="42.71485" lon="2.01656">
        <ele>1650.24</ele>
        <time>2014-03-24T08:59:14Z</time>
      </trkpt>
      <trkpt lat="42.71482" lon="2.01657">
        <ele>1650.24</ele>
        <time>2014-03-24T08:59:16Z</time>
      </trkpt>
      <trkpt lat="42.71481" lon="2.01658">
        <ele>1650.24</ele>
        <time>2014-03-24T08:59:17Z</time>
      </trkpt>
      <trkpt lat="42.71476" lon="2.0166">
        <ele>1650.72</ele>
        <time>2014-03-24T08:59:22Z</time>
      </trkpt>
      <trkpt lat="42.71474" lon="2.01661">
        <ele>1650.72</ele>
        <time>2014-03-24T08:59:23Z</time>
      </trkpt>
      <trkpt lat="42.71461" lon="2.01665">
        <ele>1653.12</ele>
        <time>2014-03-24T08:59:36Z</time>
      </trkpt>
      <trkpt lat="42.71446" lon="2.01669">
        <ele>1653.6</ele>
        <time>2014-03-24T08:59:51Z</time>
      </trkpt>
      <trkpt lat="42.71432" lon="2.01675">
        <ele>1655.05</ele>
        <time>2014-03-24T09:00:06Z</time>
      </trkpt>
      <trkpt lat="42.7142" lon="2.0168">
        <ele>1655.53</ele>
        <time>2014-03-24T09:00:20Z</time>
      </trkpt>
      <trkpt lat="42.71415" lon="2.01681">
        <ele>1656.01</ele>
        <time>2014-03-24T09:00:25Z</time>
      </trkpt>
      <trkpt lat="42.71402" lon="2.01686">
        <ele>1656.01</ele>
        <time>2014-03-24T09:00:39Z</time>
      </trkpt>
      <trkpt lat="42.71396" lon="2.01689">
        <ele>1657.45</ele>
        <time>2014-03-24T09:00:45Z</time>
      </trkpt>
      <trkpt lat="42.71395" lon="2.01689">
        <ele>1657.45</ele>
        <time>2014-03-24T09:00:46Z</time>
      </trkpt>
      <trkpt lat="42.71384" lon="2.01693">
        <ele>1657.93</ele>
        <time>2014-03-24T09:00:59Z</time>
      </trkpt>
      <trkpt lat="42.71376" lon="2.01694">
        <ele>1656.49</ele>
        <time>2014-03-24T09:01:07Z</time>
      </trkpt>
      <trkpt lat="42.71362" lon="2.01698">
        <ele>1656.97</ele>
        <time>2014-03-24T09:01:22Z</time>
      </trkpt>
      <trkpt lat="42.7135" lon="2.01699">
        <ele>1659.37</ele>
        <time>2014-03-24T09:01:36Z</time>
      </trkpt>
      <trkpt lat="42.71343" lon="2.01696">
        <ele>1657.45</ele>
        <time>2014-03-24T09:01:45Z</time>
      </trkpt>
      <trkpt lat="42.71341" lon="2.01696">
        <ele>1657.93</ele>
        <time>2014-03-24T09:01:46Z</time>
      </trkpt>
      <trkpt lat="42.71328" lon="2.01694">
        <ele>1657.93</ele>
        <time>2014-03-24T09:02:01Z</time>
      </trkpt>
      <trkpt lat="42.71325" lon="2.01692">
        <ele>1657.93</ele>
        <time>2014-03-24T09:02:05Z</time>
      </trkpt>
      <trkpt lat="42.71314" lon="2.01686">
        <ele>1656.01</ele>
        <time>2014-03-24T09:02:18Z</time>
      </trkpt>
      <trkpt lat="42.71305" lon="2.01679">
        <ele>1653.12</ele>
        <time>2014-03-24T09:02:29Z</time>
      </trkpt>
      <trkpt lat="42.71293" lon="2.01673">
        <ele>1652.64</ele>
        <time>2014-03-24T09:02:42Z</time>
      </trkpt>
      <trkpt lat="42.7128" lon="2.01667">
        <ele>1654.57</ele>
        <time>2014-03-24T09:02:56Z</time>
      </trkpt>
      <trkpt lat="42.71264" lon="2.01658">
        <ele>1655.53</ele>
        <time>2014-03-24T09:03:14Z</time>
      </trkpt>
      <trkpt lat="42.71253" lon="2.01651">
        <ele>1655.05</ele>
        <time>2014-03-24T09:03:28Z</time>
      </trkpt>
      <trkpt lat="42.71249" lon="2.01651">
        <ele>1655.53</ele>
        <time>2014-03-24T09:03:31Z</time>
      </trkpt>
      <trkpt lat="42.71241" lon="2.01644">
        <ele>1655.53</ele>
        <time>2014-03-24T09:03:42Z</time>
      </trkpt>
      <trkpt lat="42.71235" lon="2.0164">
        <ele>1655.53</ele>
        <time>2014-03-24T09:03:49Z</time>
      </trkpt>
      <trkpt lat="42.71222" lon="2.01635">
        <ele>1657.45</ele>
        <time>2014-03-24T09:04:04Z</time>
      </trkpt>
      <trkpt lat="42.71209" lon="2.01631">
        <ele>1658.41</ele>
        <time>2014-03-24T09:04:19Z</time>
      </trkpt>
      <trkpt lat="42.71199" lon="2.01625">
        <ele>1656.49</ele>
        <time>2014-03-24T09:04:33Z</time>
      </trkpt>
      <trkpt lat="42.71184" lon="2.01622">
        <ele>1658.41</ele>
        <time>2014-03-24T09:04:49Z</time>
      </trkpt>
      <trkpt lat="42.7117" lon="2.01618">
        <ele>1664.18</ele>
        <time>2014-03-24T09:05:04Z</time>
      </trkpt>
      <trkpt lat="42.71157" lon="2.01613">
        <ele>1664.66</ele>
        <time>2014-03-24T09:05:18Z</time>
      </trkpt>
      <trkpt lat="42.71147" lon="2.01604">
        <ele>1663.22</ele>
        <time>2014-03-24T09:05:32Z</time>
      </trkpt>
      <trkpt lat="42.71136" lon="2.01601">
        <ele>1661.3</ele>
        <time>2014-03-24T09:05:44Z</time>
      </trkpt>
      <trkpt lat="42.71123" lon="2.01594">
        <ele>1655.53</ele>
        <time>2014-03-24T09:05:58Z</time>
      </trkpt>
      <trkpt lat="42.71111" lon="2.01593">
        <ele>1649.28</ele>
        <time>2014-03-24T09:06:12Z</time>
      </trkpt>
      <trkpt lat="42.71102" lon="2.01591">
        <ele>1643.03</ele>
        <time>2014-03-24T09:06:24Z</time>
      </trkpt>
      <trkpt lat="42.711" lon="2.01592">
        <ele>1643.03</ele>
        <time>2014-03-24T09:06:26Z</time>
      </trkpt>
      <trkpt lat="42.71099" lon="2.01591">
        <ele>1643.03</ele>
        <time>2014-03-24T09:06:27Z</time>
      </trkpt>
      <trkpt lat="42.71088" lon="2.01596">
        <ele>1644.47</ele>
        <time>2014-03-24T09:06:41Z</time>
      </trkpt>
      <trkpt lat="42.71077" lon="2.01616">
        <ele>1652.64</ele>
        <time>2014-03-24T09:06:54Z</time>
      </trkpt>
      <trkpt lat="42.71076" lon="2.01618">
        <ele>1653.6</ele>
        <time>2014-03-24T09:06:55Z</time>
      </trkpt>
      <trkpt lat="42.71075" lon="2.0162">
        <ele>1654.57</ele>
        <time>2014-03-24T09:06:56Z</time>
      </trkpt>
      <trkpt lat="42.71065" lon="2.01635">
        <ele>1656.97</ele>
        <time>2014-03-24T09:07:11Z</time>
      </trkpt>
      <trkpt lat="42.71054" lon="2.01644">
        <ele>1654.57</ele>
        <time>2014-03-24T09:07:27Z</time>
      </trkpt>
      <trkpt lat="42.7105" lon="2.01648">
        <ele>1653.6</ele>
        <time>2014-03-24T09:07:31Z</time>
      </trkpt>
      <trkpt lat="42.71037" lon="2.01657">
        <ele>1656.49</ele>
        <time>2014-03-24T09:07:46Z</time>
      </trkpt>
      <trkpt lat="42.71032" lon="2.01658">
        <ele>1655.05</ele>
        <time>2014-03-24T09:07:59Z</time>
      </trkpt>
      <trkpt lat="42.71026" lon="2.0166">
        <ele>1654.09</ele>
        <time>2014-03-24T09:08:15Z</time>
      </trkpt>
      <trkpt lat="42.71025" lon="2.0166">
        <ele>1656.97</ele>
        <time>2014-03-24T09:08:39Z</time>
      </trkpt>
      <trkpt lat="42.71023" lon="2.01663">
        <ele>1657.93</ele>
        <time>2014-03-24T09:09:09Z</time>
      </trkpt>
      <trkpt lat="42.71008" lon="2.01659">
        <ele>1655.53</ele>
        <time>2014-03-24T09:09:25Z</time>
      </trkpt>
      <trkpt lat="42.70997" lon="2.01655">
        <ele>1654.09</ele>
        <time>2014-03-24T09:09:38Z</time>
      </trkpt>
      <trkpt lat="42.70987" lon="2.0165">
        <ele>1651.68</ele>
        <time>2014-03-24T09:09:52Z</time>
      </trkpt>
      <trkpt lat="42.70984" lon="2.01643">
        <ele>1651.2</ele>
        <time>2014-03-24T09:10:03Z</time>
      </trkpt>
      <trkpt lat="42.70981" lon="2.0164">
        <ele>1650.72</ele>
        <time>2014-03-24T09:10:16Z</time>
      </trkpt>
      <trkpt lat="42.7098" lon="2.0164">
        <ele>1653.12</ele>
        <time>2014-03-24T09:10:35Z</time>
      </trkpt>
      <trkpt lat="42.70975" lon="2.01638">
        <ele>1654.09</ele>
        <time>2014-03-24T09:10:44Z</time>
      </trkpt>
      <trkpt lat="42.70974" lon="2.01637">
        <ele>1654.09</ele>
        <time>2014-03-24T09:10:45Z</time>
      </trkpt>
      <trkpt lat="42.70973" lon="2.01635">
        <ele>1654.09</ele>
        <time>2014-03-24T09:10:46Z</time>
      </trkpt>
      <trkpt lat="42.70971" lon="2.01631">
        <ele>1650.24</ele>
        <time>2014-03-24T09:11:00Z</time>
      </trkpt>
      <trkpt lat="42.70964" lon="2.01624">
        <ele>1649.76</ele>
        <time>2014-03-24T09:11:06Z</time>
      </trkpt>
      <trkpt lat="42.70962" lon="2.01622">
        <ele>1649.28</ele>
        <time>2014-03-24T09:11:07Z</time>
      </trkpt>
      <trkpt lat="42.70959" lon="2.01618">
        <ele>1648.8</ele>
        <time>2014-03-24T09:11:10Z</time>
      </trkpt>
      <trkpt lat="42.70958" lon="2.01616">
        <ele>1648.8</ele>
        <time>2014-03-24T09:11:11Z</time>
      </trkpt>
      <trkpt lat="42.70947" lon="2.01603">
        <ele>1649.28</ele>
        <time>2014-03-24T09:11:24Z</time>
      </trkpt>
      <trkpt lat="42.70944" lon="2.01599">
        <ele>1648.8</ele>
        <time>2014-03-24T09:11:28Z</time>
      </trkpt>
      <trkpt lat="42.70943" lon="2.01597">
        <ele>1648.32</ele>
        <time>2014-03-24T09:11:29Z</time>
      </trkpt>
      <trkpt lat="42.70933" lon="2.01585">
        <ele>1647.84</ele>
        <time>2014-03-24T09:11:41Z</time>
      </trkpt>
      <trkpt lat="42.7092" lon="2.01571">
        <ele>1647.36</ele>
        <time>2014-03-24T09:11:54Z</time>
      </trkpt>
      <trkpt lat="42.70912" lon="2.01559">
        <ele>1647.36</ele>
        <time>2014-03-24T09:12:05Z</time>
      </trkpt>
      <trkpt lat="42.70911" lon="2.01558">
        <ele>1647.36</ele>
        <time>2014-03-24T09:12:06Z</time>
      </trkpt>
      <trkpt lat="42.7091" lon="2.01556">
        <ele>1647.36</ele>
        <time>2014-03-24T09:12:07Z</time>
      </trkpt>
      <trkpt lat="42.70903" lon="2.0154">
        <ele>1645.43</ele>
        <time>2014-03-24T09:12:20Z</time>
      </trkpt>
      <trkpt lat="42.70897" lon="2.01524">
        <ele>1646.4</ele>
        <time>2014-03-24T09:12:33Z</time>
      </trkpt>
      <trkpt lat="42.70893" lon="2.01506">
        <ele>1645.91</ele>
        <time>2014-03-24T09:12:45Z</time>
      </trkpt>
      <trkpt lat="42.70892" lon="2.01499">
        <ele>1645.91</ele>
        <time>2014-03-24T09:12:50Z</time>
      </trkpt>
      <trkpt lat="42.70891" lon="2.01497">
        <ele>1645.91</ele>
        <time>2014-03-24T09:12:51Z</time>
      </trkpt>
      <trkpt lat="42.7089" lon="2.01485">
        <ele>1644.47</ele>
        <time>2014-03-24T09:13:03Z</time>
      </trkpt>
      <trkpt lat="42.70889" lon="2.01477">
        <ele>1643.99</ele>
        <time>2014-03-24T09:13:08Z</time>
      </trkpt>
      <trkpt lat="42.70885" lon="2.01458">
        <ele>1642.55</ele>
        <time>2014-03-24T09:13:23Z</time>
      </trkpt>
      <trkpt lat="42.70885" lon="2.01457">
        <ele>1642.55</ele>
        <time>2014-03-24T09:13:24Z</time>
      </trkpt>
      <trkpt lat="42.70885" lon="2.01455">
        <ele>1642.55</ele>
        <time>2014-03-24T09:13:25Z</time>
      </trkpt>
      <trkpt lat="42.70884" lon="2.01454">
        <ele>1642.07</ele>
        <time>2014-03-24T09:13:26Z</time>
      </trkpt>
      <trkpt lat="42.7088" lon="2.0144">
        <ele>1640.15</ele>
        <time>2014-03-24T09:13:37Z</time>
      </trkpt>
      <trkpt lat="42.70879" lon="2.01435">
        <ele>1639.67</ele>
        <time>2014-03-24T09:13:41Z</time>
      </trkpt>
      <trkpt lat="42.7087" lon="2.01416">
        <ele>1639.19</ele>
        <time>2014-03-24T09:13:55Z</time>
      </trkpt>
      <trkpt lat="42.70864" lon="2.014">
        <ele>1638.7</ele>
        <time>2014-03-24T09:14:09Z</time>
      </trkpt>
      <trkpt lat="42.70863" lon="2.01398">
        <ele>1638.7</ele>
        <time>2014-03-24T09:14:11Z</time>
      </trkpt>
      <trkpt lat="42.70853" lon="2.01382">
        <ele>1638.22</ele>
        <time>2014-03-24T09:14:26Z</time>
      </trkpt>
      <trkpt lat="42.70843" lon="2.01374">
        <ele>1638.7</ele>
        <time>2014-03-24T09:14:38Z</time>
      </trkpt>
      <trkpt lat="42.70836" lon="2.01366">
        <ele>1638.22</ele>
        <time>2014-03-24T09:14:48Z</time>
      </trkpt>
      <trkpt lat="42.70825" lon="2.01355">
        <ele>1637.26</ele>
        <time>2014-03-24T09:15:00Z</time>
      </trkpt>
      <trkpt lat="42.70813" lon="2.01346">
        <ele>1634.86</ele>
        <time>2014-03-24T09:15:16Z</time>
      </trkpt>
      <trkpt lat="42.70803" lon="2.0134">
        <ele>1635.34</ele>
        <time>2014-03-24T09:15:26Z</time>
      </trkpt>
      <trkpt lat="42.70802" lon="2.01339">
        <ele>1635.34</ele>
        <time>2014-03-24T09:15:27Z</time>
      </trkpt>
      <trkpt lat="42.7079" lon="2.0133">
        <ele>1637.26</ele>
        <time>2014-03-24T09:15:42Z</time>
      </trkpt>
      <trkpt lat="42.70784" lon="2.01325">
        <ele>1638.7</ele>
        <time>2014-03-24T09:15:57Z</time>
      </trkpt>
      <trkpt lat="42.70773" lon="2.01311">
        <ele>1638.7</ele>
        <time>2014-03-24T09:16:11Z</time>
      </trkpt>
      <trkpt lat="42.70772" lon="2.0131">
        <ele>1638.7</ele>
        <time>2014-03-24T09:16:12Z</time>
      </trkpt>
      <trkpt lat="42.70771" lon="2.01309">
        <ele>1638.22</ele>
        <time>2014-03-24T09:16:13Z</time>
      </trkpt>
      <trkpt lat="42.7077" lon="2.01308">
        <ele>1638.22</ele>
        <time>2014-03-24T09:16:14Z</time>
      </trkpt>
      <trkpt lat="42.7077" lon="2.01307">
        <ele>1638.22</ele>
        <time>2014-03-24T09:16:15Z</time>
      </trkpt>
      <trkpt lat="42.70769" lon="2.01306">
        <ele>1638.22</ele>
        <time>2014-03-24T09:16:16Z</time>
      </trkpt>
      <trkpt lat="42.70759" lon="2.01294">
        <ele>1637.74</ele>
        <time>2014-03-24T09:16:30Z</time>
      </trkpt>
      <trkpt lat="42.70746" lon="2.01279">
        <ele>1633.9</ele>
        <time>2014-03-24T09:16:46Z</time>
      </trkpt>
      <trkpt lat="42.70739" lon="2.01271">
        <ele>1631.49</ele>
        <time>2014-03-24T09:16:55Z</time>
      </trkpt>
      <trkpt lat="42.70738" lon="2.0127">
        <ele>1631.49</ele>
        <time>2014-03-24T09:16:56Z</time>
      </trkpt>
      <trkpt lat="42.70738" lon="2.01269">
        <ele>1631.01</ele>
        <time>2014-03-24T09:16:57Z</time>
      </trkpt>
      <trkpt lat="42.70725" lon="2.01254">
        <ele>1630.53</ele>
        <time>2014-03-24T09:17:11Z</time>
      </trkpt>
      <trkpt lat="42.70714" lon="2.01241">
        <ele>1630.05</ele>
        <time>2014-03-24T09:17:23Z</time>
      </trkpt>
      <trkpt lat="42.70704" lon="2.01225">
        <ele>1629.09</ele>
        <time>2014-03-24T09:17:37Z</time>
      </trkpt>
      <trkpt lat="42.70699" lon="2.01221">
        <ele>1629.57</ele>
        <time>2014-03-24T09:17:43Z</time>
      </trkpt>
      <trkpt lat="42.70697" lon="2.0122">
        <ele>1630.05</ele>
        <time>2014-03-24T09:17:45Z</time>
      </trkpt>
      <trkpt lat="42.70696" lon="2.01219">
        <ele>1630.05</ele>
        <time>2014-03-24T09:17:46Z</time>
      </trkpt>
      <trkpt lat="42.70696" lon="2.01218">
        <ele>1630.05</ele>
        <time>2014-03-24T09:17:47Z</time>
      </trkpt>
      <trkpt lat="42.70683" lon="2.01206">
        <ele>1628.13</ele>
        <time>2014-03-24T09:18:01Z</time>
      </trkpt>
      <trkpt lat="42.70667" lon="2.01203">
        <ele>1626.69</ele>
        <time>2014-03-24T09:18:15Z</time>
      </trkpt>
      <trkpt lat="42.70664" lon="2.01205">
        <ele>1627.65</ele>
        <time>2014-03-24T09:18:19Z</time>
      </trkpt>
      <trkpt lat="42.70662" lon="2.01205">
        <ele>1627.65</ele>
        <time>2014-03-24T09:18:20Z</time>
      </trkpt>
      <trkpt lat="42.70661" lon="2.01206">
        <ele>1628.13</ele>
        <time>2014-03-24T09:18:21Z</time>
      </trkpt>
      <trkpt lat="42.70654" lon="2.01213">
        <ele>1630.05</ele>
        <time>2014-03-24T09:18:28Z</time>
      </trkpt>
      <trkpt lat="42.70641" lon="2.01232">
        <ele>1628.61</ele>
        <time>2014-03-24T09:18:43Z</time>
      </trkpt>
      <trkpt lat="42.70636" lon="2.01234">
        <ele>1628.13</ele>
        <time>2014-03-24T09:18:47Z</time>
      </trkpt>
      <trkpt lat="42.70627" lon="2.0123">
        <ele>1625.73</ele>
        <time>2014-03-24T09:18:57Z</time>
      </trkpt>
      <trkpt lat="42.70619" lon="2.01222">
        <ele>1624.77</ele>
        <time>2014-03-24T09:19:06Z</time>
      </trkpt>
      <trkpt lat="42.70618" lon="2.01222">
        <ele>1624.28</ele>
        <time>2014-03-24T09:19:07Z</time>
      </trkpt>
      <trkpt lat="42.70617" lon="2.0122">
        <ele>1624.28</ele>
        <time>2014-03-24T09:19:08Z</time>
      </trkpt>
      <trkpt lat="42.70616" lon="2.01219">
        <ele>1623.8</ele>
        <time>2014-03-24T09:19:09Z</time>
      </trkpt>
      <trkpt lat="42.70615" lon="2.01217">
        <ele>1623.8</ele>
        <time>2014-03-24T09:19:10Z</time>
      </trkpt>
      <trkpt lat="42.70602" lon="2.01198">
        <ele>1622.36</ele>
        <time>2014-03-24T09:19:26Z</time>
      </trkpt>
      <trkpt lat="42.70599" lon="2.01192">
        <ele>1621.4</ele>
        <time>2014-03-24T09:19:31Z</time>
      </trkpt>
      <trkpt lat="42.7059" lon="2.01178">
        <ele>1620.92</ele>
        <time>2014-03-24T09:19:43Z</time>
      </trkpt>
      <trkpt lat="42.7058" lon="2.01166">
        <ele>1621.4</ele>
        <time>2014-03-24T09:19:57Z</time>
      </trkpt>
      <trkpt lat="42.70579" lon="2.01165">
        <ele>1620.44</ele>
        <time>2014-03-24T09:19:58Z</time>
      </trkpt>
      <trkpt lat="42.70574" lon="2.01156">
        <ele>1618.04</ele>
        <time>2014-03-24T09:20:06Z</time>
      </trkpt>
      <trkpt lat="42.70572" lon="2.01155">
        <ele>1618.04</ele>
        <time>2014-03-24T09:20:07Z</time>
      </trkpt>
      <trkpt lat="42.70565" lon="2.01147">
        <ele>1615.15</ele>
        <time>2014-03-24T09:20:16Z</time>
      </trkpt>
      <trkpt lat="42.70564" lon="2.01146">
        <ele>1614.67</ele>
        <time>2014-03-24T09:20:17Z</time>
      </trkpt>
      <trkpt lat="42.70554" lon="2.01137">
        <ele>1612.75</ele>
        <time>2014-03-24T09:20:28Z</time>
      </trkpt>
      <trkpt lat="42.7055" lon="2.01134">
        <ele>1614.19</ele>
        <time>2014-03-24T09:20:41Z</time>
      </trkpt>
      <trkpt lat="42.70548" lon="2.01138">
        <ele>1615.63</ele>
        <time>2014-03-24T09:21:03Z</time>
      </trkpt>
      <trkpt lat="42.70546" lon="2.01137">
        <ele>1614.67</ele>
        <time>2014-03-24T09:21:09Z</time>
      </trkpt>
      <trkpt lat="42.70544" lon="2.01137">
        <ele>1614.67</ele>
        <time>2014-03-24T09:21:11Z</time>
      </trkpt>
      <trkpt lat="42.70543" lon="2.01136">
        <ele>1614.19</ele>
        <time>2014-03-24T09:21:12Z</time>
      </trkpt>
      <trkpt lat="42.70525" lon="2.01133">
        <ele>1612.27</ele>
        <time>2014-03-24T09:21:25Z</time>
      </trkpt>
      <trkpt lat="42.70515" lon="2.01136">
        <ele>1610.83</ele>
        <time>2014-03-24T09:21:36Z</time>
      </trkpt>
      <trkpt lat="42.70513" lon="2.01144">
        <ele>1610.83</ele>
        <time>2014-03-24T09:21:43Z</time>
      </trkpt>
      <trkpt lat="42.70513" lon="2.01146">
        <ele>1610.83</ele>
        <time>2014-03-24T09:21:44Z</time>
      </trkpt>
      <trkpt lat="42.70512" lon="2.01148">
        <ele>1610.83</ele>
        <time>2014-03-24T09:21:45Z</time>
      </trkpt>
      <trkpt lat="42.70511" lon="2.01149">
        <ele>1611.31</ele>
        <time>2014-03-24T09:21:46Z</time>
      </trkpt>
      <trkpt lat="42.7051" lon="2.01151">
        <ele>1611.31</ele>
        <time>2014-03-24T09:21:47Z</time>
      </trkpt>
      <trkpt lat="42.70509" lon="2.01152">
        <ele>1611.31</ele>
        <time>2014-03-24T09:21:48Z</time>
      </trkpt>
      <trkpt lat="42.70508" lon="2.01154">
        <ele>1610.83</ele>
        <time>2014-03-24T09:21:49Z</time>
      </trkpt>
      <trkpt lat="42.70507" lon="2.01155">
        <ele>1610.83</ele>
        <time>2014-03-24T09:21:50Z</time>
      </trkpt>
      <trkpt lat="42.70505" lon="2.01156">
        <ele>1610.83</ele>
        <time>2014-03-24T09:21:51Z</time>
      </trkpt>
      <trkpt lat="42.70504" lon="2.01156">
        <ele>1610.35</ele>
        <time>2014-03-24T09:21:52Z</time>
      </trkpt>
      <trkpt lat="42.70492" lon="2.01158">
        <ele>1607.46</ele>
        <time>2014-03-24T09:22:00Z</time>
      </trkpt>
      <trkpt lat="42.7048" lon="2.01149">
        <ele>1605.54</ele>
        <time>2014-03-24T09:22:12Z</time>
      </trkpt>
      <trkpt lat="42.70468" lon="2.01135">
        <ele>1604.1</ele>
        <time>2014-03-24T09:22:25Z</time>
      </trkpt>
      <trkpt lat="42.70461" lon="2.01125">
        <ele>1603.14</ele>
        <time>2014-03-24T09:22:34Z</time>
      </trkpt>
      <trkpt lat="42.7046" lon="2.01123">
        <ele>1603.14</ele>
        <time>2014-03-24T09:22:35Z</time>
      </trkpt>
      <trkpt lat="42.7046" lon="2.01122">
        <ele>1603.14</ele>
        <time>2014-03-24T09:22:36Z</time>
      </trkpt>
      <trkpt lat="42.70455" lon="2.01116">
        <ele>1603.14</ele>
        <time>2014-03-24T09:22:42Z</time>
      </trkpt>
      <trkpt lat="42.70452" lon="2.01112">
        <ele>1602.66</ele>
        <time>2014-03-24T09:22:45Z</time>
      </trkpt>
      <trkpt lat="42.70452" lon="2.0111">
        <ele>1602.66</ele>
        <time>2014-03-24T09:22:46Z</time>
      </trkpt>
      <trkpt lat="42.70447" lon="2.01102">
        <ele>1601.69</ele>
        <time>2014-03-24T09:22:52Z</time>
      </trkpt>
      <trkpt lat="42.70445" lon="2.011">
        <ele>1601.69</ele>
        <time>2014-03-24T09:22:54Z</time>
      </trkpt>
      <trkpt lat="42.70444" lon="2.01098">
        <ele>1601.69</ele>
        <time>2014-03-24T09:22:55Z</time>
      </trkpt>
      <trkpt lat="42.7044" lon="2.0109">
        <ele>1601.69</ele>
        <time>2014-03-24T09:23:02Z</time>
      </trkpt>
      <trkpt lat="42.70439" lon="2.01088">
        <ele>1601.69</ele>
        <time>2014-03-24T09:23:03Z</time>
      </trkpt>
      <trkpt lat="42.70439" lon="2.01087">
        <ele>1601.21</ele>
        <time>2014-03-24T09:23:04Z</time>
      </trkpt>
      <trkpt lat="42.70438" lon="2.01086">
        <ele>1601.21</ele>
        <time>2014-03-24T09:23:05Z</time>
      </trkpt>
      <trkpt lat="42.70438" lon="2.01084">
        <ele>1601.21</ele>
        <time>2014-03-24T09:23:06Z</time>
      </trkpt>
      <trkpt lat="42.70429" lon="2.01061">
        <ele>1599.29</ele>
        <time>2014-03-24T09:23:21Z</time>
      </trkpt>
      <trkpt lat="42.70415" lon="2.01046">
        <ele>1598.33</ele>
        <time>2014-03-24T09:23:32Z</time>
      </trkpt>
      <trkpt lat="42.70412" lon="2.01042">
        <ele>1598.33</ele>
        <time>2014-03-24T09:23:35Z</time>
      </trkpt>
      <trkpt lat="42.70411" lon="2.01041">
        <ele>1598.33</ele>
        <time>2014-03-24T09:23:36Z</time>
      </trkpt>
      <trkpt lat="42.70404" lon="2.01031">
        <ele>1597.85</ele>
        <time>2014-03-24T09:23:44Z</time>
      </trkpt>
      <trkpt lat="42.70403" lon="2.01029">
        <ele>1597.85</ele>
        <time>2014-03-24T09:23:45Z</time>
      </trkpt>
      <trkpt lat="42.70402" lon="2.01028">
        <ele>1597.85</ele>
        <time>2014-03-24T09:23:46Z</time>
      </trkpt>
      <trkpt lat="42.70393" lon="2.01004">
        <ele>1594</ele>
        <time>2014-03-24T09:24:01Z</time>
      </trkpt>
      <trkpt lat="42.70392" lon="2.00998">
        <ele>1594</ele>
        <time>2014-03-24T09:24:05Z</time>
      </trkpt>
      <trkpt lat="42.70391" lon="2.00997">
        <ele>1594</ele>
        <time>2014-03-24T09:24:06Z</time>
      </trkpt>
      <trkpt lat="42.70388" lon="2.0098">
        <ele>1592.56</ele>
        <time>2014-03-24T09:24:18Z</time>
      </trkpt>
      <trkpt lat="42.70384" lon="2.00957">
        <ele>1589.2</ele>
        <time>2014-03-24T09:24:32Z</time>
      </trkpt>
      <trkpt lat="42.70382" lon="2.00934">
        <ele>1588.24</ele>
        <time>2014-03-24T09:24:46Z</time>
      </trkpt>
      <trkpt lat="42.70381" lon="2.00929">
        <ele>1588.24</ele>
        <time>2014-03-24T09:24:51Z</time>
      </trkpt>
      <trkpt lat="42.70379" lon="2.00916">
        <ele>1587.75</ele>
        <time>2014-03-24T09:25:01Z</time>
      </trkpt>
      <trkpt lat="42.70374" lon="2.00894">
        <ele>1584.87</ele>
        <time>2014-03-24T09:25:14Z</time>
      </trkpt>
      <trkpt lat="42.7037" lon="2.00874">
        <ele>1583.43</ele>
        <time>2014-03-24T09:25:28Z</time>
      </trkpt>
      <trkpt lat="42.70362" lon="2.00857">
        <ele>1583.43</ele>
        <time>2014-03-24T09:25:42Z</time>
      </trkpt>
      <trkpt lat="42.70355" lon="2.00843">
        <ele>1583.43</ele>
        <time>2014-03-24T09:25:54Z</time>
      </trkpt>
      <trkpt lat="42.70354" lon="2.00842">
        <ele>1583.43</ele>
        <time>2014-03-24T09:25:55Z</time>
      </trkpt>
      <trkpt lat="42.70342" lon="2.00823">
        <ele>1581.03</ele>
        <time>2014-03-24T09:26:10Z</time>
      </trkpt>
      <trkpt lat="42.70331" lon="2.00808">
        <ele>1578.62</ele>
        <time>2014-03-24T09:26:22Z</time>
      </trkpt>
      <trkpt lat="42.70322" lon="2.00792">
        <ele>1575.26</ele>
        <time>2014-03-24T09:26:35Z</time>
      </trkpt>
      <trkpt lat="42.70315" lon="2.00774">
        <ele>1573.33</ele>
        <time>2014-03-24T09:26:47Z</time>
      </trkpt>
      <trkpt lat="42.70315" lon="2.00773">
        <ele>1572.85</ele>
        <time>2014-03-24T09:26:48Z</time>
      </trkpt>
      <trkpt lat="42.70314" lon="2.00771">
        <ele>1572.85</ele>
        <time>2014-03-24T09:26:49Z</time>
      </trkpt>
      <trkpt lat="42.70308" lon="2.0075">
        <ele>1569.01</ele>
        <time>2014-03-24T09:27:05Z</time>
      </trkpt>
      <trkpt lat="42.70302" lon="2.00734">
        <ele>1568.05</ele>
        <time>2014-03-24T09:27:18Z</time>
      </trkpt>
      <trkpt lat="42.70299" lon="2.00718">
        <ele>1567.57</ele>
        <time>2014-03-24T09:27:31Z</time>
      </trkpt>
      <trkpt lat="42.70297" lon="2.00714">
        <ele>1568.53</ele>
        <time>2014-03-24T09:27:35Z</time>
      </trkpt>
      <trkpt lat="42.70297" lon="2.00713">
        <ele>1568.53</ele>
        <time>2014-03-24T09:27:36Z</time>
      </trkpt>
      <trkpt lat="42.70296" lon="2.00696">
        <ele>1571.41</ele>
        <time>2014-03-24T09:27:50Z</time>
      </trkpt>
      <trkpt lat="42.70294" lon="2.00675">
        <ele>1573.82</ele>
        <time>2014-03-24T09:28:05Z</time>
      </trkpt>
      <trkpt lat="42.70294" lon="2.0066">
        <ele>1572.85</ele>
        <time>2014-03-24T09:28:18Z</time>
      </trkpt>
      <trkpt lat="42.70292" lon="2.00642">
        <ele>1575.26</ele>
        <time>2014-03-24T09:28:32Z</time>
      </trkpt>
      <trkpt lat="42.70292" lon="2.00631">
        <ele>1573.33</ele>
        <time>2014-03-24T09:28:43Z</time>
      </trkpt>
      <trkpt lat="42.7029" lon="2.0061">
        <ele>1573.33</ele>
        <time>2014-03-24T09:28:59Z</time>
      </trkpt>
      <trkpt lat="42.70288" lon="2.00596">
        <ele>1577.18</ele>
        <time>2014-03-24T09:29:12Z</time>
      </trkpt>
      <trkpt lat="42.70288" lon="2.0058">
        <ele>1578.62</ele>
        <time>2014-03-24T09:29:26Z</time>
      </trkpt>
      <trkpt lat="42.70286" lon="2.00565">
        <ele>1579.1</ele>
        <time>2014-03-24T09:29:42Z</time>
      </trkpt>
      <trkpt lat="42.70283" lon="2.00551">
        <ele>1581.03</ele>
        <time>2014-03-24T09:29:57Z</time>
      </trkpt>
      <trkpt lat="42.7028" lon="2.00538">
        <ele>1581.51</ele>
        <time>2014-03-24T09:30:12Z</time>
      </trkpt>
      <trkpt lat="42.70278" lon="2.00525">
        <ele>1580.06</ele>
        <time>2014-03-24T09:30:26Z</time>
      </trkpt>
      <trkpt lat="42.70274" lon="2.00515">
        <ele>1581.03</ele>
        <time>2014-03-24T09:30:39Z</time>
      </trkpt>
      <trkpt lat="42.70272" lon="2.00504">
        <ele>1579.58</ele>
        <time>2014-03-24T09:30:53Z</time>
      </trkpt>
      <trkpt lat="42.7027" lon="2.00494">
        <ele>1581.03</ele>
        <time>2014-03-24T09:31:07Z</time>
      </trkpt>
      <trkpt lat="42.70266" lon="2.00483">
        <ele>1583.91</ele>
        <time>2014-03-24T09:31:21Z</time>
      </trkpt>
      <trkpt lat="42.70261" lon="2.00471">
        <ele>1585.83</ele>
        <time>2014-03-24T09:31:36Z</time>
      </trkpt>
      <trkpt lat="42.70256" lon="2.00461">
        <ele>1586.79</ele>
        <time>2014-03-24T09:31:49Z</time>
      </trkpt>
      <trkpt lat="42.7025" lon="2.00453">
        <ele>1588.72</ele>
        <time>2014-03-24T09:32:04Z</time>
      </trkpt>
      <trkpt lat="42.70245" lon="2.00445">
        <ele>1592.56</ele>
        <time>2014-03-24T09:32:18Z</time>
      </trkpt>
      <trkpt lat="42.70238" lon="2.00436">
        <ele>1594.48</ele>
        <time>2014-03-24T09:32:32Z</time>
      </trkpt>
      <trkpt lat="42.70232" lon="2.00427">
        <ele>1597.85</ele>
        <time>2014-03-24T09:32:47Z</time>
      </trkpt>
      <trkpt lat="42.70227" lon="2.00416">
        <ele>1597.85</ele>
        <time>2014-03-24T09:33:04Z</time>
      </trkpt>
      <trkpt lat="42.70221" lon="2.00406">
        <ele>1599.77</ele>
        <time>2014-03-24T09:33:18Z</time>
      </trkpt>
      <trkpt lat="42.70216" lon="2.00395">
        <ele>1600.73</ele>
        <time>2014-03-24T09:33:34Z</time>
      </trkpt>
      <trkpt lat="42.70212" lon="2.00387">
        <ele>1602.66</ele>
        <time>2014-03-24T09:33:46Z</time>
      </trkpt>
      <trkpt lat="42.70206" lon="2.00376">
        <ele>1603.14</ele>
        <time>2014-03-24T09:34:01Z</time>
      </trkpt>
      <trkpt lat="42.70203" lon="2.00367">
        <ele>1602.66</ele>
        <time>2014-03-24T09:34:14Z</time>
      </trkpt>
      <trkpt lat="42.702" lon="2.00358">
        <ele>1603.14</ele>
        <time>2014-03-24T09:34:27Z</time>
      </trkpt>
      <trkpt lat="42.70196" lon="2.00347">
        <ele>1601.69</ele>
        <time>2014-03-24T09:34:40Z</time>
      </trkpt>
      <trkpt lat="42.70192" lon="2.00337">
        <ele>1601.21</ele>
        <time>2014-03-24T09:34:52Z</time>
      </trkpt>
      <trkpt lat="42.70183" lon="2.00331">
        <ele>1601.21</ele>
        <time>2014-03-24T09:35:07Z</time>
      </trkpt>
      <trkpt lat="42.70174" lon="2.00332">
        <ele>1601.69</ele>
        <time>2014-03-24T09:35:21Z</time>
      </trkpt>
      <trkpt lat="42.70165" lon="2.00338">
        <ele>1604.58</ele>
        <time>2014-03-24T09:35:36Z</time>
      </trkpt>
      <trkpt lat="42.70164" lon="2.00339">
        <ele>1605.54</ele>
        <time>2014-03-24T09:35:38Z</time>
      </trkpt>
      <trkpt lat="42.70156" lon="2.00347">
        <ele>1607.46</ele>
        <time>2014-03-24T09:35:51Z</time>
      </trkpt>
      <trkpt lat="42.70148" lon="2.00351">
        <ele>1608.42</ele>
        <time>2014-03-24T09:36:06Z</time>
      </trkpt>
      <trkpt lat="42.70138" lon="2.00359">
        <ele>1609.86</ele>
        <time>2014-03-24T09:36:23Z</time>
      </trkpt>
      <trkpt lat="42.70128" lon="2.00358">
        <ele>1611.31</ele>
        <time>2014-03-24T09:36:37Z</time>
      </trkpt>
      <trkpt lat="42.70119" lon="2.00357">
        <ele>1612.75</ele>
        <time>2014-03-24T09:36:51Z</time>
      </trkpt>
      <trkpt lat="42.70109" lon="2.00357">
        <ele>1615.63</ele>
        <time>2014-03-24T09:37:03Z</time>
      </trkpt>
      <trkpt lat="42.70099" lon="2.00353">
        <ele>1617.56</ele>
        <time>2014-03-24T09:37:16Z</time>
      </trkpt>
      <trkpt lat="42.70096" lon="2.00352">
        <ele>1618.04</ele>
        <time>2014-03-24T09:37:20Z</time>
      </trkpt>
      <trkpt lat="42.70086" lon="2.00347">
        <ele>1616.11</ele>
        <time>2014-03-24T09:37:33Z</time>
      </trkpt>
      <trkpt lat="42.70076" lon="2.00339">
        <ele>1616.11</ele>
        <time>2014-03-24T09:37:45Z</time>
      </trkpt>
      <trkpt lat="42.70068" lon="2.00332">
        <ele>1616.59</ele>
        <time>2014-03-24T09:37:56Z</time>
      </trkpt>
      <trkpt lat="42.70068" lon="2.00331">
        <ele>1616.59</ele>
        <time>2014-03-24T09:37:57Z</time>
      </trkpt>
      <trkpt lat="42.70062" lon="2.00324">
        <ele>1616.11</ele>
        <time>2014-03-24T09:38:08Z</time>
      </trkpt>
      <trkpt lat="42.70053" lon="2.00312">
        <ele>1617.56</ele>
        <time>2014-03-24T09:38:22Z</time>
      </trkpt>
      <trkpt lat="42.70047" lon="2.00298">
        <ele>1615.63</ele>
        <time>2014-03-24T09:38:37Z</time>
      </trkpt>
      <trkpt lat="42.7004" lon="2.0028">
        <ele>1615.15</ele>
        <time>2014-03-24T09:38:53Z</time>
      </trkpt>
      <trkpt lat="42.70035" lon="2.00266">
        <ele>1618.52</ele>
        <time>2014-03-24T09:39:07Z</time>
      </trkpt>
      <trkpt lat="42.70033" lon="2.00257">
        <ele>1619.96</ele>
        <time>2014-03-24T09:39:15Z</time>
      </trkpt>
      <trkpt lat="42.70033" lon="2.00256">
        <ele>1620.44</ele>
        <time>2014-03-24T09:39:16Z</time>
      </trkpt>
      <trkpt lat="42.70029" lon="2.00249">
        <ele>1619.96</ele>
        <time>2014-03-24T09:39:24Z</time>
      </trkpt>
      <trkpt lat="42.70025" lon="2.00242">
        <ele>1618.04</ele>
        <time>2014-03-24T09:39:37Z</time>
      </trkpt>
      <trkpt lat="42.70026" lon="2.00243">
        <ele>1618.04</ele>
        <time>2014-03-24T09:40:05Z</time>
      </trkpt>
      <trkpt lat="42.7002" lon="2.00235">
        <ele>1619.48</ele>
        <time>2014-03-24T09:40:17Z</time>
      </trkpt>
      <trkpt lat="42.70018" lon="2.00235">
        <ele>1619</ele>
        <time>2014-03-24T09:40:24Z</time>
      </trkpt>
      <trkpt lat="42.70017" lon="2.00233">
        <ele>1619</ele>
        <time>2014-03-24T09:40:25Z</time>
      </trkpt>
      <trkpt lat="42.70013" lon="2.00225">
        <ele>1620.92</ele>
        <time>2014-03-24T09:40:37Z</time>
      </trkpt>
      <trkpt lat="42.70008" lon="2.0022">
        <ele>1620.92</ele>
        <time>2014-03-24T09:40:50Z</time>
      </trkpt>
      <trkpt lat="42.70007" lon="2.00218">
        <ele>1619.48</ele>
        <time>2014-03-24T09:41:03Z</time>
      </trkpt>
      <trkpt lat="42.70005" lon="2.00221">
        <ele>1621.88</ele>
        <time>2014-03-24T09:41:14Z</time>
      </trkpt>
      <trkpt lat="42.70005" lon="2.00222">
        <ele>1622.84</ele>
        <time>2014-03-24T09:41:34Z</time>
      </trkpt>
      <trkpt lat="42.70004" lon="2.00216">
        <ele>1625.25</ele>
        <time>2014-03-24T09:41:56Z</time>
      </trkpt>
      <trkpt lat="42.70004" lon="2.00217">
        <ele>1621.4</ele>
        <time>2014-03-24T09:42:11Z</time>
      </trkpt>
      <trkpt lat="42.70004" lon="2.00218">
        <ele>1621.4</ele>
        <time>2014-03-24T09:42:12Z</time>
      </trkpt>
      <trkpt lat="42.7001" lon="2.00212">
        <ele>1620.92</ele>
        <time>2014-03-24T09:42:22Z</time>
      </trkpt>
      <trkpt lat="42.70009" lon="2.00207">
        <ele>1620.92</ele>
        <time>2014-03-24T09:42:31Z</time>
      </trkpt>
      <trkpt lat="42.70008" lon="2.00207">
        <ele>1619.96</ele>
        <time>2014-03-24T09:42:52Z</time>
      </trkpt>
      <trkpt lat="42.70008" lon="2.00218">
        <ele>1618.52</ele>
        <time>2014-03-24T09:43:06Z</time>
      </trkpt>
      <trkpt lat="42.70009" lon="2.00219">
        <ele>1618.04</ele>
        <time>2014-03-24T09:43:07Z</time>
      </trkpt>
      <trkpt lat="42.70011" lon="2.00222">
        <ele>1618.04</ele>
        <time>2014-03-24T09:43:10Z</time>
      </trkpt>
      <trkpt lat="42.70013" lon="2.00227">
        <ele>1617.56</ele>
        <time>2014-03-24T09:43:14Z</time>
      </trkpt>
      <trkpt lat="42.70019" lon="2.00237">
        <ele>1616.11</ele>
        <time>2014-03-24T09:43:26Z</time>
      </trkpt>
      <trkpt lat="42.70017" lon="2.00247">
        <ele>1615.63</ele>
        <time>2014-03-24T09:43:37Z</time>
      </trkpt>
      <trkpt lat="42.70016" lon="2.00247">
        <ele>1615.15</ele>
        <time>2014-03-24T09:43:39Z</time>
      </trkpt>
      <trkpt lat="42.7001" lon="2.00255">
        <ele>1615.63</ele>
        <time>2014-03-24T09:43:51Z</time>
      </trkpt>
      <trkpt lat="42.70008" lon="2.00255">
        <ele>1615.15</ele>
        <time>2014-03-24T09:43:53Z</time>
      </trkpt>
      <trkpt lat="42.69999" lon="2.00254">
        <ele>1615.63</ele>
        <time>2014-03-24T09:44:05Z</time>
      </trkpt>
      <trkpt lat="42.7" lon="2.00251">
        <ele>1616.11</ele>
        <time>2014-03-24T09:44:20Z</time>
      </trkpt>
      <trkpt lat="42.7" lon="2.00246">
        <ele>1616.59</ele>
        <time>2014-03-24T09:44:34Z</time>
      </trkpt>
      <trkpt lat="42.69998" lon="2.00248">
        <ele>1618.52</ele>
        <time>2014-03-24T09:44:59Z</time>
      </trkpt>
      <trkpt lat="42.69993" lon="2.00254">
        <ele>1619.96</ele>
        <time>2014-03-24T09:45:12Z</time>
      </trkpt>
      <trkpt lat="42.69986" lon="2.00257">
        <ele>1620.44</ele>
        <time>2014-03-24T09:45:21Z</time>
      </trkpt>
      <trkpt lat="42.69983" lon="2.0026">
        <ele>1620.92</ele>
        <time>2014-03-24T09:45:25Z</time>
      </trkpt>
      <trkpt lat="42.69978" lon="2.00265">
        <ele>1624.77</ele>
        <time>2014-03-24T09:45:39Z</time>
      </trkpt>
      <trkpt lat="42.6998" lon="2.00266">
        <ele>1625.73</ele>
        <time>2014-03-24T09:46:00Z</time>
      </trkpt>
      <trkpt lat="42.69971" lon="2.00267">
        <ele>1625.25</ele>
        <time>2014-03-24T09:46:14Z</time>
      </trkpt>
      <trkpt lat="42.69971" lon="2.00268">
        <ele>1625.25</ele>
        <time>2014-03-24T09:46:15Z</time>
      </trkpt>
      <trkpt lat="42.69966" lon="2.00271">
        <ele>1624.28</ele>
        <time>2014-03-24T09:46:19Z</time>
      </trkpt>
      <trkpt lat="42.69962" lon="2.00271">
        <ele>1624.28</ele>
        <time>2014-03-24T09:46:23Z</time>
      </trkpt>
      <trkpt lat="42.69952" lon="2.0028">
        <ele>1623.8</ele>
        <time>2014-03-24T09:46:36Z</time>
      </trkpt>
      <trkpt lat="42.69949" lon="2.00279">
        <ele>1628.13</ele>
        <time>2014-03-24T09:46:56Z</time>
      </trkpt>
      <trkpt lat="42.69948" lon="2.00277">
        <ele>1626.69</ele>
        <time>2014-03-24T09:47:06Z</time>
      </trkpt>
      <trkpt lat="42.69937" lon="2.00284">
        <ele>1624.28</ele>
        <time>2014-03-24T09:47:16Z</time>
      </trkpt>
      <trkpt lat="42.69934" lon="2.00285">
        <ele>1624.28</ele>
        <time>2014-03-24T09:47:19Z</time>
      </trkpt>
      <trkpt lat="42.69927" lon="2.00285">
        <ele>1623.32</ele>
        <time>2014-03-24T09:47:25Z</time>
      </trkpt>
      <trkpt lat="42.69916" lon="2.00289">
        <ele>1622.84</ele>
        <time>2014-03-24T09:47:36Z</time>
      </trkpt>
      <trkpt lat="42.69915" lon="2.0029">
        <ele>1622.84</ele>
        <time>2014-03-24T09:47:37Z</time>
      </trkpt>
      <trkpt lat="42.69908" lon="2.00292">
        <ele>1621.88</ele>
        <time>2014-03-24T09:47:45Z</time>
      </trkpt>
      <trkpt lat="42.69905" lon="2.00294">
        <ele>1621.88</ele>
        <time>2014-03-24T09:47:49Z</time>
      </trkpt>
      <trkpt lat="42.69894" lon="2.00305">
        <ele>1624.77</ele>
        <time>2014-03-24T09:48:02Z</time>
      </trkpt>
      <trkpt lat="42.69893" lon="2.00307">
        <ele>1625.25</ele>
        <time>2014-03-24T09:48:05Z</time>
      </trkpt>
      <trkpt lat="42.69889" lon="2.00319">
        <ele>1627.17</ele>
        <time>2014-03-24T09:48:18Z</time>
      </trkpt>
      <trkpt lat="42.69885" lon="2.0033">
        <ele>1628.13</ele>
        <time>2014-03-24T09:48:29Z</time>
      </trkpt>
      <trkpt lat="42.69885" lon="2.00332">
        <ele>1629.09</ele>
        <time>2014-03-24T09:48:31Z</time>
      </trkpt>
      <trkpt lat="42.69883" lon="2.00336">
        <ele>1629.09</ele>
        <time>2014-03-24T09:48:35Z</time>
      </trkpt>
      <trkpt lat="42.69878" lon="2.00347">
        <ele>1626.21</ele>
        <time>2014-03-24T09:48:45Z</time>
      </trkpt>
      <trkpt lat="42.69864" lon="2.00359">
        <ele>1624.77</ele>
        <time>2014-03-24T09:49:01Z</time>
      </trkpt>
      <trkpt lat="42.69853" lon="2.00366">
        <ele>1625.73</ele>
        <time>2014-03-24T09:49:14Z</time>
      </trkpt>
      <trkpt lat="42.69847" lon="2.00367">
        <ele>1625.73</ele>
        <time>2014-03-24T09:49:28Z</time>
      </trkpt>
      <trkpt lat="42.69847" lon="2.00374">
        <ele>1623.32</ele>
        <time>2014-03-24T09:49:37Z</time>
      </trkpt>
      <trkpt lat="42.69838" lon="2.00382">
        <ele>1621.4</ele>
        <time>2014-03-24T09:49:48Z</time>
      </trkpt>
      <trkpt lat="42.69829" lon="2.00386">
        <ele>1621.4</ele>
        <time>2014-03-24T09:50:01Z</time>
      </trkpt>
      <trkpt lat="42.69818" lon="2.00389">
        <ele>1620.92</ele>
        <time>2014-03-24T09:50:13Z</time>
      </trkpt>
      <trkpt lat="42.69816" lon="2.00391">
        <ele>1621.4</ele>
        <time>2014-03-24T09:50:16Z</time>
      </trkpt>
      <trkpt lat="42.6981" lon="2.00391">
        <ele>1621.88</ele>
        <time>2014-03-24T09:50:20Z</time>
      </trkpt>
      <trkpt lat="42.69798" lon="2.004">
        <ele>1622.36</ele>
        <time>2014-03-24T09:50:35Z</time>
      </trkpt>
      <trkpt lat="42.69791" lon="2.00405">
        <ele>1625.73</ele>
        <time>2014-03-24T09:50:47Z</time>
      </trkpt>
      <trkpt lat="42.69784" lon="2.00408">
        <ele>1629.57</ele>
        <time>2014-03-24T09:51:01Z</time>
      </trkpt>
      <trkpt lat="42.69784" lon="2.00412">
        <ele>1629.57</ele>
        <time>2014-03-24T09:51:07Z</time>
      </trkpt>
      <trkpt lat="42.69777" lon="2.00424">
        <ele>1632.46</ele>
        <time>2014-03-24T09:51:20Z</time>
      </trkpt>
      <trkpt lat="42.69768" lon="2.00433">
        <ele>1631.49</ele>
        <time>2014-03-24T09:51:34Z</time>
      </trkpt>
      <trkpt lat="42.69763" lon="2.00441">
        <ele>1631.98</ele>
        <time>2014-03-24T09:51:47Z</time>
      </trkpt>
      <trkpt lat="42.69758" lon="2.0045">
        <ele>1634.86</ele>
        <time>2014-03-24T09:52:01Z</time>
      </trkpt>
      <trkpt lat="42.69751" lon="2.0046">
        <ele>1632.94</ele>
        <time>2014-03-24T09:52:16Z</time>
      </trkpt>
      <trkpt lat="42.69745" lon="2.00474">
        <ele>1633.42</ele>
        <time>2014-03-24T09:52:30Z</time>
      </trkpt>
      <trkpt lat="42.69737" lon="2.00489">
        <ele>1634.38</ele>
        <time>2014-03-24T09:52:44Z</time>
      </trkpt>
      <trkpt lat="42.69731" lon="2.00499">
        <ele>1634.86</ele>
        <time>2014-03-24T09:52:56Z</time>
      </trkpt>
      <trkpt lat="42.69723" lon="2.00513">
        <ele>1634.38</ele>
        <time>2014-03-24T09:53:10Z</time>
      </trkpt>
      <trkpt lat="42.69713" lon="2.00524">
        <ele>1633.9</ele>
        <time>2014-03-24T09:53:24Z</time>
      </trkpt>
      <trkpt lat="42.69707" lon="2.00528">
        <ele>1632.94</ele>
        <time>2014-03-24T09:53:37Z</time>
      </trkpt>
      <trkpt lat="42.69697" lon="2.00536">
        <ele>1634.38</ele>
        <time>2014-03-24T09:53:49Z</time>
      </trkpt>
      <trkpt lat="42.69687" lon="2.00542">
        <ele>1634.86</ele>
        <time>2014-03-24T09:54:03Z</time>
      </trkpt>
      <trkpt lat="42.69676" lon="2.0055">
        <ele>1635.34</ele>
        <time>2014-03-24T09:54:16Z</time>
      </trkpt>
      <trkpt lat="42.69674" lon="2.00549">
        <ele>1635.34</ele>
        <time>2014-03-24T09:54:18Z</time>
      </trkpt>
      <trkpt lat="42.69664" lon="2.00553">
        <ele>1636.78</ele>
        <time>2014-03-24T09:54:30Z</time>
      </trkpt>
      <trkpt lat="42.69653" lon="2.00549">
        <ele>1637.26</ele>
        <time>2014-03-24T09:54:43Z</time>
      </trkpt>
      <trkpt lat="42.69651" lon="2.00536">
        <ele>1634.86</ele>
        <time>2014-03-24T09:54:57Z</time>
      </trkpt>
      <trkpt lat="42.6965" lon="2.00535">
        <ele>1634.38</ele>
        <time>2014-03-24T09:54:58Z</time>
      </trkpt>
      <trkpt lat="42.69643" lon="2.00526">
        <ele>1634.86</ele>
        <time>2014-03-24T09:55:10Z</time>
      </trkpt>
      <trkpt lat="42.69637" lon="2.00525">
        <ele>1636.3</ele>
        <time>2014-03-24T09:55:18Z</time>
      </trkpt>
      <trkpt lat="42.69627" lon="2.00526">
        <ele>1638.7</ele>
        <time>2014-03-24T09:55:31Z</time>
      </trkpt>
      <trkpt lat="42.69618" lon="2.0053">
        <ele>1639.67</ele>
        <time>2014-03-24T09:55:43Z</time>
      </trkpt>
      <trkpt lat="42.69611" lon="2.00534">
        <ele>1643.03</ele>
        <time>2014-03-24T09:55:54Z</time>
      </trkpt>
      <trkpt lat="42.69607" lon="2.00543">
        <ele>1644.47</ele>
        <time>2014-03-24T09:56:05Z</time>
      </trkpt>
      <trkpt lat="42.69599" lon="2.00549">
        <ele>1645.91</ele>
        <time>2014-03-24T09:56:21Z</time>
      </trkpt>
      <trkpt lat="42.69597" lon="2.00557">
        <ele>1647.84</ele>
        <time>2014-03-24T09:56:35Z</time>
      </trkpt>
      <trkpt lat="42.69599" lon="2.00569">
        <ele>1648.8</ele>
        <time>2014-03-24T09:56:49Z</time>
      </trkpt>
      <trkpt lat="42.6959" lon="2.00572">
        <ele>1650.72</ele>
        <time>2014-03-24T09:57:00Z</time>
      </trkpt>
      <trkpt lat="42.69586" lon="2.00575">
        <ele>1651.68</ele>
        <time>2014-03-24T09:57:06Z</time>
      </trkpt>
      <trkpt lat="42.69581" lon="2.00578">
        <ele>1649.28</ele>
        <time>2014-03-24T09:57:12Z</time>
      </trkpt>
      <trkpt lat="42.69578" lon="2.0059">
        <ele>1647.36</ele>
        <time>2014-03-24T09:57:25Z</time>
      </trkpt>
      <trkpt lat="42.69578" lon="2.00592">
        <ele>1647.36</ele>
        <time>2014-03-24T09:57:26Z</time>
      </trkpt>
      <trkpt lat="42.69578" lon="2.00596">
        <ele>1646.88</ele>
        <time>2014-03-24T09:57:30Z</time>
      </trkpt>
      <trkpt lat="42.69577" lon="2.0061">
        <ele>1646.4</ele>
        <time>2014-03-24T09:57:42Z</time>
      </trkpt>
      <trkpt lat="42.69581" lon="2.00623">
        <ele>1646.88</ele>
        <time>2014-03-24T09:57:57Z</time>
      </trkpt>
      <trkpt lat="42.6959" lon="2.00635">
        <ele>1647.84</ele>
        <time>2014-03-24T09:58:11Z</time>
      </trkpt>
      <trkpt lat="42.6959" lon="2.00646">
        <ele>1650.72</ele>
        <time>2014-03-24T09:58:25Z</time>
      </trkpt>
      <trkpt lat="42.69589" lon="2.0066">
        <ele>1652.16</ele>
        <time>2014-03-24T09:58:38Z</time>
      </trkpt>
      <trkpt lat="42.69589" lon="2.00674">
        <ele>1653.12</ele>
        <time>2014-03-24T09:58:52Z</time>
      </trkpt>
      <trkpt lat="42.6959" lon="2.00689">
        <ele>1653.6</ele>
        <time>2014-03-24T09:59:06Z</time>
      </trkpt>
      <trkpt lat="42.69592" lon="2.00701">
        <ele>1651.68</ele>
        <time>2014-03-24T09:59:21Z</time>
      </trkpt>
      <trkpt lat="42.69596" lon="2.00713">
        <ele>1652.16</ele>
        <time>2014-03-24T09:59:36Z</time>
      </trkpt>
      <trkpt lat="42.69595" lon="2.00728">
        <ele>1655.53</ele>
        <time>2014-03-24T09:59:49Z</time>
      </trkpt>
      <trkpt lat="42.69595" lon="2.0074">
        <ele>1658.41</ele>
        <time>2014-03-24T10:00:02Z</time>
      </trkpt>
      <trkpt lat="42.69597" lon="2.0075">
        <ele>1660.81</ele>
        <time>2014-03-24T10:00:14Z</time>
      </trkpt>
      <trkpt lat="42.69593" lon="2.00756">
        <ele>1663.7</ele>
        <time>2014-03-24T10:00:30Z</time>
      </trkpt>
      <trkpt lat="42.69588" lon="2.00761">
        <ele>1665.62</ele>
        <time>2014-03-24T10:00:44Z</time>
      </trkpt>
      <trkpt lat="42.69585" lon="2.00767">
        <ele>1666.1</ele>
        <time>2014-03-24T10:00:58Z</time>
      </trkpt>
      <trkpt lat="42.69589" lon="2.00774">
        <ele>1669.95</ele>
        <time>2014-03-24T10:01:12Z</time>
      </trkpt>
      <trkpt lat="42.69595" lon="2.00779">
        <ele>1671.87</ele>
        <time>2014-03-24T10:01:25Z</time>
      </trkpt>
      <trkpt lat="42.6959" lon="2.00787">
        <ele>1673.31</ele>
        <time>2014-03-24T10:01:37Z</time>
      </trkpt>
      <trkpt lat="42.69582" lon="2.00795">
        <ele>1671.87</ele>
        <time>2014-03-24T10:01:49Z</time>
      </trkpt>
      <trkpt lat="42.69575" lon="2.00795">
        <ele>1669.95</ele>
        <time>2014-03-24T10:02:04Z</time>
      </trkpt>
      <trkpt lat="42.69577" lon="2.00794">
        <ele>1669.47</ele>
        <time>2014-03-24T10:02:14Z</time>
      </trkpt>
      <trkpt lat="42.69581" lon="2.00798">
        <ele>1668.99</ele>
        <time>2014-03-24T10:02:26Z</time>
      </trkpt>
      <trkpt lat="42.69583" lon="2.00802">
        <ele>1669.47</ele>
        <time>2014-03-24T10:02:39Z</time>
      </trkpt>
      <trkpt lat="42.69579" lon="2.00807">
        <ele>1669.95</ele>
        <time>2014-03-24T10:02:52Z</time>
      </trkpt>
      <trkpt lat="42.6957" lon="2.00807">
        <ele>1676.2</ele>
        <time>2014-03-24T10:03:10Z</time>
      </trkpt>
      <trkpt lat="42.69571" lon="2.00809">
        <ele>1676.2</ele>
        <time>2014-03-24T10:03:25Z</time>
      </trkpt>
      <trkpt lat="42.69576" lon="2.00814">
        <ele>1677.16</ele>
        <time>2014-03-24T10:03:41Z</time>
      </trkpt>
      <trkpt lat="42.69569" lon="2.00817">
        <ele>1681</ele>
        <time>2014-03-24T10:03:54Z</time>
      </trkpt>
      <trkpt lat="42.69565" lon="2.00819">
        <ele>1686.77</ele>
        <time>2014-03-24T10:04:08Z</time>
      </trkpt>
      <trkpt lat="42.69566" lon="2.00824">
        <ele>1687.73</ele>
        <time>2014-03-24T10:04:21Z</time>
      </trkpt>
      <trkpt lat="42.69569" lon="2.00824">
        <ele>1685.33</ele>
        <time>2014-03-24T10:04:36Z</time>
      </trkpt>
      <trkpt lat="42.69569" lon="2.00829">
        <ele>1687.25</ele>
        <time>2014-03-24T10:04:49Z</time>
      </trkpt>
      <trkpt lat="42.69563" lon="2.00825">
        <ele>1688.69</ele>
        <time>2014-03-24T10:05:02Z</time>
      </trkpt>
      <trkpt lat="42.69562" lon="2.00821">
        <ele>1690.62</ele>
        <time>2014-03-24T10:05:16Z</time>
      </trkpt>
      <trkpt lat="42.69567" lon="2.00823">
        <ele>1692.54</ele>
        <time>2014-03-24T10:05:28Z</time>
      </trkpt>
      <trkpt lat="42.69575" lon="2.00827">
        <ele>1693.5</ele>
        <time>2014-03-24T10:05:42Z</time>
      </trkpt>
      <trkpt lat="42.69573" lon="2.00831">
        <ele>1696.86</ele>
        <time>2014-03-24T10:05:56Z</time>
      </trkpt>
      <trkpt lat="42.69572" lon="2.00836">
        <ele>1695.9</ele>
        <time>2014-03-24T10:06:07Z</time>
      </trkpt>
      <trkpt lat="42.69564" lon="2.00838">
        <ele>1695.42</ele>
        <time>2014-03-24T10:06:19Z</time>
      </trkpt>
      <trkpt lat="42.69556" lon="2.00839">
        <ele>1695.9</ele>
        <time>2014-03-24T10:06:34Z</time>
      </trkpt>
      <trkpt lat="42.69557" lon="2.00844">
        <ele>1695.9</ele>
        <time>2014-03-24T10:06:48Z</time>
      </trkpt>
      <trkpt lat="42.69552" lon="2.00842">
        <ele>1696.86</ele>
        <time>2014-03-24T10:07:00Z</time>
      </trkpt>
      <trkpt lat="42.69549" lon="2.00837">
        <ele>1702.15</ele>
        <time>2014-03-24T10:07:17Z</time>
      </trkpt>
      <trkpt lat="42.6955" lon="2.00838">
        <ele>1703.11</ele>
        <time>2014-03-24T10:07:31Z</time>
      </trkpt>
      <trkpt lat="42.69554" lon="2.00841">
        <ele>1707.92</ele>
        <time>2014-03-24T10:07:47Z</time>
      </trkpt>
      <trkpt lat="42.69552" lon="2.00843">
        <ele>1706.48</ele>
        <time>2014-03-24T10:08:03Z</time>
      </trkpt>
      <trkpt lat="42.69549" lon="2.00838">
        <ele>1709.84</ele>
        <time>2014-03-24T10:08:22Z</time>
      </trkpt>
      <trkpt lat="42.69548" lon="2.0084">
        <ele>1709.36</ele>
        <time>2014-03-24T10:08:36Z</time>
      </trkpt>
      <trkpt lat="42.69549" lon="2.00844">
        <ele>1708.4</ele>
        <time>2014-03-24T10:08:51Z</time>
      </trkpt>
      <trkpt lat="42.69547" lon="2.00841">
        <ele>1708.4</ele>
        <time>2014-03-24T10:09:08Z</time>
      </trkpt>
      <trkpt lat="42.69545" lon="2.00842">
        <ele>1711.28</ele>
        <time>2014-03-24T10:09:23Z</time>
      </trkpt>
      <trkpt lat="42.69548" lon="2.00843">
        <ele>1710.32</ele>
        <time>2014-03-24T10:09:38Z</time>
      </trkpt>
      <trkpt lat="42.69545" lon="2.0084">
        <ele>1709.84</ele>
        <time>2014-03-24T10:09:53Z</time>
      </trkpt>
      <trkpt lat="42.69544" lon="2.00836">
        <ele>1711.76</ele>
        <time>2014-03-24T10:10:05Z</time>
      </trkpt>
      <trkpt lat="42.69538" lon="2.00833">
        <ele>1712.25</ele>
        <time>2014-03-24T10:10:21Z</time>
      </trkpt>
      <trkpt lat="42.69538" lon="2.00834">
        <ele>1713.21</ele>
        <time>2014-03-24T10:10:38Z</time>
      </trkpt>
      <trkpt lat="42.69539" lon="2.00837">
        <ele>1711.76</ele>
        <time>2014-03-24T10:10:53Z</time>
      </trkpt>
      <trkpt lat="42.69543" lon="2.00838">
        <ele>1708.88</ele>
        <time>2014-03-24T10:11:08Z</time>
      </trkpt>
      <trkpt lat="42.69544" lon="2.00842">
        <ele>1707.92</ele>
        <time>2014-03-24T10:11:25Z</time>
      </trkpt>
      <trkpt lat="42.69542" lon="2.00848">
        <ele>1711.76</ele>
        <time>2014-03-24T10:11:43Z</time>
      </trkpt>
      <trkpt lat="42.69541" lon="2.00851">
        <ele>1713.69</ele>
        <time>2014-03-24T10:11:55Z</time>
      </trkpt>
      <trkpt lat="42.6954" lon="2.00851">
        <ele>1712.73</ele>
        <time>2014-03-24T10:12:09Z</time>
      </trkpt>
      <trkpt lat="42.69541" lon="2.00852">
        <ele>1714.17</ele>
        <time>2014-03-24T10:12:23Z</time>
      </trkpt>
      <trkpt lat="42.69544" lon="2.00848">
        <ele>1716.57</ele>
        <time>2014-03-24T10:12:37Z</time>
      </trkpt>
      <trkpt lat="42.69544" lon="2.00852">
        <ele>1719.46</ele>
        <time>2014-03-24T10:12:49Z</time>
      </trkpt>
      <trkpt lat="42.69549" lon="2.00849">
        <ele>1722.34</ele>
        <time>2014-03-24T10:13:08Z</time>
      </trkpt>
      <trkpt lat="42.69552" lon="2.00854">
        <ele>1722.34</ele>
        <time>2014-03-24T10:13:24Z</time>
      </trkpt>
      <trkpt lat="42.69556" lon="2.00857">
        <ele>1723.3</ele>
        <time>2014-03-24T10:13:38Z</time>
      </trkpt>
      <trkpt lat="42.69556" lon="2.00858">
        <ele>1723.3</ele>
        <time>2014-03-24T10:13:59Z</time>
      </trkpt>
      <trkpt lat="42.6955" lon="2.00865">
        <ele>1725.22</ele>
        <time>2014-03-24T10:14:15Z</time>
      </trkpt>
      <trkpt lat="42.6955" lon="2.00866">
        <ele>1723.78</ele>
        <time>2014-03-24T10:14:32Z</time>
      </trkpt>
      <trkpt lat="42.69547" lon="2.00868">
        <ele>1721.38</ele>
        <time>2014-03-24T10:14:46Z</time>
      </trkpt>
      <trkpt lat="42.69553" lon="2.00869">
        <ele>1720.9</ele>
        <time>2014-03-24T10:15:01Z</time>
      </trkpt>
      <trkpt lat="42.69555" lon="2.00874">
        <ele>1728.11</ele>
        <time>2014-03-24T10:15:15Z</time>
      </trkpt>
      <trkpt lat="42.69551" lon="2.00875">
        <ele>1728.11</ele>
        <time>2014-03-24T10:15:31Z</time>
      </trkpt>
      <trkpt lat="42.69544" lon="2.00875">
        <ele>1724.74</ele>
        <time>2014-03-24T10:15:51Z</time>
      </trkpt>
      <trkpt lat="42.6954" lon="2.00872">
        <ele>1724.74</ele>
        <time>2014-03-24T10:16:06Z</time>
      </trkpt>
      <trkpt lat="42.69542" lon="2.00874">
        <ele>1723.3</ele>
        <time>2014-03-24T10:16:23Z</time>
      </trkpt>
      <trkpt lat="42.6954" lon="2.00873">
        <ele>1724.26</ele>
        <time>2014-03-24T10:16:36Z</time>
      </trkpt>
      <trkpt lat="42.69541" lon="2.00868">
        <ele>1727.15</ele>
        <time>2014-03-24T10:17:00Z</time>
      </trkpt>
      <trkpt lat="42.69549" lon="2.00869">
        <ele>1730.51</ele>
        <time>2014-03-24T10:17:20Z</time>
      </trkpt>
      <trkpt lat="42.69544" lon="2.00875">
        <ele>1730.03</ele>
        <time>2014-03-24T10:17:43Z</time>
      </trkpt>
      <trkpt lat="42.6954" lon="2.00876">
        <ele>1728.59</ele>
        <time>2014-03-24T10:17:56Z</time>
      </trkpt>
      <trkpt lat="42.69542" lon="2.00881">
        <ele>1727.15</ele>
        <time>2014-03-24T10:18:12Z</time>
      </trkpt>
      <trkpt lat="42.69535" lon="2.0088">
        <ele>1727.15</ele>
        <time>2014-03-24T10:18:25Z</time>
      </trkpt>
      <trkpt lat="42.69532" lon="2.00875">
        <ele>1727.15</ele>
        <time>2014-03-24T10:18:41Z</time>
      </trkpt>
      <trkpt lat="42.69532" lon="2.00877">
        <ele>1726.18</ele>
        <time>2014-03-24T10:18:57Z</time>
      </trkpt>
      <trkpt lat="42.69535" lon="2.00881">
        <ele>1723.3</ele>
        <time>2014-03-24T10:19:14Z</time>
      </trkpt>
      <trkpt lat="42.69543" lon="2.00881">
        <ele>1722.82</ele>
        <time>2014-03-24T10:19:25Z</time>
      </trkpt>
      <trkpt lat="42.69546" lon="2.00879">
        <ele>1721.86</ele>
        <time>2014-03-24T10:19:37Z</time>
      </trkpt>
      <trkpt lat="42.69547" lon="2.00881">
        <ele>1723.78</ele>
        <time>2014-03-24T10:19:54Z</time>
      </trkpt>
      <trkpt lat="42.69547" lon="2.0088">
        <ele>1724.26</ele>
        <time>2014-03-24T10:20:13Z</time>
      </trkpt>
      <trkpt lat="42.69545" lon="2.00881">
        <ele>1727.15</ele>
        <time>2014-03-24T10:20:26Z</time>
      </trkpt>
      <trkpt lat="42.69548" lon="2.00882">
        <ele>1729.07</ele>
        <time>2014-03-24T10:20:42Z</time>
      </trkpt>
      <trkpt lat="42.69545" lon="2.00888">
        <ele>1733.88</ele>
        <time>2014-03-24T10:20:58Z</time>
      </trkpt>
      <trkpt lat="42.69541" lon="2.00884">
        <ele>1731.95</ele>
        <time>2014-03-24T10:21:18Z</time>
      </trkpt>
      <trkpt lat="42.6954" lon="2.00884">
        <ele>1732.91</ele>
        <time>2014-03-24T10:21:42Z</time>
      </trkpt>
      <trkpt lat="42.69541" lon="2.00889">
        <ele>1731.95</ele>
        <time>2014-03-24T10:22:08Z</time>
      </trkpt>
      <trkpt lat="42.69547" lon="2.00891">
        <ele>1732.43</ele>
        <time>2014-03-24T10:22:22Z</time>
      </trkpt>
      <trkpt lat="42.69547" lon="2.00892">
        <ele>1733.88</ele>
        <time>2014-03-24T10:22:37Z</time>
      </trkpt>
      <trkpt lat="42.69546" lon="2.00892">
        <ele>1734.36</ele>
        <time>2014-03-24T10:22:52Z</time>
      </trkpt>
      <trkpt lat="42.69546" lon="2.00892">
        <ele>1735.8</ele>
        <time>2014-03-24T10:23:04Z</time>
      </trkpt>
      <trkpt lat="42.69548" lon="2.00893">
        <ele>1737.72</ele>
        <time>2014-03-24T10:23:18Z</time>
      </trkpt>
      <trkpt lat="42.69548" lon="2.00893">
        <ele>1739.16</ele>
        <time>2014-03-24T10:23:24Z</time>
      </trkpt>
      <trkpt lat="42.69547" lon="2.00899">
        <ele>1741.08</ele>
        <time>2014-03-24T10:23:36Z</time>
      </trkpt>
      <trkpt lat="42.69548" lon="2.00902">
        <ele>1741.57</ele>
        <time>2014-03-24T10:23:52Z</time>
      </trkpt>
      <trkpt lat="42.69547" lon="2.00903">
        <ele>1739.16</ele>
        <time>2014-03-24T10:24:15Z</time>
      </trkpt>
      <trkpt lat="42.69548" lon="2.009">
        <ele>1740.12</ele>
        <time>2014-03-24T10:24:33Z</time>
      </trkpt>
      <trkpt lat="42.69549" lon="2.00898">
        <ele>1742.05</ele>
        <time>2014-03-24T10:24:47Z</time>
      </trkpt>
      <trkpt lat="42.69544" lon="2.00898">
        <ele>1740.6</ele>
        <time>2014-03-24T10:25:05Z</time>
      </trkpt>
      <trkpt lat="42.6954" lon="2.00903">
        <ele>1738.68</ele>
        <time>2014-03-24T10:25:23Z</time>
      </trkpt>
      <trkpt lat="42.69543" lon="2.00904">
        <ele>1737.24</ele>
        <time>2014-03-24T10:25:40Z</time>
      </trkpt>
      <trkpt lat="42.69548" lon="2.00906">
        <ele>1737.72</ele>
        <time>2014-03-24T10:25:54Z</time>
      </trkpt>
      <trkpt lat="42.69546" lon="2.0091">
        <ele>1738.2</ele>
        <time>2014-03-24T10:26:20Z</time>
      </trkpt>
      <trkpt lat="42.69545" lon="2.00909">
        <ele>1742.05</ele>
        <time>2014-03-24T10:26:49Z</time>
      </trkpt>
      <trkpt lat="42.69549" lon="2.00909">
        <ele>1744.45</ele>
        <time>2014-03-24T10:27:09Z</time>
      </trkpt>
      <trkpt lat="42.69542" lon="2.00911">
        <ele>1743.49</ele>
        <time>2014-03-24T10:27:31Z</time>
      </trkpt>
      <trkpt lat="42.69538" lon="2.00912">
        <ele>1746.37</ele>
        <time>2014-03-24T10:27:48Z</time>
      </trkpt>
      <trkpt lat="42.69537" lon="2.00915">
        <ele>1747.33</ele>
        <time>2014-03-24T10:28:04Z</time>
      </trkpt>
      <trkpt lat="42.69543" lon="2.00915">
        <ele>1748.78</ele>
        <time>2014-03-24T10:28:25Z</time>
      </trkpt>
      <trkpt lat="42.69543" lon="2.0092">
        <ele>1748.29</ele>
        <time>2014-03-24T10:28:43Z</time>
      </trkpt>
      <trkpt lat="42.69536" lon="2.00917">
        <ele>1750.7</ele>
        <time>2014-03-24T10:29:00Z</time>
      </trkpt>
      <trkpt lat="42.69528" lon="2.00917">
        <ele>1751.66</ele>
        <time>2014-03-24T10:29:15Z</time>
      </trkpt>
      <trkpt lat="42.69524" lon="2.00913">
        <ele>1753.1</ele>
        <time>2014-03-24T10:29:35Z</time>
      </trkpt>
      <trkpt lat="42.69526" lon="2.00916">
        <ele>1748.78</ele>
        <time>2014-03-24T10:29:52Z</time>
      </trkpt>
      <trkpt lat="42.69529" lon="2.00916">
        <ele>1746.85</ele>
        <time>2014-03-24T10:30:07Z</time>
      </trkpt>
      <trkpt lat="42.69531" lon="2.00916">
        <ele>1745.89</ele>
        <time>2014-03-24T10:30:19Z</time>
      </trkpt>
      <trkpt lat="42.6953" lon="2.00916">
        <ele>1745.89</ele>
        <time>2014-03-24T10:30:34Z</time>
      </trkpt>
      <trkpt lat="42.69529" lon="2.00916">
        <ele>1748.29</ele>
        <time>2014-03-24T10:30:54Z</time>
      </trkpt>
      <trkpt lat="42.69525" lon="2.00918">
        <ele>1752.14</ele>
        <time>2014-03-24T10:31:12Z</time>
      </trkpt>
      <trkpt lat="42.69523" lon="2.0092">
        <ele>1755.5</ele>
        <time>2014-03-24T10:31:24Z</time>
      </trkpt>
      <trkpt lat="42.69522" lon="2.00922">
        <ele>1757.91</ele>
        <time>2014-03-24T10:31:36Z</time>
      </trkpt>
      <trkpt lat="42.69524" lon="2.00922">
        <ele>1756.95</ele>
        <time>2014-03-24T10:31:50Z</time>
      </trkpt>
      <trkpt lat="42.69524" lon="2.00925">
        <ele>1755.5</ele>
        <time>2014-03-24T10:32:04Z</time>
      </trkpt>
      <trkpt lat="42.69525" lon="2.00922">
        <ele>1755.02</ele>
        <time>2014-03-24T10:32:18Z</time>
      </trkpt>
      <trkpt lat="42.69522" lon="2.00925">
        <ele>1755.99</ele>
        <time>2014-03-24T10:32:34Z</time>
      </trkpt>
      <trkpt lat="42.69516" lon="2.0093">
        <ele>1756.95</ele>
        <time>2014-03-24T10:32:49Z</time>
      </trkpt>
      <trkpt lat="42.69517" lon="2.0093">
        <ele>1755.02</ele>
        <time>2014-03-24T10:33:04Z</time>
      </trkpt>
      <trkpt lat="42.6952" lon="2.0093">
        <ele>1754.54</ele>
        <time>2014-03-24T10:33:17Z</time>
      </trkpt>
      <trkpt lat="42.69523" lon="2.0093">
        <ele>1755.02</ele>
        <time>2014-03-24T10:33:35Z</time>
      </trkpt>
      <trkpt lat="42.69524" lon="2.00931">
        <ele>1755.5</ele>
        <time>2014-03-24T10:33:49Z</time>
      </trkpt>
      <trkpt lat="42.69525" lon="2.0093">
        <ele>1757.91</ele>
        <time>2014-03-24T10:34:04Z</time>
      </trkpt>
      <trkpt lat="42.69525" lon="2.00932">
        <ele>1758.87</ele>
        <time>2014-03-24T10:34:18Z</time>
      </trkpt>
      <trkpt lat="42.69517" lon="2.0094">
        <ele>1759.35</ele>
        <time>2014-03-24T10:34:37Z</time>
      </trkpt>
      <trkpt lat="42.69512" lon="2.00939">
        <ele>1761.27</ele>
        <time>2014-03-24T10:34:50Z</time>
      </trkpt>
      <trkpt lat="42.69511" lon="2.00942">
        <ele>1761.75</ele>
        <time>2014-03-24T10:35:00Z</time>
      </trkpt>
      <trkpt lat="42.69515" lon="2.00944">
        <ele>1762.71</ele>
        <time>2014-03-24T10:35:11Z</time>
      </trkpt>
      <trkpt lat="42.69518" lon="2.00945">
        <ele>1764.64</ele>
        <time>2014-03-24T10:35:24Z</time>
      </trkpt>
      <trkpt lat="42.69517" lon="2.00949">
        <ele>1767.04</ele>
        <time>2014-03-24T10:35:37Z</time>
      </trkpt>
      <trkpt lat="42.69515" lon="2.00951">
        <ele>1765.6</ele>
        <time>2014-03-24T10:35:48Z</time>
      </trkpt>
      <trkpt lat="42.69516" lon="2.00952">
        <ele>1764.64</ele>
        <time>2014-03-24T10:36:00Z</time>
      </trkpt>
      <trkpt lat="42.69517" lon="2.00954">
        <ele>1760.79</ele>
        <time>2014-03-24T10:36:15Z</time>
      </trkpt>
      <trkpt lat="42.69517" lon="2.00955">
        <ele>1758.87</ele>
        <time>2014-03-24T10:36:25Z</time>
      </trkpt>
      <trkpt lat="42.69522" lon="2.00959">
        <ele>1757.91</ele>
        <time>2014-03-24T10:36:38Z</time>
      </trkpt>
      <trkpt lat="42.69517" lon="2.00965">
        <ele>1759.83</ele>
        <time>2014-03-24T10:36:54Z</time>
      </trkpt>
      <trkpt lat="42.69516" lon="2.00968">
        <ele>1768</ele>
        <time>2014-03-24T10:37:09Z</time>
      </trkpt>
      <trkpt lat="42.69523" lon="2.00964">
        <ele>1771.37</ele>
        <time>2014-03-24T10:37:24Z</time>
      </trkpt>
      <trkpt lat="42.69527" lon="2.0097">
        <ele>1770.89</ele>
        <time>2014-03-24T10:37:37Z</time>
      </trkpt>
      <trkpt lat="42.69522" lon="2.00976">
        <ele>1773.29</ele>
        <time>2014-03-24T10:37:54Z</time>
      </trkpt>
      <trkpt lat="42.69516" lon="2.00981">
        <ele>1776.65</ele>
        <time>2014-03-24T10:38:10Z</time>
      </trkpt>
      <trkpt lat="42.69516" lon="2.00982">
        <ele>1776.65</ele>
        <time>2014-03-24T10:38:22Z</time>
      </trkpt>
      <trkpt lat="42.6952" lon="2.00985">
        <ele>1777.13</ele>
        <time>2014-03-24T10:38:36Z</time>
      </trkpt>
      <trkpt lat="42.69526" lon="2.00988">
        <ele>1780.5</ele>
        <time>2014-03-24T10:38:51Z</time>
      </trkpt>
      <trkpt lat="42.69529" lon="2.00992">
        <ele>1780.5</ele>
        <time>2014-03-24T10:39:03Z</time>
      </trkpt>
      <trkpt lat="42.69532" lon="2.00997">
        <ele>1779.54</ele>
        <time>2014-03-24T10:39:14Z</time>
      </trkpt>
      <trkpt lat="42.69533" lon="2.01003">
        <ele>1781.94</ele>
        <time>2014-03-24T10:39:27Z</time>
      </trkpt>
      <trkpt lat="42.69534" lon="2.01006">
        <ele>1782.42</ele>
        <time>2014-03-24T10:39:50Z</time>
      </trkpt>
      <trkpt lat="42.69533" lon="2.01">
        <ele>1780.98</ele>
        <time>2014-03-24T10:40:06Z</time>
      </trkpt>
      <trkpt lat="42.69535" lon="2.01002">
        <ele>1783.86</ele>
        <time>2014-03-24T10:40:39Z</time>
      </trkpt>
      <trkpt lat="42.69535" lon="2.01001">
        <ele>1790.11</ele>
        <time>2014-03-24T10:41:11Z</time>
      </trkpt>
      <trkpt lat="42.69533" lon="2.00997">
        <ele>1791.55</ele>
        <time>2014-03-24T10:41:46Z</time>
      </trkpt>
      <trkpt lat="42.6954" lon="2.01006">
        <ele>1790.11</ele>
        <time>2014-03-24T10:42:23Z</time>
      </trkpt>
      <trkpt lat="42.69536" lon="2.01001">
        <ele>1789.15</ele>
        <time>2014-03-24T10:43:02Z</time>
      </trkpt>
      <trkpt lat="42.69534" lon="2.01002">
        <ele>1787.23</ele>
        <time>2014-03-24T10:43:16Z</time>
      </trkpt>
      <trkpt lat="42.69534" lon="2.01003">
        <ele>1790.11</ele>
        <time>2014-03-24T10:43:35Z</time>
      </trkpt>
      <trkpt lat="42.69533" lon="2.01014">
        <ele>1788.19</ele>
        <time>2014-03-24T10:43:49Z</time>
      </trkpt>
      <trkpt lat="42.69536" lon="2.01029">
        <ele>1785.79</ele>
        <time>2014-03-24T10:44:04Z</time>
      </trkpt>
      <trkpt lat="42.69539" lon="2.01041">
        <ele>1782.42</ele>
        <time>2014-03-24T10:44:17Z</time>
      </trkpt>
      <trkpt lat="42.69542" lon="2.0105">
        <ele>1784.34</ele>
        <time>2014-03-24T10:44:31Z</time>
      </trkpt>
      <trkpt lat="42.69548" lon="2.01053">
        <ele>1783.38</ele>
        <time>2014-03-24T10:44:43Z</time>
      </trkpt>
      <trkpt lat="42.69553" lon="2.01063">
        <ele>1782.42</ele>
        <time>2014-03-24T10:44:58Z</time>
      </trkpt>
      <trkpt lat="42.69557" lon="2.01077">
        <ele>1781.46</ele>
        <time>2014-03-24T10:45:14Z</time>
      </trkpt>
      <trkpt lat="42.69561" lon="2.0109">
        <ele>1783.86</ele>
        <time>2014-03-24T10:45:28Z</time>
      </trkpt>
      <trkpt lat="42.69563" lon="2.01095">
        <ele>1786.75</ele>
        <time>2014-03-24T10:45:44Z</time>
      </trkpt>
      <trkpt lat="42.69554" lon="2.01101">
        <ele>1795.4</ele>
        <time>2014-03-24T10:45:58Z</time>
      </trkpt>
      <trkpt lat="42.69555" lon="2.01109">
        <ele>1797.32</ele>
        <time>2014-03-24T10:46:12Z</time>
      </trkpt>
      <trkpt lat="42.69556" lon="2.0112">
        <ele>1799.73</ele>
        <time>2014-03-24T10:46:26Z</time>
      </trkpt>
      <trkpt lat="42.69554" lon="2.01123">
        <ele>1802.61</ele>
        <time>2014-03-24T10:46:38Z</time>
      </trkpt>
      <trkpt lat="42.69552" lon="2.0113">
        <ele>1802.13</ele>
        <time>2014-03-24T10:46:53Z</time>
      </trkpt>
      <trkpt lat="42.69551" lon="2.01136">
        <ele>1804.05</ele>
        <time>2014-03-24T10:47:06Z</time>
      </trkpt>
      <trkpt lat="42.69547" lon="2.01143">
        <ele>1803.57</ele>
        <time>2014-03-24T10:47:20Z</time>
      </trkpt>
      <trkpt lat="42.69544" lon="2.01153">
        <ele>1805.49</ele>
        <time>2014-03-24T10:47:32Z</time>
      </trkpt>
      <trkpt lat="42.69544" lon="2.01158">
        <ele>1805.97</ele>
        <time>2014-03-24T10:47:49Z</time>
      </trkpt>
      <trkpt lat="42.69544" lon="2.01162">
        <ele>1807.9</ele>
        <time>2014-03-24T10:48:06Z</time>
      </trkpt>
      <trkpt lat="42.69534" lon="2.01165">
        <ele>1809.82</ele>
        <time>2014-03-24T10:48:20Z</time>
      </trkpt>
      <trkpt lat="42.69521" lon="2.01166">
        <ele>1809.82</ele>
        <time>2014-03-24T10:48:32Z</time>
      </trkpt>
      <trkpt lat="42.6951" lon="2.0117">
        <ele>1810.3</ele>
        <time>2014-03-24T10:48:43Z</time>
      </trkpt>
      <trkpt lat="42.69498" lon="2.01174">
        <ele>1814.63</ele>
        <time>2014-03-24T10:48:56Z</time>
      </trkpt>
      <trkpt lat="42.6949" lon="2.01171">
        <ele>1813.18</ele>
        <time>2014-03-24T10:49:09Z</time>
      </trkpt>
      <trkpt lat="42.69483" lon="2.01173">
        <ele>1812.22</ele>
        <time>2014-03-24T10:49:20Z</time>
      </trkpt>
      <trkpt lat="42.69474" lon="2.01167">
        <ele>1811.74</ele>
        <time>2014-03-24T10:49:32Z</time>
      </trkpt>
      <trkpt lat="42.69465" lon="2.01164">
        <ele>1812.7</ele>
        <time>2014-03-24T10:49:45Z</time>
      </trkpt>
      <trkpt lat="42.69459" lon="2.01161">
        <ele>1814.15</ele>
        <time>2014-03-24T10:49:58Z</time>
      </trkpt>
      <trkpt lat="42.69451" lon="2.01158">
        <ele>1815.11</ele>
        <time>2014-03-24T10:50:12Z</time>
      </trkpt>
      <trkpt lat="42.69442" lon="2.01162">
        <ele>1818.95</ele>
        <time>2014-03-24T10:50:27Z</time>
      </trkpt>
      <trkpt lat="42.69443" lon="2.01163">
        <ele>1820.87</ele>
        <time>2014-03-24T10:50:43Z</time>
      </trkpt>
      <trkpt lat="42.69443" lon="2.01171">
        <ele>1818.47</ele>
        <time>2014-03-24T10:50:56Z</time>
      </trkpt>
      <trkpt lat="42.69436" lon="2.01177">
        <ele>1816.07</ele>
        <time>2014-03-24T10:51:08Z</time>
      </trkpt>
      <trkpt lat="42.69428" lon="2.01186">
        <ele>1816.07</ele>
        <time>2014-03-24T10:51:24Z</time>
      </trkpt>
      <trkpt lat="42.69422" lon="2.01194">
        <ele>1814.15</ele>
        <time>2014-03-24T10:51:38Z</time>
      </trkpt>
      <trkpt lat="42.69418" lon="2.01198">
        <ele>1813.18</ele>
        <time>2014-03-24T10:51:52Z</time>
      </trkpt>
      <trkpt lat="42.69416" lon="2.01203">
        <ele>1814.63</ele>
        <time>2014-03-24T10:52:19Z</time>
      </trkpt>
      <trkpt lat="42.69413" lon="2.01202">
        <ele>1814.63</ele>
        <time>2014-03-24T10:52:33Z</time>
      </trkpt>
      <trkpt lat="42.69409" lon="2.01203">
        <ele>1816.55</ele>
        <time>2014-03-24T10:52:44Z</time>
      </trkpt>
      <trkpt lat="42.69414" lon="2.01194">
        <ele>1816.07</ele>
        <time>2014-03-24T10:52:56Z</time>
      </trkpt>
      <trkpt lat="42.69408" lon="2.01193">
        <ele>1816.07</ele>
        <time>2014-03-24T10:53:12Z</time>
      </trkpt>
      <trkpt lat="42.69404" lon="2.01189">
        <ele>1816.55</ele>
        <time>2014-03-24T10:53:28Z</time>
      </trkpt>
      <trkpt lat="42.69411" lon="2.01178">
        <ele>1816.55</ele>
        <time>2014-03-24T10:53:42Z</time>
      </trkpt>
      <trkpt lat="42.69413" lon="2.01173">
        <ele>1818.47</ele>
        <time>2014-03-24T10:53:56Z</time>
      </trkpt>
      <trkpt lat="42.69409" lon="2.01172">
        <ele>1821.35</ele>
        <time>2014-03-24T10:54:10Z</time>
      </trkpt>
      <trkpt lat="42.69406" lon="2.01164">
        <ele>1827.12</ele>
        <time>2014-03-24T10:54:24Z</time>
      </trkpt>
      <trkpt lat="42.69403" lon="2.01167">
        <ele>1827.6</ele>
        <time>2014-03-24T10:54:39Z</time>
      </trkpt>
      <trkpt lat="42.69399" lon="2.01168">
        <ele>1828.08</ele>
        <time>2014-03-24T10:54:59Z</time>
      </trkpt>
      <trkpt lat="42.69389" lon="2.01169">
        <ele>1828.08</ele>
        <time>2014-03-24T10:55:14Z</time>
      </trkpt>
      <trkpt lat="42.69385" lon="2.01162">
        <ele>1829.05</ele>
        <time>2014-03-24T10:55:27Z</time>
      </trkpt>
      <trkpt lat="42.69383" lon="2.01156">
        <ele>1830.97</ele>
        <time>2014-03-24T10:55:38Z</time>
      </trkpt>
      <trkpt lat="42.6938" lon="2.01154">
        <ele>1832.41</ele>
        <time>2014-03-24T10:55:48Z</time>
      </trkpt>
      <trkpt lat="42.69375" lon="2.0116">
        <ele>1836.74</ele>
        <time>2014-03-24T10:55:58Z</time>
      </trkpt>
      <trkpt lat="42.69368" lon="2.01158">
        <ele>1836.26</ele>
        <time>2014-03-24T10:56:11Z</time>
      </trkpt>
      <trkpt lat="42.69366" lon="2.0116">
        <ele>1838.66</ele>
        <time>2014-03-24T10:56:23Z</time>
      </trkpt>
      <trkpt lat="42.69366" lon="2.01156">
        <ele>1838.18</ele>
        <time>2014-03-24T10:56:38Z</time>
      </trkpt>
      <trkpt lat="42.69361" lon="2.01149">
        <ele>1836.74</ele>
        <time>2014-03-24T10:56:50Z</time>
      </trkpt>
      <trkpt lat="42.69357" lon="2.01144">
        <ele>1836.74</ele>
        <time>2014-03-24T10:57:03Z</time>
      </trkpt>
      <trkpt lat="42.69353" lon="2.01138">
        <ele>1842.5</ele>
        <time>2014-03-24T10:57:17Z</time>
      </trkpt>
      <trkpt lat="42.69346" lon="2.01135">
        <ele>1841.06</ele>
        <time>2014-03-24T10:57:30Z</time>
      </trkpt>
      <trkpt lat="42.69339" lon="2.01137">
        <ele>1839.62</ele>
        <time>2014-03-24T10:57:43Z</time>
      </trkpt>
      <trkpt lat="42.6933" lon="2.01139">
        <ele>1838.18</ele>
        <time>2014-03-24T10:57:56Z</time>
      </trkpt>
      <trkpt lat="42.69323" lon="2.01143">
        <ele>1840.1</ele>
        <time>2014-03-24T10:58:07Z</time>
      </trkpt>
      <trkpt lat="42.69323" lon="2.01143">
        <ele>1844.43</ele>
        <time>2014-03-24T10:58:24Z</time>
      </trkpt>
      <trkpt lat="42.69316" lon="2.01148">
        <ele>1846.35</ele>
        <time>2014-03-24T10:58:38Z</time>
      </trkpt>
      <trkpt lat="42.69311" lon="2.01152">
        <ele>1851.64</ele>
        <time>2014-03-24T10:58:50Z</time>
      </trkpt>
      <trkpt lat="42.6931" lon="2.01153">
        <ele>1852.12</ele>
        <time>2014-03-24T10:58:52Z</time>
      </trkpt>
      <trkpt lat="42.69303" lon="2.01156">
        <ele>1852.6</ele>
        <time>2014-03-24T10:59:02Z</time>
      </trkpt>
      <trkpt lat="42.69298" lon="2.01155">
        <ele>1851.16</ele>
        <time>2014-03-24T10:59:16Z</time>
      </trkpt>
      <trkpt lat="42.69291" lon="2.01153">
        <ele>1852.6</ele>
        <time>2014-03-24T10:59:28Z</time>
      </trkpt>
      <trkpt lat="42.69287" lon="2.01152">
        <ele>1853.56</ele>
        <time>2014-03-24T10:59:35Z</time>
      </trkpt>
      <trkpt lat="42.69278" lon="2.01156">
        <ele>1851.64</ele>
        <time>2014-03-24T10:59:47Z</time>
      </trkpt>
      <trkpt lat="42.69269" lon="2.01165">
        <ele>1850.19</ele>
        <time>2014-03-24T10:59:59Z</time>
      </trkpt>
      <trkpt lat="42.69262" lon="2.01168">
        <ele>1848.27</ele>
        <time>2014-03-24T11:00:11Z</time>
      </trkpt>
      <trkpt lat="42.69255" lon="2.01172">
        <ele>1849.23</ele>
        <time>2014-03-24T11:00:22Z</time>
      </trkpt>
      <trkpt lat="42.69252" lon="2.01173">
        <ele>1850.19</ele>
        <time>2014-03-24T11:00:26Z</time>
      </trkpt>
      <trkpt lat="42.69243" lon="2.01177">
        <ele>1849.23</ele>
        <time>2014-03-24T11:00:39Z</time>
      </trkpt>
      <trkpt lat="42.69234" lon="2.0118">
        <ele>1849.23</ele>
        <time>2014-03-24T11:00:51Z</time>
      </trkpt>
      <trkpt lat="42.69225" lon="2.01181">
        <ele>1848.75</ele>
        <time>2014-03-24T11:01:05Z</time>
      </trkpt>
      <trkpt lat="42.69215" lon="2.01185">
        <ele>1847.79</ele>
        <time>2014-03-24T11:01:18Z</time>
      </trkpt>
      <trkpt lat="42.69207" lon="2.0119">
        <ele>1849.23</ele>
        <time>2014-03-24T11:01:33Z</time>
      </trkpt>
      <trkpt lat="42.69209" lon="2.01189">
        <ele>1852.6</ele>
        <time>2014-03-24T11:01:48Z</time>
      </trkpt>
      <trkpt lat="42.69205" lon="2.01192">
        <ele>1854.04</ele>
        <time>2014-03-24T11:02:02Z</time>
      </trkpt>
      <trkpt lat="42.69202" lon="2.01186">
        <ele>1854.04</ele>
        <time>2014-03-24T11:02:16Z</time>
      </trkpt>
      <trkpt lat="42.69205" lon="2.0118">
        <ele>1859.33</ele>
        <time>2014-03-24T11:02:30Z</time>
      </trkpt>
      <trkpt lat="42.69206" lon="2.0117">
        <ele>1872.79</ele>
        <time>2014-03-24T11:02:52Z</time>
      </trkpt>
      <trkpt lat="42.69206" lon="2.01162">
        <ele>1874.23</ele>
        <time>2014-03-24T11:03:04Z</time>
      </trkpt>
      <trkpt lat="42.69205" lon="2.01159">
        <ele>1873.27</ele>
        <time>2014-03-24T11:03:15Z</time>
      </trkpt>
      <trkpt lat="42.69198" lon="2.01158">
        <ele>1873.75</ele>
        <time>2014-03-24T11:03:30Z</time>
      </trkpt>
      <trkpt lat="42.69191" lon="2.01155">
        <ele>1875.67</ele>
        <time>2014-03-24T11:03:46Z</time>
      </trkpt>
      <trkpt lat="42.69184" lon="2.01152">
        <ele>1876.15</ele>
        <time>2014-03-24T11:04:01Z</time>
      </trkpt>
      <trkpt lat="42.69179" lon="2.0115">
        <ele>1880.48</ele>
        <time>2014-03-24T11:04:18Z</time>
      </trkpt>
      <trkpt lat="42.69174" lon="2.01143">
        <ele>1883.36</ele>
        <time>2014-03-24T11:04:32Z</time>
      </trkpt>
      <trkpt lat="42.69169" lon="2.01141">
        <ele>1886.24</ele>
        <time>2014-03-24T11:04:46Z</time>
      </trkpt>
      <trkpt lat="42.69168" lon="2.01143">
        <ele>1889.13</ele>
        <time>2014-03-24T11:05:02Z</time>
      </trkpt>
      <trkpt lat="42.69165" lon="2.01144">
        <ele>1891.05</ele>
        <time>2014-03-24T11:05:18Z</time>
      </trkpt>
      <trkpt lat="42.69159" lon="2.01145">
        <ele>1891.53</ele>
        <time>2014-03-24T11:05:33Z</time>
      </trkpt>
      <trkpt lat="42.69154" lon="2.01145">
        <ele>1894.9</ele>
        <time>2014-03-24T11:05:46Z</time>
      </trkpt>
      <trkpt lat="42.69148" lon="2.01149">
        <ele>1897.3</ele>
        <time>2014-03-24T11:05:59Z</time>
      </trkpt>
      <trkpt lat="42.69147" lon="2.01152">
        <ele>1899.22</ele>
        <time>2014-03-24T11:06:13Z</time>
      </trkpt>
      <trkpt lat="42.69141" lon="2.01156">
        <ele>1897.78</ele>
        <time>2014-03-24T11:06:25Z</time>
      </trkpt>
      <trkpt lat="42.69136" lon="2.01157">
        <ele>1898.26</ele>
        <time>2014-03-24T11:06:39Z</time>
      </trkpt>
      <trkpt lat="42.69131" lon="2.0116">
        <ele>1899.7</ele>
        <time>2014-03-24T11:06:50Z</time>
      </trkpt>
      <trkpt lat="42.69126" lon="2.01165">
        <ele>1901.14</ele>
        <time>2014-03-24T11:07:07Z</time>
      </trkpt>
      <trkpt lat="42.69123" lon="2.01166">
        <ele>1904.99</ele>
        <time>2014-03-24T11:07:20Z</time>
      </trkpt>
      <trkpt lat="42.6912" lon="2.01169">
        <ele>1905.95</ele>
        <time>2014-03-24T11:07:32Z</time>
      </trkpt>
      <trkpt lat="42.69115" lon="2.01172">
        <ele>1906.91</ele>
        <time>2014-03-24T11:07:49Z</time>
      </trkpt>
      <trkpt lat="42.69109" lon="2.01173">
        <ele>1906.91</ele>
        <time>2014-03-24T11:08:02Z</time>
      </trkpt>
      <trkpt lat="42.69102" lon="2.01178">
        <ele>1905.95</ele>
        <time>2014-03-24T11:08:13Z</time>
      </trkpt>
      <trkpt lat="42.69097" lon="2.01181">
        <ele>1904.51</ele>
        <time>2014-03-24T11:08:25Z</time>
      </trkpt>
      <trkpt lat="42.69091" lon="2.01187">
        <ele>1905.95</ele>
        <time>2014-03-24T11:08:37Z</time>
      </trkpt>
      <trkpt lat="42.69086" lon="2.01191">
        <ele>1906.91</ele>
        <time>2014-03-24T11:08:48Z</time>
      </trkpt>
      <trkpt lat="42.69079" lon="2.01194">
        <ele>1906.91</ele>
        <time>2014-03-24T11:09:02Z</time>
      </trkpt>
      <trkpt lat="42.69079" lon="2.01194">
        <ele>1908.83</ele>
        <time>2014-03-24T11:09:11Z</time>
      </trkpt>
      <trkpt lat="42.69078" lon="2.01195">
        <ele>1910.76</ele>
        <time>2014-03-24T11:09:24Z</time>
      </trkpt>
      <trkpt lat="42.69075" lon="2.01195">
        <ele>1910.28</ele>
        <time>2014-03-24T11:09:37Z</time>
      </trkpt>
      <trkpt lat="42.69078" lon="2.0119">
        <ele>1913.16</ele>
        <time>2014-03-24T11:09:53Z</time>
      </trkpt>
      <trkpt lat="42.6908" lon="2.01183">
        <ele>1914.12</ele>
        <time>2014-03-24T11:10:05Z</time>
      </trkpt>
      <trkpt lat="42.69082" lon="2.01179">
        <ele>1916.04</ele>
        <time>2014-03-24T11:10:17Z</time>
      </trkpt>
      <trkpt lat="42.69079" lon="2.01183">
        <ele>1915.08</ele>
        <time>2014-03-24T11:10:29Z</time>
      </trkpt>
      <trkpt lat="42.69075" lon="2.01188">
        <ele>1917.49</ele>
        <time>2014-03-24T11:10:42Z</time>
      </trkpt>
      <trkpt lat="42.6907" lon="2.01193">
        <ele>1920.85</ele>
        <time>2014-03-24T11:10:53Z</time>
      </trkpt>
      <trkpt lat="42.69067" lon="2.01192">
        <ele>1922.29</ele>
        <time>2014-03-24T11:11:03Z</time>
      </trkpt>
      <trkpt lat="42.69074" lon="2.0118">
        <ele>1921.81</ele>
        <time>2014-03-24T11:11:16Z</time>
      </trkpt>
      <trkpt lat="42.69076" lon="2.0117">
        <ele>1922.29</ele>
        <time>2014-03-24T11:11:30Z</time>
      </trkpt>
      <trkpt lat="42.69075" lon="2.01168">
        <ele>1923.25</ele>
        <time>2014-03-24T11:11:42Z</time>
      </trkpt>
      <trkpt lat="42.69072" lon="2.01166">
        <ele>1924.22</ele>
        <time>2014-03-24T11:11:54Z</time>
      </trkpt>
      <trkpt lat="42.69073" lon="2.01154">
        <ele>1927.58</ele>
        <time>2014-03-24T11:12:10Z</time>
      </trkpt>
      <trkpt lat="42.69071" lon="2.01153">
        <ele>1928.54</ele>
        <time>2014-03-24T11:12:23Z</time>
      </trkpt>
      <trkpt lat="42.69065" lon="2.01154">
        <ele>1929.5</ele>
        <time>2014-03-24T11:12:34Z</time>
      </trkpt>
      <trkpt lat="42.69062" lon="2.0115">
        <ele>1929.98</ele>
        <time>2014-03-24T11:12:46Z</time>
      </trkpt>
      <trkpt lat="42.69056" lon="2.01151">
        <ele>1929.02</ele>
        <time>2014-03-24T11:12:59Z</time>
      </trkpt>
      <trkpt lat="42.69053" lon="2.01153">
        <ele>1934.31</ele>
        <time>2014-03-24T11:13:12Z</time>
      </trkpt>
      <trkpt lat="42.69049" lon="2.01155">
        <ele>1937.67</ele>
        <time>2014-03-24T11:13:24Z</time>
      </trkpt>
      <trkpt lat="42.69047" lon="2.01149">
        <ele>1940.08</ele>
        <time>2014-03-24T11:13:37Z</time>
      </trkpt>
      <trkpt lat="42.69046" lon="2.01142">
        <ele>1940.08</ele>
        <time>2014-03-24T11:13:50Z</time>
      </trkpt>
      <trkpt lat="42.69047" lon="2.01143">
        <ele>1944.88</ele>
        <time>2014-03-24T11:14:07Z</time>
      </trkpt>
      <trkpt lat="42.69047" lon="2.01141">
        <ele>1944.88</ele>
        <time>2014-03-24T11:14:32Z</time>
      </trkpt>
      <trkpt lat="42.69045" lon="2.01144">
        <ele>1944.4</ele>
        <time>2014-03-24T11:14:46Z</time>
      </trkpt>
      <trkpt lat="42.69043" lon="2.01146">
        <ele>1944.4</ele>
        <time>2014-03-24T11:15:00Z</time>
      </trkpt>
      <trkpt lat="42.69038" lon="2.01146">
        <ele>1945.36</ele>
        <time>2014-03-24T11:15:21Z</time>
      </trkpt>
      <trkpt lat="42.69031" lon="2.01149">
        <ele>1944.4</ele>
        <time>2014-03-24T11:15:33Z</time>
      </trkpt>
      <trkpt lat="42.69027" lon="2.01146">
        <ele>1945.85</ele>
        <time>2014-03-24T11:15:45Z</time>
      </trkpt>
      <trkpt lat="42.69018" lon="2.01148">
        <ele>1946.81</ele>
        <time>2014-03-24T11:15:59Z</time>
      </trkpt>
      <trkpt lat="42.69011" lon="2.01151">
        <ele>1949.69</ele>
        <time>2014-03-24T11:16:10Z</time>
      </trkpt>
      <trkpt lat="42.69006" lon="2.01155">
        <ele>1952.57</ele>
        <time>2014-03-24T11:16:24Z</time>
      </trkpt>
      <trkpt lat="42.69002" lon="2.01157">
        <ele>1953.06</ele>
        <time>2014-03-24T11:16:36Z</time>
      </trkpt>
      <trkpt lat="42.69001" lon="2.0116">
        <ele>1952.57</ele>
        <time>2014-03-24T11:16:47Z</time>
      </trkpt>
      <trkpt lat="42.69001" lon="2.0116">
        <ele>1951.61</ele>
        <time>2014-03-24T11:17:04Z</time>
      </trkpt>
      <trkpt lat="42.68995" lon="2.01161">
        <ele>1947.29</ele>
        <time>2014-03-24T11:17:20Z</time>
      </trkpt>
      <trkpt lat="42.68992" lon="2.0116">
        <ele>1945.85</ele>
        <time>2014-03-24T11:17:36Z</time>
      </trkpt>
      <trkpt lat="42.6899" lon="2.01157">
        <ele>1945.85</ele>
        <time>2014-03-24T11:17:45Z</time>
      </trkpt>
      <trkpt lat="42.68987" lon="2.01157">
        <ele>1945.85</ele>
        <time>2014-03-24T11:17:55Z</time>
      </trkpt>
      <trkpt lat="42.68982" lon="2.01156">
        <ele>1946.81</ele>
        <time>2014-03-24T11:18:07Z</time>
      </trkpt>
      <trkpt lat="42.68981" lon="2.01154">
        <ele>1946.33</ele>
        <time>2014-03-24T11:18:21Z</time>
      </trkpt>
      <trkpt lat="42.68978" lon="2.01153">
        <ele>1946.81</ele>
        <time>2014-03-24T11:18:32Z</time>
      </trkpt>
      <trkpt lat="42.68974" lon="2.01151">
        <ele>1948.25</ele>
        <time>2014-03-24T11:18:44Z</time>
      </trkpt>
      <trkpt lat="42.68973" lon="2.01149">
        <ele>1947.77</ele>
        <time>2014-03-24T11:18:55Z</time>
      </trkpt>
      <trkpt lat="42.68971" lon="2.01148">
        <ele>1946.33</ele>
        <time>2014-03-24T11:19:08Z</time>
      </trkpt>
      <trkpt lat="42.68968" lon="2.01144">
        <ele>1947.77</ele>
        <time>2014-03-24T11:19:18Z</time>
      </trkpt>
      <trkpt lat="42.68963" lon="2.01142">
        <ele>1949.21</ele>
        <time>2014-03-24T11:19:29Z</time>
      </trkpt>
      <trkpt lat="42.68958" lon="2.01142">
        <ele>1949.21</ele>
        <time>2014-03-24T11:19:40Z</time>
      </trkpt>
      <trkpt lat="42.68949" lon="2.01147">
        <ele>1949.21</ele>
        <time>2014-03-24T11:19:54Z</time>
      </trkpt>
      <trkpt lat="42.68941" lon="2.01152">
        <ele>1948.25</ele>
        <time>2014-03-24T11:20:07Z</time>
      </trkpt>
      <trkpt lat="42.68934" lon="2.01156">
        <ele>1948.25</ele>
        <time>2014-03-24T11:20:19Z</time>
      </trkpt>
      <trkpt lat="42.68929" lon="2.0116">
        <ele>1947.29</ele>
        <time>2014-03-24T11:20:31Z</time>
      </trkpt>
      <trkpt lat="42.68923" lon="2.01162">
        <ele>1947.29</ele>
        <time>2014-03-24T11:20:41Z</time>
      </trkpt>
      <trkpt lat="42.68917" lon="2.01165">
        <ele>1946.33</ele>
        <time>2014-03-24T11:20:50Z</time>
      </trkpt>
      <trkpt lat="42.68913" lon="2.01166">
        <ele>1945.85</ele>
        <time>2014-03-24T11:20:58Z</time>
      </trkpt>
      <trkpt lat="42.6891" lon="2.01167">
        <ele>1945.85</ele>
        <time>2014-03-24T11:21:01Z</time>
      </trkpt>
      <trkpt lat="42.68907" lon="2.01169">
        <ele>1945.85</ele>
        <time>2014-03-24T11:21:04Z</time>
      </trkpt>
      <trkpt lat="42.689" lon="2.01176">
        <ele>1946.81</ele>
        <time>2014-03-24T11:21:14Z</time>
      </trkpt>
      <trkpt lat="42.68895" lon="2.01181">
        <ele>1945.85</ele>
        <time>2014-03-24T11:21:23Z</time>
      </trkpt>
      <trkpt lat="42.68894" lon="2.01183">
        <ele>1945.85</ele>
        <time>2014-03-24T11:21:26Z</time>
      </trkpt>
      <trkpt lat="42.68891" lon="2.01187">
        <ele>1944.88</ele>
        <time>2014-03-24T11:21:39Z</time>
      </trkpt>
      <trkpt lat="42.68887" lon="2.01193">
        <ele>1943.92</ele>
        <time>2014-03-24T11:21:50Z</time>
      </trkpt>
      <trkpt lat="42.68886" lon="2.01196">
        <ele>1942.96</ele>
        <time>2014-03-24T11:21:54Z</time>
      </trkpt>
      <trkpt lat="42.68878" lon="2.01206">
        <ele>1940.56</ele>
        <time>2014-03-24T11:22:05Z</time>
      </trkpt>
      <trkpt lat="42.6887" lon="2.01217">
        <ele>1938.16</ele>
        <time>2014-03-24T11:22:16Z</time>
      </trkpt>
      <trkpt lat="42.6887" lon="2.01217">
        <ele>1938.16</ele>
        <time>2014-03-24T11:22:17Z</time>
      </trkpt>
      <trkpt lat="42.68863" lon="2.01223">
        <ele>1936.23</ele>
        <time>2014-03-24T11:22:25Z</time>
      </trkpt>
      <trkpt lat="42.68861" lon="2.01225">
        <ele>1935.75</ele>
        <time>2014-03-24T11:22:27Z</time>
      </trkpt>
      <trkpt lat="42.68858" lon="2.01231">
        <ele>1933.83</ele>
        <time>2014-03-24T11:22:33Z</time>
      </trkpt>
      <trkpt lat="42.68854" lon="2.01243">
        <ele>1930.95</ele>
        <time>2014-03-24T11:22:43Z</time>
      </trkpt>
      <trkpt lat="42.6885" lon="2.01256">
        <ele>1929.98</ele>
        <time>2014-03-24T11:22:55Z</time>
      </trkpt>
      <trkpt lat="42.68847" lon="2.01267">
        <ele>1930.46</ele>
        <time>2014-03-24T11:23:05Z</time>
      </trkpt>
      <trkpt lat="42.68846" lon="2.01272">
        <ele>1929.02</ele>
        <time>2014-03-24T11:23:10Z</time>
      </trkpt>
      <trkpt lat="42.68846" lon="2.01276">
        <ele>1928.06</ele>
        <time>2014-03-24T11:23:21Z</time>
      </trkpt>
      <trkpt lat="42.68844" lon="2.01286">
        <ele>1926.62</ele>
        <time>2014-03-24T11:23:33Z</time>
      </trkpt>
      <trkpt lat="42.68839" lon="2.01293">
        <ele>1924.7</ele>
        <time>2014-03-24T11:23:45Z</time>
      </trkpt>
      <trkpt lat="42.68832" lon="2.01302">
        <ele>1922.29</ele>
        <time>2014-03-24T11:23:56Z</time>
      </trkpt>
      <trkpt lat="42.68826" lon="2.01307">
        <ele>1921.33</ele>
        <time>2014-03-24T11:24:08Z</time>
      </trkpt>
      <trkpt lat="42.68821" lon="2.01309">
        <ele>1921.33</ele>
        <time>2014-03-24T11:24:16Z</time>
      </trkpt>
      <trkpt lat="42.68812" lon="2.01316">
        <ele>1923.74</ele>
        <time>2014-03-24T11:24:28Z</time>
      </trkpt>
      <trkpt lat="42.68804" lon="2.01321">
        <ele>1925.66</ele>
        <time>2014-03-24T11:24:41Z</time>
      </trkpt>
      <trkpt lat="42.68798" lon="2.01329">
        <ele>1930.46</ele>
        <time>2014-03-24T11:24:53Z</time>
      </trkpt>
      <trkpt lat="42.6879" lon="2.01336">
        <ele>1933.35</ele>
        <time>2014-03-24T11:25:02Z</time>
      </trkpt>
      <trkpt lat="42.68787" lon="2.01337">
        <ele>1932.39</ele>
        <time>2014-03-24T11:25:04Z</time>
      </trkpt>
      <trkpt lat="42.68785" lon="2.01338">
        <ele>1932.39</ele>
        <time>2014-03-24T11:25:06Z</time>
      </trkpt>
      <trkpt lat="42.6878" lon="2.0134">
        <ele>1930.46</ele>
        <time>2014-03-24T11:25:18Z</time>
      </trkpt>
      <trkpt lat="42.68774" lon="2.01349">
        <ele>1927.58</ele>
        <time>2014-03-24T11:25:29Z</time>
      </trkpt>
      <trkpt lat="42.68771" lon="2.01359">
        <ele>1923.74</ele>
        <time>2014-03-24T11:25:41Z</time>
      </trkpt>
      <trkpt lat="42.68768" lon="2.01362">
        <ele>1922.77</ele>
        <time>2014-03-24T11:25:47Z</time>
      </trkpt>
      <trkpt lat="42.68763" lon="2.01363">
        <ele>1918.93</ele>
        <time>2014-03-24T11:25:58Z</time>
      </trkpt>
      <trkpt lat="42.68763" lon="2.01362">
        <ele>1915.56</ele>
        <time>2014-03-24T11:26:12Z</time>
      </trkpt>
      <trkpt lat="42.68758" lon="2.01364">
        <ele>1914.12</ele>
        <time>2014-03-24T11:26:24Z</time>
      </trkpt>
      <trkpt lat="42.68756" lon="2.01363">
        <ele>1913.64</ele>
        <time>2014-03-24T11:26:34Z</time>
      </trkpt>
      <trkpt lat="42.68758" lon="2.01366">
        <ele>1914.12</ele>
        <time>2014-03-24T11:26:47Z</time>
      </trkpt>
      <trkpt lat="42.68756" lon="2.01371">
        <ele>1912.68</ele>
        <time>2014-03-24T11:26:58Z</time>
      </trkpt>
      <trkpt lat="42.68754" lon="2.01374">
        <ele>1914.12</ele>
        <time>2014-03-24T11:27:08Z</time>
      </trkpt>
      <trkpt lat="42.68753" lon="2.01379">
        <ele>1914.12</ele>
        <time>2014-03-24T11:27:21Z</time>
      </trkpt>
      <trkpt lat="42.6875" lon="2.01382">
        <ele>1913.64</ele>
        <time>2014-03-24T11:27:32Z</time>
      </trkpt>
      <trkpt lat="42.68749" lon="2.01385">
        <ele>1912.68</ele>
        <time>2014-03-24T11:27:42Z</time>
      </trkpt>
      <trkpt lat="42.68746" lon="2.01389">
        <ele>1913.16</ele>
        <time>2014-03-24T11:27:56Z</time>
      </trkpt>
      <trkpt lat="42.68744" lon="2.01389">
        <ele>1912.2</ele>
        <time>2014-03-24T11:28:08Z</time>
      </trkpt>
      <trkpt lat="42.68741" lon="2.01389">
        <ele>1909.8</ele>
        <time>2014-03-24T11:28:17Z</time>
      </trkpt>
      <trkpt lat="42.68738" lon="2.0139">
        <ele>1907.39</ele>
        <time>2014-03-24T11:28:27Z</time>
      </trkpt>
      <trkpt lat="42.68736" lon="2.01392">
        <ele>1907.39</ele>
        <time>2014-03-24T11:28:37Z</time>
      </trkpt>
      <trkpt lat="42.68736" lon="2.01394">
        <ele>1905.95</ele>
        <time>2014-03-24T11:28:50Z</time>
      </trkpt>
      <trkpt lat="42.68734" lon="2.01395">
        <ele>1904.03</ele>
        <time>2014-03-24T11:29:01Z</time>
      </trkpt>
      <trkpt lat="42.6873" lon="2.01397">
        <ele>1901.63</ele>
        <time>2014-03-24T11:29:11Z</time>
      </trkpt>
      <trkpt lat="42.68729" lon="2.01399">
        <ele>1901.14</ele>
        <time>2014-03-24T11:29:13Z</time>
      </trkpt>
      <trkpt lat="42.68725" lon="2.01402">
        <ele>1896.34</ele>
        <time>2014-03-24T11:29:24Z</time>
      </trkpt>
      <trkpt lat="42.68724" lon="2.01405">
        <ele>1893.45</ele>
        <time>2014-03-24T11:29:35Z</time>
      </trkpt>
      <trkpt lat="42.6872" lon="2.01407">
        <ele>1890.57</ele>
        <time>2014-03-24T11:29:46Z</time>
      </trkpt>
      <trkpt lat="42.68718" lon="2.01408">
        <ele>1889.13</ele>
        <time>2014-03-24T11:29:50Z</time>
      </trkpt>
      <trkpt lat="42.68714" lon="2.01406">
        <ele>1886.72</ele>
        <time>2014-03-24T11:29:57Z</time>
      </trkpt>
      <trkpt lat="42.6871" lon="2.01405">
        <ele>1884.8</ele>
        <time>2014-03-24T11:30:01Z</time>
      </trkpt>
      <trkpt lat="42.68708" lon="2.01403">
        <ele>1883.84</ele>
        <time>2014-03-24T11:30:04Z</time>
      </trkpt>
      <trkpt lat="42.68706" lon="2.01403">
        <ele>1882.88</ele>
        <time>2014-03-24T11:30:06Z</time>
      </trkpt>
      <trkpt lat="42.68701" lon="2.01408">
        <ele>1882.88</ele>
        <time>2014-03-24T11:30:12Z</time>
      </trkpt>
      <trkpt lat="42.68699" lon="2.0141">
        <ele>1882.88</ele>
        <time>2014-03-24T11:30:14Z</time>
      </trkpt>
      <trkpt lat="42.68697" lon="2.01413">
        <ele>1882.88</ele>
        <time>2014-03-24T11:30:17Z</time>
      </trkpt>
      <trkpt lat="42.68691" lon="2.01416">
        <ele>1883.84</ele>
        <time>2014-03-24T11:30:24Z</time>
      </trkpt>
      <trkpt lat="42.68687" lon="2.01418">
        <ele>1884.32</ele>
        <time>2014-03-24T11:30:30Z</time>
      </trkpt>
      <trkpt lat="42.68678" lon="2.0144">
        <ele>1898.26</ele>
        <time>2014-03-24T11:30:41Z</time>
      </trkpt>
      <trkpt lat="42.68678" lon="2.01445">
        <ele>1900.18</ele>
        <time>2014-03-24T11:30:56Z</time>
      </trkpt>
      <trkpt lat="42.68673" lon="2.01444">
        <ele>1902.59</ele>
        <time>2014-03-24T11:31:10Z</time>
      </trkpt>
      <trkpt lat="42.68674" lon="2.01441">
        <ele>1901.63</ele>
        <time>2014-03-24T11:31:29Z</time>
      </trkpt>
      <trkpt lat="42.68672" lon="2.01439">
        <ele>1900.66</ele>
        <time>2014-03-24T11:31:52Z</time>
      </trkpt>
      <trkpt lat="42.68673" lon="2.01437">
        <ele>1902.11</ele>
        <time>2014-03-24T11:32:19Z</time>
      </trkpt>
      <trkpt lat="42.68675" lon="2.0144">
        <ele>1901.63</ele>
        <time>2014-03-24T11:32:35Z</time>
      </trkpt>
      <trkpt lat="42.68676" lon="2.01438">
        <ele>1902.11</ele>
        <time>2014-03-24T11:32:52Z</time>
      </trkpt>
      <trkpt lat="42.68674" lon="2.01438">
        <ele>1904.51</ele>
        <time>2014-03-24T11:33:14Z</time>
      </trkpt>
      <trkpt lat="42.68669" lon="2.0145">
        <ele>1912.68</ele>
        <time>2014-03-24T11:33:36Z</time>
      </trkpt>
      <trkpt lat="42.68668" lon="2.01448">
        <ele>1914.12</ele>
        <time>2014-03-24T11:33:56Z</time>
      </trkpt>
      <trkpt lat="42.68668" lon="2.01451">
        <ele>1915.08</ele>
        <time>2014-03-24T11:34:17Z</time>
      </trkpt>
      <trkpt lat="42.68668" lon="2.01451">
        <ele>1915.56</ele>
        <time>2014-03-24T11:34:36Z</time>
      </trkpt>
      <trkpt lat="42.68669" lon="2.0145">
        <ele>1913.16</ele>
        <time>2014-03-24T11:34:46Z</time>
      </trkpt>
      <trkpt lat="42.68669" lon="2.01453">
        <ele>1912.2</ele>
        <time>2014-03-24T11:35:01Z</time>
      </trkpt>
      <trkpt lat="42.68667" lon="2.01453">
        <ele>1913.16</ele>
        <time>2014-03-24T11:35:20Z</time>
      </trkpt>
      <trkpt lat="42.68673" lon="2.01451">
        <ele>1919.89</ele>
        <time>2014-03-24T11:35:40Z</time>
      </trkpt>
      <trkpt lat="42.6868" lon="2.01449">
        <ele>1925.66</ele>
        <time>2014-03-24T11:36:05Z</time>
      </trkpt>
      <trkpt lat="42.68686" lon="2.01445">
        <ele>1925.18</ele>
        <time>2014-03-24T11:36:35Z</time>
      </trkpt>
      <trkpt lat="42.68689" lon="2.01444">
        <ele>1923.74</ele>
        <time>2014-03-24T11:36:59Z</time>
      </trkpt>
      <trkpt lat="42.68686" lon="2.01453">
        <ele>1923.74</ele>
        <time>2014-03-24T11:37:30Z</time>
      </trkpt>
      <trkpt lat="42.68678" lon="2.0144">
        <ele>1922.77</ele>
        <time>2014-03-24T11:38:00Z</time>
      </trkpt>
      <trkpt lat="42.68676" lon="2.01445">
        <ele>1918.93</ele>
        <time>2014-03-24T11:38:33Z</time>
      </trkpt>
      <trkpt lat="42.68678" lon="2.0145">
        <ele>1919.41</ele>
        <time>2014-03-24T11:39:05Z</time>
      </trkpt>
      <trkpt lat="42.68678" lon="2.01448">
        <ele>1917.01</ele>
        <time>2014-03-24T11:39:30Z</time>
      </trkpt>
      <trkpt lat="42.68678" lon="2.01444">
        <ele>1916.53</ele>
        <time>2014-03-24T11:39:55Z</time>
      </trkpt>
      <trkpt lat="42.68675" lon="2.01441">
        <ele>1917.97</ele>
        <time>2014-03-24T11:40:23Z</time>
      </trkpt>
      <trkpt lat="42.68674" lon="2.01441">
        <ele>1917.97</ele>
        <time>2014-03-24T11:40:46Z</time>
      </trkpt>
      <trkpt lat="42.68671" lon="2.01444">
        <ele>1915.08</ele>
        <time>2014-03-24T11:40:59Z</time>
      </trkpt>
      <trkpt lat="42.68676" lon="2.01444">
        <ele>1908.83</ele>
        <time>2014-03-24T11:41:28Z</time>
      </trkpt>
      <trkpt lat="42.68675" lon="2.01444">
        <ele>1907.39</ele>
        <time>2014-03-24T11:41:57Z</time>
      </trkpt>
      <trkpt lat="42.68675" lon="2.01443">
        <ele>1907.39</ele>
        <time>2014-03-24T11:42:17Z</time>
      </trkpt>
      <trkpt lat="42.68676" lon="2.01445">
        <ele>1905.47</ele>
        <time>2014-03-24T11:42:40Z</time>
      </trkpt>
      <trkpt lat="42.68677" lon="2.01442">
        <ele>1905.47</ele>
        <time>2014-03-24T11:42:55Z</time>
      </trkpt>
      <trkpt lat="42.68674" lon="2.01443">
        <ele>1905.47</ele>
        <time>2014-03-24T11:43:12Z</time>
      </trkpt>
      <trkpt lat="42.68675" lon="2.01444">
        <ele>1908.35</ele>
        <time>2014-03-24T11:43:31Z</time>
      </trkpt>
      <trkpt lat="42.68677" lon="2.01441">
        <ele>1908.83</ele>
        <time>2014-03-24T11:43:53Z</time>
      </trkpt>
      <trkpt lat="42.68676" lon="2.01444">
        <ele>1909.8</ele>
        <time>2014-03-24T11:44:12Z</time>
      </trkpt>
      <trkpt lat="42.68675" lon="2.01446">
        <ele>1906.91</ele>
        <time>2014-03-24T11:44:29Z</time>
      </trkpt>
      <trkpt lat="42.68673" lon="2.01443">
        <ele>1904.99</ele>
        <time>2014-03-24T11:44:44Z</time>
      </trkpt>
      <trkpt lat="42.68668" lon="2.01442">
        <ele>1905.47</ele>
        <time>2014-03-24T11:44:48Z</time>
      </trkpt>
      <trkpt lat="42.68663" lon="2.01441">
        <ele>1906.91</ele>
        <time>2014-03-24T11:44:52Z</time>
      </trkpt>
      <trkpt lat="42.68659" lon="2.01442">
        <ele>1907.39</ele>
        <time>2014-03-24T11:44:56Z</time>
      </trkpt>
      <trkpt lat="42.68646" lon="2.01439">
        <ele>1908.35</ele>
        <time>2014-03-24T11:45:10Z</time>
      </trkpt>
      <trkpt lat="42.68639" lon="2.01436">
        <ele>1907.87</ele>
        <time>2014-03-24T11:45:19Z</time>
      </trkpt>
      <trkpt lat="42.68636" lon="2.01435">
        <ele>1908.83</ele>
        <time>2014-03-24T11:45:28Z</time>
      </trkpt>
      <trkpt lat="42.68634" lon="2.01436">
        <ele>1910.28</ele>
        <time>2014-03-24T11:45:31Z</time>
      </trkpt>
      <trkpt lat="42.6863" lon="2.01435">
        <ele>1909.8</ele>
        <time>2014-03-24T11:45:37Z</time>
      </trkpt>
      <trkpt lat="42.68621" lon="2.01434">
        <ele>1909.8</ele>
        <time>2014-03-24T11:45:49Z</time>
      </trkpt>
      <trkpt lat="42.68613" lon="2.01435">
        <ele>1909.32</ele>
        <time>2014-03-24T11:46:00Z</time>
      </trkpt>
      <trkpt lat="42.68607" lon="2.01432">
        <ele>1908.83</ele>
        <time>2014-03-24T11:46:08Z</time>
      </trkpt>
      <trkpt lat="42.68599" lon="2.01428">
        <ele>1909.32</ele>
        <time>2014-03-24T11:46:21Z</time>
      </trkpt>
      <trkpt lat="42.68592" lon="2.01429">
        <ele>1912.68</ele>
        <time>2014-03-24T11:46:32Z</time>
      </trkpt>
      <trkpt lat="42.68589" lon="2.0143">
        <ele>1912.68</ele>
        <time>2014-03-24T11:46:36Z</time>
      </trkpt>
      <trkpt lat="42.68586" lon="2.01431">
        <ele>1913.64</ele>
        <time>2014-03-24T11:46:41Z</time>
      </trkpt>
      <trkpt lat="42.68577" lon="2.01433">
        <ele>1914.12</ele>
        <time>2014-03-24T11:46:54Z</time>
      </trkpt>
      <trkpt lat="42.68575" lon="2.01434">
        <ele>1914.12</ele>
        <time>2014-03-24T11:46:57Z</time>
      </trkpt>
      <trkpt lat="42.68572" lon="2.01433">
        <ele>1915.08</ele>
        <time>2014-03-24T11:47:00Z</time>
      </trkpt>
      <trkpt lat="42.68566" lon="2.01435">
        <ele>1915.56</ele>
        <time>2014-03-24T11:47:09Z</time>
      </trkpt>
      <trkpt lat="42.68556" lon="2.01438">
        <ele>1916.53</ele>
        <time>2014-03-24T11:47:23Z</time>
      </trkpt>
      <trkpt lat="42.68552" lon="2.01438">
        <ele>1916.04</ele>
        <time>2014-03-24T11:47:30Z</time>
      </trkpt>
      <trkpt lat="42.68549" lon="2.01438">
        <ele>1917.49</ele>
        <time>2014-03-24T11:47:32Z</time>
      </trkpt>
      <trkpt lat="42.68547" lon="2.01441">
        <ele>1918.45</ele>
        <time>2014-03-24T11:47:43Z</time>
      </trkpt>
      <trkpt lat="42.68543" lon="2.01441">
        <ele>1917.01</ele>
        <time>2014-03-24T11:47:52Z</time>
      </trkpt>
      <trkpt lat="42.68539" lon="2.01444">
        <ele>1917.97</ele>
        <time>2014-03-24T11:48:04Z</time>
      </trkpt>
      <trkpt lat="42.68534" lon="2.01446">
        <ele>1917.97</ele>
        <time>2014-03-24T11:48:17Z</time>
      </trkpt>
      <trkpt lat="42.68532" lon="2.01449">
        <ele>1918.93</ele>
        <time>2014-03-24T11:48:34Z</time>
      </trkpt>
      <trkpt lat="42.6853" lon="2.0145">
        <ele>1920.85</ele>
        <time>2014-03-24T11:48:58Z</time>
      </trkpt>
      <trkpt lat="42.68528" lon="2.01448">
        <ele>1918.93</ele>
        <time>2014-03-24T11:49:01Z</time>
      </trkpt>
      <trkpt lat="42.68525" lon="2.01447">
        <ele>1916.04</ele>
        <time>2014-03-24T11:49:05Z</time>
      </trkpt>
      <trkpt lat="42.68518" lon="2.01447">
        <ele>1914.6</ele>
        <time>2014-03-24T11:49:16Z</time>
      </trkpt>
      <trkpt lat="42.68511" lon="2.01448">
        <ele>1915.56</ele>
        <time>2014-03-24T11:49:24Z</time>
      </trkpt>
      <trkpt lat="42.68502" lon="2.01449">
        <ele>1916.04</ele>
        <time>2014-03-24T11:49:34Z</time>
      </trkpt>
      <trkpt lat="42.68493" lon="2.01451">
        <ele>1915.08</ele>
        <time>2014-03-24T11:49:46Z</time>
      </trkpt>
      <trkpt lat="42.68486" lon="2.01454">
        <ele>1915.56</ele>
        <time>2014-03-24T11:49:57Z</time>
      </trkpt>
      <trkpt lat="42.68479" lon="2.01454">
        <ele>1916.53</ele>
        <time>2014-03-24T11:50:08Z</time>
      </trkpt>
      <trkpt lat="42.68474" lon="2.01458">
        <ele>1916.53</ele>
        <time>2014-03-24T11:50:19Z</time>
      </trkpt>
      <trkpt lat="42.68468" lon="2.01462">
        <ele>1919.41</ele>
        <time>2014-03-24T11:50:30Z</time>
      </trkpt>
      <trkpt lat="42.68461" lon="2.01462">
        <ele>1922.29</ele>
        <time>2014-03-24T11:50:42Z</time>
      </trkpt>
      <trkpt lat="42.6846" lon="2.01463">
        <ele>1922.77</ele>
        <time>2014-03-24T11:50:43Z</time>
      </trkpt>
      <trkpt lat="42.68455" lon="2.01466">
        <ele>1923.74</ele>
        <time>2014-03-24T11:50:50Z</time>
      </trkpt>
      <trkpt lat="42.68447" lon="2.01464">
        <ele>1925.66</ele>
        <time>2014-03-24T11:51:02Z</time>
      </trkpt>
      <trkpt lat="42.68438" lon="2.0146">
        <ele>1926.14</ele>
        <time>2014-03-24T11:51:15Z</time>
      </trkpt>
      <trkpt lat="42.6843" lon="2.01457">
        <ele>1930.46</ele>
        <time>2014-03-24T11:51:28Z</time>
      </trkpt>
      <trkpt lat="42.68429" lon="2.01457">
        <ele>1930.95</ele>
        <time>2014-03-24T11:51:33Z</time>
      </trkpt>
      <trkpt lat="42.68427" lon="2.01456">
        <ele>1931.43</ele>
        <time>2014-03-24T11:51:37Z</time>
      </trkpt>
      <trkpt lat="42.6842" lon="2.01454">
        <ele>1934.79</ele>
        <time>2014-03-24T11:51:49Z</time>
      </trkpt>
      <trkpt lat="42.68415" lon="2.01456">
        <ele>1937.67</ele>
        <time>2014-03-24T11:51:59Z</time>
      </trkpt>
      <trkpt lat="42.68408" lon="2.01452">
        <ele>1939.12</ele>
        <time>2014-03-24T11:52:14Z</time>
      </trkpt>
      <trkpt lat="42.68402" lon="2.01448">
        <ele>1942</ele>
        <time>2014-03-24T11:52:26Z</time>
      </trkpt>
      <trkpt lat="42.68397" lon="2.01448">
        <ele>1943.92</ele>
        <time>2014-03-24T11:52:36Z</time>
      </trkpt>
      <trkpt lat="42.68391" lon="2.01444">
        <ele>1948.25</ele>
        <time>2014-03-24T11:52:49Z</time>
      </trkpt>
      <trkpt lat="42.68383" lon="2.0144">
        <ele>1950.65</ele>
        <time>2014-03-24T11:53:04Z</time>
      </trkpt>
      <trkpt lat="42.68375" lon="2.01433">
        <ele>1947.29</ele>
        <time>2014-03-24T11:53:17Z</time>
      </trkpt>
      <trkpt lat="42.68369" lon="2.01431">
        <ele>1948.25</ele>
        <time>2014-03-24T11:53:27Z</time>
      </trkpt>
      <trkpt lat="42.68364" lon="2.01429">
        <ele>1950.17</ele>
        <time>2014-03-24T11:53:38Z</time>
      </trkpt>
      <trkpt lat="42.68354" lon="2.01424">
        <ele>1951.13</ele>
        <time>2014-03-24T11:53:52Z</time>
      </trkpt>
      <trkpt lat="42.68345" lon="2.01421">
        <ele>1952.57</ele>
        <time>2014-03-24T11:54:06Z</time>
      </trkpt>
      <trkpt lat="42.68339" lon="2.01419">
        <ele>1954.5</ele>
        <time>2014-03-24T11:54:16Z</time>
      </trkpt>
      <trkpt lat="42.68332" lon="2.01418">
        <ele>1955.46</ele>
        <time>2014-03-24T11:54:29Z</time>
      </trkpt>
      <trkpt lat="42.68327" lon="2.01414">
        <ele>1954.5</ele>
        <time>2014-03-24T11:54:36Z</time>
      </trkpt>
      <trkpt lat="42.6832" lon="2.0141">
        <ele>1954.98</ele>
        <time>2014-03-24T11:54:48Z</time>
      </trkpt>
      <trkpt lat="42.68313" lon="2.01409">
        <ele>1957.86</ele>
        <time>2014-03-24T11:54:55Z</time>
      </trkpt>
      <trkpt lat="42.68306" lon="2.01406">
        <ele>1956.9</ele>
        <time>2014-03-24T11:55:07Z</time>
      </trkpt>
      <trkpt lat="42.68298" lon="2.01402">
        <ele>1959.3</ele>
        <time>2014-03-24T11:55:20Z</time>
      </trkpt>
      <trkpt lat="42.6829" lon="2.01395">
        <ele>1955.94</ele>
        <time>2014-03-24T11:55:33Z</time>
      </trkpt>
      <trkpt lat="42.68283" lon="2.01395">
        <ele>1956.9</ele>
        <time>2014-03-24T11:55:43Z</time>
      </trkpt>
      <trkpt lat="42.68282" lon="2.01394">
        <ele>1961.23</ele>
        <time>2014-03-24T11:55:58Z</time>
      </trkpt>
      <trkpt lat="42.68278" lon="2.0139">
        <ele>1961.71</ele>
        <time>2014-03-24T11:56:18Z</time>
      </trkpt>
      <trkpt lat="42.68274" lon="2.01387">
        <ele>1962.19</ele>
        <time>2014-03-24T11:56:24Z</time>
      </trkpt>
      <trkpt lat="42.68266" lon="2.01383">
        <ele>1961.23</ele>
        <time>2014-03-24T11:56:36Z</time>
      </trkpt>
      <trkpt lat="42.68256" lon="2.01378">
        <ele>1961.23</ele>
        <time>2014-03-24T11:56:48Z</time>
      </trkpt>
      <trkpt lat="42.68254" lon="2.01376">
        <ele>1960.75</ele>
        <time>2014-03-24T11:56:51Z</time>
      </trkpt>
      <trkpt lat="42.68249" lon="2.01374">
        <ele>1960.75</ele>
        <time>2014-03-24T11:57:01Z</time>
      </trkpt>
      <trkpt lat="42.68248" lon="2.01374">
        <ele>1960.75</ele>
        <time>2014-03-24T11:57:04Z</time>
      </trkpt>
      <trkpt lat="42.68243" lon="2.01374">
        <ele>1960.27</ele>
        <time>2014-03-24T11:57:14Z</time>
      </trkpt>
      <trkpt lat="42.68234" lon="2.01371">
        <ele>1960.27</ele>
        <time>2014-03-24T11:57:25Z</time>
      </trkpt>
      <trkpt lat="42.68226" lon="2.01367">
        <ele>1962.67</ele>
        <time>2014-03-24T11:57:36Z</time>
      </trkpt>
      <trkpt lat="42.68218" lon="2.01362">
        <ele>1963.15</ele>
        <time>2014-03-24T11:57:50Z</time>
      </trkpt>
      <trkpt lat="42.68213" lon="2.0136">
        <ele>1966.51</ele>
        <time>2014-03-24T11:58:02Z</time>
      </trkpt>
      <trkpt lat="42.68208" lon="2.01355">
        <ele>1969.4</ele>
        <time>2014-03-24T11:58:14Z</time>
      </trkpt>
      <trkpt lat="42.68202" lon="2.0135">
        <ele>1969.88</ele>
        <time>2014-03-24T11:58:25Z</time>
      </trkpt>
      <trkpt lat="42.68201" lon="2.01347">
        <ele>1969.88</ele>
        <time>2014-03-24T11:58:38Z</time>
      </trkpt>
      <trkpt lat="42.682" lon="2.01342">
        <ele>1968.44</ele>
        <time>2014-03-24T11:58:48Z</time>
      </trkpt>
      <trkpt lat="42.68196" lon="2.01333">
        <ele>1970.84</ele>
        <time>2014-03-24T11:59:00Z</time>
      </trkpt>
      <trkpt lat="42.68189" lon="2.01327">
        <ele>1970.36</ele>
        <time>2014-03-24T11:59:16Z</time>
      </trkpt>
      <trkpt lat="42.68184" lon="2.01321">
        <ele>1974.69</ele>
        <time>2014-03-24T11:59:31Z</time>
      </trkpt>
      <trkpt lat="42.68179" lon="2.01316">
        <ele>1978.05</ele>
        <time>2014-03-24T11:59:42Z</time>
      </trkpt>
      <trkpt lat="42.68174" lon="2.0131">
        <ele>1980.45</ele>
        <time>2014-03-24T11:59:55Z</time>
      </trkpt>
      <trkpt lat="42.6817" lon="2.0131">
        <ele>1977.57</ele>
        <time>2014-03-24T12:00:08Z</time>
      </trkpt>
      <trkpt lat="42.68165" lon="2.0131">
        <ele>1977.09</ele>
        <time>2014-03-24T12:00:21Z</time>
      </trkpt>
      <trkpt lat="42.68162" lon="2.01303">
        <ele>1979.49</ele>
        <time>2014-03-24T12:00:32Z</time>
      </trkpt>
      <trkpt lat="42.6816" lon="2.01301">
        <ele>1980.93</ele>
        <time>2014-03-24T12:00:38Z</time>
      </trkpt>
      <trkpt lat="42.68152" lon="2.01296">
        <ele>1984.3</ele>
        <time>2014-03-24T12:00:51Z</time>
      </trkpt>
      <trkpt lat="42.68147" lon="2.01291">
        <ele>1986.7</ele>
        <time>2014-03-24T12:01:00Z</time>
      </trkpt>
      <trkpt lat="42.68139" lon="2.01284">
        <ele>1988.14</ele>
        <time>2014-03-24T12:01:13Z</time>
      </trkpt>
      <trkpt lat="42.68134" lon="2.01284">
        <ele>1989.1</ele>
        <time>2014-03-24T12:01:26Z</time>
      </trkpt>
      <trkpt lat="42.68124" lon="2.0128">
        <ele>1991.03</ele>
        <time>2014-03-24T12:01:37Z</time>
      </trkpt>
      <trkpt lat="42.68116" lon="2.01273">
        <ele>1991.99</ele>
        <time>2014-03-24T12:01:48Z</time>
      </trkpt>
      <trkpt lat="42.68111" lon="2.01269">
        <ele>1991.51</ele>
        <time>2014-03-24T12:01:53Z</time>
      </trkpt>
      <trkpt lat="42.68107" lon="2.01267">
        <ele>1991.51</ele>
        <time>2014-03-24T12:01:57Z</time>
      </trkpt>
      <trkpt lat="42.68103" lon="2.01255">
        <ele>1991.51</ele>
        <time>2014-03-24T12:02:09Z</time>
      </trkpt>
      <trkpt lat="42.68098" lon="2.01245">
        <ele>1992.47</ele>
        <time>2014-03-24T12:02:21Z</time>
      </trkpt>
      <trkpt lat="42.68097" lon="2.01239">
        <ele>1998.24</ele>
        <time>2014-03-24T12:02:34Z</time>
      </trkpt>
      <trkpt lat="42.68104" lon="2.0124">
        <ele>1994.87</ele>
        <time>2014-03-24T12:03:03Z</time>
      </trkpt>
      <trkpt lat="42.68102" lon="2.01241">
        <ele>1995.83</ele>
        <time>2014-03-24T12:03:28Z</time>
      </trkpt>
      <trkpt lat="42.68098" lon="2.01237">
        <ele>1998.24</ele>
        <time>2014-03-24T12:03:43Z</time>
      </trkpt>
      <trkpt lat="42.68098" lon="2.01237">
        <ele>1997.76</ele>
        <time>2014-03-24T12:03:44Z</time>
      </trkpt>
      <trkpt lat="42.68096" lon="2.0123">
        <ele>1996.32</ele>
        <time>2014-03-24T12:03:50Z</time>
      </trkpt>
      <trkpt lat="42.68093" lon="2.01224">
        <ele>1995.35</ele>
        <time>2014-03-24T12:03:57Z</time>
      </trkpt>
      <trkpt lat="42.68089" lon="2.01212">
        <ele>1995.35</ele>
        <time>2014-03-24T12:04:09Z</time>
      </trkpt>
      <trkpt lat="42.68085" lon="2.01203">
        <ele>1998.72</ele>
        <time>2014-03-24T12:04:22Z</time>
      </trkpt>
      <trkpt lat="42.68088" lon="2.01199">
        <ele>2000.16</ele>
        <time>2014-03-24T12:04:48Z</time>
      </trkpt>
      <trkpt lat="42.68084" lon="2.01196">
        <ele>2001.12</ele>
        <time>2014-03-24T12:05:02Z</time>
      </trkpt>
      <trkpt lat="42.68084" lon="2.01195">
        <ele>2001.12</ele>
        <time>2014-03-24T12:05:03Z</time>
      </trkpt>
      <trkpt lat="42.6808" lon="2.01193">
        <ele>2003.04</ele>
        <time>2014-03-24T12:05:15Z</time>
      </trkpt>
      <trkpt lat="42.68077" lon="2.01181">
        <ele>2003.52</ele>
        <time>2014-03-24T12:05:25Z</time>
      </trkpt>
      <trkpt lat="42.68076" lon="2.01178">
        <ele>2004.01</ele>
        <time>2014-03-24T12:05:28Z</time>
      </trkpt>
      <trkpt lat="42.68068" lon="2.01164">
        <ele>2005.93</ele>
        <time>2014-03-24T12:05:39Z</time>
      </trkpt>
      <trkpt lat="42.68065" lon="2.01158">
        <ele>2007.85</ele>
        <time>2014-03-24T12:05:48Z</time>
      </trkpt>
      <trkpt lat="42.68062" lon="2.01146">
        <ele>2007.85</ele>
        <time>2014-03-24T12:06:00Z</time>
      </trkpt>
      <trkpt lat="42.68059" lon="2.01138">
        <ele>2007.85</ele>
        <time>2014-03-24T12:06:11Z</time>
      </trkpt>
      <trkpt lat="42.68056" lon="2.0113">
        <ele>2006.89</ele>
        <time>2014-03-24T12:06:24Z</time>
      </trkpt>
      <trkpt lat="42.68051" lon="2.01122">
        <ele>2005.45</ele>
        <time>2014-03-24T12:06:37Z</time>
      </trkpt>
      <trkpt lat="42.68046" lon="2.01114">
        <ele>2006.89</ele>
        <time>2014-03-24T12:06:47Z</time>
      </trkpt>
      <trkpt lat="42.68041" lon="2.01108">
        <ele>2008.33</ele>
        <time>2014-03-24T12:07:00Z</time>
      </trkpt>
      <trkpt lat="42.68034" lon="2.01104">
        <ele>2010.25</ele>
        <time>2014-03-24T12:07:12Z</time>
      </trkpt>
      <trkpt lat="42.68031" lon="2.01097">
        <ele>2008.33</ele>
        <time>2014-03-24T12:07:26Z</time>
      </trkpt>
      <trkpt lat="42.68022" lon="2.01094">
        <ele>2011.22</ele>
        <time>2014-03-24T12:07:38Z</time>
      </trkpt>
      <trkpt lat="42.68016" lon="2.0109">
        <ele>2013.14</ele>
        <time>2014-03-24T12:07:48Z</time>
      </trkpt>
      <trkpt lat="42.68009" lon="2.01085">
        <ele>2016.5</ele>
        <time>2014-03-24T12:08:04Z</time>
      </trkpt>
      <trkpt lat="42.68003" lon="2.01081">
        <ele>2019.87</ele>
        <time>2014-03-24T12:08:15Z</time>
      </trkpt>
      <trkpt lat="42.67995" lon="2.01078">
        <ele>2024.19</ele>
        <time>2014-03-24T12:08:29Z</time>
      </trkpt>
      <trkpt lat="42.67992" lon="2.01073">
        <ele>2025.15</ele>
        <time>2014-03-24T12:08:41Z</time>
      </trkpt>
      <trkpt lat="42.67987" lon="2.01064">
        <ele>2028.52</ele>
        <time>2014-03-24T12:08:52Z</time>
      </trkpt>
      <trkpt lat="42.67983" lon="2.0106">
        <ele>2029.48</ele>
        <time>2014-03-24T12:09:03Z</time>
      </trkpt>
      <trkpt lat="42.67978" lon="2.01055">
        <ele>2030.44</ele>
        <time>2014-03-24T12:09:13Z</time>
      </trkpt>
      <trkpt lat="42.67973" lon="2.01046">
        <ele>2031.4</ele>
        <time>2014-03-24T12:09:27Z</time>
      </trkpt>
      <trkpt lat="42.67968" lon="2.01039">
        <ele>2032.36</ele>
        <time>2014-03-24T12:09:41Z</time>
      </trkpt>
      <trkpt lat="42.67963" lon="2.0103">
        <ele>2029.96</ele>
        <time>2014-03-24T12:09:54Z</time>
      </trkpt>
      <trkpt lat="42.67957" lon="2.01021">
        <ele>2030.44</ele>
        <time>2014-03-24T12:10:07Z</time>
      </trkpt>
      <trkpt lat="42.67953" lon="2.01015">
        <ele>2031.88</ele>
        <time>2014-03-24T12:10:19Z</time>
      </trkpt>
      <trkpt lat="42.67948" lon="2.01009">
        <ele>2033.33</ele>
        <time>2014-03-24T12:10:28Z</time>
      </trkpt>
      <trkpt lat="42.67946" lon="2.01003">
        <ele>2035.73</ele>
        <time>2014-03-24T12:10:39Z</time>
      </trkpt>
      <trkpt lat="42.67942" lon="2.01">
        <ele>2039.09</ele>
        <time>2014-03-24T12:10:49Z</time>
      </trkpt>
      <trkpt lat="42.67937" lon="2.00992">
        <ele>2040.54</ele>
        <time>2014-03-24T12:11:03Z</time>
      </trkpt>
      <trkpt lat="42.67934" lon="2.00986">
        <ele>2044.38</ele>
        <time>2014-03-24T12:11:12Z</time>
      </trkpt>
      <trkpt lat="42.67928" lon="2.0098">
        <ele>2048.71</ele>
        <time>2014-03-24T12:11:25Z</time>
      </trkpt>
      <trkpt lat="42.67926" lon="2.00974">
        <ele>2050.15</ele>
        <time>2014-03-24T12:11:35Z</time>
      </trkpt>
      <trkpt lat="42.67921" lon="2.00966">
        <ele>2052.07</ele>
        <time>2014-03-24T12:11:47Z</time>
      </trkpt>
      <trkpt lat="42.67921" lon="2.0096">
        <ele>2054.47</ele>
        <time>2014-03-24T12:11:58Z</time>
      </trkpt>
      <trkpt lat="42.6792" lon="2.00961">
        <ele>2059.76</ele>
        <time>2014-03-24T12:12:12Z</time>
      </trkpt>
      <trkpt lat="42.67918" lon="2.00956">
        <ele>2063.61</ele>
        <time>2014-03-24T12:12:35Z</time>
      </trkpt>
      <trkpt lat="42.67917" lon="2.0095">
        <ele>2063.13</ele>
        <time>2014-03-24T12:12:42Z</time>
      </trkpt>
      <trkpt lat="42.67917" lon="2.00943">
        <ele>2063.13</ele>
        <time>2014-03-24T12:12:48Z</time>
      </trkpt>
      <trkpt lat="42.67918" lon="2.00943">
        <ele>2063.61</ele>
        <time>2014-03-24T12:13:01Z</time>
      </trkpt>
      <trkpt lat="42.67913" lon="2.00938">
        <ele>2063.13</ele>
        <time>2014-03-24T12:13:12Z</time>
      </trkpt>
      <trkpt lat="42.67908" lon="2.00924">
        <ele>2059.76</ele>
        <time>2014-03-24T12:13:24Z</time>
      </trkpt>
      <trkpt lat="42.67892" lon="2.00913">
        <ele>2058.8</ele>
        <time>2014-03-24T12:13:34Z</time>
      </trkpt>
      <trkpt lat="42.67892" lon="2.00912">
        <ele>2058.32</ele>
        <time>2014-03-24T12:13:35Z</time>
      </trkpt>
      <trkpt lat="42.67891" lon="2.00911">
        <ele>2057.84</ele>
        <time>2014-03-24T12:13:36Z</time>
      </trkpt>
      <trkpt lat="42.67889" lon="2.00911">
        <ele>2057.36</ele>
        <time>2014-03-24T12:13:37Z</time>
      </trkpt>
      <trkpt lat="42.67886" lon="2.009">
        <ele>2055.44</ele>
        <time>2014-03-24T12:13:49Z</time>
      </trkpt>
      <trkpt lat="42.6789" lon="2.009">
        <ele>2052.55</ele>
        <time>2014-03-24T12:14:12Z</time>
      </trkpt>
      <trkpt lat="42.67887" lon="2.00899">
        <ele>2052.07</ele>
        <time>2014-03-24T12:14:19Z</time>
      </trkpt>
      <trkpt lat="42.67882" lon="2.00897">
        <ele>2053.51</ele>
        <time>2014-03-24T12:14:23Z</time>
      </trkpt>
      <trkpt lat="42.67872" lon="2.00891">
        <ele>2055.44</ele>
        <time>2014-03-24T12:14:35Z</time>
      </trkpt>
      <trkpt lat="42.67871" lon="2.00887">
        <ele>2054.96</ele>
        <time>2014-03-24T12:14:44Z</time>
      </trkpt>
      <trkpt lat="42.67865" lon="2.00884">
        <ele>2053.99</ele>
        <time>2014-03-24T12:15:18Z</time>
      </trkpt>
      <trkpt lat="42.67867" lon="2.00892">
        <ele>2051.11</ele>
        <time>2014-03-24T12:15:36Z</time>
      </trkpt>
      <trkpt lat="42.6787" lon="2.00894">
        <ele>2051.11</ele>
        <time>2014-03-24T12:15:57Z</time>
      </trkpt>
      <trkpt lat="42.67872" lon="2.00895">
        <ele>2052.07</ele>
        <time>2014-03-24T12:16:13Z</time>
      </trkpt>
      <trkpt lat="42.67871" lon="2.00893">
        <ele>2052.55</ele>
        <time>2014-03-24T12:16:34Z</time>
      </trkpt>
      <trkpt lat="42.67873" lon="2.00886">
        <ele>2049.67</ele>
        <time>2014-03-24T12:16:58Z</time>
      </trkpt>
      <trkpt lat="42.67874" lon="2.00888">
        <ele>2049.19</ele>
        <time>2014-03-24T12:17:14Z</time>
      </trkpt>
      <trkpt lat="42.67873" lon="2.00884">
        <ele>2045.82</ele>
        <time>2014-03-24T12:17:44Z</time>
      </trkpt>
      <trkpt lat="42.67869" lon="2.00893">
        <ele>2048.23</ele>
        <time>2014-03-24T12:17:57Z</time>
      </trkpt>
      <trkpt lat="42.67865" lon="2.00884">
        <ele>2046.78</ele>
        <time>2014-03-24T12:18:08Z</time>
      </trkpt>
      <trkpt lat="42.67857" lon="2.00875">
        <ele>2049.67</ele>
        <time>2014-03-24T12:18:19Z</time>
      </trkpt>
      <trkpt lat="42.67856" lon="2.00875">
        <ele>2050.15</ele>
        <time>2014-03-24T12:18:20Z</time>
      </trkpt>
      <trkpt lat="42.67855" lon="2.00874">
        <ele>2050.15</ele>
        <time>2014-03-24T12:18:21Z</time>
      </trkpt>
      <trkpt lat="42.6785" lon="2.00867">
        <ele>2051.11</ele>
        <time>2014-03-24T12:18:28Z</time>
      </trkpt>
      <trkpt lat="42.67848" lon="2.00864">
        <ele>2052.07</ele>
        <time>2014-03-24T12:18:32Z</time>
      </trkpt>
      <trkpt lat="42.67847" lon="2.00863">
        <ele>2052.07</ele>
        <time>2014-03-24T12:18:33Z</time>
      </trkpt>
      <trkpt lat="42.67844" lon="2.00859">
        <ele>2053.03</ele>
        <time>2014-03-24T12:18:37Z</time>
      </trkpt>
      <trkpt lat="42.67839" lon="2.00854">
        <ele>2053.99</ele>
        <time>2014-03-24T12:18:44Z</time>
      </trkpt>
      <trkpt lat="42.67837" lon="2.00852">
        <ele>2054.47</ele>
        <time>2014-03-24T12:18:45Z</time>
      </trkpt>
      <trkpt lat="42.67831" lon="2.00843">
        <ele>2055.92</ele>
        <time>2014-03-24T12:18:54Z</time>
      </trkpt>
      <trkpt lat="42.6782" lon="2.00832">
        <ele>2056.88</ele>
        <time>2014-03-24T12:19:06Z</time>
      </trkpt>
      <trkpt lat="42.67816" lon="2.00829">
        <ele>2057.84</ele>
        <time>2014-03-24T12:19:11Z</time>
      </trkpt>
      <trkpt lat="42.6781" lon="2.00825">
        <ele>2057.36</ele>
        <time>2014-03-24T12:19:23Z</time>
      </trkpt>
      <trkpt lat="42.67809" lon="2.00824">
        <ele>2057.36</ele>
        <time>2014-03-24T12:19:24Z</time>
      </trkpt>
      <trkpt lat="42.67803" lon="2.00814">
        <ele>2057.84</ele>
        <time>2014-03-24T12:19:35Z</time>
      </trkpt>
      <trkpt lat="42.67799" lon="2.00811">
        <ele>2058.8</ele>
        <time>2014-03-24T12:19:41Z</time>
      </trkpt>
      <trkpt lat="42.67791" lon="2.00803">
        <ele>2061.2</ele>
        <time>2014-03-24T12:19:53Z</time>
      </trkpt>
      <trkpt lat="42.67791" lon="2.00802">
        <ele>2061.68</ele>
        <time>2014-03-24T12:19:54Z</time>
      </trkpt>
      <trkpt lat="42.67785" lon="2.00794">
        <ele>2063.61</ele>
        <time>2014-03-24T12:20:06Z</time>
      </trkpt>
      <trkpt lat="42.67783" lon="2.0079">
        <ele>2063.13</ele>
        <time>2014-03-24T12:20:16Z</time>
      </trkpt>
      <trkpt lat="42.67778" lon="2.00776">
        <ele>2063.61</ele>
        <time>2014-03-24T12:20:29Z</time>
      </trkpt>
      <trkpt lat="42.67774" lon="2.00768">
        <ele>2065.53</ele>
        <time>2014-03-24T12:20:41Z</time>
      </trkpt>
      <trkpt lat="42.67772" lon="2.00755">
        <ele>2067.45</ele>
        <time>2014-03-24T12:20:52Z</time>
      </trkpt>
      <trkpt lat="42.67769" lon="2.00746">
        <ele>2070.34</ele>
        <time>2014-03-24T12:21:04Z</time>
      </trkpt>
      <trkpt lat="42.67765" lon="2.00738">
        <ele>2071.78</ele>
        <time>2014-03-24T12:21:17Z</time>
      </trkpt>
      <trkpt lat="42.67764" lon="2.0073">
        <ele>2071.3</ele>
        <time>2014-03-24T12:21:31Z</time>
      </trkpt>
      <trkpt lat="42.67763" lon="2.00724">
        <ele>2070.82</ele>
        <time>2014-03-24T12:21:36Z</time>
      </trkpt>
      <trkpt lat="42.6776" lon="2.00715">
        <ele>2071.3</ele>
        <time>2014-03-24T12:21:47Z</time>
      </trkpt>
      <trkpt lat="42.67759" lon="2.0071">
        <ele>2072.74</ele>
        <time>2014-03-24T12:21:56Z</time>
      </trkpt>
      <trkpt lat="42.67759" lon="2.00702">
        <ele>2072.74</ele>
        <time>2014-03-24T12:22:09Z</time>
      </trkpt>
      <trkpt lat="42.67758" lon="2.00695">
        <ele>2071.3</ele>
        <time>2014-03-24T12:22:19Z</time>
      </trkpt>
      <trkpt lat="42.67756" lon="2.00692">
        <ele>2070.34</ele>
        <time>2014-03-24T12:22:30Z</time>
      </trkpt>
      <trkpt lat="42.67753" lon="2.00682">
        <ele>2073.7</ele>
        <time>2014-03-24T12:22:44Z</time>
      </trkpt>
      <trkpt lat="42.67751" lon="2.00672">
        <ele>2078.03</ele>
        <time>2014-03-24T12:22:56Z</time>
      </trkpt>
      <trkpt lat="42.67748" lon="2.00664">
        <ele>2080.43</ele>
        <time>2014-03-24T12:23:11Z</time>
      </trkpt>
      <trkpt lat="42.67748" lon="2.00652">
        <ele>2081.39</ele>
        <time>2014-03-24T12:23:25Z</time>
      </trkpt>
      <trkpt lat="42.67746" lon="2.00644">
        <ele>2082.83</ele>
        <time>2014-03-24T12:23:35Z</time>
      </trkpt>
      <trkpt lat="42.67744" lon="2.00638">
        <ele>2084.28</ele>
        <time>2014-03-24T12:23:47Z</time>
      </trkpt>
      <trkpt lat="42.67742" lon="2.00631">
        <ele>2083.31</ele>
        <time>2014-03-24T12:23:58Z</time>
      </trkpt>
      <trkpt lat="42.67739" lon="2.00623">
        <ele>2084.76</ele>
        <time>2014-03-24T12:24:09Z</time>
      </trkpt>
      <trkpt lat="42.67734" lon="2.00614">
        <ele>2088.6</ele>
        <time>2014-03-24T12:24:20Z</time>
      </trkpt>
      <trkpt lat="42.67732" lon="2.00607">
        <ele>2091</ele>
        <time>2014-03-24T12:24:31Z</time>
      </trkpt>
      <trkpt lat="42.67727" lon="2.00602">
        <ele>2095.81</ele>
        <time>2014-03-24T12:24:44Z</time>
      </trkpt>
      <trkpt lat="42.67724" lon="2.00594">
        <ele>2096.29</ele>
        <time>2014-03-24T12:24:57Z</time>
      </trkpt>
      <trkpt lat="42.67722" lon="2.00588">
        <ele>2100.14</ele>
        <time>2014-03-24T12:25:09Z</time>
      </trkpt>
      <trkpt lat="42.67717" lon="2.00577">
        <ele>2100.62</ele>
        <time>2014-03-24T12:25:21Z</time>
      </trkpt>
      <trkpt lat="42.67714" lon="2.00568">
        <ele>2102.06</ele>
        <time>2014-03-24T12:25:34Z</time>
      </trkpt>
      <trkpt lat="42.67714" lon="2.00565">
        <ele>2103.98</ele>
        <time>2014-03-24T12:25:56Z</time>
      </trkpt>
      <trkpt lat="42.67713" lon="2.00558">
        <ele>2105.42</ele>
        <time>2014-03-24T12:26:07Z</time>
      </trkpt>
      <trkpt lat="42.67712" lon="2.00556">
        <ele>2110.71</ele>
        <time>2014-03-24T12:26:21Z</time>
      </trkpt>
      <trkpt lat="42.67711" lon="2.00561">
        <ele>2110.23</ele>
        <time>2014-03-24T12:26:43Z</time>
      </trkpt>
      <trkpt lat="42.67713" lon="2.0056">
        <ele>2112.15</ele>
        <time>2014-03-24T12:27:08Z</time>
      </trkpt>
      <trkpt lat="42.67714" lon="2.00557">
        <ele>2111.19</ele>
        <time>2014-03-24T12:27:34Z</time>
      </trkpt>
      <trkpt lat="42.67711" lon="2.00555">
        <ele>2114.56</ele>
        <time>2014-03-24T12:27:53Z</time>
      </trkpt>
      <trkpt lat="42.67706" lon="2.00545">
        <ele>2116.48</ele>
        <time>2014-03-24T12:28:01Z</time>
      </trkpt>
      <trkpt lat="42.677" lon="2.00531">
        <ele>2117.44</ele>
        <time>2014-03-24T12:28:13Z</time>
      </trkpt>
      <trkpt lat="42.67694" lon="2.00517">
        <ele>2121.77</ele>
        <time>2014-03-24T12:28:27Z</time>
      </trkpt>
      <trkpt lat="42.67693" lon="2.00508">
        <ele>2122.25</ele>
        <time>2014-03-24T12:28:39Z</time>
      </trkpt>
      <trkpt lat="42.67694" lon="2.0051">
        <ele>2124.17</ele>
        <time>2014-03-24T12:28:54Z</time>
      </trkpt>
      <trkpt lat="42.67695" lon="2.00508">
        <ele>2123.69</ele>
        <time>2014-03-24T12:29:11Z</time>
      </trkpt>
      <trkpt lat="42.67696" lon="2.00504">
        <ele>2122.25</ele>
        <time>2014-03-24T12:29:35Z</time>
      </trkpt>
      <trkpt lat="42.67695" lon="2.00507">
        <ele>2120.32</ele>
        <time>2014-03-24T12:30:01Z</time>
      </trkpt>
      <trkpt lat="42.67696" lon="2.00509">
        <ele>2117.44</ele>
        <time>2014-03-24T12:30:16Z</time>
      </trkpt>
      <trkpt lat="42.67695" lon="2.00506">
        <ele>2118.4</ele>
        <time>2014-03-24T12:30:21Z</time>
      </trkpt>
      <trkpt lat="42.67688" lon="2.00492">
        <ele>2121.77</ele>
        <time>2014-03-24T12:30:32Z</time>
      </trkpt>
      <trkpt lat="42.67677" lon="2.00481">
        <ele>2128.02</ele>
        <time>2014-03-24T12:30:45Z</time>
      </trkpt>
      <trkpt lat="42.67677" lon="2.00479">
        <ele>2128.02</ele>
        <time>2014-03-24T12:30:47Z</time>
      </trkpt>
      <trkpt lat="42.67676" lon="2.00476">
        <ele>2128.02</ele>
        <time>2014-03-24T12:30:49Z</time>
      </trkpt>
      <trkpt lat="42.67674" lon="2.00471">
        <ele>2128.98</ele>
        <time>2014-03-24T12:30:55Z</time>
      </trkpt>
      <trkpt lat="42.67674" lon="2.00467">
        <ele>2128.98</ele>
        <time>2014-03-24T12:30:59Z</time>
      </trkpt>
      <trkpt lat="42.67667" lon="2.00451">
        <ele>2129.94</ele>
        <time>2014-03-24T12:31:12Z</time>
      </trkpt>
      <trkpt lat="42.67666" lon="2.00448">
        <ele>2129.46</ele>
        <time>2014-03-24T12:31:16Z</time>
      </trkpt>
      <trkpt lat="42.67661" lon="2.00437">
        <ele>2130.42</ele>
        <time>2014-03-24T12:31:31Z</time>
      </trkpt>
      <trkpt lat="42.67654" lon="2.00431">
        <ele>2131.38</ele>
        <time>2014-03-24T12:31:44Z</time>
      </trkpt>
      <trkpt lat="42.67652" lon="2.00425">
        <ele>2132.34</ele>
        <time>2014-03-24T12:31:53Z</time>
      </trkpt>
      <trkpt lat="42.67645" lon="2.00422">
        <ele>2135.23</ele>
        <time>2014-03-24T12:32:06Z</time>
      </trkpt>
      <trkpt lat="42.67642" lon="2.00412">
        <ele>2137.63</ele>
        <time>2014-03-24T12:32:17Z</time>
      </trkpt>
      <trkpt lat="42.67637" lon="2.00402">
        <ele>2140.99</ele>
        <time>2014-03-24T12:32:29Z</time>
      </trkpt>
      <trkpt lat="42.67632" lon="2.00393">
        <ele>2142.44</ele>
        <time>2014-03-24T12:32:40Z</time>
      </trkpt>
      <trkpt lat="42.67629" lon="2.00385">
        <ele>2142.92</ele>
        <time>2014-03-24T12:32:51Z</time>
      </trkpt>
      <trkpt lat="42.67623" lon="2.00374">
        <ele>2140.51</ele>
        <time>2014-03-24T12:33:06Z</time>
      </trkpt>
      <trkpt lat="42.67618" lon="2.00371">
        <ele>2140.51</ele>
        <time>2014-03-24T12:33:11Z</time>
      </trkpt>
      <trkpt lat="42.67613" lon="2.00362">
        <ele>2140.03</ele>
        <time>2014-03-24T12:33:22Z</time>
      </trkpt>
      <trkpt lat="42.67612" lon="2.00355">
        <ele>2139.55</ele>
        <time>2014-03-24T12:33:34Z</time>
      </trkpt>
      <trkpt lat="42.6761" lon="2.00351">
        <ele>2139.07</ele>
        <time>2014-03-24T12:33:37Z</time>
      </trkpt>
      <trkpt lat="42.676" lon="2.00341">
        <ele>2141.47</ele>
        <time>2014-03-24T12:33:48Z</time>
      </trkpt>
      <trkpt lat="42.67593" lon="2.00334">
        <ele>2145.8</ele>
        <time>2014-03-24T12:34:00Z</time>
      </trkpt>
      <trkpt lat="42.67588" lon="2.00328">
        <ele>2149.16</ele>
        <time>2014-03-24T12:34:12Z</time>
      </trkpt>
      <trkpt lat="42.67583" lon="2.0032">
        <ele>2151.09</ele>
        <time>2014-03-24T12:34:25Z</time>
      </trkpt>
      <trkpt lat="42.67581" lon="2.00323">
        <ele>2152.53</ele>
        <time>2014-03-24T12:34:38Z</time>
      </trkpt>
      <trkpt lat="42.67581" lon="2.00322">
        <ele>2150.13</ele>
        <time>2014-03-24T12:34:59Z</time>
      </trkpt>
      <trkpt lat="42.67584" lon="2.00318">
        <ele>2149.16</ele>
        <time>2014-03-24T12:35:23Z</time>
      </trkpt>
      <trkpt lat="42.67579" lon="2.00306">
        <ele>2146.76</ele>
        <time>2014-03-24T12:35:44Z</time>
      </trkpt>
      <trkpt lat="42.67575" lon="2.00302">
        <ele>2145.32</ele>
        <time>2014-03-24T12:35:56Z</time>
      </trkpt>
      <trkpt lat="42.67571" lon="2.00298">
        <ele>2144.84</ele>
        <time>2014-03-24T12:36:08Z</time>
      </trkpt>
      <trkpt lat="42.67568" lon="2.00292">
        <ele>2144.84</ele>
        <time>2014-03-24T12:36:19Z</time>
      </trkpt>
      <trkpt lat="42.67563" lon="2.00287">
        <ele>2145.8</ele>
        <time>2014-03-24T12:36:29Z</time>
      </trkpt>
      <trkpt lat="42.67556" lon="2.00277">
        <ele>2146.28</ele>
        <time>2014-03-24T12:36:44Z</time>
      </trkpt>
      <trkpt lat="42.67553" lon="2.00267">
        <ele>2148.2</ele>
        <time>2014-03-24T12:36:55Z</time>
      </trkpt>
      <trkpt lat="42.67547" lon="2.00265">
        <ele>2148.68</ele>
        <time>2014-03-24T12:37:08Z</time>
      </trkpt>
      <trkpt lat="42.67544" lon="2.00265">
        <ele>2148.68</ele>
        <time>2014-03-24T12:37:19Z</time>
      </trkpt>
      <trkpt lat="42.67545" lon="2.00264">
        <ele>2150.13</ele>
        <time>2014-03-24T12:37:30Z</time>
      </trkpt>
      <trkpt lat="42.67543" lon="2.00261">
        <ele>2148.68</ele>
        <time>2014-03-24T12:37:48Z</time>
      </trkpt>
      <trkpt lat="42.6754" lon="2.00262">
        <ele>2150.61</ele>
        <time>2014-03-24T12:38:05Z</time>
      </trkpt>
      <trkpt lat="42.67535" lon="2.00261">
        <ele>2151.57</ele>
        <time>2014-03-24T12:38:17Z</time>
      </trkpt>
      <trkpt lat="42.67531" lon="2.0026">
        <ele>2155.41</ele>
        <time>2014-03-24T12:38:31Z</time>
      </trkpt>
      <trkpt lat="42.67525" lon="2.00262">
        <ele>2155.89</ele>
        <time>2014-03-24T12:38:40Z</time>
      </trkpt>
      <trkpt lat="42.67525" lon="2.00265">
        <ele>2156.86</ele>
        <time>2014-03-24T12:38:53Z</time>
      </trkpt>
      <trkpt lat="42.67524" lon="2.00257">
        <ele>2157.34</ele>
        <time>2014-03-24T12:39:09Z</time>
      </trkpt>
      <trkpt lat="42.67524" lon="2.00255">
        <ele>2157.34</ele>
        <time>2014-03-24T12:39:35Z</time>
      </trkpt>
      <trkpt lat="42.67527" lon="2.00253">
        <ele>2154.93</ele>
        <time>2014-03-24T12:39:53Z</time>
      </trkpt>
      <trkpt lat="42.67531" lon="2.00258">
        <ele>2151.57</ele>
        <time>2014-03-24T12:40:14Z</time>
      </trkpt>
      <trkpt lat="42.6753" lon="2.00252">
        <ele>2152.05</ele>
        <time>2014-03-24T12:40:34Z</time>
      </trkpt>
      <trkpt lat="42.67535" lon="2.00256">
        <ele>2154.93</ele>
        <time>2014-03-24T12:41:00Z</time>
      </trkpt>
      <trkpt lat="42.67525" lon="2.00261">
        <ele>2153.01</ele>
        <time>2014-03-24T12:41:21Z</time>
      </trkpt>
      <trkpt lat="42.67525" lon="2.00256">
        <ele>2152.53</ele>
        <time>2014-03-24T12:41:44Z</time>
      </trkpt>
      <trkpt lat="42.67531" lon="2.00257">
        <ele>2151.57</ele>
        <time>2014-03-24T12:41:53Z</time>
      </trkpt>
      <trkpt lat="42.67527" lon="2.00258">
        <ele>2153.01</ele>
        <time>2014-03-24T12:42:02Z</time>
      </trkpt>
      <trkpt lat="42.67518" lon="2.00257">
        <ele>2153.01</ele>
        <time>2014-03-24T12:42:24Z</time>
      </trkpt>
      <trkpt lat="42.67518" lon="2.00257">
        <ele>2153.49</ele>
        <time>2014-03-24T12:42:37Z</time>
      </trkpt>
      <trkpt lat="42.67512" lon="2.00258">
        <ele>2155.41</ele>
        <time>2014-03-24T12:42:49Z</time>
      </trkpt>
      <trkpt lat="42.67506" lon="2.00261">
        <ele>2157.34</ele>
        <time>2014-03-24T12:43:02Z</time>
      </trkpt>
      <trkpt lat="42.67501" lon="2.00262">
        <ele>2160.7</ele>
        <time>2014-03-24T12:43:13Z</time>
      </trkpt>
      <trkpt lat="42.67503" lon="2.0026">
        <ele>2162.62</ele>
        <time>2014-03-24T12:43:26Z</time>
      </trkpt>
      <trkpt lat="42.67502" lon="2.00249">
        <ele>2163.1</ele>
        <time>2014-03-24T12:43:39Z</time>
      </trkpt>
      <trkpt lat="42.675" lon="2.00245">
        <ele>2161.66</ele>
        <time>2014-03-24T12:43:43Z</time>
      </trkpt>
      <trkpt lat="42.67499" lon="2.00231">
        <ele>2162.14</ele>
        <time>2014-03-24T12:43:57Z</time>
      </trkpt>
      <trkpt lat="42.67497" lon="2.00224">
        <ele>2163.58</ele>
        <time>2014-03-24T12:44:09Z</time>
      </trkpt>
      <trkpt lat="42.67497" lon="2.00219">
        <ele>2163.1</ele>
        <time>2014-03-24T12:44:20Z</time>
      </trkpt>
      <trkpt lat="42.67499" lon="2.00213">
        <ele>2165.03</ele>
        <time>2014-03-24T12:44:35Z</time>
      </trkpt>
      <trkpt lat="42.67501" lon="2.00203">
        <ele>2165.51</ele>
        <time>2014-03-24T12:44:47Z</time>
      </trkpt>
      <trkpt lat="42.67502" lon="2.00202">
        <ele>2165.51</ele>
        <time>2014-03-24T12:45:00Z</time>
      </trkpt>
      <trkpt lat="42.67502" lon="2.0021">
        <ele>2161.66</ele>
        <time>2014-03-24T12:45:12Z</time>
      </trkpt>
      <trkpt lat="42.67499" lon="2.00214">
        <ele>2165.51</ele>
        <time>2014-03-24T12:45:26Z</time>
      </trkpt>
      <trkpt lat="42.67495" lon="2.00218">
        <ele>2168.39</ele>
        <time>2014-03-24T12:45:38Z</time>
      </trkpt>
      <trkpt lat="42.67491" lon="2.0022">
        <ele>2172.24</ele>
        <time>2014-03-24T12:45:51Z</time>
      </trkpt>
      <trkpt lat="42.67486" lon="2.00222">
        <ele>2177.52</ele>
        <time>2014-03-24T12:46:03Z</time>
      </trkpt>
      <trkpt lat="42.67484" lon="2.00225">
        <ele>2181.37</ele>
        <time>2014-03-24T12:46:16Z</time>
      </trkpt>
      <trkpt lat="42.67482" lon="2.00231">
        <ele>2183.77</ele>
        <time>2014-03-24T12:46:28Z</time>
      </trkpt>
      <trkpt lat="42.67481" lon="2.00229">
        <ele>2185.21</ele>
        <time>2014-03-24T12:46:37Z</time>
      </trkpt>
      <trkpt lat="42.67479" lon="2.00223">
        <ele>2185.21</ele>
        <time>2014-03-24T12:46:49Z</time>
      </trkpt>
      <trkpt lat="42.67477" lon="2.00215">
        <ele>2185.21</ele>
        <time>2014-03-24T12:47:00Z</time>
      </trkpt>
      <trkpt lat="42.67478" lon="2.00208">
        <ele>2186.18</ele>
        <time>2014-03-24T12:47:12Z</time>
      </trkpt>
      <trkpt lat="42.6748" lon="2.00202">
        <ele>2185.69</ele>
        <time>2014-03-24T12:47:22Z</time>
      </trkpt>
      <trkpt lat="42.67481" lon="2.00191">
        <ele>2186.18</ele>
        <time>2014-03-24T12:47:36Z</time>
      </trkpt>
      <trkpt lat="42.67482" lon="2.0019">
        <ele>2185.69</ele>
        <time>2014-03-24T12:47:50Z</time>
      </trkpt>
      <trkpt lat="42.6748" lon="2.00198">
        <ele>2185.69</ele>
        <time>2014-03-24T12:48:03Z</time>
      </trkpt>
      <trkpt lat="42.67475" lon="2.00202">
        <ele>2188.58</ele>
        <time>2014-03-24T12:48:14Z</time>
      </trkpt>
      <trkpt lat="42.67474" lon="2.00206">
        <ele>2192.9</ele>
        <time>2014-03-24T12:48:25Z</time>
      </trkpt>
      <trkpt lat="42.67469" lon="2.00211">
        <ele>2196.75</ele>
        <time>2014-03-24T12:48:39Z</time>
      </trkpt>
      <trkpt lat="42.67468" lon="2.00217">
        <ele>2203</ele>
        <time>2014-03-24T12:48:53Z</time>
      </trkpt>
      <trkpt lat="42.67468" lon="2.0022">
        <ele>2204.92</ele>
        <time>2014-03-24T12:49:06Z</time>
      </trkpt>
      <trkpt lat="42.67466" lon="2.00218">
        <ele>2204.44</ele>
        <time>2014-03-24T12:49:16Z</time>
      </trkpt>
      <trkpt lat="42.67466" lon="2.00206">
        <ele>2204.92</ele>
        <time>2014-03-24T12:49:30Z</time>
      </trkpt>
      <trkpt lat="42.67467" lon="2.00199">
        <ele>2205.4</ele>
        <time>2014-03-24T12:49:39Z</time>
      </trkpt>
      <trkpt lat="42.67466" lon="2.00192">
        <ele>2204.92</ele>
        <time>2014-03-24T12:49:52Z</time>
      </trkpt>
      <trkpt lat="42.67469" lon="2.00185">
        <ele>2205.88</ele>
        <time>2014-03-24T12:50:06Z</time>
      </trkpt>
      <trkpt lat="42.67469" lon="2.00184">
        <ele>2205.4</ele>
        <time>2014-03-24T12:50:08Z</time>
      </trkpt>
      <trkpt lat="42.6747" lon="2.0018">
        <ele>2204.92</ele>
        <time>2014-03-24T12:50:19Z</time>
      </trkpt>
      <trkpt lat="42.67472" lon="2.00174">
        <ele>2206.36</ele>
        <time>2014-03-24T12:50:32Z</time>
      </trkpt>
      <trkpt lat="42.67473" lon="2.00179">
        <ele>2204.44</ele>
        <time>2014-03-24T12:50:46Z</time>
      </trkpt>
      <trkpt lat="42.67468" lon="2.00185">
        <ele>2205.88</ele>
        <time>2014-03-24T12:50:59Z</time>
      </trkpt>
      <trkpt lat="42.67464" lon="2.00189">
        <ele>2207.32</ele>
        <time>2014-03-24T12:51:10Z</time>
      </trkpt>
      <trkpt lat="42.67464" lon="2.00192">
        <ele>2209.25</ele>
        <time>2014-03-24T12:51:20Z</time>
      </trkpt>
      <trkpt lat="42.67462" lon="2.00193">
        <ele>2212.13</ele>
        <time>2014-03-24T12:51:33Z</time>
      </trkpt>
      <trkpt lat="42.6746" lon="2.00196">
        <ele>2215.5</ele>
        <time>2014-03-24T12:51:44Z</time>
      </trkpt>
      <trkpt lat="42.67458" lon="2.00198">
        <ele>2216.94</ele>
        <time>2014-03-24T12:51:53Z</time>
      </trkpt>
      <trkpt lat="42.67457" lon="2.00195">
        <ele>2215.98</ele>
        <time>2014-03-24T12:52:05Z</time>
      </trkpt>
      <trkpt lat="42.67458" lon="2.00189">
        <ele>2214.05</ele>
        <time>2014-03-24T12:52:19Z</time>
      </trkpt>
      <trkpt lat="42.67459" lon="2.00184">
        <ele>2214.53</ele>
        <time>2014-03-24T12:52:32Z</time>
      </trkpt>
      <trkpt lat="42.67461" lon="2.00178">
        <ele>2215.01</ele>
        <time>2014-03-24T12:52:44Z</time>
      </trkpt>
      <trkpt lat="42.67462" lon="2.00171">
        <ele>2215.5</ele>
        <time>2014-03-24T12:52:56Z</time>
      </trkpt>
      <trkpt lat="42.67465" lon="2.00169">
        <ele>2217.42</ele>
        <time>2014-03-24T12:53:07Z</time>
      </trkpt>
      <trkpt lat="42.67468" lon="2.00175">
        <ele>2221.26</ele>
        <time>2014-03-24T12:53:21Z</time>
      </trkpt>
      <trkpt lat="42.67468" lon="2.00177">
        <ele>2218.38</ele>
        <time>2014-03-24T12:53:34Z</time>
      </trkpt>
      <trkpt lat="42.67467" lon="2.00177">
        <ele>2218.38</ele>
        <time>2014-03-24T12:53:51Z</time>
      </trkpt>
      <trkpt lat="42.67464" lon="2.00178">
        <ele>2218.38</ele>
        <time>2014-03-24T12:54:02Z</time>
      </trkpt>
      <trkpt lat="42.67463" lon="2.00177">
        <ele>2217.9</ele>
        <time>2014-03-24T12:54:14Z</time>
      </trkpt>
      <trkpt lat="42.6746" lon="2.00179">
        <ele>2218.86</ele>
        <time>2014-03-24T12:54:27Z</time>
      </trkpt>
      <trkpt lat="42.67458" lon="2.0018">
        <ele>2219.82</ele>
        <time>2014-03-24T12:54:41Z</time>
      </trkpt>
      <trkpt lat="42.67457" lon="2.00182">
        <ele>2223.67</ele>
        <time>2014-03-24T12:54:53Z</time>
      </trkpt>
      <trkpt lat="42.67456" lon="2.00182">
        <ele>2221.26</ele>
        <time>2014-03-24T12:55:08Z</time>
      </trkpt>
      <trkpt lat="42.67457" lon="2.00173">
        <ele>2222.22</ele>
        <time>2014-03-24T12:55:20Z</time>
      </trkpt>
      <trkpt lat="42.67459" lon="2.00165">
        <ele>2221.74</ele>
        <time>2014-03-24T12:55:31Z</time>
      </trkpt>
      <trkpt lat="42.67461" lon="2.00159">
        <ele>2222.22</ele>
        <time>2014-03-24T12:55:42Z</time>
      </trkpt>
      <trkpt lat="42.67462" lon="2.00159">
        <ele>2223.19</ele>
        <time>2014-03-24T12:55:56Z</time>
      </trkpt>
      <trkpt lat="42.67462" lon="2.00156">
        <ele>2222.22</ele>
        <time>2014-03-24T12:56:11Z</time>
      </trkpt>
      <trkpt lat="42.67462" lon="2.0016">
        <ele>2224.63</ele>
        <time>2014-03-24T12:56:26Z</time>
      </trkpt>
      <trkpt lat="42.67465" lon="2.00164">
        <ele>2223.19</ele>
        <time>2014-03-24T12:56:40Z</time>
      </trkpt>
      <trkpt lat="42.67464" lon="2.00165">
        <ele>2221.26</ele>
        <time>2014-03-24T12:56:54Z</time>
      </trkpt>
      <trkpt lat="42.67459" lon="2.00172">
        <ele>2223.19</ele>
        <time>2014-03-24T12:57:10Z</time>
      </trkpt>
      <trkpt lat="42.67463" lon="2.00169">
        <ele>2225.59</ele>
        <time>2014-03-24T12:57:24Z</time>
      </trkpt>
      <trkpt lat="42.67462" lon="2.00167">
        <ele>2225.11</ele>
        <time>2014-03-24T12:57:42Z</time>
      </trkpt>
      <trkpt lat="42.67463" lon="2.00168">
        <ele>2227.03</ele>
        <time>2014-03-24T12:58:00Z</time>
      </trkpt>
      <trkpt lat="42.67463" lon="2.00173">
        <ele>2227.99</ele>
        <time>2014-03-24T12:58:15Z</time>
      </trkpt>
      <trkpt lat="42.67462" lon="2.00175">
        <ele>2227.03</ele>
        <time>2014-03-24T12:58:28Z</time>
      </trkpt>
      <trkpt lat="42.67462" lon="2.00174">
        <ele>2229.92</ele>
        <time>2014-03-24T12:58:40Z</time>
      </trkpt>
      <trkpt lat="42.6746" lon="2.00174">
        <ele>2230.88</ele>
        <time>2014-03-24T12:58:57Z</time>
      </trkpt>
      <trkpt lat="42.67456" lon="2.00173">
        <ele>2230.4</ele>
        <time>2014-03-24T12:59:16Z</time>
      </trkpt>
      <trkpt lat="42.67458" lon="2.00171">
        <ele>2229.92</ele>
        <time>2014-03-24T12:59:30Z</time>
      </trkpt>
      <trkpt lat="42.67459" lon="2.0017">
        <ele>2227.99</ele>
        <time>2014-03-24T12:59:43Z</time>
      </trkpt>
      <trkpt lat="42.67457" lon="2.00169">
        <ele>2229.43</ele>
        <time>2014-03-24T12:59:54Z</time>
      </trkpt>
      <trkpt lat="42.67457" lon="2.00169">
        <ele>2227.03</ele>
        <time>2014-03-24T13:00:07Z</time>
      </trkpt>
      <trkpt lat="42.67459" lon="2.00167">
        <ele>2228.47</ele>
        <time>2014-03-24T13:00:20Z</time>
      </trkpt>
      <trkpt lat="42.67457" lon="2.00167">
        <ele>2227.03</ele>
        <time>2014-03-24T13:00:34Z</time>
      </trkpt>
      <trkpt lat="42.67456" lon="2.00168">
        <ele>2227.99</ele>
        <time>2014-03-24T13:00:46Z</time>
      </trkpt>
      <trkpt lat="42.67454" lon="2.00168">
        <ele>2227.51</ele>
        <time>2014-03-24T13:00:57Z</time>
      </trkpt>
      <trkpt lat="42.67455" lon="2.00166">
        <ele>2224.63</ele>
        <time>2014-03-24T13:01:10Z</time>
      </trkpt>
      <trkpt lat="42.67455" lon="2.00165">
        <ele>2225.59</ele>
        <time>2014-03-24T13:01:23Z</time>
      </trkpt>
      <trkpt lat="42.67454" lon="2.00165">
        <ele>2226.07</ele>
        <time>2014-03-24T13:01:34Z</time>
      </trkpt>
      <trkpt lat="42.67454" lon="2.00163">
        <ele>2227.03</ele>
        <time>2014-03-24T13:01:49Z</time>
      </trkpt>
      <trkpt lat="42.67453" lon="2.00163">
        <ele>2227.03</ele>
        <time>2014-03-24T13:02:01Z</time>
      </trkpt>
      <trkpt lat="42.67451" lon="2.00164">
        <ele>2228.95</ele>
        <time>2014-03-24T13:02:12Z</time>
      </trkpt>
      <trkpt lat="42.6745" lon="2.00163">
        <ele>2228.47</ele>
        <time>2014-03-24T13:02:21Z</time>
      </trkpt>
      <trkpt lat="42.67451" lon="2.00166">
        <ele>2231.36</ele>
        <time>2014-03-24T13:02:32Z</time>
      </trkpt>
      <trkpt lat="42.67449" lon="2.00164">
        <ele>2232.32</ele>
        <time>2014-03-24T13:02:44Z</time>
      </trkpt>
      <trkpt lat="42.67448" lon="2.00162">
        <ele>2230.88</ele>
        <time>2014-03-24T13:02:57Z</time>
      </trkpt>
      <trkpt lat="42.67449" lon="2.00163">
        <ele>2231.84</ele>
        <time>2014-03-24T13:03:09Z</time>
      </trkpt>
      <trkpt lat="42.67448" lon="2.00161">
        <ele>2231.36</ele>
        <time>2014-03-24T13:03:23Z</time>
      </trkpt>
      <trkpt lat="42.67447" lon="2.0016">
        <ele>2231.36</ele>
        <time>2014-03-24T13:03:34Z</time>
      </trkpt>
      <trkpt lat="42.67447" lon="2.0016">
        <ele>2232.32</ele>
        <time>2014-03-24T13:03:52Z</time>
      </trkpt>
      <trkpt lat="42.67448" lon="2.00161">
        <ele>2237.13</ele>
        <time>2014-03-24T13:04:06Z</time>
      </trkpt>
      <trkpt lat="42.67448" lon="2.00159">
        <ele>2236.64</ele>
        <time>2014-03-24T13:04:19Z</time>
      </trkpt>
      <trkpt lat="42.67447" lon="2.00158">
        <ele>2236.64</ele>
        <time>2014-03-24T13:04:32Z</time>
      </trkpt>
      <trkpt lat="42.67447" lon="2.00157">
        <ele>2238.09</ele>
        <time>2014-03-24T13:04:48Z</time>
      </trkpt>
      <trkpt lat="42.67447" lon="2.00156">
        <ele>2238.57</ele>
        <time>2014-03-24T13:05:07Z</time>
      </trkpt>
      <trkpt lat="42.67448" lon="2.00152">
        <ele>2239.53</ele>
        <time>2014-03-24T13:05:25Z</time>
      </trkpt>
      <trkpt lat="42.67449" lon="2.00159">
        <ele>2239.05</ele>
        <time>2014-03-24T13:05:45Z</time>
      </trkpt>
      <trkpt lat="42.67449" lon="2.00157">
        <ele>2239.05</ele>
        <time>2014-03-24T13:06:03Z</time>
      </trkpt>
      <trkpt lat="42.6745" lon="2.00152">
        <ele>2240.97</ele>
        <time>2014-03-24T13:06:13Z</time>
      </trkpt>
      <trkpt lat="42.67449" lon="2.00152">
        <ele>2242.41</ele>
        <time>2014-03-24T13:06:26Z</time>
      </trkpt>
      <trkpt lat="42.67446" lon="2.00155">
        <ele>2244.33</ele>
        <time>2014-03-24T13:06:37Z</time>
      </trkpt>
      <trkpt lat="42.67442" lon="2.00159">
        <ele>2244.33</ele>
        <time>2014-03-24T13:06:47Z</time>
      </trkpt>
      <trkpt lat="42.6744" lon="2.00163">
        <ele>2244.82</ele>
        <time>2014-03-24T13:06:57Z</time>
      </trkpt>
      <trkpt lat="42.67439" lon="2.00162">
        <ele>2243.85</ele>
        <time>2014-03-24T13:07:10Z</time>
      </trkpt>
      <trkpt lat="42.67439" lon="2.00155">
        <ele>2242.89</ele>
        <time>2014-03-24T13:07:24Z</time>
      </trkpt>
      <trkpt lat="42.6744" lon="2.00148">
        <ele>2243.85</ele>
        <time>2014-03-24T13:07:37Z</time>
      </trkpt>
      <trkpt lat="42.67441" lon="2.00142">
        <ele>2246.26</ele>
        <time>2014-03-24T13:07:49Z</time>
      </trkpt>
      <trkpt lat="42.6744" lon="2.00138">
        <ele>2245.78</ele>
        <time>2014-03-24T13:08:03Z</time>
      </trkpt>
      <trkpt lat="42.67437" lon="2.00138">
        <ele>2247.7</ele>
        <time>2014-03-24T13:08:14Z</time>
      </trkpt>
      <trkpt lat="42.67434" lon="2.00132">
        <ele>2252.99</ele>
        <time>2014-03-24T13:08:27Z</time>
      </trkpt>
      <trkpt lat="42.67434" lon="2.00126">
        <ele>2257.31</ele>
        <time>2014-03-24T13:08:36Z</time>
      </trkpt>
      <trkpt lat="42.67436" lon="2.00123">
        <ele>2260.68</ele>
        <time>2014-03-24T13:08:49Z</time>
      </trkpt>
      <trkpt lat="42.6744" lon="2.00123">
        <ele>2259.72</ele>
        <time>2014-03-24T13:09:02Z</time>
      </trkpt>
      <trkpt lat="42.67442" lon="2.00121">
        <ele>2257.79</ele>
        <time>2014-03-24T13:09:12Z</time>
      </trkpt>
      <trkpt lat="42.67448" lon="2.00118">
        <ele>2255.39</ele>
        <time>2014-03-24T13:09:25Z</time>
      </trkpt>
      <trkpt lat="42.67449" lon="2.00116">
        <ele>2256.35</ele>
        <time>2014-03-24T13:09:41Z</time>
      </trkpt>
      <trkpt lat="42.67456" lon="2.00108">
        <ele>2257.79</ele>
        <time>2014-03-24T13:09:53Z</time>
      </trkpt>
      <trkpt lat="42.67457" lon="2.00108">
        <ele>2257.79</ele>
        <time>2014-03-24T13:09:54Z</time>
      </trkpt>
      <trkpt lat="42.67466" lon="2.00109">
        <ele>2261.64</ele>
        <time>2014-03-24T13:10:07Z</time>
      </trkpt>
      <trkpt lat="42.67472" lon="2.00104">
        <ele>2266.93</ele>
        <time>2014-03-24T13:10:19Z</time>
      </trkpt>
      <trkpt lat="42.67473" lon="2.00094">
        <ele>2269.33</ele>
        <time>2014-03-24T13:10:28Z</time>
      </trkpt>
      <trkpt lat="42.67478" lon="2.0009">
        <ele>2269.81</ele>
        <time>2014-03-24T13:10:40Z</time>
      </trkpt>
      <trkpt lat="42.6748" lon="2.0008">
        <ele>2272.69</ele>
        <time>2014-03-24T13:10:53Z</time>
      </trkpt>
      <trkpt lat="42.6748" lon="2.00079">
        <ele>2272.21</ele>
        <time>2014-03-24T13:11:09Z</time>
      </trkpt>
      <trkpt lat="42.6748" lon="2.00079">
        <ele>2269.81</ele>
        <time>2014-03-24T13:11:25Z</time>
      </trkpt>
      <trkpt lat="42.6748" lon="2.00079">
        <ele>2271.25</ele>
        <time>2014-03-24T13:11:41Z</time>
      </trkpt>
      <trkpt lat="42.67481" lon="2.00081">
        <ele>2268.37</ele>
        <time>2014-03-24T13:11:59Z</time>
      </trkpt>
      <trkpt lat="42.67479" lon="2.00082">
        <ele>2267.89</ele>
        <time>2014-03-24T13:12:25Z</time>
      </trkpt>
      <trkpt lat="42.67482" lon="2.00085">
        <ele>2270.77</ele>
        <time>2014-03-24T13:12:44Z</time>
      </trkpt>
      <trkpt lat="42.67481" lon="2.00083">
        <ele>2267.41</ele>
        <time>2014-03-24T13:13:12Z</time>
      </trkpt>
      <trkpt lat="42.6748" lon="2.00082">
        <ele>2265.48</ele>
        <time>2014-03-24T13:13:50Z</time>
      </trkpt>
      <trkpt lat="42.67482" lon="2.00081">
        <ele>2266.45</ele>
        <time>2014-03-24T13:14:14Z</time>
      </trkpt>
      <trkpt lat="42.67481" lon="2.00081">
        <ele>2267.41</ele>
        <time>2014-03-24T13:14:42Z</time>
      </trkpt>
      <trkpt lat="42.67485" lon="2.00081">
        <ele>2265.96</ele>
        <time>2014-03-24T13:15:23Z</time>
      </trkpt>
      <trkpt lat="42.67484" lon="2.00081">
        <ele>2266.93</ele>
        <time>2014-03-24T13:16:11Z</time>
      </trkpt>
      <trkpt lat="42.67486" lon="2.00081">
        <ele>2265.96</ele>
        <time>2014-03-24T13:16:56Z</time>
      </trkpt>
      <trkpt lat="42.67486" lon="2.0008">
        <ele>2265</ele>
        <time>2014-03-24T13:17:36Z</time>
      </trkpt>
      <trkpt lat="42.67484" lon="2.00081">
        <ele>2268.37</ele>
        <time>2014-03-24T13:17:55Z</time>
      </trkpt>
      <trkpt lat="42.67486" lon="2.00082">
        <ele>2268.37</ele>
        <time>2014-03-24T13:18:10Z</time>
      </trkpt>
      <trkpt lat="42.67486" lon="2.0008">
        <ele>2266.93</ele>
        <time>2014-03-24T13:18:24Z</time>
      </trkpt>
      <trkpt lat="42.67487" lon="2.0008">
        <ele>2267.89</ele>
        <time>2014-03-24T13:18:31Z</time>
      </trkpt>
      <trkpt lat="42.67486" lon="2.0008">
        <ele>2268.37</ele>
        <time>2014-03-24T13:18:40Z</time>
      </trkpt>
      <trkpt lat="42.67489" lon="2.0008">
        <ele>2269.81</ele>
        <time>2014-03-24T13:18:50Z</time>
      </trkpt>
      <trkpt lat="42.67487" lon="2.00075">
        <ele>2270.77</ele>
        <time>2014-03-24T13:19:02Z</time>
      </trkpt>
      <trkpt lat="42.67488" lon="2.00069">
        <ele>2275.1</ele>
        <time>2014-03-24T13:19:17Z</time>
      </trkpt>
      <trkpt lat="42.67489" lon="2.0007">
        <ele>2273.17</ele>
        <time>2014-03-24T13:19:30Z</time>
      </trkpt>
      <trkpt lat="42.6749" lon="2.00068">
        <ele>2276.54</ele>
        <time>2014-03-24T13:19:43Z</time>
      </trkpt>
      <trkpt lat="42.67491" lon="2.00069">
        <ele>2278.94</ele>
        <time>2014-03-24T13:19:56Z</time>
      </trkpt>
      <trkpt lat="42.67491" lon="2.00067">
        <ele>2280.38</ele>
        <time>2014-03-24T13:20:09Z</time>
      </trkpt>
      <trkpt lat="42.67491" lon="2.00067">
        <ele>2278.94</ele>
        <time>2014-03-24T13:20:19Z</time>
      </trkpt>
      <trkpt lat="42.67493" lon="2.00068">
        <ele>2276.54</ele>
        <time>2014-03-24T13:20:31Z</time>
      </trkpt>
      <trkpt lat="42.67495" lon="2.00069">
        <ele>2275.1</ele>
        <time>2014-03-24T13:20:42Z</time>
      </trkpt>
      <trkpt lat="42.67496" lon="2.00069">
        <ele>2275.1</ele>
        <time>2014-03-24T13:20:56Z</time>
      </trkpt>
      <trkpt lat="42.67495" lon="2.00067">
        <ele>2274.14</ele>
        <time>2014-03-24T13:21:12Z</time>
      </trkpt>
      <trkpt lat="42.67495" lon="2.00066">
        <ele>2274.62</ele>
        <time>2014-03-24T13:21:25Z</time>
      </trkpt>
      <trkpt lat="42.67494" lon="2.00062">
        <ele>2275.1</ele>
        <time>2014-03-24T13:21:43Z</time>
      </trkpt>
      <trkpt lat="42.67496" lon="2.00062">
        <ele>2271.73</ele>
        <time>2014-03-24T13:21:56Z</time>
      </trkpt>
      <trkpt lat="42.67496" lon="2.0006">
        <ele>2271.25</ele>
        <time>2014-03-24T13:22:05Z</time>
      </trkpt>
      <trkpt lat="42.67495" lon="2.00059">
        <ele>2269.33</ele>
        <time>2014-03-24T13:22:21Z</time>
      </trkpt>
      <trkpt lat="42.67496" lon="2.00056">
        <ele>2267.41</ele>
        <time>2014-03-24T13:22:34Z</time>
      </trkpt>
      <trkpt lat="42.67496" lon="2.00055">
        <ele>2266.93</ele>
        <time>2014-03-24T13:22:46Z</time>
      </trkpt>
      <trkpt lat="42.67497" lon="2.00053">
        <ele>2267.41</ele>
        <time>2014-03-24T13:22:59Z</time>
      </trkpt>
      <trkpt lat="42.67498" lon="2.00049">
        <ele>2267.41</ele>
        <time>2014-03-24T13:23:13Z</time>
      </trkpt>
      <trkpt lat="42.67498" lon="2.00049">
        <ele>2268.37</ele>
        <time>2014-03-24T13:23:27Z</time>
      </trkpt>
      <trkpt lat="42.67498" lon="2.00047">
        <ele>2266.45</ele>
        <time>2014-03-24T13:23:41Z</time>
      </trkpt>
      <trkpt lat="42.67498" lon="2.00047">
        <ele>2265</ele>
        <time>2014-03-24T13:23:51Z</time>
      </trkpt>
      <trkpt lat="42.675" lon="2.00044">
        <ele>2264.04</ele>
        <time>2014-03-24T13:24:02Z</time>
      </trkpt>
      <trkpt lat="42.67501" lon="2.00043">
        <ele>2263.56</ele>
        <time>2014-03-24T13:24:16Z</time>
      </trkpt>
      <trkpt lat="42.67501" lon="2.00039">
        <ele>2262.12</ele>
        <time>2014-03-24T13:24:32Z</time>
      </trkpt>
      <trkpt lat="42.67501" lon="2.00037">
        <ele>2264.52</ele>
        <time>2014-03-24T13:24:48Z</time>
      </trkpt>
      <trkpt lat="42.67502" lon="2.00037">
        <ele>2263.08</ele>
        <time>2014-03-24T13:25:05Z</time>
      </trkpt>
      <trkpt lat="42.67502" lon="2.00043">
        <ele>2261.16</ele>
        <time>2014-03-24T13:25:22Z</time>
      </trkpt>
      <trkpt lat="42.675" lon="2.00048">
        <ele>2263.08</ele>
        <time>2014-03-24T13:25:35Z</time>
      </trkpt>
      <trkpt lat="42.67498" lon="2.0005">
        <ele>2265</ele>
        <time>2014-03-24T13:25:48Z</time>
      </trkpt>
      <trkpt lat="42.67496" lon="2.00049">
        <ele>2266.45</ele>
        <time>2014-03-24T13:26:02Z</time>
      </trkpt>
      <trkpt lat="42.67496" lon="2.00048">
        <ele>2268.37</ele>
        <time>2014-03-24T13:26:23Z</time>
      </trkpt>
      <trkpt lat="42.67498" lon="2.00051">
        <ele>2266.93</ele>
        <time>2014-03-24T13:26:37Z</time>
      </trkpt>
      <trkpt lat="42.67496" lon="2.00052">
        <ele>2268.37</ele>
        <time>2014-03-24T13:26:49Z</time>
      </trkpt>
      <trkpt lat="42.67493" lon="2.00049">
        <ele>2268.37</ele>
        <time>2014-03-24T13:27:02Z</time>
      </trkpt>
      <trkpt lat="42.67492" lon="2.00047">
        <ele>2268.85</ele>
        <time>2014-03-24T13:27:13Z</time>
      </trkpt>
      <trkpt lat="42.67492" lon="2.00046">
        <ele>2269.81</ele>
        <time>2014-03-24T13:27:27Z</time>
      </trkpt>
      <trkpt lat="42.67492" lon="2.00045">
        <ele>2270.29</ele>
        <time>2014-03-24T13:27:38Z</time>
      </trkpt>
      <trkpt lat="42.67494" lon="2.00043">
        <ele>2269.33</ele>
        <time>2014-03-24T13:27:52Z</time>
      </trkpt>
      <trkpt lat="42.67492" lon="2.00043">
        <ele>2266.45</ele>
        <time>2014-03-24T13:28:15Z</time>
      </trkpt>
      <trkpt lat="42.67493" lon="2.00046">
        <ele>2267.41</ele>
        <time>2014-03-24T13:28:49Z</time>
      </trkpt>
      <trkpt lat="42.6749" lon="2.00046">
        <ele>2267.89</ele>
        <time>2014-03-24T13:29:31Z</time>
      </trkpt>
      <trkpt lat="42.6749" lon="2.00045">
        <ele>2268.37</ele>
        <time>2014-03-24T13:30:08Z</time>
      </trkpt>
      <trkpt lat="42.67493" lon="2.00049">
        <ele>2269.33</ele>
        <time>2014-03-24T13:30:50Z</time>
      </trkpt>
      <trkpt lat="42.67491" lon="2.0005">
        <ele>2266.93</ele>
        <time>2014-03-24T13:31:40Z</time>
      </trkpt>
      <trkpt lat="42.67493" lon="2.00049">
        <ele>2267.41</ele>
        <time>2014-03-24T13:32:22Z</time>
      </trkpt>
      <trkpt lat="42.67491" lon="2.00046">
        <ele>2266.93</ele>
        <time>2014-03-24T13:32:57Z</time>
      </trkpt>
      <trkpt lat="42.67491" lon="2.00045">
        <ele>2266.45</ele>
        <time>2014-03-24T13:33:43Z</time>
      </trkpt>
      <trkpt lat="42.67493" lon="2.00045">
        <ele>2266.45</ele>
        <time>2014-03-24T13:34:23Z</time>
      </trkpt>
      <trkpt lat="42.67494" lon="2.00045">
        <ele>2264.52</ele>
        <time>2014-03-24T13:35:01Z</time>
      </trkpt>
      <trkpt lat="42.67491" lon="2.00046">
        <ele>2264.52</ele>
        <time>2014-03-24T13:35:40Z</time>
      </trkpt>
      <trkpt lat="42.67493" lon="2.00044">
        <ele>2264.04</ele>
        <time>2014-03-24T13:36:20Z</time>
      </trkpt>
      <trkpt lat="42.67491" lon="2.00046">
        <ele>2266.93</ele>
        <time>2014-03-24T13:36:50Z</time>
      </trkpt>
      <trkpt lat="42.67492" lon="2.00045">
        <ele>2267.41</ele>
        <time>2014-03-24T13:36:59Z</time>
      </trkpt>
      <trkpt lat="42.67495" lon="2.00043">
        <ele>2267.89</ele>
        <time>2014-03-24T13:37:15Z</time>
      </trkpt>
      <trkpt lat="42.67495" lon="2.00044">
        <ele>2266.93</ele>
        <time>2014-03-24T13:37:30Z</time>
      </trkpt>
      <trkpt lat="42.67498" lon="2.00043">
        <ele>2266.45</ele>
        <time>2014-03-24T13:37:41Z</time>
      </trkpt>
      <trkpt lat="42.67503" lon="2.00045">
        <ele>2264.04</ele>
        <time>2014-03-24T13:37:46Z</time>
      </trkpt>
      <trkpt lat="42.67502" lon="2.00034">
        <ele>2261.64</ele>
        <time>2014-03-24T13:37:51Z</time>
      </trkpt>
      <trkpt lat="42.67512" lon="2.00023">
        <ele>2254.43</ele>
        <time>2014-03-24T13:37:58Z</time>
      </trkpt>
      <trkpt lat="42.67518" lon="2.00021">
        <ele>2250.1</ele>
        <time>2014-03-24T13:38:03Z</time>
      </trkpt>
      <trkpt lat="42.67518" lon="2.00023">
        <ele>2248.18</ele>
        <time>2014-03-24T13:38:20Z</time>
      </trkpt>
      <trkpt lat="42.67517" lon="2.00025">
        <ele>2245.78</ele>
        <time>2014-03-24T13:38:41Z</time>
      </trkpt>
      <trkpt lat="42.67519" lon="2.00025">
        <ele>2245.78</ele>
        <time>2014-03-24T13:39:00Z</time>
      </trkpt>
      <trkpt lat="42.67521" lon="2.00011">
        <ele>2240.97</ele>
        <time>2014-03-24T13:39:06Z</time>
      </trkpt>
      <trkpt lat="42.67525" lon="1.99987">
        <ele>2230.88</ele>
        <time>2014-03-24T13:39:14Z</time>
      </trkpt>
      <trkpt lat="42.67534" lon="1.99989">
        <ele>2229.43</ele>
        <time>2014-03-24T13:39:23Z</time>
      </trkpt>
      <trkpt lat="42.67537" lon="1.99988">
        <ele>2228.47</ele>
        <time>2014-03-24T13:39:25Z</time>
      </trkpt>
      <trkpt lat="42.67538" lon="1.99991">
        <ele>2227.51</ele>
        <time>2014-03-24T13:39:27Z</time>
      </trkpt>
      <trkpt lat="42.67541" lon="1.99995">
        <ele>2225.59</ele>
        <time>2014-03-24T13:39:30Z</time>
      </trkpt>
      <trkpt lat="42.67554" lon="1.9999">
        <ele>2215.01</ele>
        <time>2014-03-24T13:39:37Z</time>
      </trkpt>
      <trkpt lat="42.67561" lon="1.99985">
        <ele>2208.77</ele>
        <time>2014-03-24T13:39:40Z</time>
      </trkpt>
      <trkpt lat="42.67575" lon="1.99975">
        <ele>2195.31</ele>
        <time>2014-03-24T13:39:47Z</time>
      </trkpt>
      <trkpt lat="42.67587" lon="1.9997">
        <ele>2182.81</ele>
        <time>2014-03-24T13:39:53Z</time>
      </trkpt>
      <trkpt lat="42.67596" lon="1.99966">
        <ele>2175.6</ele>
        <time>2014-03-24T13:39:59Z</time>
      </trkpt>
      <trkpt lat="42.67631" lon="1.99959">
        <ele>2167.91</ele>
        <time>2014-03-24T13:40:05Z</time>
      </trkpt>
      <trkpt lat="42.67648" lon="1.9994">
        <ele>2162.62</ele>
        <time>2014-03-24T13:40:08Z</time>
      </trkpt>
      <trkpt lat="42.67659" lon="1.99906">
        <ele>2158.78</ele>
        <time>2014-03-24T13:40:15Z</time>
      </trkpt>
      <trkpt lat="42.67658" lon="1.99899">
        <ele>2159.26</ele>
        <time>2014-03-24T13:40:26Z</time>
      </trkpt>
      <trkpt lat="42.67672" lon="1.99877">
        <ele>2161.66</ele>
        <time>2014-03-24T13:40:38Z</time>
      </trkpt>
      <trkpt lat="42.67685" lon="1.99851">
        <ele>2161.66</ele>
        <time>2014-03-24T13:40:51Z</time>
      </trkpt>
      <trkpt lat="42.67698" lon="1.99831">
        <ele>2159.74</ele>
        <time>2014-03-24T13:41:02Z</time>
      </trkpt>
      <trkpt lat="42.67726" lon="1.99816">
        <ele>2155.41</ele>
        <time>2014-03-24T13:41:15Z</time>
      </trkpt>
      <trkpt lat="42.67757" lon="1.99798">
        <ele>2151.09</ele>
        <time>2014-03-24T13:41:26Z</time>
      </trkpt>
      <trkpt lat="42.67789" lon="1.99779">
        <ele>2144.36</ele>
        <time>2014-03-24T13:41:37Z</time>
      </trkpt>
      <trkpt lat="42.6784" lon="1.9975">
        <ele>2129.94</ele>
        <time>2014-03-24T13:41:48Z</time>
      </trkpt>
      <trkpt lat="42.67864" lon="1.99729">
        <ele>2123.69</ele>
        <time>2014-03-24T13:41:56Z</time>
      </trkpt>
      <trkpt lat="42.67873" lon="1.99724">
        <ele>2121.77</ele>
        <time>2014-03-24T13:42:07Z</time>
      </trkpt>
      <trkpt lat="42.67875" lon="1.9972">
        <ele>2120.81</ele>
        <time>2014-03-24T13:42:15Z</time>
      </trkpt>
      <trkpt lat="42.67887" lon="1.99714">
        <ele>2117.44</ele>
        <time>2014-03-24T13:42:26Z</time>
      </trkpt>
      <trkpt lat="42.67908" lon="1.99712">
        <ele>2114.08</ele>
        <time>2014-03-24T13:42:39Z</time>
      </trkpt>
      <trkpt lat="42.67924" lon="1.9971">
        <ele>2109.75</ele>
        <time>2014-03-24T13:42:49Z</time>
      </trkpt>
      <trkpt lat="42.67933" lon="1.99707">
        <ele>2105.91</ele>
        <time>2014-03-24T13:42:54Z</time>
      </trkpt>
      <trkpt lat="42.6794" lon="1.99688">
        <ele>2097.73</ele>
        <time>2014-03-24T13:43:00Z</time>
      </trkpt>
      <trkpt lat="42.67945" lon="1.99683">
        <ele>2092.93</ele>
        <time>2014-03-24T13:43:05Z</time>
      </trkpt>
      <trkpt lat="42.67947" lon="1.99684">
        <ele>2093.89</ele>
        <time>2014-03-24T13:43:11Z</time>
      </trkpt>
      <trkpt lat="42.67955" lon="1.99659">
        <ele>2086.2</ele>
        <time>2014-03-24T13:43:18Z</time>
      </trkpt>
      <trkpt lat="42.67963" lon="1.99635">
        <ele>2078.03</ele>
        <time>2014-03-24T13:43:24Z</time>
      </trkpt>
      <trkpt lat="42.67967" lon="1.99609">
        <ele>2067.93</ele>
        <time>2014-03-24T13:43:29Z</time>
      </trkpt>
      <trkpt lat="42.67972" lon="1.99585">
        <ele>2056.4</ele>
        <time>2014-03-24T13:43:35Z</time>
      </trkpt>
      <trkpt lat="42.67971" lon="1.99576">
        <ele>2047.75</ele>
        <time>2014-03-24T13:43:40Z</time>
      </trkpt>
      <trkpt lat="42.6797" lon="1.99578">
        <ele>2046.78</ele>
        <time>2014-03-24T13:43:56Z</time>
      </trkpt>
      <trkpt lat="42.67978" lon="1.99568">
        <ele>2044.86</ele>
        <time>2014-03-24T13:44:04Z</time>
      </trkpt>
      <trkpt lat="42.6798" lon="1.99537">
        <ele>2037.17</ele>
        <time>2014-03-24T13:44:10Z</time>
      </trkpt>
      <trkpt lat="42.67983" lon="1.99531">
        <ele>2035.25</ele>
        <time>2014-03-24T13:44:11Z</time>
      </trkpt>
      <trkpt lat="42.67999" lon="1.99498">
        <ele>2022.75</ele>
        <time>2014-03-24T13:44:18Z</time>
      </trkpt>
      <trkpt lat="42.68002" lon="1.99493">
        <ele>2020.83</ele>
        <time>2014-03-24T13:44:19Z</time>
      </trkpt>
      <trkpt lat="42.68023" lon="1.99464">
        <ele>2012.66</ele>
        <time>2014-03-24T13:44:24Z</time>
      </trkpt>
      <trkpt lat="42.68031" lon="1.99455">
        <ele>2010.73</ele>
        <time>2014-03-24T13:44:26Z</time>
      </trkpt>
      <trkpt lat="42.68034" lon="1.99419">
        <ele>2003.04</ele>
        <time>2014-03-24T13:44:32Z</time>
      </trkpt>
      <trkpt lat="42.68038" lon="1.99414">
        <ele>2001.6</ele>
        <time>2014-03-24T13:44:33Z</time>
      </trkpt>
      <trkpt lat="42.68045" lon="1.99404">
        <ele>1999.2</ele>
        <time>2014-03-24T13:44:35Z</time>
      </trkpt>
      <trkpt lat="42.68073" lon="1.99374">
        <ele>1992.47</ele>
        <time>2014-03-24T13:44:43Z</time>
      </trkpt>
      <trkpt lat="42.68082" lon="1.9936">
        <ele>1989.59</ele>
        <time>2014-03-24T13:44:46Z</time>
      </trkpt>
      <trkpt lat="42.68092" lon="1.99346">
        <ele>1987.18</ele>
        <time>2014-03-24T13:44:49Z</time>
      </trkpt>
      <trkpt lat="42.68119" lon="1.993">
        <ele>1987.18</ele>
        <time>2014-03-24T13:44:57Z</time>
      </trkpt>
      <trkpt lat="42.68136" lon="1.99285">
        <ele>1987.18</ele>
        <time>2014-03-24T13:45:01Z</time>
      </trkpt>
      <trkpt lat="42.68148" lon="1.99274">
        <ele>1986.7</ele>
        <time>2014-03-24T13:45:05Z</time>
      </trkpt>
      <trkpt lat="42.68153" lon="1.99264">
        <ele>1985.26</ele>
        <time>2014-03-24T13:45:08Z</time>
      </trkpt>
      <trkpt lat="42.68169" lon="1.99249">
        <ele>1984.3</ele>
        <time>2014-03-24T13:45:11Z</time>
      </trkpt>
      <trkpt lat="42.68202" lon="1.99213">
        <ele>1978.05</ele>
        <time>2014-03-24T13:45:20Z</time>
      </trkpt>
      <trkpt lat="42.68209" lon="1.9921">
        <ele>1973.72</ele>
        <time>2014-03-24T13:45:25Z</time>
      </trkpt>
      <trkpt lat="42.68218" lon="1.99205">
        <ele>1969.88</ele>
        <time>2014-03-24T13:45:35Z</time>
      </trkpt>
      <trkpt lat="42.68216" lon="1.99205">
        <ele>1966.99</ele>
        <time>2014-03-24T13:45:49Z</time>
      </trkpt>
      <trkpt lat="42.68219" lon="1.99203">
        <ele>1967.48</ele>
        <time>2014-03-24T13:46:05Z</time>
      </trkpt>
      <trkpt lat="42.6822" lon="1.99204">
        <ele>1967.96</ele>
        <time>2014-03-24T13:46:19Z</time>
      </trkpt>
      <trkpt lat="42.6822" lon="1.99204">
        <ele>1966.03</ele>
        <time>2014-03-24T13:46:30Z</time>
      </trkpt>
      <trkpt lat="42.68221" lon="1.99203">
        <ele>1967.96</ele>
        <time>2014-03-24T13:46:49Z</time>
      </trkpt>
      <trkpt lat="42.68217" lon="1.992">
        <ele>1967.96</ele>
        <time>2014-03-24T13:47:17Z</time>
      </trkpt>
      <trkpt lat="42.68219" lon="1.99198">
        <ele>1969.88</ele>
        <time>2014-03-24T13:47:48Z</time>
      </trkpt>
      <trkpt lat="42.68219" lon="1.99199">
        <ele>1971.32</ele>
        <time>2014-03-24T13:48:16Z</time>
      </trkpt>
      <trkpt lat="42.68216" lon="1.992">
        <ele>1971.8</ele>
        <time>2014-03-24T13:48:53Z</time>
      </trkpt>
      <trkpt lat="42.68215" lon="1.99205">
        <ele>1972.76</ele>
        <time>2014-03-24T13:49:25Z</time>
      </trkpt>
      <trkpt lat="42.6822" lon="1.99202">
        <ele>1970.84</ele>
        <time>2014-03-24T13:50:13Z</time>
      </trkpt>
      <trkpt lat="42.6822" lon="1.99199">
        <ele>1970.36</ele>
        <time>2014-03-24T13:50:48Z</time>
      </trkpt>
      <trkpt lat="42.68219" lon="1.992">
        <ele>1973.72</ele>
        <time>2014-03-24T13:51:11Z</time>
      </trkpt>
      <trkpt lat="42.68223" lon="1.99198">
        <ele>1978.05</ele>
        <time>2014-03-24T13:51:41Z</time>
      </trkpt>
      <trkpt lat="42.6822" lon="1.99196">
        <ele>1979.97</ele>
        <time>2014-03-24T13:52:09Z</time>
      </trkpt>
      <trkpt lat="42.68216" lon="1.992">
        <ele>1981.41</ele>
        <time>2014-03-24T13:52:43Z</time>
      </trkpt>
      <trkpt lat="42.68216" lon="1.99201">
        <ele>1980.45</ele>
        <time>2014-03-24T13:53:14Z</time>
      </trkpt>
      <trkpt lat="42.68215" lon="1.992">
        <ele>1977.57</ele>
        <time>2014-03-24T13:53:49Z</time>
      </trkpt>
      <trkpt lat="42.68214" lon="1.99202">
        <ele>1979.49</ele>
        <time>2014-03-24T13:54:20Z</time>
      </trkpt>
      <trkpt lat="42.68217" lon="1.99201">
        <ele>1978.53</ele>
        <time>2014-03-24T13:54:46Z</time>
      </trkpt>
      <trkpt lat="42.6822" lon="1.99201">
        <ele>1976.13</ele>
        <time>2014-03-24T13:55:23Z</time>
      </trkpt>
      <trkpt lat="42.68223" lon="1.992">
        <ele>1974.2</ele>
        <time>2014-03-24T13:55:59Z</time>
      </trkpt>
      <trkpt lat="42.68221" lon="1.992">
        <ele>1975.17</ele>
        <time>2014-03-24T13:56:29Z</time>
      </trkpt>
      <trkpt lat="42.68218" lon="1.99203">
        <ele>1979.97</ele>
        <time>2014-03-24T13:57:04Z</time>
      </trkpt>
      <trkpt lat="42.68217" lon="1.99201">
        <ele>1977.09</ele>
        <time>2014-03-24T13:57:43Z</time>
      </trkpt>
      <trkpt lat="42.68215" lon="1.99202">
        <ele>1975.17</ele>
        <time>2014-03-24T13:58:31Z</time>
      </trkpt>
      <trkpt lat="42.68212" lon="1.99205">
        <ele>1973.24</ele>
        <time>2014-03-24T13:59:04Z</time>
      </trkpt>
      <trkpt lat="42.68218" lon="1.99202">
        <ele>1971.32</ele>
        <time>2014-03-24T13:59:46Z</time>
      </trkpt>
      <trkpt lat="42.6822" lon="1.99204">
        <ele>1970.36</ele>
        <time>2014-03-24T14:00:29Z</time>
      </trkpt>
      <trkpt lat="42.6822" lon="1.99201">
        <ele>1971.32</ele>
        <time>2014-03-24T14:00:58Z</time>
      </trkpt>
      <trkpt lat="42.68222" lon="1.99201">
        <ele>1971.8</ele>
        <time>2014-03-24T14:01:41Z</time>
      </trkpt>
      <trkpt lat="42.68221" lon="1.99204">
        <ele>1969.88</ele>
        <time>2014-03-24T14:02:01Z</time>
      </trkpt>
      <trkpt lat="42.6822" lon="1.99204">
        <ele>1967.96</ele>
        <time>2014-03-24T14:02:25Z</time>
      </trkpt>
      <trkpt lat="42.68221" lon="1.99202">
        <ele>1966.99</ele>
        <time>2014-03-24T14:02:46Z</time>
      </trkpt>
      <trkpt lat="42.6822" lon="1.99203">
        <ele>1968.44</ele>
        <time>2014-03-24T14:03:10Z</time>
      </trkpt>
      <trkpt lat="42.6822" lon="1.99203">
        <ele>1966.51</ele>
        <time>2014-03-24T14:03:38Z</time>
      </trkpt>
      <trkpt lat="42.68219" lon="1.99204">
        <ele>1966.51</ele>
        <time>2014-03-24T14:03:48Z</time>
      </trkpt>
      <trkpt lat="42.68219" lon="1.99206">
        <ele>1967.48</ele>
        <time>2014-03-24T14:04:04Z</time>
      </trkpt>
      <trkpt lat="42.68221" lon="1.99207">
        <ele>1966.99</ele>
        <time>2014-03-24T14:04:19Z</time>
      </trkpt>
      <trkpt lat="42.6822" lon="1.99204">
        <ele>1965.07</ele>
        <time>2014-03-24T14:04:32Z</time>
      </trkpt>
      <trkpt lat="42.68221" lon="1.99204">
        <ele>1966.03</ele>
        <time>2014-03-24T14:04:48Z</time>
      </trkpt>
      <trkpt lat="42.68219" lon="1.99206">
        <ele>1964.59</ele>
        <time>2014-03-24T14:05:01Z</time>
      </trkpt>
      <trkpt lat="42.68219" lon="1.99204">
        <ele>1966.03</ele>
        <time>2014-03-24T14:05:14Z</time>
      </trkpt>
      <trkpt lat="42.68221" lon="1.99202">
        <ele>1967.96</ele>
        <time>2014-03-24T14:05:23Z</time>
      </trkpt>
      <trkpt lat="42.68222" lon="1.99201">
        <ele>1966.03</ele>
        <time>2014-03-24T14:05:25Z</time>
      </trkpt>
      <trkpt lat="42.68244" lon="1.9918">
        <ele>1962.19</ele>
        <time>2014-03-24T14:05:36Z</time>
      </trkpt>
      <trkpt lat="42.68264" lon="1.99171">
        <ele>1959.3</ele>
        <time>2014-03-24T14:05:43Z</time>
      </trkpt>
      <trkpt lat="42.68274" lon="1.99168">
        <ele>1958.82</ele>
        <time>2014-03-24T14:05:49Z</time>
      </trkpt>
      <trkpt lat="42.68275" lon="1.9917">
        <ele>1961.71</ele>
        <time>2014-03-24T14:06:00Z</time>
      </trkpt>
      <trkpt lat="42.68276" lon="1.99169">
        <ele>1963.15</ele>
        <time>2014-03-24T14:06:16Z</time>
      </trkpt>
      <trkpt lat="42.68278" lon="1.99169">
        <ele>1962.19</ele>
        <time>2014-03-24T14:06:30Z</time>
      </trkpt>
      <trkpt lat="42.6828" lon="1.99178">
        <ele>1959.78</ele>
        <time>2014-03-24T14:06:38Z</time>
      </trkpt>
      <trkpt lat="42.68301" lon="1.99185">
        <ele>1956.42</ele>
        <time>2014-03-24T14:06:44Z</time>
      </trkpt>
      <trkpt lat="42.68308" lon="1.99189">
        <ele>1954.5</ele>
        <time>2014-03-24T14:06:46Z</time>
      </trkpt>
      <trkpt lat="42.68332" lon="1.99205">
        <ele>1949.21</ele>
        <time>2014-03-24T14:06:54Z</time>
      </trkpt>
      <trkpt lat="42.68352" lon="1.99211">
        <ele>1946.33</ele>
        <time>2014-03-24T14:07:00Z</time>
      </trkpt>
      <trkpt lat="42.68368" lon="1.99225">
        <ele>1940.08</ele>
        <time>2014-03-24T14:07:11Z</time>
      </trkpt>
      <trkpt lat="42.68392" lon="1.99242">
        <ele>1931.91</ele>
        <time>2014-03-24T14:07:19Z</time>
      </trkpt>
      <trkpt lat="42.68402" lon="1.99248">
        <ele>1922.77</ele>
        <time>2014-03-24T14:07:29Z</time>
      </trkpt>
      <trkpt lat="42.68404" lon="1.99253">
        <ele>1918.93</ele>
        <time>2014-03-24T14:07:41Z</time>
      </trkpt>
      <trkpt lat="42.68406" lon="1.99255">
        <ele>1918.45</ele>
        <time>2014-03-24T14:08:01Z</time>
      </trkpt>
      <trkpt lat="42.68406" lon="1.99255">
        <ele>1918.45</ele>
        <time>2014-03-24T14:08:02Z</time>
      </trkpt>
      <trkpt lat="42.68419" lon="1.9927">
        <ele>1912.68</ele>
        <time>2014-03-24T14:08:10Z</time>
      </trkpt>
      <trkpt lat="42.68427" lon="1.99274">
        <ele>1909.32</ele>
        <time>2014-03-24T14:08:13Z</time>
      </trkpt>
      <trkpt lat="42.68436" lon="1.99277">
        <ele>1904.03</ele>
        <time>2014-03-24T14:08:21Z</time>
      </trkpt>
      <trkpt lat="42.68449" lon="1.99294">
        <ele>1898.74</ele>
        <time>2014-03-24T14:08:29Z</time>
      </trkpt>
      <trkpt lat="42.68466" lon="1.9932">
        <ele>1890.09</ele>
        <time>2014-03-24T14:08:38Z</time>
      </trkpt>
      <trkpt lat="42.68474" lon="1.99326">
        <ele>1888.17</ele>
        <time>2014-03-24T14:08:45Z</time>
      </trkpt>
      <trkpt lat="42.68477" lon="1.99326">
        <ele>1887.69</ele>
        <time>2014-03-24T14:08:58Z</time>
      </trkpt>
      <trkpt lat="42.68479" lon="1.99326">
        <ele>1885.28</ele>
        <time>2014-03-24T14:09:14Z</time>
      </trkpt>
      <trkpt lat="42.68486" lon="1.99329">
        <ele>1884.8</ele>
        <time>2014-03-24T14:09:25Z</time>
      </trkpt>
      <trkpt lat="42.68489" lon="1.99332">
        <ele>1886.24</ele>
        <time>2014-03-24T14:09:36Z</time>
      </trkpt>
      <trkpt lat="42.6849" lon="1.99332">
        <ele>1886.24</ele>
        <time>2014-03-24T14:09:37Z</time>
      </trkpt>
      <trkpt lat="42.68503" lon="1.9934">
        <ele>1883.84</ele>
        <time>2014-03-24T14:09:47Z</time>
      </trkpt>
      <trkpt lat="42.68512" lon="1.99352">
        <ele>1881.44</ele>
        <time>2014-03-24T14:09:58Z</time>
      </trkpt>
      <trkpt lat="42.68514" lon="1.99353">
        <ele>1883.84</ele>
        <time>2014-03-24T14:10:18Z</time>
      </trkpt>
      <trkpt lat="42.68515" lon="1.99352">
        <ele>1883.84</ele>
        <time>2014-03-24T14:10:21Z</time>
      </trkpt>
      <trkpt lat="42.68527" lon="1.99354">
        <ele>1876.15</ele>
        <time>2014-03-24T14:10:29Z</time>
      </trkpt>
      <trkpt lat="42.68529" lon="1.99358">
        <ele>1874.71</ele>
        <time>2014-03-24T14:10:30Z</time>
      </trkpt>
      <trkpt lat="42.68551" lon="1.99381">
        <ele>1871.82</ele>
        <time>2014-03-24T14:10:41Z</time>
      </trkpt>
      <trkpt lat="42.68553" lon="1.99383">
        <ele>1871.82</ele>
        <time>2014-03-24T14:10:52Z</time>
      </trkpt>
      <trkpt lat="42.68555" lon="1.99385">
        <ele>1869.42</ele>
        <time>2014-03-24T14:11:03Z</time>
      </trkpt>
      <trkpt lat="42.68556" lon="1.99389">
        <ele>1868.46</ele>
        <time>2014-03-24T14:11:13Z</time>
      </trkpt>
      <trkpt lat="42.68557" lon="1.9939">
        <ele>1866.54</ele>
        <time>2014-03-24T14:11:20Z</time>
      </trkpt>
      <trkpt lat="42.68556" lon="1.99392">
        <ele>1864.61</ele>
        <time>2014-03-24T14:11:30Z</time>
      </trkpt>
      <trkpt lat="42.68556" lon="1.99392">
        <ele>1864.61</ele>
        <time>2014-03-24T14:11:31Z</time>
      </trkpt>
      <trkpt lat="42.68557" lon="1.99395">
        <ele>1862.21</ele>
        <time>2014-03-24T14:11:44Z</time>
      </trkpt>
      <trkpt lat="42.68557" lon="1.99397">
        <ele>1865.09</ele>
        <time>2014-03-24T14:11:59Z</time>
      </trkpt>
      <trkpt lat="42.68558" lon="1.99397">
        <ele>1867.02</ele>
        <time>2014-03-24T14:12:13Z</time>
      </trkpt>
      <trkpt lat="42.68559" lon="1.99399">
        <ele>1869.42</ele>
        <time>2014-03-24T14:12:28Z</time>
      </trkpt>
      <trkpt lat="42.68559" lon="1.99401">
        <ele>1873.75</ele>
        <time>2014-03-24T14:12:40Z</time>
      </trkpt>
      <trkpt lat="42.68558" lon="1.99401">
        <ele>1877.11</ele>
        <time>2014-03-24T14:12:53Z</time>
      </trkpt>
      <trkpt lat="42.68558" lon="1.99404">
        <ele>1878.55</ele>
        <time>2014-03-24T14:13:03Z</time>
      </trkpt>
      <trkpt lat="42.68561" lon="1.99409">
        <ele>1880</ele>
        <time>2014-03-24T14:13:16Z</time>
      </trkpt>
      <trkpt lat="42.68562" lon="1.9942">
        <ele>1881.44</ele>
        <time>2014-03-24T14:13:33Z</time>
      </trkpt>
      <trkpt lat="42.68562" lon="1.99427">
        <ele>1877.11</ele>
        <time>2014-03-24T14:13:47Z</time>
      </trkpt>
      <trkpt lat="42.68563" lon="1.99434">
        <ele>1880</ele>
        <time>2014-03-24T14:13:58Z</time>
      </trkpt>
      <trkpt lat="42.68566" lon="1.99443">
        <ele>1884.8</ele>
        <time>2014-03-24T14:14:11Z</time>
      </trkpt>
      <trkpt lat="42.68571" lon="1.99451">
        <ele>1885.28</ele>
        <time>2014-03-24T14:14:24Z</time>
      </trkpt>
      <trkpt lat="42.68574" lon="1.9946">
        <ele>1883.84</ele>
        <time>2014-03-24T14:14:37Z</time>
      </trkpt>
      <trkpt lat="42.68574" lon="1.99468">
        <ele>1883.84</ele>
        <time>2014-03-24T14:14:45Z</time>
      </trkpt>
      <trkpt lat="42.68579" lon="1.99471">
        <ele>1881.92</ele>
        <time>2014-03-24T14:14:56Z</time>
      </trkpt>
      <trkpt lat="42.68581" lon="1.99472">
        <ele>1881.44</ele>
        <time>2014-03-24T14:14:58Z</time>
      </trkpt>
      <trkpt lat="42.68585" lon="1.99477">
        <ele>1877.59</ele>
        <time>2014-03-24T14:15:08Z</time>
      </trkpt>
      <trkpt lat="42.6859" lon="1.99476">
        <ele>1874.71</ele>
        <time>2014-03-24T14:15:17Z</time>
      </trkpt>
      <trkpt lat="42.68618" lon="1.99477">
        <ele>1872.3</ele>
        <time>2014-03-24T14:15:29Z</time>
      </trkpt>
      <trkpt lat="42.6866" lon="1.99475">
        <ele>1869.9</ele>
        <time>2014-03-24T14:15:40Z</time>
      </trkpt>
      <trkpt lat="42.68678" lon="1.99471">
        <ele>1874.23</ele>
        <time>2014-03-24T14:15:52Z</time>
      </trkpt>
      <trkpt lat="42.6868" lon="1.99474">
        <ele>1876.15</ele>
        <time>2014-03-24T14:16:01Z</time>
      </trkpt>
      <trkpt lat="42.68683" lon="1.99477">
        <ele>1880.48</ele>
        <time>2014-03-24T14:16:12Z</time>
      </trkpt>
      <trkpt lat="42.68683" lon="1.99479">
        <ele>1882.88</ele>
        <time>2014-03-24T14:16:22Z</time>
      </trkpt>
      <trkpt lat="42.68684" lon="1.99477">
        <ele>1884.8</ele>
        <time>2014-03-24T14:16:35Z</time>
      </trkpt>
      <trkpt lat="42.68684" lon="1.99479">
        <ele>1886.24</ele>
        <time>2014-03-24T14:16:47Z</time>
      </trkpt>
      <trkpt lat="42.68683" lon="1.9948">
        <ele>1886.72</ele>
        <time>2014-03-24T14:16:59Z</time>
      </trkpt>
      <trkpt lat="42.68685" lon="1.99489">
        <ele>1883.84</ele>
        <time>2014-03-24T14:17:12Z</time>
      </trkpt>
      <trkpt lat="42.68688" lon="1.99494">
        <ele>1881.92</ele>
        <time>2014-03-24T14:17:23Z</time>
      </trkpt>
      <trkpt lat="42.68689" lon="1.995">
        <ele>1882.4</ele>
        <time>2014-03-24T14:17:37Z</time>
      </trkpt>
      <trkpt lat="42.68689" lon="1.99511">
        <ele>1883.36</ele>
        <time>2014-03-24T14:17:50Z</time>
      </trkpt>
      <trkpt lat="42.68689" lon="1.99513">
        <ele>1883.36</ele>
        <time>2014-03-24T14:17:52Z</time>
      </trkpt>
      <trkpt lat="42.68693" lon="1.99519">
        <ele>1883.84</ele>
        <time>2014-03-24T14:18:03Z</time>
      </trkpt>
      <trkpt lat="42.68693" lon="1.9952">
        <ele>1884.32</ele>
        <time>2014-03-24T14:18:05Z</time>
      </trkpt>
      <trkpt lat="42.68691" lon="1.99525">
        <ele>1883.84</ele>
        <time>2014-03-24T14:18:18Z</time>
      </trkpt>
      <trkpt lat="42.68692" lon="1.99528">
        <ele>1885.28</ele>
        <time>2014-03-24T14:18:26Z</time>
      </trkpt>
      <trkpt lat="42.68694" lon="1.99532">
        <ele>1883.84</ele>
        <time>2014-03-24T14:18:41Z</time>
      </trkpt>
      <trkpt lat="42.68699" lon="1.99528">
        <ele>1883.84</ele>
        <time>2014-03-24T14:18:59Z</time>
      </trkpt>
      <trkpt lat="42.68705" lon="1.99533">
        <ele>1885.28</ele>
        <time>2014-03-24T14:19:11Z</time>
      </trkpt>
      <trkpt lat="42.68711" lon="1.99535">
        <ele>1882.88</ele>
        <time>2014-03-24T14:19:22Z</time>
      </trkpt>
      <trkpt lat="42.68711" lon="1.99538">
        <ele>1880</ele>
        <time>2014-03-24T14:19:35Z</time>
      </trkpt>
      <trkpt lat="42.68709" lon="1.99544">
        <ele>1881.44</ele>
        <time>2014-03-24T14:19:46Z</time>
      </trkpt>
      <trkpt lat="42.68711" lon="1.9955">
        <ele>1884.8</ele>
        <time>2014-03-24T14:19:56Z</time>
      </trkpt>
      <trkpt lat="42.68711" lon="1.99551">
        <ele>1886.24</ele>
        <time>2014-03-24T14:20:06Z</time>
      </trkpt>
      <trkpt lat="42.68712" lon="1.9955">
        <ele>1888.65</ele>
        <time>2014-03-24T14:20:24Z</time>
      </trkpt>
      <trkpt lat="42.68714" lon="1.99552">
        <ele>1889.61</ele>
        <time>2014-03-24T14:20:36Z</time>
      </trkpt>
      <trkpt lat="42.68713" lon="1.9956">
        <ele>1892.01</ele>
        <time>2014-03-24T14:20:56Z</time>
      </trkpt>
      <trkpt lat="42.68713" lon="1.99559">
        <ele>1892.49</ele>
        <time>2014-03-24T14:21:17Z</time>
      </trkpt>
      <trkpt lat="42.68719" lon="1.99556">
        <ele>1894.42</ele>
        <time>2014-03-24T14:21:36Z</time>
      </trkpt>
      <trkpt lat="42.68723" lon="1.99554">
        <ele>1893.45</ele>
        <time>2014-03-24T14:21:58Z</time>
      </trkpt>
      <trkpt lat="42.68723" lon="1.99557">
        <ele>1894.9</ele>
        <time>2014-03-24T14:22:07Z</time>
      </trkpt>
      <trkpt lat="42.68726" lon="1.99591">
        <ele>1889.61</ele>
        <time>2014-03-24T14:22:20Z</time>
      </trkpt>
      <trkpt lat="42.68729" lon="1.99614">
        <ele>1883.84</ele>
        <time>2014-03-24T14:22:28Z</time>
      </trkpt>
      <trkpt lat="42.68733" lon="1.99634">
        <ele>1881.92</ele>
        <time>2014-03-24T14:22:36Z</time>
      </trkpt>
      <trkpt lat="42.68734" lon="1.99642">
        <ele>1880.48</ele>
        <time>2014-03-24T14:22:46Z</time>
      </trkpt>
      <trkpt lat="42.68743" lon="1.99647">
        <ele>1879.03</ele>
        <time>2014-03-24T14:22:52Z</time>
      </trkpt>
      <trkpt lat="42.68756" lon="1.99648">
        <ele>1877.11</ele>
        <time>2014-03-24T14:23:00Z</time>
      </trkpt>
      <trkpt lat="42.68764" lon="1.99646">
        <ele>1876.15</ele>
        <time>2014-03-24T14:23:06Z</time>
      </trkpt>
      <trkpt lat="42.6877" lon="1.99646">
        <ele>1876.15</ele>
        <time>2014-03-24T14:23:09Z</time>
      </trkpt>
      <trkpt lat="42.68781" lon="1.99651">
        <ele>1873.27</ele>
        <time>2014-03-24T14:23:17Z</time>
      </trkpt>
      <trkpt lat="42.68785" lon="1.99657">
        <ele>1871.82</ele>
        <time>2014-03-24T14:23:19Z</time>
      </trkpt>
      <trkpt lat="42.68788" lon="1.9966">
        <ele>1870.38</ele>
        <time>2014-03-24T14:23:21Z</time>
      </trkpt>
      <trkpt lat="42.68799" lon="1.99653">
        <ele>1868.94</ele>
        <time>2014-03-24T14:23:24Z</time>
      </trkpt>
      <trkpt lat="42.68829" lon="1.99648">
        <ele>1867.5</ele>
        <time>2014-03-24T14:23:31Z</time>
      </trkpt>
      <trkpt lat="42.68834" lon="1.99653">
        <ele>1861.73</ele>
        <time>2014-03-24T14:23:38Z</time>
      </trkpt>
      <trkpt lat="42.68833" lon="1.99661">
        <ele>1844.91</ele>
        <time>2014-03-24T14:23:51Z</time>
      </trkpt>
      <trkpt lat="42.68869" lon="1.99657">
        <ele>1837.7</ele>
        <time>2014-03-24T14:24:00Z</time>
      </trkpt>
      <trkpt lat="42.68866" lon="1.99655">
        <ele>1833.37</ele>
        <time>2014-03-24T14:24:10Z</time>
      </trkpt>
      <trkpt lat="42.68865" lon="1.99654">
        <ele>1831.93</ele>
        <time>2014-03-24T14:24:13Z</time>
      </trkpt>
      <trkpt lat="42.68865" lon="1.99661">
        <ele>1821.35</ele>
        <time>2014-03-24T14:24:17Z</time>
      </trkpt>
      <trkpt lat="42.68866" lon="1.9966">
        <ele>1809.34</ele>
        <time>2014-03-24T14:24:22Z</time>
      </trkpt>
      <trkpt lat="42.68867" lon="1.99656">
        <ele>1801.65</ele>
        <time>2014-03-24T14:24:25Z</time>
      </trkpt>
      <trkpt lat="42.68866" lon="1.99644">
        <ele>1788.67</ele>
        <time>2014-03-24T14:24:30Z</time>
      </trkpt>
      <trkpt lat="42.68874" lon="1.99633">
        <ele>1774.73</ele>
        <time>2014-03-24T14:24:38Z</time>
      </trkpt>
      <trkpt lat="42.68893" lon="1.99631">
        <ele>1765.12</ele>
        <time>2014-03-24T14:24:43Z</time>
      </trkpt>
      <trkpt lat="42.68907" lon="1.9963">
        <ele>1755.02</ele>
        <time>2014-03-24T14:24:48Z</time>
      </trkpt>
      <trkpt lat="42.68912" lon="1.99623">
        <ele>1739.16</ele>
        <time>2014-03-24T14:24:55Z</time>
      </trkpt>
      <trkpt lat="42.6891" lon="1.99622">
        <ele>1738.2</ele>
        <time>2014-03-24T14:25:08Z</time>
      </trkpt>
      <trkpt lat="42.68905" lon="1.99619">
        <ele>1742.53</ele>
        <time>2014-03-24T14:25:26Z</time>
      </trkpt>
      <trkpt lat="42.68912" lon="1.99618">
        <ele>1736.76</ele>
        <time>2014-03-24T14:25:34Z</time>
      </trkpt>
      <trkpt lat="42.68916" lon="1.99613">
        <ele>1730.03</ele>
        <time>2014-03-24T14:25:47Z</time>
      </trkpt>
      <trkpt lat="42.68916" lon="1.99611">
        <ele>1727.15</ele>
        <time>2014-03-24T14:25:55Z</time>
      </trkpt>
      <trkpt lat="42.68925" lon="1.99625">
        <ele>1724.26</ele>
        <time>2014-03-24T14:26:01Z</time>
      </trkpt>
      <trkpt lat="42.6893" lon="1.99631">
        <ele>1720.42</ele>
        <time>2014-03-24T14:26:09Z</time>
      </trkpt>
      <trkpt lat="42.6893" lon="1.99636">
        <ele>1721.38</ele>
        <time>2014-03-24T14:26:23Z</time>
      </trkpt>
      <trkpt lat="42.6893" lon="1.99638">
        <ele>1721.86</ele>
        <time>2014-03-24T14:26:28Z</time>
      </trkpt>
      <trkpt lat="42.68934" lon="1.99651">
        <ele>1719.94</ele>
        <time>2014-03-24T14:26:38Z</time>
      </trkpt>
      <trkpt lat="42.68934" lon="1.99652">
        <ele>1719.46</ele>
        <time>2014-03-24T14:26:39Z</time>
      </trkpt>
      <trkpt lat="42.68945" lon="1.99667">
        <ele>1717.53</ele>
        <time>2014-03-24T14:26:48Z</time>
      </trkpt>
      <trkpt lat="42.6895" lon="1.9967">
        <ele>1717.05</ele>
        <time>2014-03-24T14:26:52Z</time>
      </trkpt>
      <trkpt lat="42.68963" lon="1.99673">
        <ele>1717.05</ele>
        <time>2014-03-24T14:27:00Z</time>
      </trkpt>
      <trkpt lat="42.68969" lon="1.99675">
        <ele>1718.49</ele>
        <time>2014-03-24T14:27:16Z</time>
      </trkpt>
      <trkpt lat="42.68973" lon="1.99679">
        <ele>1717.05</ele>
        <time>2014-03-24T14:27:20Z</time>
      </trkpt>
      <trkpt lat="42.68973" lon="1.99696">
        <ele>1714.17</ele>
        <time>2014-03-24T14:27:28Z</time>
      </trkpt>
      <trkpt lat="42.68977" lon="1.99707">
        <ele>1713.69</ele>
        <time>2014-03-24T14:27:36Z</time>
      </trkpt>
      <trkpt lat="42.68986" lon="1.99719">
        <ele>1713.21</ele>
        <time>2014-03-24T14:27:43Z</time>
      </trkpt>
      <trkpt lat="42.68996" lon="1.99717">
        <ele>1712.25</ele>
        <time>2014-03-24T14:27:47Z</time>
      </trkpt>
      <trkpt lat="42.69012" lon="1.99729">
        <ele>1711.28</ele>
        <time>2014-03-24T14:27:57Z</time>
      </trkpt>
      <trkpt lat="42.69025" lon="1.9973">
        <ele>1707.44</ele>
        <time>2014-03-24T14:28:05Z</time>
      </trkpt>
      <trkpt lat="42.6903" lon="1.99734">
        <ele>1704.55</ele>
        <time>2014-03-24T14:28:08Z</time>
      </trkpt>
      <trkpt lat="42.69036" lon="1.99739">
        <ele>1701.19</ele>
        <time>2014-03-24T14:28:20Z</time>
      </trkpt>
      <trkpt lat="42.69037" lon="1.99741">
        <ele>1700.71</ele>
        <time>2014-03-24T14:28:22Z</time>
      </trkpt>
      <trkpt lat="42.69045" lon="1.99741">
        <ele>1698.79</ele>
        <time>2014-03-24T14:28:28Z</time>
      </trkpt>
      <trkpt lat="42.69049" lon="1.99746">
        <ele>1695.42</ele>
        <time>2014-03-24T14:28:32Z</time>
      </trkpt>
      <trkpt lat="42.69064" lon="1.99767">
        <ele>1690.14</ele>
        <time>2014-03-24T14:28:40Z</time>
      </trkpt>
      <trkpt lat="42.69067" lon="1.99771">
        <ele>1689.65</ele>
        <time>2014-03-24T14:28:41Z</time>
      </trkpt>
      <trkpt lat="42.69096" lon="1.99808">
        <ele>1684.85</ele>
        <time>2014-03-24T14:28:51Z</time>
      </trkpt>
      <trkpt lat="42.69101" lon="1.99815">
        <ele>1682.93</ele>
        <time>2014-03-24T14:28:55Z</time>
      </trkpt>
      <trkpt lat="42.69107" lon="1.9982">
        <ele>1681</ele>
        <time>2014-03-24T14:28:57Z</time>
      </trkpt>
      <trkpt lat="42.69115" lon="1.99833">
        <ele>1679.08</ele>
        <time>2014-03-24T14:29:02Z</time>
      </trkpt>
      <trkpt lat="42.69119" lon="1.99835">
        <ele>1673.31</ele>
        <time>2014-03-24T14:29:14Z</time>
      </trkpt>
      <trkpt lat="42.69119" lon="1.99841">
        <ele>1670.91</ele>
        <time>2014-03-24T14:29:27Z</time>
      </trkpt>
      <trkpt lat="42.6912" lon="1.99843">
        <ele>1670.43</ele>
        <time>2014-03-24T14:29:30Z</time>
      </trkpt>
      <trkpt lat="42.69122" lon="1.9986">
        <ele>1665.14</ele>
        <time>2014-03-24T14:29:41Z</time>
      </trkpt>
      <trkpt lat="42.69125" lon="1.99862">
        <ele>1668.02</ele>
        <time>2014-03-24T14:29:58Z</time>
      </trkpt>
      <trkpt lat="42.69125" lon="1.99864">
        <ele>1668.02</ele>
        <time>2014-03-24T14:30:00Z</time>
      </trkpt>
      <trkpt lat="42.69121" lon="1.99874">
        <ele>1667.54</ele>
        <time>2014-03-24T14:30:12Z</time>
      </trkpt>
      <trkpt lat="42.69122" lon="1.99869">
        <ele>1667.54</ele>
        <time>2014-03-24T14:30:23Z</time>
      </trkpt>
      <trkpt lat="42.69123" lon="1.99859">
        <ele>1665.62</ele>
        <time>2014-03-24T14:30:33Z</time>
      </trkpt>
      <trkpt lat="42.69123" lon="1.99853">
        <ele>1666.1</ele>
        <time>2014-03-24T14:30:45Z</time>
      </trkpt>
      <trkpt lat="42.69128" lon="1.9985">
        <ele>1665.62</ele>
        <time>2014-03-24T14:30:57Z</time>
      </trkpt>
      <trkpt lat="42.69137" lon="1.99844">
        <ele>1667.54</ele>
        <time>2014-03-24T14:31:10Z</time>
      </trkpt>
      <trkpt lat="42.69138" lon="1.99844">
        <ele>1668.02</ele>
        <time>2014-03-24T14:31:11Z</time>
      </trkpt>
      <trkpt lat="42.69145" lon="1.99841">
        <ele>1672.35</ele>
        <time>2014-03-24T14:31:21Z</time>
      </trkpt>
      <trkpt lat="42.69152" lon="1.99836">
        <ele>1672.35</ele>
        <time>2014-03-24T14:31:32Z</time>
      </trkpt>
      <trkpt lat="42.69156" lon="1.9983">
        <ele>1671.87</ele>
        <time>2014-03-24T14:31:44Z</time>
      </trkpt>
      <trkpt lat="42.6916" lon="1.99825">
        <ele>1670.43</ele>
        <time>2014-03-24T14:31:53Z</time>
      </trkpt>
      <trkpt lat="42.69164" lon="1.99824">
        <ele>1668.51</ele>
        <time>2014-03-24T14:32:06Z</time>
      </trkpt>
      <trkpt lat="42.69165" lon="1.99824">
        <ele>1668.51</ele>
        <time>2014-03-24T14:32:07Z</time>
      </trkpt>
      <trkpt lat="42.69171" lon="1.99824">
        <ele>1667.06</ele>
        <time>2014-03-24T14:32:12Z</time>
      </trkpt>
      <trkpt lat="42.69184" lon="1.99836">
        <ele>1664.18</ele>
        <time>2014-03-24T14:32:21Z</time>
      </trkpt>
      <trkpt lat="42.69198" lon="1.99859">
        <ele>1661.78</ele>
        <time>2014-03-24T14:32:30Z</time>
      </trkpt>
      <trkpt lat="42.69205" lon="1.99879">
        <ele>1659.85</ele>
        <time>2014-03-24T14:32:37Z</time>
      </trkpt>
      <trkpt lat="42.69208" lon="1.99886">
        <ele>1658.89</ele>
        <time>2014-03-24T14:32:41Z</time>
      </trkpt>
      <trkpt lat="42.6922" lon="1.99889">
        <ele>1657.45</ele>
        <time>2014-03-24T14:32:54Z</time>
      </trkpt>
      <trkpt lat="42.69219" lon="1.99892">
        <ele>1659.37</ele>
        <time>2014-03-24T14:33:08Z</time>
      </trkpt>
      <trkpt lat="42.69213" lon="1.99893">
        <ele>1659.85</ele>
        <time>2014-03-24T14:33:37Z</time>
      </trkpt>
      <trkpt lat="42.69207" lon="1.99896">
        <ele>1662.74</ele>
        <time>2014-03-24T14:34:01Z</time>
      </trkpt>
      <trkpt lat="42.69207" lon="1.99897">
        <ele>1654.09</ele>
        <time>2014-03-24T14:34:31Z</time>
      </trkpt>
      <trkpt lat="42.69207" lon="1.99895">
        <ele>1651.2</ele>
        <time>2014-03-24T14:34:57Z</time>
      </trkpt>
      <trkpt lat="42.69211" lon="1.99892">
        <ele>1648.8</ele>
        <time>2014-03-24T14:35:31Z</time>
      </trkpt>
      <trkpt lat="42.6921" lon="1.99892">
        <ele>1654.57</ele>
        <time>2014-03-24T14:36:02Z</time>
      </trkpt>
      <trkpt lat="42.69214" lon="1.99899">
        <ele>1654.57</ele>
        <time>2014-03-24T14:36:39Z</time>
      </trkpt>
      <trkpt lat="42.69209" lon="1.99894">
        <ele>1655.05</ele>
        <time>2014-03-24T14:37:05Z</time>
      </trkpt>
      <trkpt lat="42.69217" lon="1.99895">
        <ele>1656.49</ele>
        <time>2014-03-24T14:37:37Z</time>
      </trkpt>
      <trkpt lat="42.69214" lon="1.99897">
        <ele>1662.26</ele>
        <time>2014-03-24T14:38:10Z</time>
      </trkpt>
      <trkpt lat="42.69216" lon="1.99896">
        <ele>1660.33</ele>
        <time>2014-03-24T14:38:39Z</time>
      </trkpt>
      <trkpt lat="42.69214" lon="1.99893">
        <ele>1660.81</ele>
        <time>2014-03-24T14:39:09Z</time>
      </trkpt>
      <trkpt lat="42.69214" lon="1.99893">
        <ele>1656.01</ele>
        <time>2014-03-24T14:39:41Z</time>
      </trkpt>
      <trkpt lat="42.69213" lon="1.99889">
        <ele>1650.24</ele>
        <time>2014-03-24T14:40:11Z</time>
      </trkpt>
      <trkpt lat="42.69214" lon="1.99892">
        <ele>1648.8</ele>
        <time>2014-03-24T14:40:43Z</time>
      </trkpt>
      <trkpt lat="42.69215" lon="1.99893">
        <ele>1649.28</ele>
        <time>2014-03-24T14:41:13Z</time>
      </trkpt>
      <trkpt lat="42.69211" lon="1.99894">
        <ele>1647.84</ele>
        <time>2014-03-24T14:41:40Z</time>
      </trkpt>
      <trkpt lat="42.69203" lon="1.99893">
        <ele>1645.91</ele>
        <time>2014-03-24T14:42:06Z</time>
      </trkpt>
      <trkpt lat="42.69208" lon="1.99897">
        <ele>1646.4</ele>
        <time>2014-03-24T14:42:22Z</time>
      </trkpt>
      <trkpt lat="42.69208" lon="1.99897">
        <ele>1649.28</ele>
        <time>2014-03-24T14:42:39Z</time>
      </trkpt>
      <trkpt lat="42.69215" lon="1.99901">
        <ele>1648.32</ele>
        <time>2014-03-24T14:42:47Z</time>
      </trkpt>
      <trkpt lat="42.6922" lon="1.99904">
        <ele>1648.8</ele>
        <time>2014-03-24T14:42:51Z</time>
      </trkpt>
      <trkpt lat="42.6923" lon="1.99911">
        <ele>1648.8</ele>
        <time>2014-03-24T14:43:00Z</time>
      </trkpt>
      <trkpt lat="42.69233" lon="1.99912">
        <ele>1648.8</ele>
        <time>2014-03-24T14:43:02Z</time>
      </trkpt>
      <trkpt lat="42.69239" lon="1.99916">
        <ele>1649.28</ele>
        <time>2014-03-24T14:43:07Z</time>
      </trkpt>
      <trkpt lat="42.69242" lon="1.99917">
        <ele>1649.28</ele>
        <time>2014-03-24T14:43:09Z</time>
      </trkpt>
      <trkpt lat="42.69253" lon="1.99925">
        <ele>1647.84</ele>
        <time>2014-03-24T14:43:21Z</time>
      </trkpt>
      <trkpt lat="42.69255" lon="1.99928">
        <ele>1647.36</ele>
        <time>2014-03-24T14:43:24Z</time>
      </trkpt>
      <trkpt lat="42.6926" lon="1.99936">
        <ele>1648.32</ele>
        <time>2014-03-24T14:43:30Z</time>
      </trkpt>
      <trkpt lat="42.69265" lon="1.99941">
        <ele>1647.84</ele>
        <time>2014-03-24T14:43:36Z</time>
      </trkpt>
      <trkpt lat="42.6927" lon="1.99956">
        <ele>1645.91</ele>
        <time>2014-03-24T14:43:47Z</time>
      </trkpt>
      <trkpt lat="42.69271" lon="1.99959">
        <ele>1645.43</ele>
        <time>2014-03-24T14:43:50Z</time>
      </trkpt>
      <trkpt lat="42.69272" lon="1.99963">
        <ele>1644.95</ele>
        <time>2014-03-24T14:43:53Z</time>
      </trkpt>
      <trkpt lat="42.69276" lon="1.99978">
        <ele>1643.03</ele>
        <time>2014-03-24T14:44:05Z</time>
      </trkpt>
      <trkpt lat="42.69276" lon="1.99993">
        <ele>1637.74</ele>
        <time>2014-03-24T14:44:18Z</time>
      </trkpt>
      <trkpt lat="42.69278" lon="2.0001">
        <ele>1638.22</ele>
        <time>2014-03-24T14:44:31Z</time>
      </trkpt>
      <trkpt lat="42.69281" lon="2.00025">
        <ele>1637.74</ele>
        <time>2014-03-24T14:44:40Z</time>
      </trkpt>
      <trkpt lat="42.69286" lon="2.00031">
        <ele>1636.78</ele>
        <time>2014-03-24T14:44:46Z</time>
      </trkpt>
      <trkpt lat="42.69296" lon="2.00038">
        <ele>1637.74</ele>
        <time>2014-03-24T14:44:57Z</time>
      </trkpt>
      <trkpt lat="42.6931" lon="2.00049">
        <ele>1641.59</ele>
        <time>2014-03-24T14:45:10Z</time>
      </trkpt>
      <trkpt lat="42.69318" lon="2.00057">
        <ele>1639.67</ele>
        <time>2014-03-24T14:45:21Z</time>
      </trkpt>
      <trkpt lat="42.6933" lon="2.00065">
        <ele>1640.15</ele>
        <time>2014-03-24T14:45:33Z</time>
      </trkpt>
      <trkpt lat="42.69339" lon="2.00065">
        <ele>1640.63</ele>
        <time>2014-03-24T14:45:42Z</time>
      </trkpt>
      <trkpt lat="42.69347" lon="2.00059">
        <ele>1643.99</ele>
        <time>2014-03-24T14:45:55Z</time>
      </trkpt>
      <trkpt lat="42.69346" lon="2.00063">
        <ele>1643.99</ele>
        <time>2014-03-24T14:46:05Z</time>
      </trkpt>
      <trkpt lat="42.69351" lon="2.00064">
        <ele>1643.51</ele>
        <time>2014-03-24T14:46:21Z</time>
      </trkpt>
      <trkpt lat="42.69351" lon="2.00065">
        <ele>1643.51</ele>
        <time>2014-03-24T14:46:24Z</time>
      </trkpt>
      <trkpt lat="42.69357" lon="2.00071">
        <ele>1641.59</ele>
        <time>2014-03-24T14:46:36Z</time>
      </trkpt>
      <trkpt lat="42.69355" lon="2.00076">
        <ele>1642.07</ele>
        <time>2014-03-24T14:46:46Z</time>
      </trkpt>
      <trkpt lat="42.69354" lon="2.00078">
        <ele>1642.07</ele>
        <time>2014-03-24T14:46:50Z</time>
      </trkpt>
      <trkpt lat="42.69348" lon="2.00078">
        <ele>1641.59</ele>
        <time>2014-03-24T14:46:58Z</time>
      </trkpt>
      <trkpt lat="42.69337" lon="2.00078">
        <ele>1641.11</ele>
        <time>2014-03-24T14:47:07Z</time>
      </trkpt>
      <trkpt lat="42.69335" lon="2.00081">
        <ele>1641.59</ele>
        <time>2014-03-24T14:47:20Z</time>
      </trkpt>
      <trkpt lat="42.69339" lon="2.00079">
        <ele>1640.15</ele>
        <time>2014-03-24T14:47:29Z</time>
      </trkpt>
      <trkpt lat="42.6934" lon="2.00079">
        <ele>1639.67</ele>
        <time>2014-03-24T14:47:30Z</time>
      </trkpt>
      <trkpt lat="42.6935" lon="2.00077">
        <ele>1638.22</ele>
        <time>2014-03-24T14:47:43Z</time>
      </trkpt>
      <trkpt lat="42.69353" lon="2.00072">
        <ele>1641.11</ele>
        <time>2014-03-24T14:47:57Z</time>
      </trkpt>
      <trkpt lat="42.69353" lon="2.00067">
        <ele>1641.11</ele>
        <time>2014-03-24T14:48:10Z</time>
      </trkpt>
      <trkpt lat="42.69355" lon="2.00063">
        <ele>1640.63</ele>
        <time>2014-03-24T14:48:15Z</time>
      </trkpt>
      <trkpt lat="42.69356" lon="2.00065">
        <ele>1643.51</ele>
        <time>2014-03-24T14:48:27Z</time>
      </trkpt>
      <trkpt lat="42.69359" lon="2.00066">
        <ele>1643.99</ele>
        <time>2014-03-24T14:48:41Z</time>
      </trkpt>
      <trkpt lat="42.69359" lon="2.00066">
        <ele>1643.99</ele>
        <time>2014-03-24T14:48:52Z</time>
      </trkpt>
      <trkpt lat="42.69356" lon="2.00065">
        <ele>1644.95</ele>
        <time>2014-03-24T14:49:09Z</time>
      </trkpt>
      <trkpt lat="42.6936" lon="2.00065">
        <ele>1649.76</ele>
        <time>2014-03-24T14:49:21Z</time>
      </trkpt>
      <trkpt lat="42.69357" lon="2.00069">
        <ele>1648.8</ele>
        <time>2014-03-24T14:49:37Z</time>
      </trkpt>
      <trkpt lat="42.69359" lon="2.00072">
        <ele>1648.32</ele>
        <time>2014-03-24T14:49:55Z</time>
      </trkpt>
      <trkpt lat="42.69359" lon="2.0007">
        <ele>1647.84</ele>
        <time>2014-03-24T14:50:10Z</time>
      </trkpt>
      <trkpt lat="42.69357" lon="2.0007">
        <ele>1647.84</ele>
        <time>2014-03-24T14:50:23Z</time>
      </trkpt>
      <trkpt lat="42.69355" lon="2.00071">
        <ele>1648.8</ele>
        <time>2014-03-24T14:50:38Z</time>
      </trkpt>
      <trkpt lat="42.69361" lon="2.00074">
        <ele>1648.32</ele>
        <time>2014-03-24T14:50:54Z</time>
      </trkpt>
      <trkpt lat="42.69364" lon="2.00074">
        <ele>1649.76</ele>
        <time>2014-03-24T14:51:08Z</time>
      </trkpt>
      <trkpt lat="42.69364" lon="2.00071">
        <ele>1646.88</ele>
        <time>2014-03-24T14:51:22Z</time>
      </trkpt>
      <trkpt lat="42.69364" lon="2.0007">
        <ele>1646.88</ele>
        <time>2014-03-24T14:51:32Z</time>
      </trkpt>
      <trkpt lat="42.69362" lon="2.00069">
        <ele>1646.88</ele>
        <time>2014-03-24T14:51:47Z</time>
      </trkpt>
      <trkpt lat="42.69365" lon="2.00063">
        <ele>1647.36</ele>
        <time>2014-03-24T14:52:05Z</time>
      </trkpt>
      <trkpt lat="42.69375" lon="2.00068">
        <ele>1645.91</ele>
        <time>2014-03-24T14:52:20Z</time>
      </trkpt>
      <trkpt lat="42.69376" lon="2.00068">
        <ele>1645.91</ele>
        <time>2014-03-24T14:52:21Z</time>
      </trkpt>
      <trkpt lat="42.69386" lon="2.00073">
        <ele>1645.43</ele>
        <time>2014-03-24T14:52:31Z</time>
      </trkpt>
      <trkpt lat="42.69394" lon="2.00082">
        <ele>1644.95</ele>
        <time>2014-03-24T14:52:44Z</time>
      </trkpt>
      <trkpt lat="42.69403" lon="2.00098">
        <ele>1644.95</ele>
        <time>2014-03-24T14:53:00Z</time>
      </trkpt>
      <trkpt lat="42.69405" lon="2.00101">
        <ele>1644.95</ele>
        <time>2014-03-24T14:53:02Z</time>
      </trkpt>
      <trkpt lat="42.69409" lon="2.00111">
        <ele>1644.47</ele>
        <time>2014-03-24T14:53:09Z</time>
      </trkpt>
      <trkpt lat="42.6941" lon="2.00125">
        <ele>1643.99</ele>
        <time>2014-03-24T14:53:20Z</time>
      </trkpt>
      <trkpt lat="42.69408" lon="2.00133">
        <ele>1643.99</ele>
        <time>2014-03-24T14:53:25Z</time>
      </trkpt>
      <trkpt lat="42.69412" lon="2.00142">
        <ele>1643.51</ele>
        <time>2014-03-24T14:53:32Z</time>
      </trkpt>
      <trkpt lat="42.69417" lon="2.00148">
        <ele>1643.51</ele>
        <time>2014-03-24T14:53:38Z</time>
      </trkpt>
      <trkpt lat="42.69424" lon="2.00152">
        <ele>1643.03</ele>
        <time>2014-03-24T14:53:44Z</time>
      </trkpt>
      <trkpt lat="42.69431" lon="2.00167">
        <ele>1642.55</ele>
        <time>2014-03-24T14:53:56Z</time>
      </trkpt>
      <trkpt lat="42.69435" lon="2.00176">
        <ele>1642.55</ele>
        <time>2014-03-24T14:54:06Z</time>
      </trkpt>
      <trkpt lat="42.69441" lon="2.00183">
        <ele>1642.55</ele>
        <time>2014-03-24T14:54:18Z</time>
      </trkpt>
      <trkpt lat="42.69442" lon="2.00183">
        <ele>1642.55</ele>
        <time>2014-03-24T14:54:20Z</time>
      </trkpt>
      <trkpt lat="42.69446" lon="2.00184">
        <ele>1642.55</ele>
        <time>2014-03-24T14:54:24Z</time>
      </trkpt>
      <trkpt lat="42.69458" lon="2.00185">
        <ele>1641.11</ele>
        <time>2014-03-24T14:54:33Z</time>
      </trkpt>
      <trkpt lat="42.69473" lon="2.00187">
        <ele>1640.15</ele>
        <time>2014-03-24T14:54:43Z</time>
      </trkpt>
      <trkpt lat="42.69484" lon="2.00199">
        <ele>1638.7</ele>
        <time>2014-03-24T14:54:54Z</time>
      </trkpt>
      <trkpt lat="42.69486" lon="2.002">
        <ele>1638.7</ele>
        <time>2014-03-24T14:54:55Z</time>
      </trkpt>
      <trkpt lat="42.69492" lon="2.00205">
        <ele>1638.7</ele>
        <time>2014-03-24T14:55:04Z</time>
      </trkpt>
      <trkpt lat="42.69491" lon="2.00212">
        <ele>1638.22</ele>
        <time>2014-03-24T14:55:14Z</time>
      </trkpt>
      <trkpt lat="42.69498" lon="2.00223">
        <ele>1637.26</ele>
        <time>2014-03-24T14:55:28Z</time>
      </trkpt>
      <trkpt lat="42.69501" lon="2.00224">
        <ele>1636.78</ele>
        <time>2014-03-24T14:55:31Z</time>
      </trkpt>
      <trkpt lat="42.69503" lon="2.00224">
        <ele>1636.78</ele>
        <time>2014-03-24T14:55:32Z</time>
      </trkpt>
      <trkpt lat="42.6951" lon="2.00228">
        <ele>1638.22</ele>
        <time>2014-03-24T14:55:40Z</time>
      </trkpt>
      <trkpt lat="42.69519" lon="2.00228">
        <ele>1639.19</ele>
        <time>2014-03-24T14:55:49Z</time>
      </trkpt>
      <trkpt lat="42.69525" lon="2.00234">
        <ele>1638.7</ele>
        <time>2014-03-24T14:56:03Z</time>
      </trkpt>
      <trkpt lat="42.69528" lon="2.00237">
        <ele>1636.78</ele>
        <time>2014-03-24T14:56:11Z</time>
      </trkpt>
      <trkpt lat="42.69534" lon="2.00244">
        <ele>1637.26</ele>
        <time>2014-03-24T14:56:22Z</time>
      </trkpt>
      <trkpt lat="42.69536" lon="2.00246">
        <ele>1637.26</ele>
        <time>2014-03-24T14:56:25Z</time>
      </trkpt>
      <trkpt lat="42.69539" lon="2.00245">
        <ele>1638.22</ele>
        <time>2014-03-24T14:56:38Z</time>
      </trkpt>
      <trkpt lat="42.69543" lon="2.00241">
        <ele>1638.22</ele>
        <time>2014-03-24T14:56:43Z</time>
      </trkpt>
      <trkpt lat="42.69546" lon="2.00241">
        <ele>1638.22</ele>
        <time>2014-03-24T14:56:47Z</time>
      </trkpt>
      <trkpt lat="42.69548" lon="2.00242">
        <ele>1638.22</ele>
        <time>2014-03-24T14:56:48Z</time>
      </trkpt>
      <trkpt lat="42.69549" lon="2.00243">
        <ele>1638.22</ele>
        <time>2014-03-24T14:56:49Z</time>
      </trkpt>
      <trkpt lat="42.69556" lon="2.00249">
        <ele>1637.26</ele>
        <time>2014-03-24T14:56:58Z</time>
      </trkpt>
      <trkpt lat="42.69564" lon="2.00263">
        <ele>1635.82</ele>
        <time>2014-03-24T14:57:09Z</time>
      </trkpt>
      <trkpt lat="42.6957" lon="2.0027">
        <ele>1634.86</ele>
        <time>2014-03-24T14:57:16Z</time>
      </trkpt>
      <trkpt lat="42.69582" lon="2.00278">
        <ele>1631.98</ele>
        <time>2014-03-24T14:57:28Z</time>
      </trkpt>
      <trkpt lat="42.69597" lon="2.0028">
        <ele>1631.49</ele>
        <time>2014-03-24T14:57:40Z</time>
      </trkpt>
      <trkpt lat="42.69601" lon="2.00283">
        <ele>1630.53</ele>
        <time>2014-03-24T14:57:48Z</time>
      </trkpt>
      <trkpt lat="42.69607" lon="2.0029">
        <ele>1630.53</ele>
        <time>2014-03-24T14:57:55Z</time>
      </trkpt>
      <trkpt lat="42.69616" lon="2.00298">
        <ele>1630.05</ele>
        <time>2014-03-24T14:58:06Z</time>
      </trkpt>
      <trkpt lat="42.69622" lon="2.00307">
        <ele>1629.57</ele>
        <time>2014-03-24T14:58:17Z</time>
      </trkpt>
      <trkpt lat="42.69627" lon="2.00316">
        <ele>1630.53</ele>
        <time>2014-03-24T14:58:27Z</time>
      </trkpt>
      <trkpt lat="42.69635" lon="2.00327">
        <ele>1631.01</ele>
        <time>2014-03-24T14:58:39Z</time>
      </trkpt>
      <trkpt lat="42.69635" lon="2.00329">
        <ele>1631.01</ele>
        <time>2014-03-24T14:58:41Z</time>
      </trkpt>
      <trkpt lat="42.69636" lon="2.00332">
        <ele>1631.01</ele>
        <time>2014-03-24T14:58:43Z</time>
      </trkpt>
      <trkpt lat="42.69641" lon="2.0034">
        <ele>1631.49</ele>
        <time>2014-03-24T14:58:53Z</time>
      </trkpt>
      <trkpt lat="42.69659" lon="2.00339">
        <ele>1630.53</ele>
        <time>2014-03-24T14:59:04Z</time>
      </trkpt>
      <trkpt lat="42.69669" lon="2.00339">
        <ele>1629.57</ele>
        <time>2014-03-24T14:59:15Z</time>
      </trkpt>
      <trkpt lat="42.69671" lon="2.0034">
        <ele>1629.57</ele>
        <time>2014-03-24T14:59:17Z</time>
      </trkpt>
      <trkpt lat="42.69681" lon="2.00347">
        <ele>1630.05</ele>
        <time>2014-03-24T14:59:28Z</time>
      </trkpt>
      <trkpt lat="42.69689" lon="2.00353">
        <ele>1630.05</ele>
        <time>2014-03-24T14:59:41Z</time>
      </trkpt>
      <trkpt lat="42.69699" lon="2.00361">
        <ele>1632.94</ele>
        <time>2014-03-24T14:59:55Z</time>
      </trkpt>
      <trkpt lat="42.69702" lon="2.00364">
        <ele>1633.42</ele>
        <time>2014-03-24T15:00:08Z</time>
      </trkpt>
      <trkpt lat="42.69713" lon="2.00373">
        <ele>1630.53</ele>
        <time>2014-03-24T15:00:20Z</time>
      </trkpt>
      <trkpt lat="42.69722" lon="2.0038">
        <ele>1628.61</ele>
        <time>2014-03-24T15:00:32Z</time>
      </trkpt>
      <trkpt lat="42.6973" lon="2.00387">
        <ele>1630.53</ele>
        <time>2014-03-24T15:00:44Z</time>
      </trkpt>
      <trkpt lat="42.6973" lon="2.00389">
        <ele>1631.01</ele>
        <time>2014-03-24T15:00:58Z</time>
      </trkpt>
      <trkpt lat="42.69737" lon="2.00399">
        <ele>1630.53</ele>
        <time>2014-03-24T15:01:10Z</time>
      </trkpt>
      <trkpt lat="42.6975" lon="2.00416">
        <ele>1630.53</ele>
        <time>2014-03-24T15:01:21Z</time>
      </trkpt>
      <trkpt lat="42.6976" lon="2.00424">
        <ele>1630.05</ele>
        <time>2014-03-24T15:01:33Z</time>
      </trkpt>
      <trkpt lat="42.69764" lon="2.00424">
        <ele>1629.09</ele>
        <time>2014-03-24T15:01:44Z</time>
      </trkpt>
      <trkpt lat="42.69771" lon="2.00416">
        <ele>1629.09</ele>
        <time>2014-03-24T15:01:54Z</time>
      </trkpt>
      <trkpt lat="42.69772" lon="2.00415">
        <ele>1629.09</ele>
        <time>2014-03-24T15:01:55Z</time>
      </trkpt>
      <trkpt lat="42.69784" lon="2.00406">
        <ele>1628.13</ele>
        <time>2014-03-24T15:02:09Z</time>
      </trkpt>
      <trkpt lat="42.69785" lon="2.00406">
        <ele>1628.13</ele>
        <time>2014-03-24T15:02:13Z</time>
      </trkpt>
      <trkpt lat="42.69786" lon="2.00406">
        <ele>1628.13</ele>
        <time>2014-03-24T15:02:14Z</time>
      </trkpt>
      <trkpt lat="42.69787" lon="2.00406">
        <ele>1628.13</ele>
        <time>2014-03-24T15:02:15Z</time>
      </trkpt>
      <trkpt lat="42.69791" lon="2.00397">
        <ele>1627.65</ele>
        <time>2014-03-24T15:02:24Z</time>
      </trkpt>
      <trkpt lat="42.69797" lon="2.00385">
        <ele>1627.65</ele>
        <time>2014-03-24T15:02:36Z</time>
      </trkpt>
      <trkpt lat="42.698" lon="2.00386">
        <ele>1627.17</ele>
        <time>2014-03-24T15:02:40Z</time>
      </trkpt>
      <trkpt lat="42.69808" lon="2.00381">
        <ele>1626.69</ele>
        <time>2014-03-24T15:02:47Z</time>
      </trkpt>
      <trkpt lat="42.69811" lon="2.00378">
        <ele>1626.69</ele>
        <time>2014-03-24T15:02:50Z</time>
      </trkpt>
      <trkpt lat="42.69825" lon="2.00373">
        <ele>1626.21</ele>
        <time>2014-03-24T15:03:00Z</time>
      </trkpt>
      <trkpt lat="42.69838" lon="2.0037">
        <ele>1625.73</ele>
        <time>2014-03-24T15:03:10Z</time>
      </trkpt>
      <trkpt lat="42.69842" lon="2.0037">
        <ele>1626.21</ele>
        <time>2014-03-24T15:03:12Z</time>
      </trkpt>
      <trkpt lat="42.69848" lon="2.00366">
        <ele>1626.69</ele>
        <time>2014-03-24T15:03:16Z</time>
      </trkpt>
      <trkpt lat="42.69858" lon="2.00359">
        <ele>1626.69</ele>
        <time>2014-03-24T15:03:26Z</time>
      </trkpt>
      <trkpt lat="42.69859" lon="2.00357">
        <ele>1626.69</ele>
        <time>2014-03-24T15:03:27Z</time>
      </trkpt>
      <trkpt lat="42.69859" lon="2.00355">
        <ele>1626.69</ele>
        <time>2014-03-24T15:03:28Z</time>
      </trkpt>
      <trkpt lat="42.69865" lon="2.00348">
        <ele>1626.21</ele>
        <time>2014-03-24T15:03:38Z</time>
      </trkpt>
      <trkpt lat="42.69866" lon="2.00347">
        <ele>1626.21</ele>
        <time>2014-03-24T15:03:39Z</time>
      </trkpt>
      <trkpt lat="42.69872" lon="2.00341">
        <ele>1626.21</ele>
        <time>2014-03-24T15:03:47Z</time>
      </trkpt>
      <trkpt lat="42.69874" lon="2.00337">
        <ele>1626.21</ele>
        <time>2014-03-24T15:03:51Z</time>
      </trkpt>
      <trkpt lat="42.69874" lon="2.00336">
        <ele>1625.73</ele>
        <time>2014-03-24T15:03:52Z</time>
      </trkpt>
      <trkpt lat="42.69876" lon="2.00336">
        <ele>1625.73</ele>
        <time>2014-03-24T15:03:54Z</time>
      </trkpt>
      <trkpt lat="42.69877" lon="2.00334">
        <ele>1626.21</ele>
        <time>2014-03-24T15:03:55Z</time>
      </trkpt>
      <trkpt lat="42.6988" lon="2.0033">
        <ele>1626.21</ele>
        <time>2014-03-24T15:03:59Z</time>
      </trkpt>
      <trkpt lat="42.69879" lon="2.00323">
        <ele>1625.73</ele>
        <time>2014-03-24T15:04:03Z</time>
      </trkpt>
      <trkpt lat="42.69879" lon="2.00322">
        <ele>1625.73</ele>
        <time>2014-03-24T15:04:04Z</time>
      </trkpt>
      <trkpt lat="42.6988" lon="2.0032">
        <ele>1625.25</ele>
        <time>2014-03-24T15:04:05Z</time>
      </trkpt>
      <trkpt lat="42.6988" lon="2.00319">
        <ele>1625.25</ele>
        <time>2014-03-24T15:04:06Z</time>
      </trkpt>
      <trkpt lat="42.69881" lon="2.00317">
        <ele>1625.25</ele>
        <time>2014-03-24T15:04:07Z</time>
      </trkpt>
      <trkpt lat="42.69882" lon="2.00315">
        <ele>1625.25</ele>
        <time>2014-03-24T15:04:08Z</time>
      </trkpt>
      <trkpt lat="42.69883" lon="2.00313">
        <ele>1625.25</ele>
        <time>2014-03-24T15:04:09Z</time>
      </trkpt>
      <trkpt lat="42.69884" lon="2.00312">
        <ele>1625.25</ele>
        <time>2014-03-24T15:04:10Z</time>
      </trkpt>
      <trkpt lat="42.69885" lon="2.00311">
        <ele>1625.25</ele>
        <time>2014-03-24T15:04:11Z</time>
      </trkpt>
      <trkpt lat="42.69885" lon="2.00309">
        <ele>1625.25</ele>
        <time>2014-03-24T15:04:12Z</time>
      </trkpt>
      <trkpt lat="42.69887" lon="2.00308">
        <ele>1625.25</ele>
        <time>2014-03-24T15:04:13Z</time>
      </trkpt>
      <trkpt lat="42.69887" lon="2.00307">
        <ele>1625.25</ele>
        <time>2014-03-24T15:04:14Z</time>
      </trkpt>
      <trkpt lat="42.69888" lon="2.00305">
        <ele>1625.25</ele>
        <time>2014-03-24T15:04:17Z</time>
      </trkpt>
      <trkpt lat="42.6989" lon="2.00304">
        <ele>1625.25</ele>
        <time>2014-03-24T15:04:18Z</time>
      </trkpt>
      <trkpt lat="42.69891" lon="2.00303">
        <ele>1625.25</ele>
        <time>2014-03-24T15:04:19Z</time>
      </trkpt>
      <trkpt lat="42.69896" lon="2.00292">
        <ele>1624.77</ele>
        <time>2014-03-24T15:04:26Z</time>
      </trkpt>
      <trkpt lat="42.69897" lon="2.00291">
        <ele>1624.77</ele>
        <time>2014-03-24T15:04:27Z</time>
      </trkpt>
      <trkpt lat="42.69898" lon="2.0029">
        <ele>1624.77</ele>
        <time>2014-03-24T15:04:28Z</time>
      </trkpt>
      <trkpt lat="42.69899" lon="2.00288">
        <ele>1624.77</ele>
        <time>2014-03-24T15:04:30Z</time>
      </trkpt>
      <trkpt lat="42.699" lon="2.00287">
        <ele>1624.77</ele>
        <time>2014-03-24T15:04:31Z</time>
      </trkpt>
      <trkpt lat="42.69901" lon="2.00286">
        <ele>1624.28</ele>
        <time>2014-03-24T15:04:32Z</time>
      </trkpt>
      <trkpt lat="42.69913" lon="2.00284">
        <ele>1624.77</ele>
        <time>2014-03-24T15:04:41Z</time>
      </trkpt>
      <trkpt lat="42.69928" lon="2.0028">
        <ele>1625.25</ele>
        <time>2014-03-24T15:04:53Z</time>
      </trkpt>
      <trkpt lat="42.6993" lon="2.00278">
        <ele>1625.25</ele>
        <time>2014-03-24T15:04:56Z</time>
      </trkpt>
      <trkpt lat="42.69931" lon="2.00278">
        <ele>1625.25</ele>
        <time>2014-03-24T15:04:57Z</time>
      </trkpt>
      <trkpt lat="42.69939" lon="2.00277">
        <ele>1625.25</ele>
        <time>2014-03-24T15:05:04Z</time>
      </trkpt>
      <trkpt lat="42.69941" lon="2.00277">
        <ele>1625.25</ele>
        <time>2014-03-24T15:05:05Z</time>
      </trkpt>
      <trkpt lat="42.69946" lon="2.00275">
        <ele>1625.25</ele>
        <time>2014-03-24T15:05:11Z</time>
      </trkpt>
      <trkpt lat="42.69949" lon="2.00274">
        <ele>1625.25</ele>
        <time>2014-03-24T15:05:15Z</time>
      </trkpt>
      <trkpt lat="42.69958" lon="2.00267">
        <ele>1625.25</ele>
        <time>2014-03-24T15:05:25Z</time>
      </trkpt>
      <trkpt lat="42.69963" lon="2.00265">
        <ele>1624.28</ele>
        <time>2014-03-24T15:05:33Z</time>
      </trkpt>
      <trkpt lat="42.69967" lon="2.00261">
        <ele>1624.28</ele>
        <time>2014-03-24T15:05:38Z</time>
      </trkpt>
      <trkpt lat="42.69974" lon="2.00256">
        <ele>1624.28</ele>
        <time>2014-03-24T15:05:49Z</time>
      </trkpt>
      <trkpt lat="42.69981" lon="2.00252">
        <ele>1624.28</ele>
        <time>2014-03-24T15:05:56Z</time>
      </trkpt>
      <trkpt lat="42.69987" lon="2.00249">
        <ele>1624.28</ele>
        <time>2014-03-24T15:06:01Z</time>
      </trkpt>
      <trkpt lat="42.7" lon="2.00249">
        <ele>1624.28</ele>
        <time>2014-03-24T15:06:11Z</time>
      </trkpt>
      <trkpt lat="42.70006" lon="2.00249">
        <ele>1624.28</ele>
        <time>2014-03-24T15:06:14Z</time>
      </trkpt>
      <trkpt lat="42.7002" lon="2.00247">
        <ele>1623.8</ele>
        <time>2014-03-24T15:06:27Z</time>
      </trkpt>
      <trkpt lat="42.70024" lon="2.00245">
        <ele>1624.28</ele>
        <time>2014-03-24T15:06:32Z</time>
      </trkpt>
      <trkpt lat="42.7003" lon="2.0024">
        <ele>1624.77</ele>
        <time>2014-03-24T15:06:42Z</time>
      </trkpt>
      <trkpt lat="42.7003" lon="2.00233">
        <ele>1624.77</ele>
        <time>2014-03-24T15:06:53Z</time>
      </trkpt>
      <trkpt lat="42.70032" lon="2.00234">
        <ele>1625.25</ele>
        <time>2014-03-24T15:06:56Z</time>
      </trkpt>
      <trkpt lat="42.70035" lon="2.00245">
        <ele>1624.77</ele>
        <time>2014-03-24T15:07:09Z</time>
      </trkpt>
      <trkpt lat="42.70036" lon="2.00246">
        <ele>1624.77</ele>
        <time>2014-03-24T15:07:11Z</time>
      </trkpt>
      <trkpt lat="42.70036" lon="2.00251">
        <ele>1624.28</ele>
        <time>2014-03-24T15:07:15Z</time>
      </trkpt>
      <trkpt lat="42.70039" lon="2.0027">
        <ele>1620.92</ele>
        <time>2014-03-24T15:07:27Z</time>
      </trkpt>
      <trkpt lat="42.70046" lon="2.00288">
        <ele>1620.44</ele>
        <time>2014-03-24T15:07:38Z</time>
      </trkpt>
      <trkpt lat="42.70047" lon="2.00292">
        <ele>1619.96</ele>
        <time>2014-03-24T15:07:41Z</time>
      </trkpt>
      <trkpt lat="42.7005" lon="2.00296">
        <ele>1619</ele>
        <time>2014-03-24T15:07:54Z</time>
      </trkpt>
      <trkpt lat="42.70053" lon="2.00299">
        <ele>1620.92</ele>
        <time>2014-03-24T15:08:11Z</time>
      </trkpt>
      <trkpt lat="42.70052" lon="2.003">
        <ele>1620.44</ele>
        <time>2014-03-24T15:08:27Z</time>
      </trkpt>
      <trkpt lat="42.70054" lon="2.00308">
        <ele>1620.92</ele>
        <time>2014-03-24T15:08:38Z</time>
      </trkpt>
      <trkpt lat="42.70062" lon="2.00321">
        <ele>1620.92</ele>
        <time>2014-03-24T15:08:49Z</time>
      </trkpt>
      <trkpt lat="42.70065" lon="2.00326">
        <ele>1620.92</ele>
        <time>2014-03-24T15:08:53Z</time>
      </trkpt>
      <trkpt lat="42.7008" lon="2.00342">
        <ele>1621.4</ele>
        <time>2014-03-24T15:09:07Z</time>
      </trkpt>
      <trkpt lat="42.70094" lon="2.00348">
        <ele>1619.96</ele>
        <time>2014-03-24T15:09:21Z</time>
      </trkpt>
      <trkpt lat="42.70103" lon="2.00352">
        <ele>1619.96</ele>
        <time>2014-03-24T15:09:30Z</time>
      </trkpt>
      <trkpt lat="42.70108" lon="2.00356">
        <ele>1618.04</ele>
        <time>2014-03-24T15:09:36Z</time>
      </trkpt>
      <trkpt lat="42.70126" lon="2.00356">
        <ele>1618.52</ele>
        <time>2014-03-24T15:09:49Z</time>
      </trkpt>
      <trkpt lat="42.70136" lon="2.00353">
        <ele>1618.04</ele>
        <time>2014-03-24T15:09:56Z</time>
      </trkpt>
      <trkpt lat="42.70155" lon="2.00346">
        <ele>1617.56</ele>
        <time>2014-03-24T15:10:07Z</time>
      </trkpt>
      <trkpt lat="42.70174" lon="2.00335">
        <ele>1616.59</ele>
        <time>2014-03-24T15:10:19Z</time>
      </trkpt>
      <trkpt lat="42.7018" lon="2.00334">
        <ele>1615.63</ele>
        <time>2014-03-24T15:10:23Z</time>
      </trkpt>
      <trkpt lat="42.70185" lon="2.00335">
        <ele>1615.15</ele>
        <time>2014-03-24T15:10:26Z</time>
      </trkpt>
      <trkpt lat="42.70187" lon="2.00336">
        <ele>1615.15</ele>
        <time>2014-03-24T15:10:27Z</time>
      </trkpt>
      <trkpt lat="42.70188" lon="2.00337">
        <ele>1615.15</ele>
        <time>2014-03-24T15:10:28Z</time>
      </trkpt>
      <trkpt lat="42.7019" lon="2.00338">
        <ele>1615.15</ele>
        <time>2014-03-24T15:10:29Z</time>
      </trkpt>
      <trkpt lat="42.70193" lon="2.00339">
        <ele>1615.15</ele>
        <time>2014-03-24T15:10:31Z</time>
      </trkpt>
      <trkpt lat="42.70208" lon="2.00367">
        <ele>1613.23</ele>
        <time>2014-03-24T15:10:46Z</time>
      </trkpt>
      <trkpt lat="42.70209" lon="2.00369">
        <ele>1613.23</ele>
        <time>2014-03-24T15:10:47Z</time>
      </trkpt>
      <trkpt lat="42.7021" lon="2.00371">
        <ele>1613.23</ele>
        <time>2014-03-24T15:10:48Z</time>
      </trkpt>
      <trkpt lat="42.70212" lon="2.00372">
        <ele>1612.75</ele>
        <time>2014-03-24T15:10:49Z</time>
      </trkpt>
      <trkpt lat="42.70213" lon="2.00374">
        <ele>1612.75</ele>
        <time>2014-03-24T15:10:50Z</time>
      </trkpt>
      <trkpt lat="42.70214" lon="2.00376">
        <ele>1612.75</ele>
        <time>2014-03-24T15:10:51Z</time>
      </trkpt>
      <trkpt lat="42.70232" lon="2.00411">
        <ele>1610.83</ele>
        <time>2014-03-24T15:11:07Z</time>
      </trkpt>
      <trkpt lat="42.70233" lon="2.00413">
        <ele>1610.83</ele>
        <time>2014-03-24T15:11:08Z</time>
      </trkpt>
      <trkpt lat="42.70234" lon="2.00415">
        <ele>1610.35</ele>
        <time>2014-03-24T15:11:09Z</time>
      </trkpt>
      <trkpt lat="42.70248" lon="2.00435">
        <ele>1607.46</ele>
        <time>2014-03-24T15:11:19Z</time>
      </trkpt>
      <trkpt lat="42.70256" lon="2.00448">
        <ele>1606.5</ele>
        <time>2014-03-24T15:11:26Z</time>
      </trkpt>
      <trkpt lat="42.70258" lon="2.0045">
        <ele>1606.5</ele>
        <time>2014-03-24T15:11:27Z</time>
      </trkpt>
      <trkpt lat="42.70259" lon="2.00452">
        <ele>1606.02</ele>
        <time>2014-03-24T15:11:28Z</time>
      </trkpt>
      <trkpt lat="42.7026" lon="2.00455">
        <ele>1606.02</ele>
        <time>2014-03-24T15:11:29Z</time>
      </trkpt>
      <trkpt lat="42.70261" lon="2.00457">
        <ele>1606.02</ele>
        <time>2014-03-24T15:11:30Z</time>
      </trkpt>
      <trkpt lat="42.70262" lon="2.00459">
        <ele>1606.02</ele>
        <time>2014-03-24T15:11:31Z</time>
      </trkpt>
      <trkpt lat="42.70264" lon="2.00461">
        <ele>1605.54</ele>
        <time>2014-03-24T15:11:32Z</time>
      </trkpt>
      <trkpt lat="42.70265" lon="2.00463">
        <ele>1605.54</ele>
        <time>2014-03-24T15:11:33Z</time>
      </trkpt>
      <trkpt lat="42.70266" lon="2.00465">
        <ele>1605.06</ele>
        <time>2014-03-24T15:11:34Z</time>
      </trkpt>
      <trkpt lat="42.70268" lon="2.00467">
        <ele>1605.06</ele>
        <time>2014-03-24T15:11:35Z</time>
      </trkpt>
      <trkpt lat="42.70269" lon="2.0047">
        <ele>1605.06</ele>
        <time>2014-03-24T15:11:36Z</time>
      </trkpt>
      <trkpt lat="42.70269" lon="2.00472">
        <ele>1604.58</ele>
        <time>2014-03-24T15:11:37Z</time>
      </trkpt>
      <trkpt lat="42.7027" lon="2.00474">
        <ele>1604.1</ele>
        <time>2014-03-24T15:11:38Z</time>
      </trkpt>
      <trkpt lat="42.70271" lon="2.00477">
        <ele>1604.1</ele>
        <time>2014-03-24T15:11:39Z</time>
      </trkpt>
      <trkpt lat="42.70272" lon="2.00479">
        <ele>1603.62</ele>
        <time>2014-03-24T15:11:40Z</time>
      </trkpt>
      <trkpt lat="42.70273" lon="2.00482">
        <ele>1603.62</ele>
        <time>2014-03-24T15:11:41Z</time>
      </trkpt>
      <trkpt lat="42.70274" lon="2.00485">
        <ele>1603.62</ele>
        <time>2014-03-24T15:11:42Z</time>
      </trkpt>
      <trkpt lat="42.70274" lon="2.00488">
        <ele>1603.62</ele>
        <time>2014-03-24T15:11:43Z</time>
      </trkpt>
      <trkpt lat="42.70275" lon="2.0049">
        <ele>1603.62</ele>
        <time>2014-03-24T15:11:44Z</time>
      </trkpt>
      <trkpt lat="42.70276" lon="2.00496">
        <ele>1603.62</ele>
        <time>2014-03-24T15:11:46Z</time>
      </trkpt>
      <trkpt lat="42.70276" lon="2.00498">
        <ele>1603.62</ele>
        <time>2014-03-24T15:11:47Z</time>
      </trkpt>
      <trkpt lat="42.70276" lon="2.00503">
        <ele>1603.62</ele>
        <time>2014-03-24T15:11:49Z</time>
      </trkpt>
      <trkpt lat="42.70276" lon="2.00506">
        <ele>1603.62</ele>
        <time>2014-03-24T15:11:50Z</time>
      </trkpt>
      <trkpt lat="42.70282" lon="2.00527">
        <ele>1602.66</ele>
        <time>2014-03-24T15:12:00Z</time>
      </trkpt>
      <trkpt lat="42.70286" lon="2.00543">
        <ele>1601.69</ele>
        <time>2014-03-24T15:12:08Z</time>
      </trkpt>
      <trkpt lat="42.70288" lon="2.00545">
        <ele>1601.69</ele>
        <time>2014-03-24T15:12:09Z</time>
      </trkpt>
      <trkpt lat="42.70289" lon="2.00547">
        <ele>1601.69</ele>
        <time>2014-03-24T15:12:10Z</time>
      </trkpt>
      <trkpt lat="42.7029" lon="2.00549">
        <ele>1601.21</ele>
        <time>2014-03-24T15:12:11Z</time>
      </trkpt>
      <trkpt lat="42.70291" lon="2.0055">
        <ele>1601.21</ele>
        <time>2014-03-24T15:12:12Z</time>
      </trkpt>
      <trkpt lat="42.70291" lon="2.00553">
        <ele>1600.73</ele>
        <time>2014-03-24T15:12:13Z</time>
      </trkpt>
      <trkpt lat="42.70292" lon="2.00555">
        <ele>1600.73</ele>
        <time>2014-03-24T15:12:14Z</time>
      </trkpt>
      <trkpt lat="42.70292" lon="2.00557">
        <ele>1600.73</ele>
        <time>2014-03-24T15:12:15Z</time>
      </trkpt>
      <trkpt lat="42.70293" lon="2.0056">
        <ele>1600.73</ele>
        <time>2014-03-24T15:12:16Z</time>
      </trkpt>
      <trkpt lat="42.70293" lon="2.00562">
        <ele>1600.73</ele>
        <time>2014-03-24T15:12:17Z</time>
      </trkpt>
      <trkpt lat="42.70292" lon="2.00566">
        <ele>1600.25</ele>
        <time>2014-03-24T15:12:18Z</time>
      </trkpt>
      <trkpt lat="42.70292" lon="2.00569">
        <ele>1600.25</ele>
        <time>2014-03-24T15:12:19Z</time>
      </trkpt>
      <trkpt lat="42.70293" lon="2.00572">
        <ele>1600.25</ele>
        <time>2014-03-24T15:12:20Z</time>
      </trkpt>
      <trkpt lat="42.70293" lon="2.00574">
        <ele>1600.25</ele>
        <time>2014-03-24T15:12:21Z</time>
      </trkpt>
      <trkpt lat="42.70292" lon="2.00576">
        <ele>1599.77</ele>
        <time>2014-03-24T15:12:22Z</time>
      </trkpt>
      <trkpt lat="42.70292" lon="2.00578">
        <ele>1599.77</ele>
        <time>2014-03-24T15:12:23Z</time>
      </trkpt>
      <trkpt lat="42.70292" lon="2.00581">
        <ele>1599.77</ele>
        <time>2014-03-24T15:12:24Z</time>
      </trkpt>
      <trkpt lat="42.70291" lon="2.00583">
        <ele>1599.77</ele>
        <time>2014-03-24T15:12:25Z</time>
      </trkpt>
      <trkpt lat="42.70291" lon="2.00585">
        <ele>1599.29</ele>
        <time>2014-03-24T15:12:26Z</time>
      </trkpt>
      <trkpt lat="42.70294" lon="2.00604">
        <ele>1596.41</ele>
        <time>2014-03-24T15:12:34Z</time>
      </trkpt>
      <trkpt lat="42.70294" lon="2.00611">
        <ele>1595.45</ele>
        <time>2014-03-24T15:12:38Z</time>
      </trkpt>
      <trkpt lat="42.70295" lon="2.00614">
        <ele>1595.45</ele>
        <time>2014-03-24T15:12:39Z</time>
      </trkpt>
      <trkpt lat="42.70296" lon="2.00616">
        <ele>1594.96</ele>
        <time>2014-03-24T15:12:40Z</time>
      </trkpt>
      <trkpt lat="42.70296" lon="2.0062">
        <ele>1594</ele>
        <time>2014-03-24T15:12:42Z</time>
      </trkpt>
      <trkpt lat="42.70298" lon="2.00628">
        <ele>1593.04</ele>
        <time>2014-03-24T15:12:46Z</time>
      </trkpt>
      <trkpt lat="42.70298" lon="2.00629">
        <ele>1593.04</ele>
        <time>2014-03-24T15:12:47Z</time>
      </trkpt>
      <trkpt lat="42.70301" lon="2.00634">
        <ele>1592.08</ele>
        <time>2014-03-24T15:12:50Z</time>
      </trkpt>
      <trkpt lat="42.70302" lon="2.00645">
        <ele>1590.64</ele>
        <time>2014-03-24T15:12:58Z</time>
      </trkpt>
      <trkpt lat="42.70302" lon="2.00647">
        <ele>1590.16</ele>
        <time>2014-03-24T15:12:59Z</time>
      </trkpt>
      <trkpt lat="42.70302" lon="2.00652">
        <ele>1589.2</ele>
        <time>2014-03-24T15:13:02Z</time>
      </trkpt>
      <trkpt lat="42.70303" lon="2.00653">
        <ele>1589.2</ele>
        <time>2014-03-24T15:13:03Z</time>
      </trkpt>
      <trkpt lat="42.70303" lon="2.00657">
        <ele>1588.24</ele>
        <time>2014-03-24T15:13:06Z</time>
      </trkpt>
      <trkpt lat="42.70303" lon="2.00659">
        <ele>1587.75</ele>
        <time>2014-03-24T15:13:07Z</time>
      </trkpt>
      <trkpt lat="42.70301" lon="2.00671">
        <ele>1585.35</ele>
        <time>2014-03-24T15:13:15Z</time>
      </trkpt>
      <trkpt lat="42.70301" lon="2.00676">
        <ele>1585.35</ele>
        <time>2014-03-24T15:13:19Z</time>
      </trkpt>
      <trkpt lat="42.70301" lon="2.00678">
        <ele>1585.35</ele>
        <time>2014-03-24T15:13:20Z</time>
      </trkpt>
      <trkpt lat="42.70301" lon="2.00683">
        <ele>1584.87</ele>
        <time>2014-03-24T15:13:23Z</time>
      </trkpt>
      <trkpt lat="42.70302" lon="2.00684">
        <ele>1584.87</ele>
        <time>2014-03-24T15:13:24Z</time>
      </trkpt>
      <trkpt lat="42.70302" lon="2.00686">
        <ele>1584.39</ele>
        <time>2014-03-24T15:13:25Z</time>
      </trkpt>
      <trkpt lat="42.70303" lon="2.00695">
        <ele>1584.39</ele>
        <time>2014-03-24T15:13:32Z</time>
      </trkpt>
      <trkpt lat="42.70303" lon="2.00696">
        <ele>1584.87</ele>
        <time>2014-03-24T15:13:33Z</time>
      </trkpt>
      <trkpt lat="42.70303" lon="2.00702">
        <ele>1585.35</ele>
        <time>2014-03-24T15:13:37Z</time>
      </trkpt>
      <trkpt lat="42.70304" lon="2.00704">
        <ele>1585.83</ele>
        <time>2014-03-24T15:13:38Z</time>
      </trkpt>
      <trkpt lat="42.70304" lon="2.00705">
        <ele>1585.83</ele>
        <time>2014-03-24T15:13:39Z</time>
      </trkpt>
      <trkpt lat="42.70303" lon="2.00707">
        <ele>1585.83</ele>
        <time>2014-03-24T15:13:40Z</time>
      </trkpt>
      <trkpt lat="42.70303" lon="2.00709">
        <ele>1585.83</ele>
        <time>2014-03-24T15:13:41Z</time>
      </trkpt>
      <trkpt lat="42.70303" lon="2.00711">
        <ele>1585.83</ele>
        <time>2014-03-24T15:13:42Z</time>
      </trkpt>
      <trkpt lat="42.70304" lon="2.00719">
        <ele>1585.83</ele>
        <time>2014-03-24T15:13:48Z</time>
      </trkpt>
      <trkpt lat="42.70305" lon="2.00721">
        <ele>1585.83</ele>
        <time>2014-03-24T15:13:50Z</time>
      </trkpt>
      <trkpt lat="42.70305" lon="2.00722">
        <ele>1585.83</ele>
        <time>2014-03-24T15:13:51Z</time>
      </trkpt>
      <trkpt lat="42.70305" lon="2.00724">
        <ele>1585.83</ele>
        <time>2014-03-24T15:13:52Z</time>
      </trkpt>
      <trkpt lat="42.70306" lon="2.00727">
        <ele>1585.83</ele>
        <time>2014-03-24T15:13:54Z</time>
      </trkpt>
      <trkpt lat="42.70306" lon="2.00728">
        <ele>1585.83</ele>
        <time>2014-03-24T15:13:55Z</time>
      </trkpt>
      <trkpt lat="42.70306" lon="2.0073">
        <ele>1585.83</ele>
        <time>2014-03-24T15:13:56Z</time>
      </trkpt>
      <trkpt lat="42.70307" lon="2.00732">
        <ele>1585.83</ele>
        <time>2014-03-24T15:13:57Z</time>
      </trkpt>
      <trkpt lat="42.7031" lon="2.00747">
        <ele>1584.39</ele>
        <time>2014-03-24T15:14:10Z</time>
      </trkpt>
      <trkpt lat="42.7031" lon="2.00751">
        <ele>1586.31</ele>
        <time>2014-03-24T15:14:26Z</time>
      </trkpt>
      <trkpt lat="42.7031" lon="2.00752">
        <ele>1582.47</ele>
        <time>2014-03-24T15:14:44Z</time>
      </trkpt>
      <trkpt lat="42.70301" lon="2.00748">
        <ele>1582.95</ele>
        <time>2014-03-24T15:15:00Z</time>
      </trkpt>
      <trkpt lat="42.70297" lon="2.00745">
        <ele>1583.91</ele>
        <time>2014-03-24T15:15:07Z</time>
      </trkpt>
      <trkpt lat="42.70293" lon="2.00743">
        <ele>1582.95</ele>
        <time>2014-03-24T15:15:15Z</time>
      </trkpt>
      <trkpt lat="42.70291" lon="2.0074">
        <ele>1580.54</ele>
        <time>2014-03-24T15:15:25Z</time>
      </trkpt>
      <trkpt lat="42.70291" lon="2.00739">
        <ele>1579.1</ele>
        <time>2014-03-24T15:15:45Z</time>
      </trkpt>
      <trkpt lat="42.70293" lon="2.00735">
        <ele>1581.03</ele>
        <time>2014-03-24T15:16:10Z</time>
      </trkpt>
      <trkpt lat="42.70296" lon="2.00738">
        <ele>1579.1</ele>
        <time>2014-03-24T15:16:19Z</time>
      </trkpt>
      <trkpt lat="42.70297" lon="2.00741">
        <ele>1574.3</ele>
        <time>2014-03-24T15:16:32Z</time>
      </trkpt>
      <trkpt lat="42.70303" lon="2.00748">
        <ele>1573.33</ele>
        <time>2014-03-24T15:16:38Z</time>
      </trkpt>
      <trkpt lat="42.70309" lon="2.00762">
        <ele>1571.41</ele>
        <time>2014-03-24T15:16:49Z</time>
      </trkpt>
      <trkpt lat="42.7031" lon="2.00767">
        <ele>1570.45</ele>
        <time>2014-03-24T15:16:53Z</time>
      </trkpt>
      <trkpt lat="42.70315" lon="2.00779">
        <ele>1570.93</ele>
        <time>2014-03-24T15:17:04Z</time>
      </trkpt>
      <trkpt lat="42.70321" lon="2.0079">
        <ele>1571.41</ele>
        <time>2014-03-24T15:17:12Z</time>
      </trkpt>
      <trkpt lat="42.7033" lon="2.00803">
        <ele>1571.89</ele>
        <time>2014-03-24T15:17:24Z</time>
      </trkpt>
      <trkpt lat="42.70337" lon="2.00814">
        <ele>1571.89</ele>
        <time>2014-03-24T15:17:36Z</time>
      </trkpt>
      <trkpt lat="42.70346" lon="2.00822">
        <ele>1573.33</ele>
        <time>2014-03-24T15:17:50Z</time>
      </trkpt>
      <trkpt lat="42.7035" lon="2.00831">
        <ele>1574.3</ele>
        <time>2014-03-24T15:18:02Z</time>
      </trkpt>
      <trkpt lat="42.70357" lon="2.00841">
        <ele>1574.78</ele>
        <time>2014-03-24T15:18:14Z</time>
      </trkpt>
      <trkpt lat="42.70364" lon="2.00853">
        <ele>1575.74</ele>
        <time>2014-03-24T15:18:28Z</time>
      </trkpt>
      <trkpt lat="42.70366" lon="2.00867">
        <ele>1577.18</ele>
        <time>2014-03-24T15:18:40Z</time>
      </trkpt>
      <trkpt lat="42.70369" lon="2.00878">
        <ele>1579.1</ele>
        <time>2014-03-24T15:18:49Z</time>
      </trkpt>
      <trkpt lat="42.70377" lon="2.00893">
        <ele>1579.1</ele>
        <time>2014-03-24T15:19:00Z</time>
      </trkpt>
      <trkpt lat="42.70377" lon="2.009">
        <ele>1579.1</ele>
        <time>2014-03-24T15:19:06Z</time>
      </trkpt>
      <trkpt lat="42.70376" lon="2.00914">
        <ele>1579.1</ele>
        <time>2014-03-24T15:19:20Z</time>
      </trkpt>
      <trkpt lat="42.70378" lon="2.00919">
        <ele>1580.06</ele>
        <time>2014-03-24T15:19:24Z</time>
      </trkpt>
      <trkpt lat="42.70384" lon="2.00937">
        <ele>1581.99</ele>
        <time>2014-03-24T15:19:37Z</time>
      </trkpt>
      <trkpt lat="42.70386" lon="2.00947">
        <ele>1582.95</ele>
        <time>2014-03-24T15:19:46Z</time>
      </trkpt>
      <trkpt lat="42.70386" lon="2.00954">
        <ele>1583.91</ele>
        <time>2014-03-24T15:19:52Z</time>
      </trkpt>
      <trkpt lat="42.70386" lon="2.00966">
        <ele>1584.39</ele>
        <time>2014-03-24T15:20:05Z</time>
      </trkpt>
      <trkpt lat="42.70386" lon="2.00978">
        <ele>1585.83</ele>
        <time>2014-03-24T15:20:16Z</time>
      </trkpt>
      <trkpt lat="42.70391" lon="2.00989">
        <ele>1586.31</ele>
        <time>2014-03-24T15:20:26Z</time>
      </trkpt>
      <trkpt lat="42.70394" lon="2.01002">
        <ele>1587.75</ele>
        <time>2014-03-24T15:20:39Z</time>
      </trkpt>
      <trkpt lat="42.70402" lon="2.01014">
        <ele>1588.72</ele>
        <time>2014-03-24T15:20:51Z</time>
      </trkpt>
      <trkpt lat="42.7041" lon="2.01027">
        <ele>1590.16</ele>
        <time>2014-03-24T15:21:04Z</time>
      </trkpt>
      <trkpt lat="42.7042" lon="2.01041">
        <ele>1592.56</ele>
        <time>2014-03-24T15:21:18Z</time>
      </trkpt>
      <trkpt lat="42.70428" lon="2.01051">
        <ele>1594.48</ele>
        <time>2014-03-24T15:21:31Z</time>
      </trkpt>
      <trkpt lat="42.70432" lon="2.01061">
        <ele>1594.48</ele>
        <time>2014-03-24T15:21:42Z</time>
      </trkpt>
      <trkpt lat="42.70436" lon="2.01069">
        <ele>1594.48</ele>
        <time>2014-03-24T15:21:52Z</time>
      </trkpt>
      <trkpt lat="42.70438" lon="2.0108">
        <ele>1594</ele>
        <time>2014-03-24T15:22:04Z</time>
      </trkpt>
      <trkpt lat="42.70443" lon="2.01092">
        <ele>1594.48</ele>
        <time>2014-03-24T15:22:16Z</time>
      </trkpt>
      <trkpt lat="42.7045" lon="2.01105">
        <ele>1594</ele>
        <time>2014-03-24T15:22:31Z</time>
      </trkpt>
      <trkpt lat="42.70458" lon="2.01114">
        <ele>1593.52</ele>
        <time>2014-03-24T15:22:44Z</time>
      </trkpt>
      <trkpt lat="42.70466" lon="2.01127">
        <ele>1596.41</ele>
        <time>2014-03-24T15:22:57Z</time>
      </trkpt>
      <trkpt lat="42.70472" lon="2.01136">
        <ele>1597.85</ele>
        <time>2014-03-24T15:23:08Z</time>
      </trkpt>
      <trkpt lat="42.70478" lon="2.01144">
        <ele>1599.29</ele>
        <time>2014-03-24T15:23:19Z</time>
      </trkpt>
      <trkpt lat="42.70486" lon="2.01149">
        <ele>1599.29</ele>
        <time>2014-03-24T15:23:32Z</time>
      </trkpt>
      <trkpt lat="42.70493" lon="2.01152">
        <ele>1601.21</ele>
        <time>2014-03-24T15:23:43Z</time>
      </trkpt>
      <trkpt lat="42.70502" lon="2.01152">
        <ele>1605.54</ele>
        <time>2014-03-24T15:23:56Z</time>
      </trkpt>
      <trkpt lat="42.70508" lon="2.01138">
        <ele>1611.31</ele>
        <time>2014-03-24T15:24:08Z</time>
      </trkpt>
      <trkpt lat="42.70515" lon="2.01131">
        <ele>1609.86</ele>
        <time>2014-03-24T15:24:18Z</time>
      </trkpt>
      <trkpt lat="42.70521" lon="2.0113">
        <ele>1608.9</ele>
        <time>2014-03-24T15:24:28Z</time>
      </trkpt>
      <trkpt lat="42.70533" lon="2.01127">
        <ele>1610.83</ele>
        <time>2014-03-24T15:24:39Z</time>
      </trkpt>
      <trkpt lat="42.70541" lon="2.01126">
        <ele>1609.86</ele>
        <time>2014-03-24T15:24:49Z</time>
      </trkpt>
      <trkpt lat="42.70548" lon="2.01128">
        <ele>1608.9</ele>
        <time>2014-03-24T15:25:00Z</time>
      </trkpt>
      <trkpt lat="42.70556" lon="2.01133">
        <ele>1610.83</ele>
        <time>2014-03-24T15:25:06Z</time>
      </trkpt>
      <trkpt lat="42.70566" lon="2.01142">
        <ele>1612.75</ele>
        <time>2014-03-24T15:25:20Z</time>
      </trkpt>
      <trkpt lat="42.70569" lon="2.01145">
        <ele>1612.75</ele>
        <time>2014-03-24T15:25:25Z</time>
      </trkpt>
      <trkpt lat="42.70575" lon="2.01152">
        <ele>1612.75</ele>
        <time>2014-03-24T15:25:34Z</time>
      </trkpt>
      <trkpt lat="42.70582" lon="2.01162">
        <ele>1614.67</ele>
        <time>2014-03-24T15:25:46Z</time>
      </trkpt>
      <trkpt lat="42.70584" lon="2.01166">
        <ele>1615.63</ele>
        <time>2014-03-24T15:25:49Z</time>
      </trkpt>
      <trkpt lat="42.70592" lon="2.01175">
        <ele>1616.11</ele>
        <time>2014-03-24T15:26:03Z</time>
      </trkpt>
      <trkpt lat="42.70597" lon="2.01178">
        <ele>1617.07</ele>
        <time>2014-03-24T15:26:15Z</time>
      </trkpt>
      <trkpt lat="42.70606" lon="2.01179">
        <ele>1618.52</ele>
        <time>2014-03-24T15:26:36Z</time>
      </trkpt>
      <trkpt lat="42.70606" lon="2.01179">
        <ele>1625.25</ele>
        <time>2014-03-24T15:26:56Z</time>
      </trkpt>
      <trkpt lat="42.70603" lon="2.01181">
        <ele>1628.13</ele>
        <time>2014-03-24T15:27:23Z</time>
      </trkpt>
      <trkpt lat="42.70601" lon="2.01183">
        <ele>1625.25</ele>
        <time>2014-03-24T15:27:35Z</time>
      </trkpt>
      <trkpt lat="42.70606" lon="2.0119">
        <ele>1621.88</ele>
        <time>2014-03-24T15:27:44Z</time>
      </trkpt>
      <trkpt lat="42.7061" lon="2.01201">
        <ele>1620.92</ele>
        <time>2014-03-24T15:27:56Z</time>
      </trkpt>
      <trkpt lat="42.70616" lon="2.01212">
        <ele>1621.4</ele>
        <time>2014-03-24T15:28:07Z</time>
      </trkpt>
      <trkpt lat="42.70622" lon="2.01222">
        <ele>1620.92</ele>
        <time>2014-03-24T15:28:19Z</time>
      </trkpt>
      <trkpt lat="42.70622" lon="2.01223">
        <ele>1620.44</ele>
        <time>2014-03-24T15:28:21Z</time>
      </trkpt>
      <trkpt lat="42.70629" lon="2.01229">
        <ele>1624.77</ele>
        <time>2014-03-24T15:28:33Z</time>
      </trkpt>
      <trkpt lat="42.70638" lon="2.01232">
        <ele>1627.65</ele>
        <time>2014-03-24T15:28:44Z</time>
      </trkpt>
      <trkpt lat="42.70648" lon="2.01226">
        <ele>1631.01</ele>
        <time>2014-03-24T15:28:56Z</time>
      </trkpt>
      <trkpt lat="42.70651" lon="2.01219">
        <ele>1631.98</ele>
        <time>2014-03-24T15:29:05Z</time>
      </trkpt>
      <trkpt lat="42.70656" lon="2.01206">
        <ele>1633.42</ele>
        <time>2014-03-24T15:29:16Z</time>
      </trkpt>
      <trkpt lat="42.70665" lon="2.01201">
        <ele>1631.98</ele>
        <time>2014-03-24T15:29:29Z</time>
      </trkpt>
      <trkpt lat="42.70677" lon="2.01204">
        <ele>1633.42</ele>
        <time>2014-03-24T15:29:39Z</time>
      </trkpt>
      <trkpt lat="42.70689" lon="2.01209">
        <ele>1632.94</ele>
        <time>2014-03-24T15:29:51Z</time>
      </trkpt>
      <trkpt lat="42.70698" lon="2.01216">
        <ele>1630.53</ele>
        <time>2014-03-24T15:30:02Z</time>
      </trkpt>
      <trkpt lat="42.70706" lon="2.01227">
        <ele>1631.49</ele>
        <time>2014-03-24T15:30:14Z</time>
      </trkpt>
      <trkpt lat="42.7071" lon="2.01235">
        <ele>1630.05</ele>
        <time>2014-03-24T15:30:24Z</time>
      </trkpt>
      <trkpt lat="42.70716" lon="2.01241">
        <ele>1627.17</ele>
        <time>2014-03-24T15:30:34Z</time>
      </trkpt>
      <trkpt lat="42.70724" lon="2.0125">
        <ele>1625.25</ele>
        <time>2014-03-24T15:30:48Z</time>
      </trkpt>
      <trkpt lat="42.70731" lon="2.0126">
        <ele>1624.77</ele>
        <time>2014-03-24T15:31:02Z</time>
      </trkpt>
      <trkpt lat="42.70735" lon="2.01264">
        <ele>1624.77</ele>
        <time>2014-03-24T15:31:08Z</time>
      </trkpt>
      <trkpt lat="42.70744" lon="2.01275">
        <ele>1629.09</ele>
        <time>2014-03-24T15:31:19Z</time>
      </trkpt>
      <trkpt lat="42.70753" lon="2.01285">
        <ele>1629.57</ele>
        <time>2014-03-24T15:31:32Z</time>
      </trkpt>
      <trkpt lat="42.70757" lon="2.0129">
        <ele>1632.46</ele>
        <time>2014-03-24T15:31:37Z</time>
      </trkpt>
      <trkpt lat="42.70767" lon="2.013">
        <ele>1635.34</ele>
        <time>2014-03-24T15:31:50Z</time>
      </trkpt>
      <trkpt lat="42.70775" lon="2.01312">
        <ele>1635.34</ele>
        <time>2014-03-24T15:32:03Z</time>
      </trkpt>
      <trkpt lat="42.70782" lon="2.0132">
        <ele>1634.86</ele>
        <time>2014-03-24T15:32:14Z</time>
      </trkpt>
      <trkpt lat="42.70789" lon="2.01328">
        <ele>1636.3</ele>
        <time>2014-03-24T15:32:24Z</time>
      </trkpt>
      <trkpt lat="42.70799" lon="2.01336">
        <ele>1641.11</ele>
        <time>2014-03-24T15:32:36Z</time>
      </trkpt>
      <trkpt lat="42.70809" lon="2.01346">
        <ele>1644.95</ele>
        <time>2014-03-24T15:32:49Z</time>
      </trkpt>
      <trkpt lat="42.70818" lon="2.01351">
        <ele>1641.11</ele>
        <time>2014-03-24T15:33:01Z</time>
      </trkpt>
      <trkpt lat="42.70828" lon="2.01357">
        <ele>1634.86</ele>
        <time>2014-03-24T15:33:14Z</time>
      </trkpt>
      <trkpt lat="42.70835" lon="2.01362">
        <ele>1627.17</ele>
        <time>2014-03-24T15:33:26Z</time>
      </trkpt>
      <trkpt lat="42.70844" lon="2.01372">
        <ele>1628.13</ele>
        <time>2014-03-24T15:33:37Z</time>
      </trkpt>
      <trkpt lat="42.70851" lon="2.0138">
        <ele>1630.05</ele>
        <time>2014-03-24T15:33:48Z</time>
      </trkpt>
      <trkpt lat="42.70858" lon="2.01392">
        <ele>1630.53</ele>
        <time>2014-03-24T15:34:00Z</time>
      </trkpt>
      <trkpt lat="42.70865" lon="2.01403">
        <ele>1632.46</ele>
        <time>2014-03-24T15:34:11Z</time>
      </trkpt>
      <trkpt lat="42.70866" lon="2.01405">
        <ele>1632.94</ele>
        <time>2014-03-24T15:34:13Z</time>
      </trkpt>
      <trkpt lat="42.70874" lon="2.01421">
        <ele>1638.22</ele>
        <time>2014-03-24T15:34:25Z</time>
      </trkpt>
      <trkpt lat="42.7088" lon="2.01437">
        <ele>1643.03</ele>
        <time>2014-03-24T15:34:37Z</time>
      </trkpt>
      <trkpt lat="42.70884" lon="2.01451">
        <ele>1642.07</ele>
        <time>2014-03-24T15:34:47Z</time>
      </trkpt>
      <trkpt lat="42.70888" lon="2.0147">
        <ele>1645.43</ele>
        <time>2014-03-24T15:35:00Z</time>
      </trkpt>
      <trkpt lat="42.7089" lon="2.01476">
        <ele>1647.36</ele>
        <time>2014-03-24T15:35:04Z</time>
      </trkpt>
      <trkpt lat="42.70896" lon="2.01503">
        <ele>1658.89</ele>
        <time>2014-03-24T15:35:20Z</time>
      </trkpt>
      <trkpt lat="42.709" lon="2.01521">
        <ele>1660.33</ele>
        <time>2014-03-24T15:35:34Z</time>
      </trkpt>
      <trkpt lat="42.709" lon="2.01522">
        <ele>1659.85</ele>
        <time>2014-03-24T15:35:35Z</time>
      </trkpt>
      <trkpt lat="42.70904" lon="2.01539">
        <ele>1657.45</ele>
        <time>2014-03-24T15:35:47Z</time>
      </trkpt>
      <trkpt lat="42.70909" lon="2.01554">
        <ele>1654.57</ele>
        <time>2014-03-24T15:36:00Z</time>
      </trkpt>
      <trkpt lat="42.70916" lon="2.01566">
        <ele>1651.68</ele>
        <time>2014-03-24T15:36:13Z</time>
      </trkpt>
      <trkpt lat="42.70922" lon="2.01574">
        <ele>1650.72</ele>
        <time>2014-03-24T15:36:22Z</time>
      </trkpt>
      <trkpt lat="42.70931" lon="2.01585">
        <ele>1651.68</ele>
        <time>2014-03-24T15:36:34Z</time>
      </trkpt>
      <trkpt lat="42.7094" lon="2.01596">
        <ele>1650.24</ele>
        <time>2014-03-24T15:36:47Z</time>
      </trkpt>
      <trkpt lat="42.70946" lon="2.01604">
        <ele>1649.28</ele>
        <time>2014-03-24T15:36:58Z</time>
      </trkpt>
      <trkpt lat="42.70954" lon="2.01613">
        <ele>1645.43</ele>
        <time>2014-03-24T15:37:11Z</time>
      </trkpt>
      <trkpt lat="42.70959" lon="2.01622">
        <ele>1643.99</ele>
        <time>2014-03-24T15:37:22Z</time>
      </trkpt>
      <trkpt lat="42.70967" lon="2.01631">
        <ele>1643.99</ele>
        <time>2014-03-24T15:37:34Z</time>
      </trkpt>
      <trkpt lat="42.70975" lon="2.01638">
        <ele>1642.07</ele>
        <time>2014-03-24T15:37:46Z</time>
      </trkpt>
      <trkpt lat="42.70988" lon="2.01647">
        <ele>1643.03</ele>
        <time>2014-03-24T15:37:57Z</time>
      </trkpt>
      <trkpt lat="42.70991" lon="2.0165">
        <ele>1645.91</ele>
        <time>2014-03-24T15:38:00Z</time>
      </trkpt>
      <trkpt lat="42.71008" lon="2.01659">
        <ele>1653.6</ele>
        <time>2014-03-24T15:38:13Z</time>
      </trkpt>
      <trkpt lat="42.71022" lon="2.01663">
        <ele>1656.49</ele>
        <time>2014-03-24T15:38:26Z</time>
      </trkpt>
      <trkpt lat="42.7103" lon="2.0166">
        <ele>1656.97</ele>
        <time>2014-03-24T15:38:34Z</time>
      </trkpt>
      <trkpt lat="42.7104" lon="2.01656">
        <ele>1656.01</ele>
        <time>2014-03-24T15:38:45Z</time>
      </trkpt>
      <trkpt lat="42.71047" lon="2.01649">
        <ele>1656.01</ele>
        <time>2014-03-24T15:38:55Z</time>
      </trkpt>
      <trkpt lat="42.7106" lon="2.01641">
        <ele>1658.41</ele>
        <time>2014-03-24T15:39:07Z</time>
      </trkpt>
      <trkpt lat="42.71065" lon="2.01632">
        <ele>1657.45</ele>
        <time>2014-03-24T15:39:15Z</time>
      </trkpt>
      <trkpt lat="42.71076" lon="2.0162">
        <ele>1658.89</ele>
        <time>2014-03-24T15:39:28Z</time>
      </trkpt>
      <trkpt lat="42.71078" lon="2.01615">
        <ele>1658.89</ele>
        <time>2014-03-24T15:39:33Z</time>
      </trkpt>
      <trkpt lat="42.71088" lon="2.01601">
        <ele>1657.93</ele>
        <time>2014-03-24T15:39:47Z</time>
      </trkpt>
      <trkpt lat="42.71103" lon="2.01598">
        <ele>1655.53</ele>
        <time>2014-03-24T15:40:01Z</time>
      </trkpt>
      <trkpt lat="42.71111" lon="2.01592">
        <ele>1651.68</ele>
        <time>2014-03-24T15:40:11Z</time>
      </trkpt>
      <trkpt lat="42.71124" lon="2.01592">
        <ele>1651.68</ele>
        <time>2014-03-24T15:40:22Z</time>
      </trkpt>
      <trkpt lat="42.71135" lon="2.01592">
        <ele>1643.99</ele>
        <time>2014-03-24T15:40:35Z</time>
      </trkpt>
      <trkpt lat="42.71147" lon="2.01593">
        <ele>1636.3</ele>
        <time>2014-03-24T15:40:47Z</time>
      </trkpt>
      <trkpt lat="42.71152" lon="2.01594">
        <ele>1635.34</ele>
        <time>2014-03-24T15:40:51Z</time>
      </trkpt>
      <trkpt lat="42.71169" lon="2.01604">
        <ele>1641.59</ele>
        <time>2014-03-24T15:41:03Z</time>
      </trkpt>
      <trkpt lat="42.71181" lon="2.01611">
        <ele>1643.99</ele>
        <time>2014-03-24T15:41:13Z</time>
      </trkpt>
      <trkpt lat="42.71194" lon="2.01616">
        <ele>1643.51</ele>
        <time>2014-03-24T15:41:26Z</time>
      </trkpt>
      <trkpt lat="42.71211" lon="2.01623">
        <ele>1640.15</ele>
        <time>2014-03-24T15:41:40Z</time>
      </trkpt>
      <trkpt lat="42.71227" lon="2.01632">
        <ele>1641.11</ele>
        <time>2014-03-24T15:41:52Z</time>
      </trkpt>
      <trkpt lat="42.7123" lon="2.01637">
        <ele>1645.43</ele>
        <time>2014-03-24T15:41:54Z</time>
      </trkpt>
      <trkpt lat="42.71235" lon="2.01642">
        <ele>1648.32</ele>
        <time>2014-03-24T15:41:59Z</time>
      </trkpt>
      <trkpt lat="42.71249" lon="2.01651">
        <ele>1650.24</ele>
        <time>2014-03-24T15:42:13Z</time>
      </trkpt>
      <trkpt lat="42.71262" lon="2.01659">
        <ele>1650.72</ele>
        <time>2014-03-24T15:42:26Z</time>
      </trkpt>
      <trkpt lat="42.71276" lon="2.01664">
        <ele>1646.88</ele>
        <time>2014-03-24T15:42:38Z</time>
      </trkpt>
      <trkpt lat="42.71284" lon="2.01668">
        <ele>1647.36</ele>
        <time>2014-03-24T15:42:50Z</time>
      </trkpt>
      <trkpt lat="42.71287" lon="2.01673">
        <ele>1650.24</ele>
        <time>2014-03-24T15:43:10Z</time>
      </trkpt>
      <trkpt lat="42.71296" lon="2.01676">
        <ele>1653.6</ele>
        <time>2014-03-24T15:43:30Z</time>
      </trkpt>
      <trkpt lat="42.71308" lon="2.01683">
        <ele>1654.57</ele>
        <time>2014-03-24T15:43:42Z</time>
      </trkpt>
      <trkpt lat="42.71319" lon="2.01688">
        <ele>1652.16</ele>
        <time>2014-03-24T15:43:53Z</time>
      </trkpt>
      <trkpt lat="42.71331" lon="2.01692">
        <ele>1651.2</ele>
        <time>2014-03-24T15:44:04Z</time>
      </trkpt>
      <trkpt lat="42.71343" lon="2.01695">
        <ele>1649.76</ele>
        <time>2014-03-24T15:44:15Z</time>
      </trkpt>
      <trkpt lat="42.71359" lon="2.01692">
        <ele>1645.43</ele>
        <time>2014-03-24T15:44:27Z</time>
      </trkpt>
      <trkpt lat="42.71373" lon="2.01693">
        <ele>1648.32</ele>
        <time>2014-03-24T15:44:37Z</time>
      </trkpt>
      <trkpt lat="42.71386" lon="2.01689">
        <ele>1646.4</ele>
        <time>2014-03-24T15:44:48Z</time>
      </trkpt>
      <trkpt lat="42.7139" lon="2.01687">
        <ele>1647.36</ele>
        <time>2014-03-24T15:44:51Z</time>
      </trkpt>
      <trkpt lat="42.71394" lon="2.01684">
        <ele>1646.88</ele>
        <time>2014-03-24T15:44:55Z</time>
      </trkpt>
      <trkpt lat="42.71409" lon="2.01676">
        <ele>1644.47</ele>
        <time>2014-03-24T15:45:08Z</time>
      </trkpt>
      <trkpt lat="42.71422" lon="2.01673">
        <ele>1645.43</ele>
        <time>2014-03-24T15:45:20Z</time>
      </trkpt>
      <trkpt lat="42.71437" lon="2.01669">
        <ele>1647.36</ele>
        <time>2014-03-24T15:45:31Z</time>
      </trkpt>
      <trkpt lat="42.71448" lon="2.01665">
        <ele>1648.8</ele>
        <time>2014-03-24T15:45:42Z</time>
      </trkpt>
      <trkpt lat="42.7146" lon="2.01663">
        <ele>1650.72</ele>
        <time>2014-03-24T15:45:54Z</time>
      </trkpt>
      <trkpt lat="42.71475" lon="2.01662">
        <ele>1652.64</ele>
        <time>2014-03-24T15:46:05Z</time>
      </trkpt>
      <trkpt lat="42.71479" lon="2.01661">
        <ele>1653.6</ele>
        <time>2014-03-24T15:46:09Z</time>
      </trkpt>
      <trkpt lat="42.71494" lon="2.0166">
        <ele>1658.41</ele>
        <time>2014-03-24T15:46:21Z</time>
      </trkpt>
      <trkpt lat="42.71509" lon="2.01657">
        <ele>1660.33</ele>
        <time>2014-03-24T15:46:34Z</time>
      </trkpt>
      <trkpt lat="42.71519" lon="2.01651">
        <ele>1659.37</ele>
        <time>2014-03-24T15:46:45Z</time>
      </trkpt>
      <trkpt lat="42.71533" lon="2.01642">
        <ele>1659.85</ele>
        <time>2014-03-24T15:46:58Z</time>
      </trkpt>
      <trkpt lat="42.71541" lon="2.01634">
        <ele>1660.81</ele>
        <time>2014-03-24T15:47:08Z</time>
      </trkpt>
      <trkpt lat="42.71552" lon="2.01627">
        <ele>1660.33</ele>
        <time>2014-03-24T15:47:20Z</time>
      </trkpt>
      <trkpt lat="42.71561" lon="2.01621">
        <ele>1661.3</ele>
        <time>2014-03-24T15:47:30Z</time>
      </trkpt>
      <trkpt lat="42.71571" lon="2.0161">
        <ele>1661.3</ele>
        <time>2014-03-24T15:47:43Z</time>
      </trkpt>
      <trkpt lat="42.71583" lon="2.01602">
        <ele>1660.81</ele>
        <time>2014-03-24T15:47:55Z</time>
      </trkpt>
      <trkpt lat="42.71589" lon="2.01596">
        <ele>1662.74</ele>
        <time>2014-03-24T15:48:09Z</time>
      </trkpt>
      <trkpt lat="42.71595" lon="2.01592">
        <ele>1662.74</ele>
        <time>2014-03-24T15:48:16Z</time>
      </trkpt>
      <trkpt lat="42.71604" lon="2.01582">
        <ele>1664.18</ele>
        <time>2014-03-24T15:48:29Z</time>
      </trkpt>
      <trkpt lat="42.71621" lon="2.01573">
        <ele>1666.1</ele>
        <time>2014-03-24T15:48:43Z</time>
      </trkpt>
      <trkpt lat="42.71631" lon="2.01565">
        <ele>1665.14</ele>
        <time>2014-03-24T15:48:55Z</time>
      </trkpt>
      <trkpt lat="42.71643" lon="2.01554">
        <ele>1664.18</ele>
        <time>2014-03-24T15:49:08Z</time>
      </trkpt>
      <trkpt lat="42.71654" lon="2.01545">
        <ele>1664.66</ele>
        <time>2014-03-24T15:49:20Z</time>
      </trkpt>
      <trkpt lat="42.71666" lon="2.01539">
        <ele>1666.1</ele>
        <time>2014-03-24T15:49:32Z</time>
      </trkpt>
      <trkpt lat="42.71674" lon="2.01536">
        <ele>1665.14</ele>
        <time>2014-03-24T15:49:40Z</time>
      </trkpt>
      <trkpt lat="42.71686" lon="2.01534">
        <ele>1666.1</ele>
        <time>2014-03-24T15:49:52Z</time>
      </trkpt>
      <trkpt lat="42.71693" lon="2.01532">
        <ele>1667.06</ele>
        <time>2014-03-24T15:50:02Z</time>
      </trkpt>
      <trkpt lat="42.71701" lon="2.01532">
        <ele>1666.58</ele>
        <time>2014-03-24T15:50:09Z</time>
      </trkpt>
      <trkpt lat="42.71705" lon="2.01531">
        <ele>1665.14</ele>
        <time>2014-03-24T15:50:13Z</time>
      </trkpt>
      <trkpt lat="42.71719" lon="2.0153">
        <ele>1663.22</ele>
        <time>2014-03-24T15:50:25Z</time>
      </trkpt>
      <trkpt lat="42.71731" lon="2.01523">
        <ele>1661.3</ele>
        <time>2014-03-24T15:50:37Z</time>
      </trkpt>
      <trkpt lat="42.71744" lon="2.01523">
        <ele>1662.26</ele>
        <time>2014-03-24T15:50:49Z</time>
      </trkpt>
      <trkpt lat="42.71756" lon="2.0152">
        <ele>1662.74</ele>
        <time>2014-03-24T15:51:03Z</time>
      </trkpt>
      <trkpt lat="42.71768" lon="2.01518">
        <ele>1665.14</ele>
        <time>2014-03-24T15:51:16Z</time>
      </trkpt>
      <trkpt lat="42.7178" lon="2.01516">
        <ele>1666.1</ele>
        <time>2014-03-24T15:51:29Z</time>
      </trkpt>
      <trkpt lat="42.71793" lon="2.01518">
        <ele>1666.58</ele>
        <time>2014-03-24T15:51:42Z</time>
      </trkpt>
      <trkpt lat="42.71803" lon="2.01522">
        <ele>1668.51</ele>
        <time>2014-03-24T15:51:53Z</time>
      </trkpt>
      <trkpt lat="42.71811" lon="2.01525">
        <ele>1668.51</ele>
        <time>2014-03-24T15:52:02Z</time>
      </trkpt>
      <trkpt lat="42.71826" lon="2.01532">
        <ele>1668.51</ele>
        <time>2014-03-24T15:52:17Z</time>
      </trkpt>
      <trkpt lat="42.71832" lon="2.01534">
        <ele>1667.06</ele>
        <time>2014-03-24T15:52:23Z</time>
      </trkpt>
      <trkpt lat="42.71845" lon="2.01539">
        <ele>1665.62</ele>
        <time>2014-03-24T15:52:35Z</time>
      </trkpt>
      <trkpt lat="42.71854" lon="2.01544">
        <ele>1666.1</ele>
        <time>2014-03-24T15:52:46Z</time>
      </trkpt>
      <trkpt lat="42.71871" lon="2.01551">
        <ele>1667.54</ele>
        <time>2014-03-24T15:53:00Z</time>
      </trkpt>
      <trkpt lat="42.71875" lon="2.01552">
        <ele>1668.02</ele>
        <time>2014-03-24T15:53:04Z</time>
      </trkpt>
      <trkpt lat="42.71889" lon="2.01547">
        <ele>1667.54</ele>
        <time>2014-03-24T15:53:17Z</time>
      </trkpt>
      <trkpt lat="42.71889" lon="2.01546">
        <ele>1668.02</ele>
        <time>2014-03-24T15:53:18Z</time>
      </trkpt>
      <trkpt lat="42.71898" lon="2.01537">
        <ele>1669.95</ele>
        <time>2014-03-24T15:53:28Z</time>
      </trkpt>
      <trkpt lat="42.71907" lon="2.01529">
        <ele>1668.99</ele>
        <time>2014-03-24T15:53:40Z</time>
      </trkpt>
      <trkpt lat="42.7191" lon="2.01524">
        <ele>1668.02</ele>
        <time>2014-03-24T15:53:44Z</time>
      </trkpt>
      <trkpt lat="42.71915" lon="2.0152">
        <ele>1668.02</ele>
        <time>2014-03-24T15:53:48Z</time>
      </trkpt>
      <trkpt lat="42.71928" lon="2.01507">
        <ele>1668.99</ele>
        <time>2014-03-24T15:54:01Z</time>
      </trkpt>
      <trkpt lat="42.71937" lon="2.015">
        <ele>1669.47</ele>
        <time>2014-03-24T15:54:11Z</time>
      </trkpt>
      <trkpt lat="42.71948" lon="2.01488">
        <ele>1669.95</ele>
        <time>2014-03-24T15:54:23Z</time>
      </trkpt>
      <trkpt lat="42.71957" lon="2.01477">
        <ele>1668.51</ele>
        <time>2014-03-24T15:54:35Z</time>
      </trkpt>
      <trkpt lat="42.71959" lon="2.01474">
        <ele>1668.02</ele>
        <time>2014-03-24T15:54:38Z</time>
      </trkpt>
      <trkpt lat="42.71977" lon="2.01454">
        <ele>1668.99</ele>
        <time>2014-03-24T15:54:53Z</time>
      </trkpt>
      <trkpt lat="42.71983" lon="2.01446">
        <ele>1668.02</ele>
        <time>2014-03-24T15:55:01Z</time>
      </trkpt>
      <trkpt lat="42.7199" lon="2.01426">
        <ele>1665.14</ele>
        <time>2014-03-24T15:55:14Z</time>
      </trkpt>
      <trkpt lat="42.71999" lon="2.01411">
        <ele>1665.62</ele>
        <time>2014-03-24T15:55:26Z</time>
      </trkpt>
      <trkpt lat="42.72001" lon="2.01407">
        <ele>1664.66</ele>
        <time>2014-03-24T15:55:30Z</time>
      </trkpt>
      <trkpt lat="42.72008" lon="2.01387">
        <ele>1664.18</ele>
        <time>2014-03-24T15:55:43Z</time>
      </trkpt>
      <trkpt lat="42.72016" lon="2.01368">
        <ele>1660.81</ele>
        <time>2014-03-24T15:55:56Z</time>
      </trkpt>
      <trkpt lat="42.72019" lon="2.01367">
        <ele>1661.3</ele>
        <time>2014-03-24T15:55:59Z</time>
      </trkpt>
      <trkpt lat="42.72021" lon="2.01363">
        <ele>1661.3</ele>
        <time>2014-03-24T15:56:03Z</time>
      </trkpt>
      <trkpt lat="42.72028" lon="2.01346">
        <ele>1661.78</ele>
        <time>2014-03-24T15:56:13Z</time>
      </trkpt>
      <trkpt lat="42.72039" lon="2.01331">
        <ele>1661.78</ele>
        <time>2014-03-24T15:56:25Z</time>
      </trkpt>
      <trkpt lat="42.72048" lon="2.01317">
        <ele>1662.26</ele>
        <time>2014-03-24T15:56:37Z</time>
      </trkpt>
      <trkpt lat="42.72062" lon="2.01303">
        <ele>1661.3</ele>
        <time>2014-03-24T15:56:51Z</time>
      </trkpt>
      <trkpt lat="42.72076" lon="2.01292">
        <ele>1662.74</ele>
        <time>2014-03-24T15:57:04Z</time>
      </trkpt>
      <trkpt lat="42.7208" lon="2.01291">
        <ele>1664.66</ele>
        <time>2014-03-24T15:57:18Z</time>
      </trkpt>
      <trkpt lat="42.72094" lon="2.01282">
        <ele>1666.1</ele>
        <time>2014-03-24T15:57:30Z</time>
      </trkpt>
      <trkpt lat="42.721" lon="2.01277">
        <ele>1668.02</ele>
        <time>2014-03-24T15:57:38Z</time>
      </trkpt>
      <trkpt lat="42.72105" lon="2.01269">
        <ele>1666.1</ele>
        <time>2014-03-24T15:57:46Z</time>
      </trkpt>
      <trkpt lat="42.72111" lon="2.01259">
        <ele>1664.66</ele>
        <time>2014-03-24T15:57:59Z</time>
      </trkpt>
      <trkpt lat="42.72115" lon="2.01238">
        <ele>1666.58</ele>
        <time>2014-03-24T15:58:11Z</time>
      </trkpt>
      <trkpt lat="42.72124" lon="2.0123">
        <ele>1665.14</ele>
        <time>2014-03-24T15:58:23Z</time>
      </trkpt>
      <trkpt lat="42.72135" lon="2.0123">
        <ele>1663.7</ele>
        <time>2014-03-24T15:58:33Z</time>
      </trkpt>
      <trkpt lat="42.72145" lon="2.0123">
        <ele>1664.18</ele>
        <time>2014-03-24T15:58:43Z</time>
      </trkpt>
      <trkpt lat="42.72153" lon="2.01234">
        <ele>1665.14</ele>
        <time>2014-03-24T15:58:55Z</time>
      </trkpt>
      <trkpt lat="42.72163" lon="2.01238">
        <ele>1666.58</ele>
        <time>2014-03-24T15:59:07Z</time>
      </trkpt>
      <trkpt lat="42.72179" lon="2.01243">
        <ele>1666.1</ele>
        <time>2014-03-24T15:59:18Z</time>
      </trkpt>
      <trkpt lat="42.72189" lon="2.01245">
        <ele>1666.58</ele>
        <time>2014-03-24T15:59:30Z</time>
      </trkpt>
      <trkpt lat="42.72192" lon="2.01244">
        <ele>1665.62</ele>
        <time>2014-03-24T15:59:33Z</time>
      </trkpt>
      <trkpt lat="42.72204" lon="2.01245">
        <ele>1664.66</ele>
        <time>2014-03-24T15:59:44Z</time>
      </trkpt>
      <trkpt lat="42.72211" lon="2.01242">
        <ele>1664.66</ele>
        <time>2014-03-24T15:59:52Z</time>
      </trkpt>
      <trkpt lat="42.72222" lon="2.01242">
        <ele>1662.74</ele>
        <time>2014-03-24T16:00:03Z</time>
      </trkpt>
      <trkpt lat="42.72234" lon="2.01248">
        <ele>1665.14</ele>
        <time>2014-03-24T16:00:15Z</time>
      </trkpt>
      <trkpt lat="42.72245" lon="2.01254">
        <ele>1665.62</ele>
        <time>2014-03-24T16:00:26Z</time>
      </trkpt>
      <trkpt lat="42.72259" lon="2.01263">
        <ele>1666.1</ele>
        <time>2014-03-24T16:00:38Z</time>
      </trkpt>
      <trkpt lat="42.72268" lon="2.01272">
        <ele>1670.43</ele>
        <time>2014-03-24T16:00:50Z</time>
      </trkpt>
      <trkpt lat="42.72274" lon="2.01279">
        <ele>1670.91</ele>
        <time>2014-03-24T16:00:59Z</time>
      </trkpt>
      <trkpt lat="42.72282" lon="2.01291">
        <ele>1668.02</ele>
        <time>2014-03-24T16:01:12Z</time>
      </trkpt>
      <trkpt lat="42.72285" lon="2.01296">
        <ele>1666.1</ele>
        <time>2014-03-24T16:01:17Z</time>
      </trkpt>
      <trkpt lat="42.72288" lon="2.01301">
        <ele>1665.62</ele>
        <time>2014-03-24T16:01:22Z</time>
      </trkpt>
      <trkpt lat="42.72295" lon="2.01312">
        <ele>1663.22</ele>
        <time>2014-03-24T16:01:34Z</time>
      </trkpt>
      <trkpt lat="42.72301" lon="2.01327">
        <ele>1666.1</ele>
        <time>2014-03-24T16:01:47Z</time>
      </trkpt>
      <trkpt lat="42.72307" lon="2.0133">
        <ele>1669.47</ele>
        <time>2014-03-24T16:01:57Z</time>
      </trkpt>
      <trkpt lat="42.72307" lon="2.01326">
        <ele>1671.87</ele>
        <time>2014-03-24T16:02:09Z</time>
      </trkpt>
      <trkpt lat="42.72308" lon="2.01325">
        <ele>1672.35</ele>
        <time>2014-03-24T16:02:14Z</time>
      </trkpt>
      <trkpt lat="42.7231" lon="2.01318">
        <ele>1672.83</ele>
        <time>2014-03-24T16:02:20Z</time>
      </trkpt>
      <trkpt lat="42.72309" lon="2.013">
        <ele>1674.27</ele>
        <time>2014-03-24T16:02:33Z</time>
      </trkpt>
      <trkpt lat="42.72306" lon="2.01289">
        <ele>1674.27</ele>
        <time>2014-03-24T16:02:43Z</time>
      </trkpt>
      <trkpt lat="42.72301" lon="2.0127">
        <ele>1673.31</ele>
        <time>2014-03-24T16:02:58Z</time>
      </trkpt>
      <trkpt lat="42.72301" lon="2.01269">
        <ele>1673.31</ele>
        <time>2014-03-24T16:03:11Z</time>
      </trkpt>
      <trkpt lat="42.72302" lon="2.01271">
        <ele>1677.16</ele>
        <time>2014-03-24T16:03:32Z</time>
      </trkpt>
      <trkpt lat="42.72303" lon="2.01268">
        <ele>1681.48</ele>
        <time>2014-03-24T16:04:06Z</time>
      </trkpt>
      <trkpt lat="42.72301" lon="2.01269">
        <ele>1681.96</ele>
        <time>2014-03-24T16:04:33Z</time>
      </trkpt>
      <trkpt lat="42.72299" lon="2.01267">
        <ele>1679.08</ele>
        <time>2014-03-24T16:05:11Z</time>
      </trkpt>
      <trkpt lat="42.72298" lon="2.01268">
        <ele>1679.56</ele>
        <time>2014-03-24T16:05:14Z</time>
      </trkpt>
      <trkpt lat="42.72303" lon="2.01275">
        <ele>1677.64</ele>
        <time>2014-03-24T16:05:29Z</time>
      </trkpt>
      <trkpt lat="42.72306" lon="2.01273">
        <ele>1680.04</ele>
        <time>2014-03-24T16:06:07Z</time>
      </trkpt>
      <trkpt lat="42.72306" lon="2.01274">
        <ele>1681</ele>
        <time>2014-03-24T16:06:43Z</time>
      </trkpt>
      <trkpt lat="42.72307" lon="2.01276">
        <ele>1677.16</ele>
        <time>2014-03-24T16:07:14Z</time>
      </trkpt>
      <trkpt lat="42.72303" lon="2.01272">
        <ele>1673.79</ele>
        <time>2014-03-24T16:07:49Z</time>
      </trkpt>
      <trkpt lat="42.72302" lon="2.01272">
        <ele>1675.23</ele>
        <time>2014-03-24T16:08:25Z</time>
      </trkpt>
      <trkpt lat="42.72302" lon="2.01271">
        <ele>1676.68</ele>
        <time>2014-03-24T16:09:06Z</time>
      </trkpt>
      <trkpt lat="42.72307" lon="2.01271">
        <ele>1678.6</ele>
        <time>2014-03-24T16:09:46Z</time>
      </trkpt>
      <trkpt lat="42.72305" lon="2.0127">
        <ele>1679.56</ele>
        <time>2014-03-24T16:09:58Z</time>
      </trkpt>
      <trkpt lat="42.72301" lon="2.01273">
        <ele>1679.08</ele>
        <time>2014-03-24T16:10:20Z</time>
      </trkpt>
      <trkpt lat="42.72296" lon="2.01269">
        <ele>1679.56</ele>
        <time>2014-03-24T16:10:33Z</time>
      </trkpt>
      <trkpt lat="42.72295" lon="2.01256">
        <ele>1677.64</ele>
        <time>2014-03-24T16:10:39Z</time>
      </trkpt>
      <trkpt lat="42.72294" lon="2.01245">
        <ele>1677.16</ele>
        <time>2014-03-24T16:10:43Z</time>
      </trkpt>
      <trkpt lat="42.72293" lon="2.01242">
        <ele>1677.16</ele>
        <time>2014-03-24T16:10:44Z</time>
      </trkpt>
      <trkpt lat="42.72293" lon="2.01239">
        <ele>1677.16</ele>
        <time>2014-03-24T16:10:45Z</time>
      </trkpt>
      <trkpt lat="42.72293" lon="2.01236">
        <ele>1677.16</ele>
        <time>2014-03-24T16:10:46Z</time>
      </trkpt>
      <trkpt lat="42.72293" lon="2.01232">
        <ele>1677.64</ele>
        <time>2014-03-24T16:10:47Z</time>
      </trkpt>
      <trkpt lat="42.72293" lon="2.0123">
        <ele>1677.16</ele>
        <time>2014-03-24T16:10:48Z</time>
      </trkpt>
      <trkpt lat="42.72292" lon="2.0122">
        <ele>1678.12</ele>
        <time>2014-03-24T16:11:01Z</time>
      </trkpt>
      <trkpt lat="42.72294" lon="2.0121">
        <ele>1678.6</ele>
        <time>2014-03-24T16:11:07Z</time>
      </trkpt>
      <trkpt lat="42.72299" lon="2.01206">
        <ele>1678.12</ele>
        <time>2014-03-24T16:11:10Z</time>
      </trkpt>
      <trkpt lat="42.72304" lon="2.01207">
        <ele>1677.16</ele>
        <time>2014-03-24T16:11:12Z</time>
      </trkpt>
      <trkpt lat="42.72307" lon="2.0121">
        <ele>1676.2</ele>
        <time>2014-03-24T16:11:13Z</time>
      </trkpt>
      <trkpt lat="42.72313" lon="2.01212">
        <ele>1675.23</ele>
        <time>2014-03-24T16:11:15Z</time>
      </trkpt>
      <trkpt lat="42.72323" lon="2.01218">
        <ele>1674.27</ele>
        <time>2014-03-24T16:11:18Z</time>
      </trkpt>
      <trkpt lat="42.72336" lon="2.01224">
        <ele>1673.31</ele>
        <time>2014-03-24T16:11:21Z</time>
      </trkpt>
      <trkpt lat="42.72363" lon="2.01238">
        <ele>1671.39</ele>
        <time>2014-03-24T16:11:27Z</time>
      </trkpt>
      <trkpt lat="42.72367" lon="2.01241">
        <ele>1670.91</ele>
        <time>2014-03-24T16:11:28Z</time>
      </trkpt>
      <trkpt lat="42.72395" lon="2.01258">
        <ele>1668.51</ele>
        <time>2014-03-24T16:11:34Z</time>
      </trkpt>
      <trkpt lat="42.724" lon="2.01262">
        <ele>1668.51</ele>
        <time>2014-03-24T16:11:35Z</time>
      </trkpt>
      <trkpt lat="42.72404" lon="2.01268">
        <ele>1668.02</ele>
        <time>2014-03-24T16:11:36Z</time>
      </trkpt>
      <trkpt lat="42.72417" lon="2.0129">
        <ele>1667.54</ele>
        <time>2014-03-24T16:11:39Z</time>
      </trkpt>
      <trkpt lat="42.72427" lon="2.01309">
        <ele>1667.06</ele>
        <time>2014-03-24T16:11:41Z</time>
      </trkpt>
      <trkpt lat="42.72431" lon="2.01316">
        <ele>1666.1</ele>
        <time>2014-03-24T16:11:42Z</time>
      </trkpt>
      <trkpt lat="42.72446" lon="2.01341">
        <ele>1655.05</ele>
        <time>2014-03-24T16:11:49Z</time>
      </trkpt>
      <trkpt lat="42.72446" lon="2.01342">
        <ele>1654.57</ele>
        <time>2014-03-24T16:11:50Z</time>
      </trkpt>
      <trkpt lat="42.72451" lon="2.01353">
        <ele>1650.72</ele>
        <time>2014-03-24T16:11:56Z</time>
      </trkpt>
      <trkpt lat="42.72463" lon="2.01364">
        <ele>1647.84</ele>
        <time>2014-03-24T16:11:59Z</time>
      </trkpt>
      <trkpt lat="42.72492" lon="2.01375">
        <ele>1641.59</ele>
        <time>2014-03-24T16:12:03Z</time>
      </trkpt>
      <trkpt lat="42.72521" lon="2.01372">
        <ele>1633.9</ele>
        <time>2014-03-24T16:12:06Z</time>
      </trkpt>
      <trkpt lat="42.72547" lon="2.01368">
        <ele>1630.53</ele>
        <time>2014-03-24T16:12:11Z</time>
      </trkpt>
      <trkpt lat="42.72566" lon="2.01381">
        <ele>1624.28</ele>
        <time>2014-03-24T16:12:18Z</time>
      </trkpt>
      <trkpt lat="42.7257" lon="2.01383">
        <ele>1622.84</ele>
        <time>2014-03-24T16:12:19Z</time>
      </trkpt>
      <trkpt lat="42.72598" lon="2.01401">
        <ele>1613.71</ele>
        <time>2014-03-24T16:12:26Z</time>
      </trkpt>
      <trkpt lat="42.72621" lon="2.01428">
        <ele>1602.66</ele>
        <time>2014-03-24T16:12:32Z</time>
      </trkpt>
      <trkpt lat="42.72633" lon="2.01447">
        <ele>1594.48</ele>
        <time>2014-03-24T16:12:36Z</time>
      </trkpt>
      <trkpt lat="42.72665" lon="2.01493">
        <ele>1576.22</ele>
        <time>2014-03-24T16:12:44Z</time>
      </trkpt>
      <trkpt lat="42.72685" lon="2.01522">
        <ele>1567.09</ele>
        <time>2014-03-24T16:12:48Z</time>
      </trkpt>
      <trkpt lat="42.72718" lon="2.01579">
        <ele>1550.74</ele>
        <time>2014-03-24T16:12:56Z</time>
      </trkpt>
      <trkpt lat="42.72728" lon="2.01594">
        <ele>1546.9</ele>
        <time>2014-03-24T16:12:58Z</time>
      </trkpt>
      <trkpt lat="42.72736" lon="2.01611">
        <ele>1544.01</ele>
        <time>2014-03-24T16:13:00Z</time>
      </trkpt>
      <trkpt lat="42.72739" lon="2.01627">
        <ele>1541.13</ele>
        <time>2014-03-24T16:13:02Z</time>
      </trkpt>
      <trkpt lat="42.72764" lon="2.01659">
        <ele>1535.36</ele>
        <time>2014-03-24T16:13:09Z</time>
      </trkpt>
      <trkpt lat="42.72772" lon="2.01669">
        <ele>1534.88</ele>
        <time>2014-03-24T16:13:12Z</time>
      </trkpt>
      <trkpt lat="42.72778" lon="2.01673">
        <ele>1534.88</ele>
        <time>2014-03-24T16:13:16Z</time>
      </trkpt>
      <trkpt lat="42.72784" lon="2.01679">
        <ele>1534.88</ele>
        <time>2014-03-24T16:13:29Z</time>
      </trkpt>
      <trkpt lat="42.72784" lon="2.01679">
        <ele>1533.92</ele>
        <time>2014-03-24T16:13:45Z</time>
      </trkpt>
    </trkseg>
  </trk>
</gpx>